<?xml version="1.0" encoding="UTF-8" standalone="no" ?>
<gpx xmlns="http://www.topografix.com/GPX/1/1" xmlns:xsi="http://www.w3.org/2001/XMLSchema-instance" xsi:schemaLocation="http://www.topografix.com/GPX/1/1 http://www.topografix.com/GPX/1/1/gpx.xsd" version="1.1" creator="VisuGPX - https://www.visugpx.com">
  <metadata>
    <name>la croisée des monts 2014</name>
    <desc><![CDATA[le grand parcour ensoleille ]]></desc>
  </metadata>
  <trk>
    <name><![CDATA[la croisée des monts 2014_1]]></name>
    <trkseg>
      <trkpt lat="45.65782" lon="4.55613">
        <ele>606.4</ele>
        <time>2014-05-01T05:32:38Z</time>
      </trkpt>
      <trkpt lat="45.65767" lon="4.5562">
        <ele>606.7</ele>
        <time>2014-05-01T05:33:08Z</time>
      </trkpt>
      <trkpt lat="45.65765" lon="4.55615">
        <ele>606.7</ele>
        <time>2014-05-01T05:33:13Z</time>
      </trkpt>
      <trkpt lat="45.6577" lon="4.55617">
        <ele>607.1</ele>
        <time>2014-05-01T05:33:38Z</time>
      </trkpt>
      <trkpt lat="45.65773" lon="4.55607">
        <ele>606.9</ele>
        <time>2014-05-01T05:33:43Z</time>
      </trkpt>
      <trkpt lat="45.65775" lon="4.55597">
        <ele>606.4</ele>
        <time>2014-05-01T05:33:48Z</time>
      </trkpt>
      <trkpt lat="45.65778" lon="4.55588">
        <ele>606.5</ele>
        <time>2014-05-01T05:33:53Z</time>
      </trkpt>
      <trkpt lat="45.6578" lon="4.5558">
        <ele>606.3</ele>
        <time>2014-05-01T05:33:58Z</time>
      </trkpt>
      <trkpt lat="45.65768" lon="4.55578">
        <ele>605.5</ele>
        <time>2014-05-01T05:34:03Z</time>
      </trkpt>
      <trkpt lat="45.65753" lon="4.55578">
        <ele>605.2</ele>
        <time>2014-05-01T05:34:08Z</time>
      </trkpt>
      <trkpt lat="45.65738" lon="4.55577">
        <ele>604.9</ele>
        <time>2014-05-01T05:34:13Z</time>
      </trkpt>
      <trkpt lat="45.65723" lon="4.55577">
        <ele>604.4</ele>
        <time>2014-05-01T05:34:18Z</time>
      </trkpt>
      <trkpt lat="45.65713" lon="4.55577">
        <ele>605.4</ele>
        <time>2014-05-01T05:34:23Z</time>
      </trkpt>
      <trkpt lat="45.657" lon="4.55572">
        <ele>604.9</ele>
        <time>2014-05-01T05:34:28Z</time>
      </trkpt>
      <trkpt lat="45.65702" lon="4.55557">
        <ele>605.9</ele>
        <time>2014-05-01T05:34:33Z</time>
      </trkpt>
      <trkpt lat="45.65713" lon="4.55537">
        <ele>606</ele>
        <time>2014-05-01T05:34:38Z</time>
      </trkpt>
      <trkpt lat="45.6572" lon="4.55513">
        <ele>604.4</ele>
        <time>2014-05-01T05:34:43Z</time>
      </trkpt>
      <trkpt lat="45.65708" lon="4.55495">
        <ele>604.1</ele>
        <time>2014-05-01T05:34:48Z</time>
      </trkpt>
      <trkpt lat="45.65692" lon="4.5547">
        <ele>602.2</ele>
        <time>2014-05-01T05:34:53Z</time>
      </trkpt>
      <trkpt lat="45.65677" lon="4.5544">
        <ele>601.7</ele>
        <time>2014-05-01T05:34:58Z</time>
      </trkpt>
      <trkpt lat="45.65665" lon="4.55408">
        <ele>600.9</ele>
        <time>2014-05-01T05:35:03Z</time>
      </trkpt>
      <trkpt lat="45.65655" lon="4.55378">
        <ele>600.3</ele>
        <time>2014-05-01T05:35:08Z</time>
      </trkpt>
      <trkpt lat="45.6564" lon="4.55353">
        <ele>600.2</ele>
        <time>2014-05-01T05:35:13Z</time>
      </trkpt>
      <trkpt lat="45.65625" lon="4.5533">
        <ele>600.4</ele>
        <time>2014-05-01T05:35:18Z</time>
      </trkpt>
      <trkpt lat="45.65608" lon="4.55308">
        <ele>600.7</ele>
        <time>2014-05-01T05:35:23Z</time>
      </trkpt>
      <trkpt lat="45.65593" lon="4.55285">
        <ele>600.3</ele>
        <time>2014-05-01T05:35:28Z</time>
      </trkpt>
      <trkpt lat="45.65578" lon="4.55265">
        <ele>600.3</ele>
        <time>2014-05-01T05:35:33Z</time>
      </trkpt>
      <trkpt lat="45.65558" lon="4.55252">
        <ele>600.2</ele>
        <time>2014-05-01T05:35:38Z</time>
      </trkpt>
      <trkpt lat="45.65538" lon="4.55242">
        <ele>600.9</ele>
        <time>2014-05-01T05:35:43Z</time>
      </trkpt>
      <trkpt lat="45.65518" lon="4.55233">
        <ele>600.8</ele>
        <time>2014-05-01T05:35:48Z</time>
      </trkpt>
      <trkpt lat="45.65493" lon="4.55225">
        <ele>601</ele>
        <time>2014-05-01T05:35:53Z</time>
      </trkpt>
      <trkpt lat="45.65465" lon="4.55218">
        <ele>597.9</ele>
        <time>2014-05-01T05:35:58Z</time>
      </trkpt>
      <trkpt lat="45.65438" lon="4.55213">
        <ele>596.6</ele>
        <time>2014-05-01T05:36:03Z</time>
      </trkpt>
      <trkpt lat="45.65417" lon="4.55203">
        <ele>597.6</ele>
        <time>2014-05-01T05:36:08Z</time>
      </trkpt>
      <trkpt lat="45.654" lon="4.55185">
        <ele>597.8</ele>
        <time>2014-05-01T05:36:13Z</time>
      </trkpt>
      <trkpt lat="45.65392" lon="4.5517">
        <ele>600</ele>
        <time>2014-05-01T05:36:18Z</time>
      </trkpt>
      <trkpt lat="45.65387" lon="4.55158">
        <ele>601.3</ele>
        <time>2014-05-01T05:36:23Z</time>
      </trkpt>
      <trkpt lat="45.6538" lon="4.55147">
        <ele>602.2</ele>
        <time>2014-05-01T05:36:28Z</time>
      </trkpt>
      <trkpt lat="45.65373" lon="4.55137">
        <ele>604.2</ele>
        <time>2014-05-01T05:36:33Z</time>
      </trkpt>
      <trkpt lat="45.65368" lon="4.55127">
        <ele>606.2</ele>
        <time>2014-05-01T05:36:38Z</time>
      </trkpt>
      <trkpt lat="45.65365" lon="4.55115">
        <ele>606.9</ele>
        <time>2014-05-01T05:36:43Z</time>
      </trkpt>
      <trkpt lat="45.6536" lon="4.55108">
        <ele>607.5</ele>
        <time>2014-05-01T05:36:48Z</time>
      </trkpt>
      <trkpt lat="45.65355" lon="4.55098">
        <ele>610.6</ele>
        <time>2014-05-01T05:36:53Z</time>
      </trkpt>
      <trkpt lat="45.65348" lon="4.55093">
        <ele>611.3</ele>
        <time>2014-05-01T05:36:58Z</time>
      </trkpt>
      <trkpt lat="45.65342" lon="4.55088">
        <ele>612.7</ele>
        <time>2014-05-01T05:37:03Z</time>
      </trkpt>
      <trkpt lat="45.65337" lon="4.5508">
        <ele>614.7</ele>
        <time>2014-05-01T05:37:08Z</time>
      </trkpt>
      <trkpt lat="45.65332" lon="4.5507">
        <ele>615.1</ele>
        <time>2014-05-01T05:37:13Z</time>
      </trkpt>
      <trkpt lat="45.65327" lon="4.5506">
        <ele>616.7</ele>
        <time>2014-05-01T05:37:18Z</time>
      </trkpt>
      <trkpt lat="45.65322" lon="4.5505">
        <ele>618.1</ele>
        <time>2014-05-01T05:37:23Z</time>
      </trkpt>
      <trkpt lat="45.65317" lon="4.55042">
        <ele>619.7</ele>
        <time>2014-05-01T05:37:28Z</time>
      </trkpt>
      <trkpt lat="45.6531" lon="4.55032">
        <ele>620.3</ele>
        <time>2014-05-01T05:37:33Z</time>
      </trkpt>
      <trkpt lat="45.65303" lon="4.55022">
        <ele>619.9</ele>
        <time>2014-05-01T05:37:38Z</time>
      </trkpt>
      <trkpt lat="45.65298" lon="4.55015">
        <ele>621.1</ele>
        <time>2014-05-01T05:37:43Z</time>
      </trkpt>
      <trkpt lat="45.65292" lon="4.55007">
        <ele>622.7</ele>
        <time>2014-05-01T05:37:48Z</time>
      </trkpt>
      <trkpt lat="45.65287" lon="4.54997">
        <ele>623</ele>
        <time>2014-05-01T05:37:53Z</time>
      </trkpt>
      <trkpt lat="45.65282" lon="4.54988">
        <ele>624.2</ele>
        <time>2014-05-01T05:37:58Z</time>
      </trkpt>
      <trkpt lat="45.65277" lon="4.5498">
        <ele>625.5</ele>
        <time>2014-05-01T05:38:03Z</time>
      </trkpt>
      <trkpt lat="45.6527" lon="4.5497">
        <ele>626.5</ele>
        <time>2014-05-01T05:38:08Z</time>
      </trkpt>
      <trkpt lat="45.65267" lon="4.54962">
        <ele>627</ele>
        <time>2014-05-01T05:38:13Z</time>
      </trkpt>
      <trkpt lat="45.65262" lon="4.5495">
        <ele>628.1</ele>
        <time>2014-05-01T05:38:18Z</time>
      </trkpt>
      <trkpt lat="45.65257" lon="4.5494">
        <ele>628.8</ele>
        <time>2014-05-01T05:38:23Z</time>
      </trkpt>
      <trkpt lat="45.65248" lon="4.54937">
        <ele>629.8</ele>
        <time>2014-05-01T05:38:28Z</time>
      </trkpt>
      <trkpt lat="45.65242" lon="4.54943">
        <ele>630.8</ele>
        <time>2014-05-01T05:38:33Z</time>
      </trkpt>
      <trkpt lat="45.65235" lon="4.54952">
        <ele>631.8</ele>
        <time>2014-05-01T05:38:38Z</time>
      </trkpt>
      <trkpt lat="45.6523" lon="4.54958">
        <ele>632.9</ele>
        <time>2014-05-01T05:38:43Z</time>
      </trkpt>
      <trkpt lat="45.65223" lon="4.54965">
        <ele>633.3</ele>
        <time>2014-05-01T05:38:48Z</time>
      </trkpt>
      <trkpt lat="45.65217" lon="4.54972">
        <ele>635</ele>
        <time>2014-05-01T05:38:53Z</time>
      </trkpt>
      <trkpt lat="45.65212" lon="4.54978">
        <ele>636.1</ele>
        <time>2014-05-01T05:38:58Z</time>
      </trkpt>
      <trkpt lat="45.65205" lon="4.54987">
        <ele>635.9</ele>
        <time>2014-05-01T05:39:03Z</time>
      </trkpt>
      <trkpt lat="45.65197" lon="4.54997">
        <ele>637.3</ele>
        <time>2014-05-01T05:39:08Z</time>
      </trkpt>
      <trkpt lat="45.65188" lon="4.55007">
        <ele>637.9</ele>
        <time>2014-05-01T05:39:13Z</time>
      </trkpt>
      <trkpt lat="45.6518" lon="4.55017">
        <ele>639</ele>
        <time>2014-05-01T05:39:18Z</time>
      </trkpt>
      <trkpt lat="45.6517" lon="4.55027">
        <ele>638.6</ele>
        <time>2014-05-01T05:39:23Z</time>
      </trkpt>
      <trkpt lat="45.6516" lon="4.55037">
        <ele>639.4</ele>
        <time>2014-05-01T05:39:28Z</time>
      </trkpt>
      <trkpt lat="45.65148" lon="4.55045">
        <ele>639.9</ele>
        <time>2014-05-01T05:39:33Z</time>
      </trkpt>
      <trkpt lat="45.65135" lon="4.55053">
        <ele>640.4</ele>
        <time>2014-05-01T05:39:38Z</time>
      </trkpt>
      <trkpt lat="45.65125" lon="4.55062">
        <ele>641</ele>
        <time>2014-05-01T05:39:43Z</time>
      </trkpt>
      <trkpt lat="45.65115" lon="4.55067">
        <ele>642.2</ele>
        <time>2014-05-01T05:39:48Z</time>
      </trkpt>
      <trkpt lat="45.65105" lon="4.55075">
        <ele>642.2</ele>
        <time>2014-05-01T05:39:53Z</time>
      </trkpt>
      <trkpt lat="45.65095" lon="4.55082">
        <ele>643.4</ele>
        <time>2014-05-01T05:39:58Z</time>
      </trkpt>
      <trkpt lat="45.65085" lon="4.55088">
        <ele>643.6</ele>
        <time>2014-05-01T05:40:03Z</time>
      </trkpt>
      <trkpt lat="45.65073" lon="4.55095">
        <ele>645</ele>
        <time>2014-05-01T05:40:08Z</time>
      </trkpt>
      <trkpt lat="45.65063" lon="4.551">
        <ele>644.2</ele>
        <time>2014-05-01T05:40:13Z</time>
      </trkpt>
      <trkpt lat="45.65053" lon="4.55107">
        <ele>645.9</ele>
        <time>2014-05-01T05:40:18Z</time>
      </trkpt>
      <trkpt lat="45.65045" lon="4.55113">
        <ele>646</ele>
        <time>2014-05-01T05:40:23Z</time>
      </trkpt>
      <trkpt lat="45.65037" lon="4.55122">
        <ele>647.6</ele>
        <time>2014-05-01T05:40:28Z</time>
      </trkpt>
      <trkpt lat="45.65028" lon="4.55128">
        <ele>647.2</ele>
        <time>2014-05-01T05:40:33Z</time>
      </trkpt>
      <trkpt lat="45.6502" lon="4.55137">
        <ele>649</ele>
        <time>2014-05-01T05:40:38Z</time>
      </trkpt>
      <trkpt lat="45.65012" lon="4.55145">
        <ele>649.1</ele>
        <time>2014-05-01T05:40:43Z</time>
      </trkpt>
      <trkpt lat="45.65003" lon="4.55153">
        <ele>649.5</ele>
        <time>2014-05-01T05:40:48Z</time>
      </trkpt>
      <trkpt lat="45.64997" lon="4.55162">
        <ele>651</ele>
        <time>2014-05-01T05:40:53Z</time>
      </trkpt>
      <trkpt lat="45.64988" lon="4.55168">
        <ele>652.2</ele>
        <time>2014-05-01T05:40:58Z</time>
      </trkpt>
      <trkpt lat="45.64982" lon="4.55177">
        <ele>653.7</ele>
        <time>2014-05-01T05:41:03Z</time>
      </trkpt>
      <trkpt lat="45.64982" lon="4.55187">
        <ele>654.6</ele>
        <time>2014-05-01T05:41:08Z</time>
      </trkpt>
      <trkpt lat="45.64987" lon="4.552">
        <ele>655.7</ele>
        <time>2014-05-01T05:41:13Z</time>
      </trkpt>
      <trkpt lat="45.64992" lon="4.55215">
        <ele>656.3</ele>
        <time>2014-05-01T05:41:18Z</time>
      </trkpt>
      <trkpt lat="45.65" lon="4.55227">
        <ele>656.8</ele>
        <time>2014-05-01T05:41:23Z</time>
      </trkpt>
      <trkpt lat="45.65013" lon="4.5524">
        <ele>656.8</ele>
        <time>2014-05-01T05:41:28Z</time>
      </trkpt>
      <trkpt lat="45.65032" lon="4.55258">
        <ele>652.2</ele>
        <time>2014-05-01T05:41:33Z</time>
      </trkpt>
      <trkpt lat="45.65052" lon="4.55288">
        <ele>652.7</ele>
        <time>2014-05-01T05:41:38Z</time>
      </trkpt>
      <trkpt lat="45.65062" lon="4.55325">
        <ele>651.2</ele>
        <time>2014-05-01T05:41:43Z</time>
      </trkpt>
      <trkpt lat="45.65072" lon="4.55357">
        <ele>652.3</ele>
        <time>2014-05-01T05:41:48Z</time>
      </trkpt>
      <trkpt lat="45.65088" lon="4.55388">
        <ele>652.3</ele>
        <time>2014-05-01T05:41:53Z</time>
      </trkpt>
      <trkpt lat="45.65108" lon="4.55415">
        <ele>652.4</ele>
        <time>2014-05-01T05:41:58Z</time>
      </trkpt>
      <trkpt lat="45.65137" lon="4.55438">
        <ele>651.5</ele>
        <time>2014-05-01T05:42:03Z</time>
      </trkpt>
      <trkpt lat="45.6517" lon="4.55458">
        <ele>649.4</ele>
        <time>2014-05-01T05:42:08Z</time>
      </trkpt>
      <trkpt lat="45.65198" lon="4.55472">
        <ele>649.7</ele>
        <time>2014-05-01T05:42:13Z</time>
      </trkpt>
      <trkpt lat="45.65232" lon="4.55488">
        <ele>647.6</ele>
        <time>2014-05-01T05:42:18Z</time>
      </trkpt>
      <trkpt lat="45.65258" lon="4.55518">
        <ele>650.3</ele>
        <time>2014-05-01T05:42:23Z</time>
      </trkpt>
      <trkpt lat="45.65278" lon="4.55545">
        <ele>649</ele>
        <time>2014-05-01T05:42:28Z</time>
      </trkpt>
      <trkpt lat="45.65298" lon="4.5557">
        <ele>650.5</ele>
        <time>2014-05-01T05:42:33Z</time>
      </trkpt>
      <trkpt lat="45.65313" lon="4.55597">
        <ele>650.3</ele>
        <time>2014-05-01T05:42:38Z</time>
      </trkpt>
      <trkpt lat="45.65327" lon="4.55623">
        <ele>652</ele>
        <time>2014-05-01T05:42:43Z</time>
      </trkpt>
      <trkpt lat="45.65338" lon="4.55648">
        <ele>652.6</ele>
        <time>2014-05-01T05:42:48Z</time>
      </trkpt>
      <trkpt lat="45.65352" lon="4.5567">
        <ele>653.8</ele>
        <time>2014-05-01T05:42:53Z</time>
      </trkpt>
      <trkpt lat="45.65367" lon="4.55688">
        <ele>655.5</ele>
        <time>2014-05-01T05:42:58Z</time>
      </trkpt>
      <trkpt lat="45.65378" lon="4.55705">
        <ele>655.4</ele>
        <time>2014-05-01T05:43:03Z</time>
      </trkpt>
      <trkpt lat="45.65387" lon="4.55722">
        <ele>656.5</ele>
        <time>2014-05-01T05:43:08Z</time>
      </trkpt>
      <trkpt lat="45.65385" lon="4.55732">
        <ele>657.2</ele>
        <time>2014-05-01T05:43:13Z</time>
      </trkpt>
      <trkpt lat="45.65375" lon="4.55732">
        <ele>658.5</ele>
        <time>2014-05-01T05:43:18Z</time>
      </trkpt>
      <trkpt lat="45.65365" lon="4.55733">
        <ele>658.9</ele>
        <time>2014-05-01T05:43:23Z</time>
      </trkpt>
      <trkpt lat="45.65357" lon="4.55737">
        <ele>659.5</ele>
        <time>2014-05-01T05:43:28Z</time>
      </trkpt>
      <trkpt lat="45.65348" lon="4.55742">
        <ele>661.8</ele>
        <time>2014-05-01T05:43:33Z</time>
      </trkpt>
      <trkpt lat="45.65338" lon="4.55745">
        <ele>662.7</ele>
        <time>2014-05-01T05:43:38Z</time>
      </trkpt>
      <trkpt lat="45.6533" lon="4.55745">
        <ele>663.8</ele>
        <time>2014-05-01T05:43:43Z</time>
      </trkpt>
      <trkpt lat="45.65322" lon="4.55745">
        <ele>665.3</ele>
        <time>2014-05-01T05:43:48Z</time>
      </trkpt>
      <trkpt lat="45.65313" lon="4.55745">
        <ele>667.4</ele>
        <time>2014-05-01T05:43:53Z</time>
      </trkpt>
      <trkpt lat="45.65305" lon="4.55743">
        <ele>667.7</ele>
        <time>2014-05-01T05:43:58Z</time>
      </trkpt>
      <trkpt lat="45.65297" lon="4.55743">
        <ele>669.6</ele>
        <time>2014-05-01T05:44:03Z</time>
      </trkpt>
      <trkpt lat="45.65285" lon="4.55742">
        <ele>670.6</ele>
        <time>2014-05-01T05:44:08Z</time>
      </trkpt>
      <trkpt lat="45.65273" lon="4.55738">
        <ele>672.3</ele>
        <time>2014-05-01T05:44:13Z</time>
      </trkpt>
      <trkpt lat="45.65262" lon="4.55732">
        <ele>673.4</ele>
        <time>2014-05-01T05:44:18Z</time>
      </trkpt>
      <trkpt lat="45.65252" lon="4.55728">
        <ele>675</ele>
        <time>2014-05-01T05:44:23Z</time>
      </trkpt>
      <trkpt lat="45.65238" lon="4.55725">
        <ele>675</ele>
        <time>2014-05-01T05:44:28Z</time>
      </trkpt>
      <trkpt lat="45.65227" lon="4.55722">
        <ele>676</ele>
        <time>2014-05-01T05:44:33Z</time>
      </trkpt>
      <trkpt lat="45.65215" lon="4.55717">
        <ele>677.7</ele>
        <time>2014-05-01T05:44:38Z</time>
      </trkpt>
      <trkpt lat="45.65202" lon="4.55713">
        <ele>679.1</ele>
        <time>2014-05-01T05:44:43Z</time>
      </trkpt>
      <trkpt lat="45.65187" lon="4.55713">
        <ele>678.3</ele>
        <time>2014-05-01T05:44:48Z</time>
      </trkpt>
      <trkpt lat="45.65173" lon="4.55713">
        <ele>679.8</ele>
        <time>2014-05-01T05:44:53Z</time>
      </trkpt>
      <trkpt lat="45.6516" lon="4.55713">
        <ele>681</ele>
        <time>2014-05-01T05:44:58Z</time>
      </trkpt>
      <trkpt lat="45.65148" lon="4.55715">
        <ele>681.7</ele>
        <time>2014-05-01T05:45:03Z</time>
      </trkpt>
      <trkpt lat="45.65137" lon="4.55717">
        <ele>682.8</ele>
        <time>2014-05-01T05:45:08Z</time>
      </trkpt>
      <trkpt lat="45.65123" lon="4.55715">
        <ele>682.4</ele>
        <time>2014-05-01T05:45:13Z</time>
      </trkpt>
      <trkpt lat="45.65108" lon="4.55707">
        <ele>682.7</ele>
        <time>2014-05-01T05:45:18Z</time>
      </trkpt>
      <trkpt lat="45.65093" lon="4.557">
        <ele>683.5</ele>
        <time>2014-05-01T05:45:23Z</time>
      </trkpt>
      <trkpt lat="45.65075" lon="4.55697">
        <ele>682.7</ele>
        <time>2014-05-01T05:45:28Z</time>
      </trkpt>
      <trkpt lat="45.65057" lon="4.55693">
        <ele>683.4</ele>
        <time>2014-05-01T05:45:33Z</time>
      </trkpt>
      <trkpt lat="45.65037" lon="4.5569">
        <ele>684</ele>
        <time>2014-05-01T05:45:38Z</time>
      </trkpt>
      <trkpt lat="45.65017" lon="4.55687">
        <ele>684</ele>
        <time>2014-05-01T05:45:43Z</time>
      </trkpt>
      <trkpt lat="45.64997" lon="4.55682">
        <ele>684.6</ele>
        <time>2014-05-01T05:45:48Z</time>
      </trkpt>
      <trkpt lat="45.64977" lon="4.55677">
        <ele>684.4</ele>
        <time>2014-05-01T05:45:53Z</time>
      </trkpt>
      <trkpt lat="45.64955" lon="4.55672">
        <ele>684.8</ele>
        <time>2014-05-01T05:45:58Z</time>
      </trkpt>
      <trkpt lat="45.64933" lon="4.55667">
        <ele>684.7</ele>
        <time>2014-05-01T05:46:03Z</time>
      </trkpt>
      <trkpt lat="45.64913" lon="4.55658">
        <ele>684.7</ele>
        <time>2014-05-01T05:46:08Z</time>
      </trkpt>
      <trkpt lat="45.64893" lon="4.55652">
        <ele>685.1</ele>
        <time>2014-05-01T05:46:13Z</time>
      </trkpt>
      <trkpt lat="45.64875" lon="4.55645">
        <ele>683.2</ele>
        <time>2014-05-01T05:46:18Z</time>
      </trkpt>
      <trkpt lat="45.64855" lon="4.55632">
        <ele>684.3</ele>
        <time>2014-05-01T05:46:23Z</time>
      </trkpt>
      <trkpt lat="45.64833" lon="4.55615">
        <ele>681.2</ele>
        <time>2014-05-01T05:46:28Z</time>
      </trkpt>
      <trkpt lat="45.64812" lon="4.55595">
        <ele>683.2</ele>
        <time>2014-05-01T05:46:33Z</time>
      </trkpt>
      <trkpt lat="45.64785" lon="4.5558">
        <ele>682.4</ele>
        <time>2014-05-01T05:46:38Z</time>
      </trkpt>
      <trkpt lat="45.64757" lon="4.55575">
        <ele>679.6</ele>
        <time>2014-05-01T05:46:43Z</time>
      </trkpt>
      <trkpt lat="45.64722" lon="4.55582">
        <ele>679.6</ele>
        <time>2014-05-01T05:46:48Z</time>
      </trkpt>
      <trkpt lat="45.64685" lon="4.55592">
        <ele>677.3</ele>
        <time>2014-05-01T05:46:53Z</time>
      </trkpt>
      <trkpt lat="45.64648" lon="4.55598">
        <ele>676.7</ele>
        <time>2014-05-01T05:46:58Z</time>
      </trkpt>
      <trkpt lat="45.64612" lon="4.55597">
        <ele>671.7</ele>
        <time>2014-05-01T05:47:03Z</time>
      </trkpt>
      <trkpt lat="45.64577" lon="4.55598">
        <ele>671.1</ele>
        <time>2014-05-01T05:47:08Z</time>
      </trkpt>
      <trkpt lat="45.64572" lon="4.55562">
        <ele>670.5</ele>
        <time>2014-05-01T05:47:13Z</time>
      </trkpt>
      <trkpt lat="45.64577" lon="4.55522">
        <ele>670.8</ele>
        <time>2014-05-01T05:47:18Z</time>
      </trkpt>
      <trkpt lat="45.64582" lon="4.55482">
        <ele>670</ele>
        <time>2014-05-01T05:47:23Z</time>
      </trkpt>
      <trkpt lat="45.64588" lon="4.55442">
        <ele>669.6</ele>
        <time>2014-05-01T05:47:28Z</time>
      </trkpt>
      <trkpt lat="45.64593" lon="4.55397">
        <ele>670.1</ele>
        <time>2014-05-01T05:47:33Z</time>
      </trkpt>
      <trkpt lat="45.64593" lon="4.55355">
        <ele>669.4</ele>
        <time>2014-05-01T05:47:38Z</time>
      </trkpt>
      <trkpt lat="45.6459" lon="4.5531">
        <ele>669</ele>
        <time>2014-05-01T05:47:43Z</time>
      </trkpt>
      <trkpt lat="45.64585" lon="4.55273">
        <ele>669</ele>
        <time>2014-05-01T05:47:48Z</time>
      </trkpt>
      <trkpt lat="45.64582" lon="4.55238">
        <ele>668</ele>
        <time>2014-05-01T05:47:53Z</time>
      </trkpt>
      <trkpt lat="45.64578" lon="4.55208">
        <ele>670.5</ele>
        <time>2014-05-01T05:47:58Z</time>
      </trkpt>
      <trkpt lat="45.64568" lon="4.55185">
        <ele>668.9</ele>
        <time>2014-05-01T05:48:03Z</time>
      </trkpt>
      <trkpt lat="45.64558" lon="4.55158">
        <ele>670.4</ele>
        <time>2014-05-01T05:48:08Z</time>
      </trkpt>
      <trkpt lat="45.64553" lon="4.5512">
        <ele>669.4</ele>
        <time>2014-05-01T05:48:13Z</time>
      </trkpt>
      <trkpt lat="45.64557" lon="4.55093">
        <ele>668.8</ele>
        <time>2014-05-01T05:48:18Z</time>
      </trkpt>
      <trkpt lat="45.64557" lon="4.55062">
        <ele>666.3</ele>
        <time>2014-05-01T05:48:23Z</time>
      </trkpt>
      <trkpt lat="45.64543" lon="4.55023">
        <ele>661.7</ele>
        <time>2014-05-01T05:48:28Z</time>
      </trkpt>
      <trkpt lat="45.64523" lon="4.55013">
        <ele>658.2</ele>
        <time>2014-05-01T05:48:33Z</time>
      </trkpt>
      <trkpt lat="45.64518" lon="4.5498">
        <ele>658.5</ele>
        <time>2014-05-01T05:48:38Z</time>
      </trkpt>
      <trkpt lat="45.64522" lon="4.54937">
        <ele>657.6</ele>
        <time>2014-05-01T05:48:43Z</time>
      </trkpt>
      <trkpt lat="45.64523" lon="4.54893">
        <ele>655.6</ele>
        <time>2014-05-01T05:48:48Z</time>
      </trkpt>
      <trkpt lat="45.64518" lon="4.54852">
        <ele>655.5</ele>
        <time>2014-05-01T05:48:53Z</time>
      </trkpt>
      <trkpt lat="45.6452" lon="4.54812">
        <ele>654.8</ele>
        <time>2014-05-01T05:48:58Z</time>
      </trkpt>
      <trkpt lat="45.64513" lon="4.5477">
        <ele>654.9</ele>
        <time>2014-05-01T05:49:03Z</time>
      </trkpt>
      <trkpt lat="45.64505" lon="4.54713">
        <ele>653.2</ele>
        <time>2014-05-01T05:49:08Z</time>
      </trkpt>
      <trkpt lat="45.64505" lon="4.54662">
        <ele>652.2</ele>
        <time>2014-05-01T05:49:13Z</time>
      </trkpt>
      <trkpt lat="45.64503" lon="4.54605">
        <ele>648.4</ele>
        <time>2014-05-01T05:49:18Z</time>
      </trkpt>
      <trkpt lat="45.64505" lon="4.5454">
        <ele>641.8</ele>
        <time>2014-05-01T05:49:23Z</time>
      </trkpt>
      <trkpt lat="45.64533" lon="4.54483">
        <ele>637.6</ele>
        <time>2014-05-01T05:49:28Z</time>
      </trkpt>
      <trkpt lat="45.64543" lon="4.54445">
        <ele>637.1</ele>
        <time>2014-05-01T05:49:33Z</time>
      </trkpt>
      <trkpt lat="45.6455" lon="4.54408">
        <ele>635.1</ele>
        <time>2014-05-01T05:49:38Z</time>
      </trkpt>
      <trkpt lat="45.64547" lon="4.54365">
        <ele>630.9</ele>
        <time>2014-05-01T05:49:43Z</time>
      </trkpt>
      <trkpt lat="45.64542" lon="4.54322">
        <ele>628.8</ele>
        <time>2014-05-01T05:49:48Z</time>
      </trkpt>
      <trkpt lat="45.6453" lon="4.54282">
        <ele>621.8</ele>
        <time>2014-05-01T05:49:53Z</time>
      </trkpt>
      <trkpt lat="45.64532" lon="4.54243">
        <ele>620.4</ele>
        <time>2014-05-01T05:49:58Z</time>
      </trkpt>
      <trkpt lat="45.64542" lon="4.54208">
        <ele>617.3</ele>
        <time>2014-05-01T05:50:03Z</time>
      </trkpt>
      <trkpt lat="45.64528" lon="4.54173">
        <ele>615.3</ele>
        <time>2014-05-01T05:50:08Z</time>
      </trkpt>
      <trkpt lat="45.64507" lon="4.54137">
        <ele>611</ele>
        <time>2014-05-01T05:50:13Z</time>
      </trkpt>
      <trkpt lat="45.64512" lon="4.54093">
        <ele>605.4</ele>
        <time>2014-05-01T05:50:18Z</time>
      </trkpt>
      <trkpt lat="45.64518" lon="4.54048">
        <ele>606.7</ele>
        <time>2014-05-01T05:50:23Z</time>
      </trkpt>
      <trkpt lat="45.64517" lon="4.54015">
        <ele>602.6</ele>
        <time>2014-05-01T05:50:28Z</time>
      </trkpt>
      <trkpt lat="45.64507" lon="4.53987">
        <ele>601.9</ele>
        <time>2014-05-01T05:50:33Z</time>
      </trkpt>
      <trkpt lat="45.64488" lon="4.53948">
        <ele>599.4</ele>
        <time>2014-05-01T05:50:38Z</time>
      </trkpt>
      <trkpt lat="45.64477" lon="4.53905">
        <ele>596.6</ele>
        <time>2014-05-01T05:50:43Z</time>
      </trkpt>
      <trkpt lat="45.64472" lon="4.53867">
        <ele>587.5</ele>
        <time>2014-05-01T05:50:48Z</time>
      </trkpt>
      <trkpt lat="45.64455" lon="4.53837">
        <ele>584.5</ele>
        <time>2014-05-01T05:50:53Z</time>
      </trkpt>
      <trkpt lat="45.64435" lon="4.53825">
        <ele>583</ele>
        <time>2014-05-01T05:50:58Z</time>
      </trkpt>
      <trkpt lat="45.64427" lon="4.538">
        <ele>574.4</ele>
        <time>2014-05-01T05:51:03Z</time>
      </trkpt>
      <trkpt lat="45.6442" lon="4.53777">
        <ele>566.9</ele>
        <time>2014-05-01T05:51:08Z</time>
      </trkpt>
      <trkpt lat="45.64407" lon="4.53755">
        <ele>564.6</ele>
        <time>2014-05-01T05:51:13Z</time>
      </trkpt>
      <trkpt lat="45.644" lon="4.53728">
        <ele>556.8</ele>
        <time>2014-05-01T05:51:18Z</time>
      </trkpt>
      <trkpt lat="45.64398" lon="4.53698">
        <ele>555.4</ele>
        <time>2014-05-01T05:51:23Z</time>
      </trkpt>
      <trkpt lat="45.64407" lon="4.53673">
        <ele>552.1</ele>
        <time>2014-05-01T05:51:28Z</time>
      </trkpt>
      <trkpt lat="45.64413" lon="4.53662">
        <ele>552</ele>
        <time>2014-05-01T05:51:33Z</time>
      </trkpt>
      <trkpt lat="45.64407" lon="4.53635">
        <ele>548.6</ele>
        <time>2014-05-01T05:51:38Z</time>
      </trkpt>
      <trkpt lat="45.64382" lon="4.53582">
        <ele>542.3</ele>
        <time>2014-05-01T05:51:43Z</time>
      </trkpt>
      <trkpt lat="45.64357" lon="4.53543">
        <ele>539.6</ele>
        <time>2014-05-01T05:51:48Z</time>
      </trkpt>
      <trkpt lat="45.64318" lon="4.53532">
        <ele>535</ele>
        <time>2014-05-01T05:51:53Z</time>
      </trkpt>
      <trkpt lat="45.6428" lon="4.53512">
        <ele>531.7</ele>
        <time>2014-05-01T05:51:58Z</time>
      </trkpt>
      <trkpt lat="45.64243" lon="4.5352">
        <ele>529.2</ele>
        <time>2014-05-01T05:52:03Z</time>
      </trkpt>
      <trkpt lat="45.64207" lon="4.53528">
        <ele>526.9</ele>
        <time>2014-05-01T05:52:08Z</time>
      </trkpt>
      <trkpt lat="45.64177" lon="4.53522">
        <ele>525.8</ele>
        <time>2014-05-01T05:52:13Z</time>
      </trkpt>
      <trkpt lat="45.64165" lon="4.53533">
        <ele>526.7</ele>
        <time>2014-05-01T05:52:18Z</time>
      </trkpt>
      <trkpt lat="45.64158" lon="4.53543">
        <ele>528.3</ele>
        <time>2014-05-01T05:52:23Z</time>
      </trkpt>
      <trkpt lat="45.64157" lon="4.53548">
        <ele>529.7</ele>
        <time>2014-05-01T05:52:28Z</time>
      </trkpt>
      <trkpt lat="45.64153" lon="4.53557">
        <ele>530.4</ele>
        <time>2014-05-01T05:52:33Z</time>
      </trkpt>
      <trkpt lat="45.64153" lon="4.5357">
        <ele>532</ele>
        <time>2014-05-01T05:52:38Z</time>
      </trkpt>
      <trkpt lat="45.64148" lon="4.5358">
        <ele>533.9</ele>
        <time>2014-05-01T05:52:43Z</time>
      </trkpt>
      <trkpt lat="45.64147" lon="4.53588">
        <ele>534.7</ele>
        <time>2014-05-01T05:52:48Z</time>
      </trkpt>
      <trkpt lat="45.64143" lon="4.53597">
        <ele>535.8</ele>
        <time>2014-05-01T05:52:53Z</time>
      </trkpt>
      <trkpt lat="45.64142" lon="4.53605">
        <ele>537.3</ele>
        <time>2014-05-01T05:52:58Z</time>
      </trkpt>
      <trkpt lat="45.64138" lon="4.53612">
        <ele>539.6</ele>
        <time>2014-05-01T05:53:03Z</time>
      </trkpt>
      <trkpt lat="45.64138" lon="4.53623">
        <ele>540.9</ele>
        <time>2014-05-01T05:53:08Z</time>
      </trkpt>
      <trkpt lat="45.64138" lon="4.53633">
        <ele>543.6</ele>
        <time>2014-05-01T05:53:13Z</time>
      </trkpt>
      <trkpt lat="45.64138" lon="4.53637">
        <ele>544.3</ele>
        <time>2014-05-01T05:53:18Z</time>
      </trkpt>
      <trkpt lat="45.64137" lon="4.53642">
        <ele>544.7</ele>
        <time>2014-05-01T05:53:23Z</time>
      </trkpt>
      <trkpt lat="45.64132" lon="4.53648">
        <ele>546.1</ele>
        <time>2014-05-01T05:53:28Z</time>
      </trkpt>
      <trkpt lat="45.6413" lon="4.53655">
        <ele>547.9</ele>
        <time>2014-05-01T05:53:33Z</time>
      </trkpt>
      <trkpt lat="45.64123" lon="4.53658">
        <ele>548.5</ele>
        <time>2014-05-01T05:53:38Z</time>
      </trkpt>
      <trkpt lat="45.64122" lon="4.5366">
        <ele>549</ele>
        <time>2014-05-01T05:53:43Z</time>
      </trkpt>
      <trkpt lat="45.6412" lon="4.5366">
        <ele>548.7</ele>
        <time>2014-05-01T05:54:03Z</time>
      </trkpt>
      <trkpt lat="45.64117" lon="4.53663">
        <ele>550.2</ele>
        <time>2014-05-01T05:54:08Z</time>
      </trkpt>
      <trkpt lat="45.6411" lon="4.53668">
        <ele>551.5</ele>
        <time>2014-05-01T05:54:13Z</time>
      </trkpt>
      <trkpt lat="45.64107" lon="4.53675">
        <ele>552.3</ele>
        <time>2014-05-01T05:54:18Z</time>
      </trkpt>
      <trkpt lat="45.64102" lon="4.53677">
        <ele>554.1</ele>
        <time>2014-05-01T05:54:23Z</time>
      </trkpt>
      <trkpt lat="45.64092" lon="4.53673">
        <ele>554.6</ele>
        <time>2014-05-01T05:54:28Z</time>
      </trkpt>
      <trkpt lat="45.64083" lon="4.53675">
        <ele>555.8</ele>
        <time>2014-05-01T05:54:33Z</time>
      </trkpt>
      <trkpt lat="45.64073" lon="4.53675">
        <ele>556.6</ele>
        <time>2014-05-01T05:54:38Z</time>
      </trkpt>
      <trkpt lat="45.64068" lon="4.53677">
        <ele>557.8</ele>
        <time>2014-05-01T05:54:43Z</time>
      </trkpt>
      <trkpt lat="45.6406" lon="4.5368">
        <ele>558.9</ele>
        <time>2014-05-01T05:54:48Z</time>
      </trkpt>
      <trkpt lat="45.64053" lon="4.53682">
        <ele>560.9</ele>
        <time>2014-05-01T05:54:53Z</time>
      </trkpt>
      <trkpt lat="45.64047" lon="4.53682">
        <ele>562.1</ele>
        <time>2014-05-01T05:54:58Z</time>
      </trkpt>
      <trkpt lat="45.6404" lon="4.53685">
        <ele>563.2</ele>
        <time>2014-05-01T05:55:03Z</time>
      </trkpt>
      <trkpt lat="45.64033" lon="4.53687">
        <ele>564.4</ele>
        <time>2014-05-01T05:55:08Z</time>
      </trkpt>
      <trkpt lat="45.64027" lon="4.53688">
        <ele>564.9</ele>
        <time>2014-05-01T05:55:13Z</time>
      </trkpt>
      <trkpt lat="45.6402" lon="4.53692">
        <ele>566.2</ele>
        <time>2014-05-01T05:55:18Z</time>
      </trkpt>
      <trkpt lat="45.64012" lon="4.53693">
        <ele>567.7</ele>
        <time>2014-05-01T05:55:23Z</time>
      </trkpt>
      <trkpt lat="45.64005" lon="4.53695">
        <ele>569.3</ele>
        <time>2014-05-01T05:55:28Z</time>
      </trkpt>
      <trkpt lat="45.63998" lon="4.53692">
        <ele>570</ele>
        <time>2014-05-01T05:55:33Z</time>
      </trkpt>
      <trkpt lat="45.63995" lon="4.53692">
        <ele>570.5</ele>
        <time>2014-05-01T05:55:38Z</time>
      </trkpt>
      <trkpt lat="45.6399" lon="4.5369">
        <ele>570.8</ele>
        <time>2014-05-01T05:55:43Z</time>
      </trkpt>
      <trkpt lat="45.6398" lon="4.53687">
        <ele>571.2</ele>
        <time>2014-05-01T05:55:48Z</time>
      </trkpt>
      <trkpt lat="45.63965" lon="4.53682">
        <ele>570.9</ele>
        <time>2014-05-01T05:55:53Z</time>
      </trkpt>
      <trkpt lat="45.6395" lon="4.53677">
        <ele>572.6</ele>
        <time>2014-05-01T05:55:58Z</time>
      </trkpt>
      <trkpt lat="45.63933" lon="4.53667">
        <ele>572.2</ele>
        <time>2014-05-01T05:56:03Z</time>
      </trkpt>
      <trkpt lat="45.63913" lon="4.53655">
        <ele>574.3</ele>
        <time>2014-05-01T05:56:08Z</time>
      </trkpt>
      <trkpt lat="45.63892" lon="4.53645">
        <ele>571.8</ele>
        <time>2014-05-01T05:56:13Z</time>
      </trkpt>
      <trkpt lat="45.63867" lon="4.5364">
        <ele>570.7</ele>
        <time>2014-05-01T05:56:18Z</time>
      </trkpt>
      <trkpt lat="45.63832" lon="4.5363">
        <ele>567.8</ele>
        <time>2014-05-01T05:56:23Z</time>
      </trkpt>
      <trkpt lat="45.63802" lon="4.53622">
        <ele>567.1</ele>
        <time>2014-05-01T05:56:28Z</time>
      </trkpt>
      <trkpt lat="45.63773" lon="4.53613">
        <ele>566.2</ele>
        <time>2014-05-01T05:56:33Z</time>
      </trkpt>
      <trkpt lat="45.63742" lon="4.53617">
        <ele>567.1</ele>
        <time>2014-05-01T05:56:38Z</time>
      </trkpt>
      <trkpt lat="45.63717" lon="4.53618">
        <ele>565.6</ele>
        <time>2014-05-01T05:56:43Z</time>
      </trkpt>
      <trkpt lat="45.637" lon="4.5363">
        <ele>567.4</ele>
        <time>2014-05-01T05:56:48Z</time>
      </trkpt>
      <trkpt lat="45.63685" lon="4.53638">
        <ele>568.3</ele>
        <time>2014-05-01T05:56:53Z</time>
      </trkpt>
      <trkpt lat="45.63672" lon="4.53648">
        <ele>569.6</ele>
        <time>2014-05-01T05:56:58Z</time>
      </trkpt>
      <trkpt lat="45.63658" lon="4.53657">
        <ele>571.2</ele>
        <time>2014-05-01T05:57:03Z</time>
      </trkpt>
      <trkpt lat="45.63647" lon="4.53667">
        <ele>571.7</ele>
        <time>2014-05-01T05:57:08Z</time>
      </trkpt>
      <trkpt lat="45.63633" lon="4.53677">
        <ele>572.6</ele>
        <time>2014-05-01T05:57:13Z</time>
      </trkpt>
      <trkpt lat="45.63622" lon="4.53688">
        <ele>573.4</ele>
        <time>2014-05-01T05:57:18Z</time>
      </trkpt>
      <trkpt lat="45.6361" lon="4.537">
        <ele>573.9</ele>
        <time>2014-05-01T05:57:23Z</time>
      </trkpt>
      <trkpt lat="45.63597" lon="4.53715">
        <ele>574.2</ele>
        <time>2014-05-01T05:57:28Z</time>
      </trkpt>
      <trkpt lat="45.63583" lon="4.53728">
        <ele>574.8</ele>
        <time>2014-05-01T05:57:33Z</time>
      </trkpt>
      <trkpt lat="45.63565" lon="4.5374">
        <ele>574.4</ele>
        <time>2014-05-01T05:57:38Z</time>
      </trkpt>
      <trkpt lat="45.63533" lon="4.53752">
        <ele>571.9</ele>
        <time>2014-05-01T05:57:43Z</time>
      </trkpt>
      <trkpt lat="45.63495" lon="4.53755">
        <ele>571.9</ele>
        <time>2014-05-01T05:57:48Z</time>
      </trkpt>
      <trkpt lat="45.63463" lon="4.5375">
        <ele>570.9</ele>
        <time>2014-05-01T05:57:53Z</time>
      </trkpt>
      <trkpt lat="45.63445" lon="4.53743">
        <ele>574.3</ele>
        <time>2014-05-01T05:57:58Z</time>
      </trkpt>
      <trkpt lat="45.63428" lon="4.53738">
        <ele>575.9</ele>
        <time>2014-05-01T05:58:03Z</time>
      </trkpt>
      <trkpt lat="45.63412" lon="4.53732">
        <ele>576.1</ele>
        <time>2014-05-01T05:58:08Z</time>
      </trkpt>
      <trkpt lat="45.63395" lon="4.5373">
        <ele>577.9</ele>
        <time>2014-05-01T05:58:13Z</time>
      </trkpt>
      <trkpt lat="45.6338" lon="4.53727">
        <ele>577.4</ele>
        <time>2014-05-01T05:58:18Z</time>
      </trkpt>
      <trkpt lat="45.63362" lon="4.5372">
        <ele>577.8</ele>
        <time>2014-05-01T05:58:23Z</time>
      </trkpt>
      <trkpt lat="45.63345" lon="4.53723">
        <ele>579</ele>
        <time>2014-05-01T05:58:28Z</time>
      </trkpt>
      <trkpt lat="45.63337" lon="4.5373">
        <ele>579.5</ele>
        <time>2014-05-01T05:58:33Z</time>
      </trkpt>
      <trkpt lat="45.63332" lon="4.5374">
        <ele>580</ele>
        <time>2014-05-01T05:58:38Z</time>
      </trkpt>
      <trkpt lat="45.6333" lon="4.5375">
        <ele>582.3</ele>
        <time>2014-05-01T05:58:43Z</time>
      </trkpt>
      <trkpt lat="45.63328" lon="4.53763">
        <ele>583.3</ele>
        <time>2014-05-01T05:58:48Z</time>
      </trkpt>
      <trkpt lat="45.6333" lon="4.53777">
        <ele>584.3</ele>
        <time>2014-05-01T05:58:53Z</time>
      </trkpt>
      <trkpt lat="45.63333" lon="4.53788">
        <ele>586.2</ele>
        <time>2014-05-01T05:58:58Z</time>
      </trkpt>
      <trkpt lat="45.63337" lon="4.53797">
        <ele>587.7</ele>
        <time>2014-05-01T05:59:03Z</time>
      </trkpt>
      <trkpt lat="45.63338" lon="4.53807">
        <ele>589.1</ele>
        <time>2014-05-01T05:59:08Z</time>
      </trkpt>
      <trkpt lat="45.63343" lon="4.53815">
        <ele>589.5</ele>
        <time>2014-05-01T05:59:13Z</time>
      </trkpt>
      <trkpt lat="45.63347" lon="4.53823">
        <ele>591.9</ele>
        <time>2014-05-01T05:59:18Z</time>
      </trkpt>
      <trkpt lat="45.63352" lon="4.53832">
        <ele>593.6</ele>
        <time>2014-05-01T05:59:23Z</time>
      </trkpt>
      <trkpt lat="45.63358" lon="4.53838">
        <ele>594.4</ele>
        <time>2014-05-01T05:59:28Z</time>
      </trkpt>
      <trkpt lat="45.63367" lon="4.53845">
        <ele>595.5</ele>
        <time>2014-05-01T05:59:33Z</time>
      </trkpt>
      <trkpt lat="45.63377" lon="4.53852">
        <ele>596.8</ele>
        <time>2014-05-01T05:59:38Z</time>
      </trkpt>
      <trkpt lat="45.63385" lon="4.53858">
        <ele>597.3</ele>
        <time>2014-05-01T05:59:43Z</time>
      </trkpt>
      <trkpt lat="45.63395" lon="4.53868">
        <ele>597.3</ele>
        <time>2014-05-01T05:59:48Z</time>
      </trkpt>
      <trkpt lat="45.63405" lon="4.53878">
        <ele>598.5</ele>
        <time>2014-05-01T05:59:53Z</time>
      </trkpt>
      <trkpt lat="45.63415" lon="4.53887">
        <ele>599.8</ele>
        <time>2014-05-01T05:59:58Z</time>
      </trkpt>
      <trkpt lat="45.63425" lon="4.53893">
        <ele>601.2</ele>
        <time>2014-05-01T06:00:03Z</time>
      </trkpt>
      <trkpt lat="45.63433" lon="4.53903">
        <ele>602.2</ele>
        <time>2014-05-01T06:00:08Z</time>
      </trkpt>
      <trkpt lat="45.63443" lon="4.53912">
        <ele>602.6</ele>
        <time>2014-05-01T06:00:13Z</time>
      </trkpt>
      <trkpt lat="45.6345" lon="4.53923">
        <ele>602.7</ele>
        <time>2014-05-01T06:00:18Z</time>
      </trkpt>
      <trkpt lat="45.6346" lon="4.53935">
        <ele>603</ele>
        <time>2014-05-01T06:00:23Z</time>
      </trkpt>
      <trkpt lat="45.63475" lon="4.53957">
        <ele>600.2</ele>
        <time>2014-05-01T06:00:28Z</time>
      </trkpt>
      <trkpt lat="45.6349" lon="4.53982">
        <ele>600.8</ele>
        <time>2014-05-01T06:00:33Z</time>
      </trkpt>
      <trkpt lat="45.63502" lon="4.54007">
        <ele>598.4</ele>
        <time>2014-05-01T06:00:38Z</time>
      </trkpt>
      <trkpt lat="45.63517" lon="4.54025">
        <ele>599.8</ele>
        <time>2014-05-01T06:00:43Z</time>
      </trkpt>
      <trkpt lat="45.63528" lon="4.54043">
        <ele>600.4</ele>
        <time>2014-05-01T06:00:48Z</time>
      </trkpt>
      <trkpt lat="45.63542" lon="4.54065">
        <ele>601.2</ele>
        <time>2014-05-01T06:00:53Z</time>
      </trkpt>
      <trkpt lat="45.63552" lon="4.54088">
        <ele>601.2</ele>
        <time>2014-05-01T06:00:58Z</time>
      </trkpt>
      <trkpt lat="45.63558" lon="4.54112">
        <ele>602</ele>
        <time>2014-05-01T06:01:03Z</time>
      </trkpt>
      <trkpt lat="45.63563" lon="4.54135">
        <ele>602.5</ele>
        <time>2014-05-01T06:01:08Z</time>
      </trkpt>
      <trkpt lat="45.63567" lon="4.54158">
        <ele>603.5</ele>
        <time>2014-05-01T06:01:13Z</time>
      </trkpt>
      <trkpt lat="45.6357" lon="4.5418">
        <ele>604.4</ele>
        <time>2014-05-01T06:01:18Z</time>
      </trkpt>
      <trkpt lat="45.63573" lon="4.54202">
        <ele>605.4</ele>
        <time>2014-05-01T06:01:23Z</time>
      </trkpt>
      <trkpt lat="45.63575" lon="4.54223">
        <ele>606.4</ele>
        <time>2014-05-01T06:01:28Z</time>
      </trkpt>
      <trkpt lat="45.63578" lon="4.54243">
        <ele>607.4</ele>
        <time>2014-05-01T06:01:33Z</time>
      </trkpt>
      <trkpt lat="45.63578" lon="4.54262">
        <ele>608.2</ele>
        <time>2014-05-01T06:01:38Z</time>
      </trkpt>
      <trkpt lat="45.63583" lon="4.54282">
        <ele>609.1</ele>
        <time>2014-05-01T06:01:43Z</time>
      </trkpt>
      <trkpt lat="45.63588" lon="4.54302">
        <ele>609.7</ele>
        <time>2014-05-01T06:01:48Z</time>
      </trkpt>
      <trkpt lat="45.63595" lon="4.54318">
        <ele>610.9</ele>
        <time>2014-05-01T06:01:53Z</time>
      </trkpt>
      <trkpt lat="45.63603" lon="4.54332">
        <ele>611.9</ele>
        <time>2014-05-01T06:01:58Z</time>
      </trkpt>
      <trkpt lat="45.63612" lon="4.54343">
        <ele>612.9</ele>
        <time>2014-05-01T06:02:03Z</time>
      </trkpt>
      <trkpt lat="45.63622" lon="4.54352">
        <ele>613.5</ele>
        <time>2014-05-01T06:02:08Z</time>
      </trkpt>
      <trkpt lat="45.63633" lon="4.5436">
        <ele>614</ele>
        <time>2014-05-01T06:02:13Z</time>
      </trkpt>
      <trkpt lat="45.63643" lon="4.54368">
        <ele>615.5</ele>
        <time>2014-05-01T06:02:18Z</time>
      </trkpt>
      <trkpt lat="45.63655" lon="4.54377">
        <ele>616.6</ele>
        <time>2014-05-01T06:02:23Z</time>
      </trkpt>
      <trkpt lat="45.63667" lon="4.54385">
        <ele>617.8</ele>
        <time>2014-05-01T06:02:28Z</time>
      </trkpt>
      <trkpt lat="45.63677" lon="4.54392">
        <ele>618.5</ele>
        <time>2014-05-01T06:02:33Z</time>
      </trkpt>
      <trkpt lat="45.63687" lon="4.544">
        <ele>618.9</ele>
        <time>2014-05-01T06:02:38Z</time>
      </trkpt>
      <trkpt lat="45.63693" lon="4.5441">
        <ele>619.4</ele>
        <time>2014-05-01T06:02:43Z</time>
      </trkpt>
      <trkpt lat="45.63687" lon="4.54427">
        <ele>618.7</ele>
        <time>2014-05-01T06:02:48Z</time>
      </trkpt>
      <trkpt lat="45.63678" lon="4.54442">
        <ele>620</ele>
        <time>2014-05-01T06:02:53Z</time>
      </trkpt>
      <trkpt lat="45.63672" lon="4.5446">
        <ele>622</ele>
        <time>2014-05-01T06:02:58Z</time>
      </trkpt>
      <trkpt lat="45.63663" lon="4.54475">
        <ele>622.6</ele>
        <time>2014-05-01T06:03:03Z</time>
      </trkpt>
      <trkpt lat="45.63653" lon="4.54492">
        <ele>624.3</ele>
        <time>2014-05-01T06:03:08Z</time>
      </trkpt>
      <trkpt lat="45.63645" lon="4.54508">
        <ele>625.1</ele>
        <time>2014-05-01T06:03:13Z</time>
      </trkpt>
      <trkpt lat="45.63637" lon="4.54523">
        <ele>625.9</ele>
        <time>2014-05-01T06:03:18Z</time>
      </trkpt>
      <trkpt lat="45.63628" lon="4.5454">
        <ele>626.5</ele>
        <time>2014-05-01T06:03:23Z</time>
      </trkpt>
      <trkpt lat="45.63622" lon="4.54557">
        <ele>627.5</ele>
        <time>2014-05-01T06:03:28Z</time>
      </trkpt>
      <trkpt lat="45.63613" lon="4.54575">
        <ele>626.5</ele>
        <time>2014-05-01T06:03:33Z</time>
      </trkpt>
      <trkpt lat="45.63607" lon="4.5459">
        <ele>628.2</ele>
        <time>2014-05-01T06:03:38Z</time>
      </trkpt>
      <trkpt lat="45.63598" lon="4.54608">
        <ele>629.2</ele>
        <time>2014-05-01T06:03:43Z</time>
      </trkpt>
      <trkpt lat="45.63592" lon="4.54625">
        <ele>628.7</ele>
        <time>2014-05-01T06:03:48Z</time>
      </trkpt>
      <trkpt lat="45.63582" lon="4.5464">
        <ele>629.7</ele>
        <time>2014-05-01T06:03:53Z</time>
      </trkpt>
      <trkpt lat="45.6357" lon="4.54655">
        <ele>630.7</ele>
        <time>2014-05-01T06:03:58Z</time>
      </trkpt>
      <trkpt lat="45.6356" lon="4.54673">
        <ele>631.4</ele>
        <time>2014-05-01T06:04:03Z</time>
      </trkpt>
      <trkpt lat="45.63552" lon="4.54692">
        <ele>631.1</ele>
        <time>2014-05-01T06:04:08Z</time>
      </trkpt>
      <trkpt lat="45.63543" lon="4.54712">
        <ele>630.2</ele>
        <time>2014-05-01T06:04:13Z</time>
      </trkpt>
      <trkpt lat="45.63537" lon="4.54733">
        <ele>631.3</ele>
        <time>2014-05-01T06:04:18Z</time>
      </trkpt>
      <trkpt lat="45.63533" lon="4.54757">
        <ele>632.8</ele>
        <time>2014-05-01T06:04:23Z</time>
      </trkpt>
      <trkpt lat="45.63533" lon="4.5478">
        <ele>632.2</ele>
        <time>2014-05-01T06:04:28Z</time>
      </trkpt>
      <trkpt lat="45.63533" lon="4.54805">
        <ele>633.9</ele>
        <time>2014-05-01T06:04:33Z</time>
      </trkpt>
      <trkpt lat="45.63535" lon="4.5483">
        <ele>635.2</ele>
        <time>2014-05-01T06:04:38Z</time>
      </trkpt>
      <trkpt lat="45.63538" lon="4.54852">
        <ele>635.1</ele>
        <time>2014-05-01T06:04:43Z</time>
      </trkpt>
      <trkpt lat="45.63542" lon="4.54872">
        <ele>635.8</ele>
        <time>2014-05-01T06:04:48Z</time>
      </trkpt>
      <trkpt lat="45.63545" lon="4.54893">
        <ele>636.5</ele>
        <time>2014-05-01T06:04:53Z</time>
      </trkpt>
      <trkpt lat="45.63555" lon="4.54913">
        <ele>635.6</ele>
        <time>2014-05-01T06:04:58Z</time>
      </trkpt>
      <trkpt lat="45.63567" lon="4.5494">
        <ele>635.3</ele>
        <time>2014-05-01T06:05:03Z</time>
      </trkpt>
      <trkpt lat="45.63578" lon="4.5497">
        <ele>634.4</ele>
        <time>2014-05-01T06:05:08Z</time>
      </trkpt>
      <trkpt lat="45.63592" lon="4.55005">
        <ele>633</ele>
        <time>2014-05-01T06:05:13Z</time>
      </trkpt>
      <trkpt lat="45.63602" lon="4.55052">
        <ele>631.5</ele>
        <time>2014-05-01T06:05:18Z</time>
      </trkpt>
      <trkpt lat="45.63615" lon="4.55108">
        <ele>629</ele>
        <time>2014-05-01T06:05:23Z</time>
      </trkpt>
      <trkpt lat="45.63647" lon="4.55165">
        <ele>624.2</ele>
        <time>2014-05-01T06:05:28Z</time>
      </trkpt>
      <trkpt lat="45.63665" lon="4.55232">
        <ele>622.5</ele>
        <time>2014-05-01T06:05:33Z</time>
      </trkpt>
      <trkpt lat="45.63682" lon="4.55295">
        <ele>620.2</ele>
        <time>2014-05-01T06:05:38Z</time>
      </trkpt>
      <trkpt lat="45.63698" lon="4.55352">
        <ele>618.9</ele>
        <time>2014-05-01T06:05:43Z</time>
      </trkpt>
      <trkpt lat="45.63712" lon="4.55408">
        <ele>617</ele>
        <time>2014-05-01T06:05:48Z</time>
      </trkpt>
      <trkpt lat="45.63727" lon="4.55463">
        <ele>616.2</ele>
        <time>2014-05-01T06:05:53Z</time>
      </trkpt>
      <trkpt lat="45.63715" lon="4.5551">
        <ele>615.4</ele>
        <time>2014-05-01T06:05:58Z</time>
      </trkpt>
      <trkpt lat="45.63705" lon="4.55552">
        <ele>616.3</ele>
        <time>2014-05-01T06:06:03Z</time>
      </trkpt>
      <trkpt lat="45.63697" lon="4.5559">
        <ele>617.6</ele>
        <time>2014-05-01T06:06:08Z</time>
      </trkpt>
      <trkpt lat="45.63687" lon="4.55625">
        <ele>619.3</ele>
        <time>2014-05-01T06:06:13Z</time>
      </trkpt>
      <trkpt lat="45.63677" lon="4.55658">
        <ele>620</ele>
        <time>2014-05-01T06:06:18Z</time>
      </trkpt>
      <trkpt lat="45.63668" lon="4.55688">
        <ele>621.8</ele>
        <time>2014-05-01T06:06:23Z</time>
      </trkpt>
      <trkpt lat="45.6366" lon="4.55715">
        <ele>622.3</ele>
        <time>2014-05-01T06:06:28Z</time>
      </trkpt>
      <trkpt lat="45.63655" lon="4.5574">
        <ele>624.1</ele>
        <time>2014-05-01T06:06:33Z</time>
      </trkpt>
      <trkpt lat="45.6365" lon="4.55765">
        <ele>625.5</ele>
        <time>2014-05-01T06:06:38Z</time>
      </trkpt>
      <trkpt lat="45.63647" lon="4.5579">
        <ele>625.5</ele>
        <time>2014-05-01T06:06:43Z</time>
      </trkpt>
      <trkpt lat="45.63643" lon="4.5582">
        <ele>625</ele>
        <time>2014-05-01T06:06:48Z</time>
      </trkpt>
      <trkpt lat="45.63637" lon="4.5586">
        <ele>623.4</ele>
        <time>2014-05-01T06:06:53Z</time>
      </trkpt>
      <trkpt lat="45.63635" lon="4.55915">
        <ele>621.3</ele>
        <time>2014-05-01T06:06:58Z</time>
      </trkpt>
      <trkpt lat="45.6364" lon="4.55975">
        <ele>617.1</ele>
        <time>2014-05-01T06:07:03Z</time>
      </trkpt>
      <trkpt lat="45.63633" lon="4.56017">
        <ele>614.2</ele>
        <time>2014-05-01T06:07:08Z</time>
      </trkpt>
      <trkpt lat="45.63613" lon="4.56018">
        <ele>611.9</ele>
        <time>2014-05-01T06:07:13Z</time>
      </trkpt>
      <trkpt lat="45.63592" lon="4.56017">
        <ele>612.2</ele>
        <time>2014-05-01T06:07:18Z</time>
      </trkpt>
      <trkpt lat="45.6356" lon="4.56018">
        <ele>613.5</ele>
        <time>2014-05-01T06:07:23Z</time>
      </trkpt>
      <trkpt lat="45.6352" lon="4.5603">
        <ele>608.1</ele>
        <time>2014-05-01T06:07:28Z</time>
      </trkpt>
      <trkpt lat="45.63487" lon="4.56043">
        <ele>605.8</ele>
        <time>2014-05-01T06:07:33Z</time>
      </trkpt>
      <trkpt lat="45.63448" lon="4.56068">
        <ele>602.7</ele>
        <time>2014-05-01T06:07:38Z</time>
      </trkpt>
      <trkpt lat="45.634" lon="4.56063">
        <ele>598.8</ele>
        <time>2014-05-01T06:07:43Z</time>
      </trkpt>
      <trkpt lat="45.63357" lon="4.56062">
        <ele>595.6</ele>
        <time>2014-05-01T06:07:48Z</time>
      </trkpt>
      <trkpt lat="45.63327" lon="4.56093">
        <ele>593.1</ele>
        <time>2014-05-01T06:07:53Z</time>
      </trkpt>
      <trkpt lat="45.63288" lon="4.56093">
        <ele>589.6</ele>
        <time>2014-05-01T06:07:58Z</time>
      </trkpt>
      <trkpt lat="45.63263" lon="4.56077">
        <ele>587.2</ele>
        <time>2014-05-01T06:08:03Z</time>
      </trkpt>
      <trkpt lat="45.63248" lon="4.56065">
        <ele>591.2</ele>
        <time>2014-05-01T06:08:08Z</time>
      </trkpt>
      <trkpt lat="45.63238" lon="4.56053">
        <ele>592.9</ele>
        <time>2014-05-01T06:08:13Z</time>
      </trkpt>
      <trkpt lat="45.63228" lon="4.5604">
        <ele>593.8</ele>
        <time>2014-05-01T06:08:18Z</time>
      </trkpt>
      <trkpt lat="45.63218" lon="4.56027">
        <ele>596</ele>
        <time>2014-05-01T06:08:23Z</time>
      </trkpt>
      <trkpt lat="45.63208" lon="4.56017">
        <ele>596</ele>
        <time>2014-05-01T06:08:28Z</time>
      </trkpt>
      <trkpt lat="45.63198" lon="4.56007">
        <ele>597.3</ele>
        <time>2014-05-01T06:08:33Z</time>
      </trkpt>
      <trkpt lat="45.6319" lon="4.55997">
        <ele>598.4</ele>
        <time>2014-05-01T06:08:38Z</time>
      </trkpt>
      <trkpt lat="45.63183" lon="4.5599">
        <ele>599.4</ele>
        <time>2014-05-01T06:08:43Z</time>
      </trkpt>
      <trkpt lat="45.63177" lon="4.55988">
        <ele>600.1</ele>
        <time>2014-05-01T06:08:48Z</time>
      </trkpt>
      <trkpt lat="45.63168" lon="4.55987">
        <ele>602</ele>
        <time>2014-05-01T06:08:53Z</time>
      </trkpt>
      <trkpt lat="45.63163" lon="4.5599">
        <ele>603.2</ele>
        <time>2014-05-01T06:08:58Z</time>
      </trkpt>
      <trkpt lat="45.6316" lon="4.55995">
        <ele>604.7</ele>
        <time>2014-05-01T06:09:03Z</time>
      </trkpt>
      <trkpt lat="45.6316" lon="4.56003">
        <ele>606.8</ele>
        <time>2014-05-01T06:09:08Z</time>
      </trkpt>
      <trkpt lat="45.6316" lon="4.56013">
        <ele>608.2</ele>
        <time>2014-05-01T06:09:13Z</time>
      </trkpt>
      <trkpt lat="45.63158" lon="4.56025">
        <ele>609.7</ele>
        <time>2014-05-01T06:09:18Z</time>
      </trkpt>
      <trkpt lat="45.6316" lon="4.56035">
        <ele>610.8</ele>
        <time>2014-05-01T06:09:23Z</time>
      </trkpt>
      <trkpt lat="45.6316" lon="4.56042">
        <ele>611.9</ele>
        <time>2014-05-01T06:09:28Z</time>
      </trkpt>
      <trkpt lat="45.6316" lon="4.5605">
        <ele>613.5</ele>
        <time>2014-05-01T06:09:33Z</time>
      </trkpt>
      <trkpt lat="45.6316" lon="4.56055">
        <ele>613.5</ele>
        <time>2014-05-01T06:09:38Z</time>
      </trkpt>
      <trkpt lat="45.63158" lon="4.56063">
        <ele>615.4</ele>
        <time>2014-05-01T06:09:43Z</time>
      </trkpt>
      <trkpt lat="45.63157" lon="4.56067">
        <ele>616.3</ele>
        <time>2014-05-01T06:09:48Z</time>
      </trkpt>
      <trkpt lat="45.63157" lon="4.56072">
        <ele>616.5</ele>
        <time>2014-05-01T06:09:53Z</time>
      </trkpt>
      <trkpt lat="45.63153" lon="4.56077">
        <ele>617.8</ele>
        <time>2014-05-01T06:09:58Z</time>
      </trkpt>
      <trkpt lat="45.63152" lon="4.56082">
        <ele>618.6</ele>
        <time>2014-05-01T06:10:03Z</time>
      </trkpt>
      <trkpt lat="45.6315" lon="4.56087">
        <ele>619</ele>
        <time>2014-05-01T06:10:08Z</time>
      </trkpt>
      <trkpt lat="45.6315" lon="4.5609">
        <ele>619.9</ele>
        <time>2014-05-01T06:10:13Z</time>
      </trkpt>
      <trkpt lat="45.63147" lon="4.56095">
        <ele>620.6</ele>
        <time>2014-05-01T06:10:18Z</time>
      </trkpt>
      <trkpt lat="45.63145" lon="4.56102">
        <ele>620.6</ele>
        <time>2014-05-01T06:10:23Z</time>
      </trkpt>
      <trkpt lat="45.63142" lon="4.5611">
        <ele>622.3</ele>
        <time>2014-05-01T06:10:28Z</time>
      </trkpt>
      <trkpt lat="45.63137" lon="4.56117">
        <ele>623.8</ele>
        <time>2014-05-01T06:10:33Z</time>
      </trkpt>
      <trkpt lat="45.63133" lon="4.56122">
        <ele>624.5</ele>
        <time>2014-05-01T06:10:38Z</time>
      </trkpt>
      <trkpt lat="45.63127" lon="4.56123">
        <ele>625.3</ele>
        <time>2014-05-01T06:10:48Z</time>
      </trkpt>
      <trkpt lat="45.63122" lon="4.5613">
        <ele>626.7</ele>
        <time>2014-05-01T06:10:53Z</time>
      </trkpt>
      <trkpt lat="45.63112" lon="4.56135">
        <ele>626.7</ele>
        <time>2014-05-01T06:10:58Z</time>
      </trkpt>
      <trkpt lat="45.63103" lon="4.56138">
        <ele>627.8</ele>
        <time>2014-05-01T06:11:03Z</time>
      </trkpt>
      <trkpt lat="45.63097" lon="4.5614">
        <ele>630.2</ele>
        <time>2014-05-01T06:11:08Z</time>
      </trkpt>
      <trkpt lat="45.63088" lon="4.56142">
        <ele>631</ele>
        <time>2014-05-01T06:11:13Z</time>
      </trkpt>
      <trkpt lat="45.63082" lon="4.56145">
        <ele>632.2</ele>
        <time>2014-05-01T06:11:18Z</time>
      </trkpt>
      <trkpt lat="45.63075" lon="4.56147">
        <ele>634.1</ele>
        <time>2014-05-01T06:11:23Z</time>
      </trkpt>
      <trkpt lat="45.63067" lon="4.56152">
        <ele>634.8</ele>
        <time>2014-05-01T06:11:28Z</time>
      </trkpt>
      <trkpt lat="45.63058" lon="4.56157">
        <ele>635.8</ele>
        <time>2014-05-01T06:11:33Z</time>
      </trkpt>
      <trkpt lat="45.63048" lon="4.56163">
        <ele>635.9</ele>
        <time>2014-05-01T06:11:38Z</time>
      </trkpt>
      <trkpt lat="45.63035" lon="4.56168">
        <ele>635.5</ele>
        <time>2014-05-01T06:11:43Z</time>
      </trkpt>
      <trkpt lat="45.63023" lon="4.56172">
        <ele>635.5</ele>
        <time>2014-05-01T06:11:48Z</time>
      </trkpt>
      <trkpt lat="45.63012" lon="4.56177">
        <ele>636.6</ele>
        <time>2014-05-01T06:11:53Z</time>
      </trkpt>
      <trkpt lat="45.62998" lon="4.56182">
        <ele>637.9</ele>
        <time>2014-05-01T06:11:58Z</time>
      </trkpt>
      <trkpt lat="45.62987" lon="4.56188">
        <ele>638.5</ele>
        <time>2014-05-01T06:12:03Z</time>
      </trkpt>
      <trkpt lat="45.62975" lon="4.56195">
        <ele>639.4</ele>
        <time>2014-05-01T06:12:08Z</time>
      </trkpt>
      <trkpt lat="45.62967" lon="4.56202">
        <ele>640.5</ele>
        <time>2014-05-01T06:12:13Z</time>
      </trkpt>
      <trkpt lat="45.62957" lon="4.56208">
        <ele>640.6</ele>
        <time>2014-05-01T06:12:18Z</time>
      </trkpt>
      <trkpt lat="45.62945" lon="4.56217">
        <ele>642.1</ele>
        <time>2014-05-01T06:12:23Z</time>
      </trkpt>
      <trkpt lat="45.62935" lon="4.56225">
        <ele>643.7</ele>
        <time>2014-05-01T06:12:28Z</time>
      </trkpt>
      <trkpt lat="45.62925" lon="4.56232">
        <ele>644.2</ele>
        <time>2014-05-01T06:12:33Z</time>
      </trkpt>
      <trkpt lat="45.62915" lon="4.56238">
        <ele>646.3</ele>
        <time>2014-05-01T06:12:38Z</time>
      </trkpt>
      <trkpt lat="45.62905" lon="4.56247">
        <ele>647.2</ele>
        <time>2014-05-01T06:12:43Z</time>
      </trkpt>
      <trkpt lat="45.62893" lon="4.56253">
        <ele>648.3</ele>
        <time>2014-05-01T06:12:48Z</time>
      </trkpt>
      <trkpt lat="45.62882" lon="4.5626">
        <ele>648</ele>
        <time>2014-05-01T06:12:53Z</time>
      </trkpt>
      <trkpt lat="45.6287" lon="4.56267">
        <ele>649.4</ele>
        <time>2014-05-01T06:12:58Z</time>
      </trkpt>
      <trkpt lat="45.6286" lon="4.56275">
        <ele>649.8</ele>
        <time>2014-05-01T06:13:03Z</time>
      </trkpt>
      <trkpt lat="45.62848" lon="4.56287">
        <ele>649.4</ele>
        <time>2014-05-01T06:13:08Z</time>
      </trkpt>
      <trkpt lat="45.62837" lon="4.56298">
        <ele>650.1</ele>
        <time>2014-05-01T06:13:13Z</time>
      </trkpt>
      <trkpt lat="45.62825" lon="4.56312">
        <ele>650.8</ele>
        <time>2014-05-01T06:13:18Z</time>
      </trkpt>
      <trkpt lat="45.62813" lon="4.56327">
        <ele>650.1</ele>
        <time>2014-05-01T06:13:23Z</time>
      </trkpt>
      <trkpt lat="45.62805" lon="4.56343">
        <ele>649.8</ele>
        <time>2014-05-01T06:13:28Z</time>
      </trkpt>
      <trkpt lat="45.62798" lon="4.56362">
        <ele>651.6</ele>
        <time>2014-05-01T06:13:33Z</time>
      </trkpt>
      <trkpt lat="45.62792" lon="4.56378">
        <ele>652.1</ele>
        <time>2014-05-01T06:13:38Z</time>
      </trkpt>
      <trkpt lat="45.62778" lon="4.56398">
        <ele>652.4</ele>
        <time>2014-05-01T06:13:43Z</time>
      </trkpt>
      <trkpt lat="45.62762" lon="4.56413">
        <ele>649.8</ele>
        <time>2014-05-01T06:13:48Z</time>
      </trkpt>
      <trkpt lat="45.62745" lon="4.56428">
        <ele>650.3</ele>
        <time>2014-05-01T06:13:53Z</time>
      </trkpt>
      <trkpt lat="45.62735" lon="4.56447">
        <ele>653.4</ele>
        <time>2014-05-01T06:13:58Z</time>
      </trkpt>
      <trkpt lat="45.6273" lon="4.56473">
        <ele>652.9</ele>
        <time>2014-05-01T06:14:03Z</time>
      </trkpt>
      <trkpt lat="45.62723" lon="4.56502">
        <ele>652.1</ele>
        <time>2014-05-01T06:14:08Z</time>
      </trkpt>
      <trkpt lat="45.62722" lon="4.56532">
        <ele>652.6</ele>
        <time>2014-05-01T06:14:13Z</time>
      </trkpt>
      <trkpt lat="45.62723" lon="4.56558">
        <ele>651.4</ele>
        <time>2014-05-01T06:14:18Z</time>
      </trkpt>
      <trkpt lat="45.6273" lon="4.56583">
        <ele>653.3</ele>
        <time>2014-05-01T06:14:23Z</time>
      </trkpt>
      <trkpt lat="45.62735" lon="4.56605">
        <ele>654.2</ele>
        <time>2014-05-01T06:14:28Z</time>
      </trkpt>
      <trkpt lat="45.62738" lon="4.5663">
        <ele>653.8</ele>
        <time>2014-05-01T06:14:33Z</time>
      </trkpt>
      <trkpt lat="45.62742" lon="4.56653">
        <ele>655.2</ele>
        <time>2014-05-01T06:14:38Z</time>
      </trkpt>
      <trkpt lat="45.62742" lon="4.56677">
        <ele>657.2</ele>
        <time>2014-05-01T06:14:43Z</time>
      </trkpt>
      <trkpt lat="45.6274" lon="4.56702">
        <ele>657.8</ele>
        <time>2014-05-01T06:14:48Z</time>
      </trkpt>
      <trkpt lat="45.62737" lon="4.56727">
        <ele>657.3</ele>
        <time>2014-05-01T06:14:53Z</time>
      </trkpt>
      <trkpt lat="45.62728" lon="4.56748">
        <ele>659</ele>
        <time>2014-05-01T06:14:58Z</time>
      </trkpt>
      <trkpt lat="45.62718" lon="4.5677">
        <ele>658.2</ele>
        <time>2014-05-01T06:15:03Z</time>
      </trkpt>
      <trkpt lat="45.62707" lon="4.56803">
        <ele>657</ele>
        <time>2014-05-01T06:15:08Z</time>
      </trkpt>
      <trkpt lat="45.627" lon="4.56828">
        <ele>657.6</ele>
        <time>2014-05-01T06:15:13Z</time>
      </trkpt>
      <trkpt lat="45.62695" lon="4.56855">
        <ele>658.3</ele>
        <time>2014-05-01T06:15:18Z</time>
      </trkpt>
      <trkpt lat="45.62692" lon="4.56877">
        <ele>658.2</ele>
        <time>2014-05-01T06:15:23Z</time>
      </trkpt>
      <trkpt lat="45.62685" lon="4.56897">
        <ele>660.4</ele>
        <time>2014-05-01T06:15:28Z</time>
      </trkpt>
      <trkpt lat="45.6268" lon="4.56917">
        <ele>661.8</ele>
        <time>2014-05-01T06:15:33Z</time>
      </trkpt>
      <trkpt lat="45.62677" lon="4.56935">
        <ele>663.1</ele>
        <time>2014-05-01T06:15:38Z</time>
      </trkpt>
      <trkpt lat="45.62672" lon="4.56953">
        <ele>664.8</ele>
        <time>2014-05-01T06:15:43Z</time>
      </trkpt>
      <trkpt lat="45.62668" lon="4.56972">
        <ele>665.3</ele>
        <time>2014-05-01T06:15:48Z</time>
      </trkpt>
      <trkpt lat="45.62665" lon="4.5699">
        <ele>667.3</ele>
        <time>2014-05-01T06:15:53Z</time>
      </trkpt>
      <trkpt lat="45.62663" lon="4.57008">
        <ele>668.7</ele>
        <time>2014-05-01T06:15:58Z</time>
      </trkpt>
      <trkpt lat="45.6266" lon="4.57027">
        <ele>669.3</ele>
        <time>2014-05-01T06:16:03Z</time>
      </trkpt>
      <trkpt lat="45.62655" lon="4.57045">
        <ele>670.5</ele>
        <time>2014-05-01T06:16:08Z</time>
      </trkpt>
      <trkpt lat="45.6265" lon="4.5706">
        <ele>671.8</ele>
        <time>2014-05-01T06:16:13Z</time>
      </trkpt>
      <trkpt lat="45.62647" lon="4.57077">
        <ele>672.8</ele>
        <time>2014-05-01T06:16:18Z</time>
      </trkpt>
      <trkpt lat="45.62642" lon="4.57092">
        <ele>675.6</ele>
        <time>2014-05-01T06:16:23Z</time>
      </trkpt>
      <trkpt lat="45.62638" lon="4.57107">
        <ele>675.9</ele>
        <time>2014-05-01T06:16:28Z</time>
      </trkpt>
      <trkpt lat="45.62635" lon="4.5712">
        <ele>677.9</ele>
        <time>2014-05-01T06:16:33Z</time>
      </trkpt>
      <trkpt lat="45.6263" lon="4.57135">
        <ele>679.1</ele>
        <time>2014-05-01T06:16:38Z</time>
      </trkpt>
      <trkpt lat="45.62625" lon="4.5715">
        <ele>680.9</ele>
        <time>2014-05-01T06:16:43Z</time>
      </trkpt>
      <trkpt lat="45.62622" lon="4.57167">
        <ele>682.3</ele>
        <time>2014-05-01T06:16:48Z</time>
      </trkpt>
      <trkpt lat="45.6262" lon="4.57187">
        <ele>683.4</ele>
        <time>2014-05-01T06:16:53Z</time>
      </trkpt>
      <trkpt lat="45.62618" lon="4.57212">
        <ele>683</ele>
        <time>2014-05-01T06:16:58Z</time>
      </trkpt>
      <trkpt lat="45.6262" lon="4.57238">
        <ele>682.5</ele>
        <time>2014-05-01T06:17:03Z</time>
      </trkpt>
      <trkpt lat="45.62622" lon="4.57262">
        <ele>683.2</ele>
        <time>2014-05-01T06:17:08Z</time>
      </trkpt>
      <trkpt lat="45.6262" lon="4.57283">
        <ele>683.6</ele>
        <time>2014-05-01T06:17:13Z</time>
      </trkpt>
      <trkpt lat="45.62618" lon="4.57312">
        <ele>683.3</ele>
        <time>2014-05-01T06:17:18Z</time>
      </trkpt>
      <trkpt lat="45.62623" lon="4.57333">
        <ele>682.4</ele>
        <time>2014-05-01T06:17:23Z</time>
      </trkpt>
      <trkpt lat="45.62625" lon="4.57353">
        <ele>682.2</ele>
        <time>2014-05-01T06:17:28Z</time>
      </trkpt>
      <trkpt lat="45.62627" lon="4.5737">
        <ele>683.7</ele>
        <time>2014-05-01T06:17:33Z</time>
      </trkpt>
      <trkpt lat="45.62628" lon="4.5738">
        <ele>683.3</ele>
        <time>2014-05-01T06:17:38Z</time>
      </trkpt>
      <trkpt lat="45.62628" lon="4.57382">
        <ele>683.2</ele>
        <time>2014-05-01T06:17:43Z</time>
      </trkpt>
      <trkpt lat="45.62627" lon="4.57387">
        <ele>683.3</ele>
        <time>2014-05-01T06:17:48Z</time>
      </trkpt>
      <trkpt lat="45.62627" lon="4.57387">
        <ele>683</ele>
        <time>2014-05-01T06:17:53Z</time>
      </trkpt>
      <trkpt lat="45.62627" lon="4.57385">
        <ele>682.2</ele>
        <time>2014-05-01T06:17:58Z</time>
      </trkpt>
      <trkpt lat="45.62623" lon="4.57383">
        <ele>682.9</ele>
        <time>2014-05-01T06:26:18Z</time>
      </trkpt>
      <trkpt lat="45.62613" lon="4.57405">
        <ele>683.1</ele>
        <time>2014-05-01T06:26:23Z</time>
      </trkpt>
      <trkpt lat="45.6261" lon="4.57428">
        <ele>682.1</ele>
        <time>2014-05-01T06:26:28Z</time>
      </trkpt>
      <trkpt lat="45.62607" lon="4.57452">
        <ele>683.6</ele>
        <time>2014-05-01T06:26:33Z</time>
      </trkpt>
      <trkpt lat="45.626" lon="4.57485">
        <ele>681.9</ele>
        <time>2014-05-01T06:26:38Z</time>
      </trkpt>
      <trkpt lat="45.62592" lon="4.57522">
        <ele>680.8</ele>
        <time>2014-05-01T06:26:43Z</time>
      </trkpt>
      <trkpt lat="45.62585" lon="4.57557">
        <ele>679</ele>
        <time>2014-05-01T06:26:48Z</time>
      </trkpt>
      <trkpt lat="45.6257" lon="4.57593">
        <ele>677.3</ele>
        <time>2014-05-01T06:26:53Z</time>
      </trkpt>
      <trkpt lat="45.6255" lon="4.57632">
        <ele>677.6</ele>
        <time>2014-05-01T06:26:58Z</time>
      </trkpt>
      <trkpt lat="45.62543" lon="4.57668">
        <ele>674.6</ele>
        <time>2014-05-01T06:27:03Z</time>
      </trkpt>
      <trkpt lat="45.62563" lon="4.57713">
        <ele>671.7</ele>
        <time>2014-05-01T06:27:08Z</time>
      </trkpt>
      <trkpt lat="45.62592" lon="4.57755">
        <ele>669.7</ele>
        <time>2014-05-01T06:27:13Z</time>
      </trkpt>
      <trkpt lat="45.62605" lon="4.57802">
        <ele>663.2</ele>
        <time>2014-05-01T06:27:18Z</time>
      </trkpt>
      <trkpt lat="45.62613" lon="4.57842">
        <ele>667.7</ele>
        <time>2014-05-01T06:27:23Z</time>
      </trkpt>
      <trkpt lat="45.6263" lon="4.57867">
        <ele>667.1</ele>
        <time>2014-05-01T06:27:28Z</time>
      </trkpt>
      <trkpt lat="45.62638" lon="4.57892">
        <ele>666</ele>
        <time>2014-05-01T06:27:33Z</time>
      </trkpt>
      <trkpt lat="45.62645" lon="4.57918">
        <ele>665.9</ele>
        <time>2014-05-01T06:27:38Z</time>
      </trkpt>
      <trkpt lat="45.62655" lon="4.5794">
        <ele>667.7</ele>
        <time>2014-05-01T06:27:43Z</time>
      </trkpt>
      <trkpt lat="45.62667" lon="4.5796">
        <ele>667.4</ele>
        <time>2014-05-01T06:27:48Z</time>
      </trkpt>
      <trkpt lat="45.62675" lon="4.5798">
        <ele>668.7</ele>
        <time>2014-05-01T06:27:53Z</time>
      </trkpt>
      <trkpt lat="45.6268" lon="4.57997">
        <ele>668.1</ele>
        <time>2014-05-01T06:27:58Z</time>
      </trkpt>
      <trkpt lat="45.62685" lon="4.58022">
        <ele>668.9</ele>
        <time>2014-05-01T06:28:03Z</time>
      </trkpt>
      <trkpt lat="45.62692" lon="4.58045">
        <ele>670.4</ele>
        <time>2014-05-01T06:28:08Z</time>
      </trkpt>
      <trkpt lat="45.62698" lon="4.5807">
        <ele>670.7</ele>
        <time>2014-05-01T06:28:13Z</time>
      </trkpt>
      <trkpt lat="45.62707" lon="4.58093">
        <ele>669.1</ele>
        <time>2014-05-01T06:28:18Z</time>
      </trkpt>
      <trkpt lat="45.62715" lon="4.58113">
        <ele>671</ele>
        <time>2014-05-01T06:28:23Z</time>
      </trkpt>
      <trkpt lat="45.62722" lon="4.58137">
        <ele>670</ele>
        <time>2014-05-01T06:28:28Z</time>
      </trkpt>
      <trkpt lat="45.62728" lon="4.58158">
        <ele>671.8</ele>
        <time>2014-05-01T06:28:33Z</time>
      </trkpt>
      <trkpt lat="45.62737" lon="4.58183">
        <ele>674.1</ele>
        <time>2014-05-01T06:28:38Z</time>
      </trkpt>
      <trkpt lat="45.62743" lon="4.58207">
        <ele>673.8</ele>
        <time>2014-05-01T06:28:43Z</time>
      </trkpt>
      <trkpt lat="45.6275" lon="4.58232">
        <ele>672.3</ele>
        <time>2014-05-01T06:28:48Z</time>
      </trkpt>
      <trkpt lat="45.62758" lon="4.5825">
        <ele>674.2</ele>
        <time>2014-05-01T06:28:53Z</time>
      </trkpt>
      <trkpt lat="45.62758" lon="4.5826">
        <ele>673.3</ele>
        <time>2014-05-01T06:28:58Z</time>
      </trkpt>
      <trkpt lat="45.62753" lon="4.5827">
        <ele>674.3</ele>
        <time>2014-05-01T06:29:03Z</time>
      </trkpt>
      <trkpt lat="45.62748" lon="4.58273">
        <ele>675.3</ele>
        <time>2014-05-01T06:29:08Z</time>
      </trkpt>
      <trkpt lat="45.62743" lon="4.58283">
        <ele>676.4</ele>
        <time>2014-05-01T06:29:13Z</time>
      </trkpt>
      <trkpt lat="45.62738" lon="4.58293">
        <ele>676.2</ele>
        <time>2014-05-01T06:29:18Z</time>
      </trkpt>
      <trkpt lat="45.62728" lon="4.58298">
        <ele>677.9</ele>
        <time>2014-05-01T06:29:23Z</time>
      </trkpt>
      <trkpt lat="45.62722" lon="4.58305">
        <ele>678.5</ele>
        <time>2014-05-01T06:29:28Z</time>
      </trkpt>
      <trkpt lat="45.62713" lon="4.5831">
        <ele>679.5</ele>
        <time>2014-05-01T06:29:33Z</time>
      </trkpt>
      <trkpt lat="45.62707" lon="4.58315">
        <ele>680.6</ele>
        <time>2014-05-01T06:29:38Z</time>
      </trkpt>
      <trkpt lat="45.62702" lon="4.58322">
        <ele>681.6</ele>
        <time>2014-05-01T06:29:43Z</time>
      </trkpt>
      <trkpt lat="45.62697" lon="4.58328">
        <ele>683.9</ele>
        <time>2014-05-01T06:29:48Z</time>
      </trkpt>
      <trkpt lat="45.62692" lon="4.5833">
        <ele>684</ele>
        <time>2014-05-01T06:29:53Z</time>
      </trkpt>
      <trkpt lat="45.62683" lon="4.58333">
        <ele>684.6</ele>
        <time>2014-05-01T06:29:58Z</time>
      </trkpt>
      <trkpt lat="45.62677" lon="4.58337">
        <ele>685.5</ele>
        <time>2014-05-01T06:30:03Z</time>
      </trkpt>
      <trkpt lat="45.62673" lon="4.58343">
        <ele>687.9</ele>
        <time>2014-05-01T06:30:08Z</time>
      </trkpt>
      <trkpt lat="45.62668" lon="4.58352">
        <ele>689</ele>
        <time>2014-05-01T06:30:13Z</time>
      </trkpt>
      <trkpt lat="45.62663" lon="4.58358">
        <ele>690.5</ele>
        <time>2014-05-01T06:30:18Z</time>
      </trkpt>
      <trkpt lat="45.62657" lon="4.58362">
        <ele>691.4</ele>
        <time>2014-05-01T06:30:23Z</time>
      </trkpt>
      <trkpt lat="45.6265" lon="4.5837">
        <ele>691.8</ele>
        <time>2014-05-01T06:30:28Z</time>
      </trkpt>
      <trkpt lat="45.62645" lon="4.58378">
        <ele>693.9</ele>
        <time>2014-05-01T06:30:33Z</time>
      </trkpt>
      <trkpt lat="45.62642" lon="4.58385">
        <ele>694.5</ele>
        <time>2014-05-01T06:30:38Z</time>
      </trkpt>
      <trkpt lat="45.62638" lon="4.58393">
        <ele>696.1</ele>
        <time>2014-05-01T06:30:43Z</time>
      </trkpt>
      <trkpt lat="45.62635" lon="4.58402">
        <ele>696.7</ele>
        <time>2014-05-01T06:30:48Z</time>
      </trkpt>
      <trkpt lat="45.6263" lon="4.5841">
        <ele>697.4</ele>
        <time>2014-05-01T06:30:53Z</time>
      </trkpt>
      <trkpt lat="45.62627" lon="4.58417">
        <ele>698.3</ele>
        <time>2014-05-01T06:30:58Z</time>
      </trkpt>
      <trkpt lat="45.62622" lon="4.58427">
        <ele>698.8</ele>
        <time>2014-05-01T06:31:03Z</time>
      </trkpt>
      <trkpt lat="45.62618" lon="4.58433">
        <ele>699.9</ele>
        <time>2014-05-01T06:31:08Z</time>
      </trkpt>
      <trkpt lat="45.62617" lon="4.58435">
        <ele>700.9</ele>
        <time>2014-05-01T06:31:13Z</time>
      </trkpt>
      <trkpt lat="45.62612" lon="4.5844">
        <ele>701.9</ele>
        <time>2014-05-01T06:31:18Z</time>
      </trkpt>
      <trkpt lat="45.62603" lon="4.58447">
        <ele>703.2</ele>
        <time>2014-05-01T06:31:23Z</time>
      </trkpt>
      <trkpt lat="45.62597" lon="4.58455">
        <ele>703.8</ele>
        <time>2014-05-01T06:31:28Z</time>
      </trkpt>
      <trkpt lat="45.6259" lon="4.58463">
        <ele>706.3</ele>
        <time>2014-05-01T06:31:33Z</time>
      </trkpt>
      <trkpt lat="45.62582" lon="4.5847">
        <ele>706.7</ele>
        <time>2014-05-01T06:31:38Z</time>
      </trkpt>
      <trkpt lat="45.62575" lon="4.58475">
        <ele>707.8</ele>
        <time>2014-05-01T06:31:43Z</time>
      </trkpt>
      <trkpt lat="45.62568" lon="4.58482">
        <ele>709</ele>
        <time>2014-05-01T06:31:48Z</time>
      </trkpt>
      <trkpt lat="45.62563" lon="4.58492">
        <ele>710</ele>
        <time>2014-05-01T06:31:53Z</time>
      </trkpt>
      <trkpt lat="45.62558" lon="4.585">
        <ele>710.5</ele>
        <time>2014-05-01T06:31:58Z</time>
      </trkpt>
      <trkpt lat="45.62553" lon="4.58508">
        <ele>712.6</ele>
        <time>2014-05-01T06:32:03Z</time>
      </trkpt>
      <trkpt lat="45.6255" lon="4.5852">
        <ele>713.1</ele>
        <time>2014-05-01T06:32:08Z</time>
      </trkpt>
      <trkpt lat="45.62545" lon="4.58532">
        <ele>714.4</ele>
        <time>2014-05-01T06:32:13Z</time>
      </trkpt>
      <trkpt lat="45.6254" lon="4.58545">
        <ele>714.6</ele>
        <time>2014-05-01T06:32:18Z</time>
      </trkpt>
      <trkpt lat="45.62535" lon="4.58558">
        <ele>715.6</ele>
        <time>2014-05-01T06:32:23Z</time>
      </trkpt>
      <trkpt lat="45.6253" lon="4.58575">
        <ele>715.3</ele>
        <time>2014-05-01T06:32:28Z</time>
      </trkpt>
      <trkpt lat="45.62527" lon="4.58592">
        <ele>714.8</ele>
        <time>2014-05-01T06:32:33Z</time>
      </trkpt>
      <trkpt lat="45.62523" lon="4.58608">
        <ele>716.2</ele>
        <time>2014-05-01T06:32:38Z</time>
      </trkpt>
      <trkpt lat="45.62518" lon="4.58625">
        <ele>716.2</ele>
        <time>2014-05-01T06:32:43Z</time>
      </trkpt>
      <trkpt lat="45.62512" lon="4.58642">
        <ele>717.3</ele>
        <time>2014-05-01T06:32:48Z</time>
      </trkpt>
      <trkpt lat="45.62503" lon="4.58655">
        <ele>717.6</ele>
        <time>2014-05-01T06:32:53Z</time>
      </trkpt>
      <trkpt lat="45.62497" lon="4.58667">
        <ele>718.8</ele>
        <time>2014-05-01T06:32:58Z</time>
      </trkpt>
      <trkpt lat="45.6249" lon="4.58673">
        <ele>720.1</ele>
        <time>2014-05-01T06:33:03Z</time>
      </trkpt>
      <trkpt lat="45.62483" lon="4.58682">
        <ele>720.8</ele>
        <time>2014-05-01T06:33:08Z</time>
      </trkpt>
      <trkpt lat="45.62478" lon="4.58688">
        <ele>720.3</ele>
        <time>2014-05-01T06:33:13Z</time>
      </trkpt>
      <trkpt lat="45.62472" lon="4.58697">
        <ele>721.9</ele>
        <time>2014-05-01T06:33:18Z</time>
      </trkpt>
      <trkpt lat="45.62465" lon="4.58703">
        <ele>722.2</ele>
        <time>2014-05-01T06:33:23Z</time>
      </trkpt>
      <trkpt lat="45.6246" lon="4.58707">
        <ele>724.3</ele>
        <time>2014-05-01T06:33:28Z</time>
      </trkpt>
      <trkpt lat="45.62457" lon="4.5871">
        <ele>724.8</ele>
        <time>2014-05-01T06:33:33Z</time>
      </trkpt>
      <trkpt lat="45.62452" lon="4.58715">
        <ele>725.4</ele>
        <time>2014-05-01T06:33:38Z</time>
      </trkpt>
      <trkpt lat="45.62448" lon="4.58722">
        <ele>727.5</ele>
        <time>2014-05-01T06:33:43Z</time>
      </trkpt>
      <trkpt lat="45.62443" lon="4.58727">
        <ele>727.7</ele>
        <time>2014-05-01T06:33:48Z</time>
      </trkpt>
      <trkpt lat="45.6244" lon="4.58735">
        <ele>729</ele>
        <time>2014-05-01T06:33:53Z</time>
      </trkpt>
      <trkpt lat="45.62433" lon="4.5874">
        <ele>731.7</ele>
        <time>2014-05-01T06:33:58Z</time>
      </trkpt>
      <trkpt lat="45.6243" lon="4.58743">
        <ele>730.7</ele>
        <time>2014-05-01T06:34:03Z</time>
      </trkpt>
      <trkpt lat="45.62425" lon="4.58753">
        <ele>731.6</ele>
        <time>2014-05-01T06:34:08Z</time>
      </trkpt>
      <trkpt lat="45.62418" lon="4.5876">
        <ele>732.8</ele>
        <time>2014-05-01T06:34:13Z</time>
      </trkpt>
      <trkpt lat="45.62415" lon="4.58767">
        <ele>732.8</ele>
        <time>2014-05-01T06:34:18Z</time>
      </trkpt>
      <trkpt lat="45.62408" lon="4.58772">
        <ele>734.1</ele>
        <time>2014-05-01T06:34:23Z</time>
      </trkpt>
      <trkpt lat="45.62403" lon="4.58778">
        <ele>734.5</ele>
        <time>2014-05-01T06:34:28Z</time>
      </trkpt>
      <trkpt lat="45.62398" lon="4.58783">
        <ele>736.1</ele>
        <time>2014-05-01T06:34:33Z</time>
      </trkpt>
      <trkpt lat="45.62392" lon="4.58788">
        <ele>736.4</ele>
        <time>2014-05-01T06:34:38Z</time>
      </trkpt>
      <trkpt lat="45.62385" lon="4.58793">
        <ele>737.6</ele>
        <time>2014-05-01T06:34:43Z</time>
      </trkpt>
      <trkpt lat="45.6238" lon="4.588">
        <ele>738.6</ele>
        <time>2014-05-01T06:34:48Z</time>
      </trkpt>
      <trkpt lat="45.62375" lon="4.58803">
        <ele>739.6</ele>
        <time>2014-05-01T06:34:53Z</time>
      </trkpt>
      <trkpt lat="45.6237" lon="4.58807">
        <ele>740.6</ele>
        <time>2014-05-01T06:34:58Z</time>
      </trkpt>
      <trkpt lat="45.62365" lon="4.5881">
        <ele>741.3</ele>
        <time>2014-05-01T06:35:03Z</time>
      </trkpt>
      <trkpt lat="45.62358" lon="4.58813">
        <ele>742</ele>
        <time>2014-05-01T06:35:08Z</time>
      </trkpt>
      <trkpt lat="45.62352" lon="4.58817">
        <ele>742.5</ele>
        <time>2014-05-01T06:35:13Z</time>
      </trkpt>
      <trkpt lat="45.62345" lon="4.5882">
        <ele>743.5</ele>
        <time>2014-05-01T06:35:18Z</time>
      </trkpt>
      <trkpt lat="45.62338" lon="4.58822">
        <ele>744.9</ele>
        <time>2014-05-01T06:35:23Z</time>
      </trkpt>
      <trkpt lat="45.62332" lon="4.58825">
        <ele>745.8</ele>
        <time>2014-05-01T06:35:28Z</time>
      </trkpt>
      <trkpt lat="45.62325" lon="4.58827">
        <ele>747.5</ele>
        <time>2014-05-01T06:35:33Z</time>
      </trkpt>
      <trkpt lat="45.6232" lon="4.58828">
        <ele>748.1</ele>
        <time>2014-05-01T06:35:43Z</time>
      </trkpt>
      <trkpt lat="45.62313" lon="4.5883">
        <ele>749.5</ele>
        <time>2014-05-01T06:35:48Z</time>
      </trkpt>
      <trkpt lat="45.62307" lon="4.58832">
        <ele>751.7</ele>
        <time>2014-05-01T06:35:53Z</time>
      </trkpt>
      <trkpt lat="45.623" lon="4.5883">
        <ele>752.1</ele>
        <time>2014-05-01T06:35:58Z</time>
      </trkpt>
      <trkpt lat="45.62293" lon="4.58828">
        <ele>753.8</ele>
        <time>2014-05-01T06:36:03Z</time>
      </trkpt>
      <trkpt lat="45.62288" lon="4.58823">
        <ele>754.3</ele>
        <time>2014-05-01T06:36:08Z</time>
      </trkpt>
      <trkpt lat="45.62283" lon="4.5882">
        <ele>756.3</ele>
        <time>2014-05-01T06:36:13Z</time>
      </trkpt>
      <trkpt lat="45.62277" lon="4.58813">
        <ele>756.7</ele>
        <time>2014-05-01T06:36:18Z</time>
      </trkpt>
      <trkpt lat="45.62272" lon="4.58808">
        <ele>758.8</ele>
        <time>2014-05-01T06:36:23Z</time>
      </trkpt>
      <trkpt lat="45.62265" lon="4.58808">
        <ele>760.5</ele>
        <time>2014-05-01T06:36:28Z</time>
      </trkpt>
      <trkpt lat="45.62258" lon="4.58802">
        <ele>760.6</ele>
        <time>2014-05-01T06:36:33Z</time>
      </trkpt>
      <trkpt lat="45.62248" lon="4.58798">
        <ele>761.8</ele>
        <time>2014-05-01T06:36:38Z</time>
      </trkpt>
      <trkpt lat="45.62232" lon="4.58793">
        <ele>760.1</ele>
        <time>2014-05-01T06:36:43Z</time>
      </trkpt>
      <trkpt lat="45.62215" lon="4.5879">
        <ele>762.5</ele>
        <time>2014-05-01T06:36:48Z</time>
      </trkpt>
      <trkpt lat="45.6221" lon="4.58777">
        <ele>763</ele>
        <time>2014-05-01T06:36:53Z</time>
      </trkpt>
      <trkpt lat="45.62213" lon="4.58752">
        <ele>763.5</ele>
        <time>2014-05-01T06:36:58Z</time>
      </trkpt>
      <trkpt lat="45.62213" lon="4.58725">
        <ele>764</ele>
        <time>2014-05-01T06:37:03Z</time>
      </trkpt>
      <trkpt lat="45.6222" lon="4.58703">
        <ele>765.4</ele>
        <time>2014-05-01T06:37:08Z</time>
      </trkpt>
      <trkpt lat="45.62223" lon="4.58685">
        <ele>763.8</ele>
        <time>2014-05-01T06:37:13Z</time>
      </trkpt>
      <trkpt lat="45.6222" lon="4.58665">
        <ele>768.2</ele>
        <time>2014-05-01T06:37:18Z</time>
      </trkpt>
      <trkpt lat="45.62213" lon="4.58645">
        <ele>767.6</ele>
        <time>2014-05-01T06:37:23Z</time>
      </trkpt>
      <trkpt lat="45.62202" lon="4.58627">
        <ele>768.6</ele>
        <time>2014-05-01T06:37:28Z</time>
      </trkpt>
      <trkpt lat="45.6219" lon="4.58612">
        <ele>768.4</ele>
        <time>2014-05-01T06:37:33Z</time>
      </trkpt>
      <trkpt lat="45.62177" lon="4.58592">
        <ele>768.3</ele>
        <time>2014-05-01T06:37:38Z</time>
      </trkpt>
      <trkpt lat="45.6217" lon="4.58575">
        <ele>768.5</ele>
        <time>2014-05-01T06:37:43Z</time>
      </trkpt>
      <trkpt lat="45.62162" lon="4.58563">
        <ele>771.1</ele>
        <time>2014-05-01T06:37:48Z</time>
      </trkpt>
      <trkpt lat="45.62152" lon="4.58555">
        <ele>771.1</ele>
        <time>2014-05-01T06:37:53Z</time>
      </trkpt>
      <trkpt lat="45.62138" lon="4.58547">
        <ele>772.3</ele>
        <time>2014-05-01T06:37:58Z</time>
      </trkpt>
      <trkpt lat="45.62125" lon="4.58538">
        <ele>771.1</ele>
        <time>2014-05-01T06:38:03Z</time>
      </trkpt>
      <trkpt lat="45.62113" lon="4.5853">
        <ele>771.6</ele>
        <time>2014-05-01T06:38:08Z</time>
      </trkpt>
      <trkpt lat="45.621" lon="4.5852">
        <ele>771.5</ele>
        <time>2014-05-01T06:38:13Z</time>
      </trkpt>
      <trkpt lat="45.62077" lon="4.58513">
        <ele>771.3</ele>
        <time>2014-05-01T06:38:18Z</time>
      </trkpt>
      <trkpt lat="45.62047" lon="4.58503">
        <ele>764.9</ele>
        <time>2014-05-01T06:38:23Z</time>
      </trkpt>
      <trkpt lat="45.62022" lon="4.5848">
        <ele>765.4</ele>
        <time>2014-05-01T06:38:28Z</time>
      </trkpt>
      <trkpt lat="45.62003" lon="4.58453">
        <ele>764.2</ele>
        <time>2014-05-01T06:38:33Z</time>
      </trkpt>
      <trkpt lat="45.6198" lon="4.58422">
        <ele>763</ele>
        <time>2014-05-01T06:38:38Z</time>
      </trkpt>
      <trkpt lat="45.61957" lon="4.58373">
        <ele>762.5</ele>
        <time>2014-05-01T06:38:43Z</time>
      </trkpt>
      <trkpt lat="45.61942" lon="4.58323">
        <ele>761.9</ele>
        <time>2014-05-01T06:38:48Z</time>
      </trkpt>
      <trkpt lat="45.61927" lon="4.58275">
        <ele>751.2</ele>
        <time>2014-05-01T06:38:53Z</time>
      </trkpt>
      <trkpt lat="45.61913" lon="4.58228">
        <ele>753</ele>
        <time>2014-05-01T06:38:58Z</time>
      </trkpt>
      <trkpt lat="45.61902" lon="4.58188">
        <ele>746.8</ele>
        <time>2014-05-01T06:39:03Z</time>
      </trkpt>
      <trkpt lat="45.61885" lon="4.58147">
        <ele>746.6</ele>
        <time>2014-05-01T06:39:08Z</time>
      </trkpt>
      <trkpt lat="45.61868" lon="4.58117">
        <ele>743.1</ele>
        <time>2014-05-01T06:39:13Z</time>
      </trkpt>
      <trkpt lat="45.61853" lon="4.581">
        <ele>745.4</ele>
        <time>2014-05-01T06:39:18Z</time>
      </trkpt>
      <trkpt lat="45.61838" lon="4.58082">
        <ele>745.6</ele>
        <time>2014-05-01T06:39:23Z</time>
      </trkpt>
      <trkpt lat="45.6183" lon="4.58063">
        <ele>746.4</ele>
        <time>2014-05-01T06:39:28Z</time>
      </trkpt>
      <trkpt lat="45.61822" lon="4.58045">
        <ele>747.9</ele>
        <time>2014-05-01T06:39:33Z</time>
      </trkpt>
      <trkpt lat="45.61798" lon="4.58035">
        <ele>747.5</ele>
        <time>2014-05-01T06:39:38Z</time>
      </trkpt>
      <trkpt lat="45.61773" lon="4.58003">
        <ele>742</ele>
        <time>2014-05-01T06:39:43Z</time>
      </trkpt>
      <trkpt lat="45.61748" lon="4.57967">
        <ele>742</ele>
        <time>2014-05-01T06:39:48Z</time>
      </trkpt>
      <trkpt lat="45.61718" lon="4.57918">
        <ele>737.6</ele>
        <time>2014-05-01T06:39:53Z</time>
      </trkpt>
      <trkpt lat="45.61688" lon="4.57868">
        <ele>735.7</ele>
        <time>2014-05-01T06:39:58Z</time>
      </trkpt>
      <trkpt lat="45.61663" lon="4.5785">
        <ele>721.4</ele>
        <time>2014-05-01T06:40:03Z</time>
      </trkpt>
      <trkpt lat="45.61652" lon="4.57842">
        <ele>719.9</ele>
        <time>2014-05-01T06:40:08Z</time>
      </trkpt>
      <trkpt lat="45.61632" lon="4.57833">
        <ele>721</ele>
        <time>2014-05-01T06:40:13Z</time>
      </trkpt>
      <trkpt lat="45.6161" lon="4.57833">
        <ele>717.5</ele>
        <time>2014-05-01T06:40:18Z</time>
      </trkpt>
      <trkpt lat="45.61585" lon="4.57828">
        <ele>716.5</ele>
        <time>2014-05-01T06:40:23Z</time>
      </trkpt>
      <trkpt lat="45.6157" lon="4.57838">
        <ele>707.6</ele>
        <time>2014-05-01T06:40:28Z</time>
      </trkpt>
      <trkpt lat="45.61587" lon="4.5785">
        <ele>709</ele>
        <time>2014-05-01T06:40:33Z</time>
      </trkpt>
      <trkpt lat="45.6159" lon="4.57862">
        <ele>708.3</ele>
        <time>2014-05-01T06:40:38Z</time>
      </trkpt>
      <trkpt lat="45.6157" lon="4.57855">
        <ele>707.5</ele>
        <time>2014-05-01T06:40:43Z</time>
      </trkpt>
      <trkpt lat="45.61547" lon="4.5784">
        <ele>707</ele>
        <time>2014-05-01T06:40:48Z</time>
      </trkpt>
      <trkpt lat="45.61528" lon="4.57818">
        <ele>705.3</ele>
        <time>2014-05-01T06:40:53Z</time>
      </trkpt>
      <trkpt lat="45.61512" lon="4.5779">
        <ele>706.1</ele>
        <time>2014-05-01T06:40:58Z</time>
      </trkpt>
      <trkpt lat="45.61498" lon="4.57755">
        <ele>705.2</ele>
        <time>2014-05-01T06:41:03Z</time>
      </trkpt>
      <trkpt lat="45.6149" lon="4.57717">
        <ele>704.6</ele>
        <time>2014-05-01T06:41:08Z</time>
      </trkpt>
      <trkpt lat="45.61482" lon="4.57678">
        <ele>702.7</ele>
        <time>2014-05-01T06:41:13Z</time>
      </trkpt>
      <trkpt lat="45.61473" lon="4.57638">
        <ele>702.2</ele>
        <time>2014-05-01T06:41:18Z</time>
      </trkpt>
      <trkpt lat="45.61463" lon="4.576">
        <ele>701.9</ele>
        <time>2014-05-01T06:41:23Z</time>
      </trkpt>
      <trkpt lat="45.6145" lon="4.57562">
        <ele>699.9</ele>
        <time>2014-05-01T06:41:28Z</time>
      </trkpt>
      <trkpt lat="45.61437" lon="4.57523">
        <ele>698.7</ele>
        <time>2014-05-01T06:41:33Z</time>
      </trkpt>
      <trkpt lat="45.61422" lon="4.57487">
        <ele>697.2</ele>
        <time>2014-05-01T06:41:38Z</time>
      </trkpt>
      <trkpt lat="45.61403" lon="4.57445">
        <ele>695.6</ele>
        <time>2014-05-01T06:41:43Z</time>
      </trkpt>
      <trkpt lat="45.61382" lon="4.57413">
        <ele>692.8</ele>
        <time>2014-05-01T06:41:48Z</time>
      </trkpt>
      <trkpt lat="45.61348" lon="4.5742">
        <ele>688.4</ele>
        <time>2014-05-01T06:41:53Z</time>
      </trkpt>
      <trkpt lat="45.61312" lon="4.57425">
        <ele>682.3</ele>
        <time>2014-05-01T06:41:58Z</time>
      </trkpt>
      <trkpt lat="45.61277" lon="4.57432">
        <ele>679.3</ele>
        <time>2014-05-01T06:42:03Z</time>
      </trkpt>
      <trkpt lat="45.61252" lon="4.57445">
        <ele>674.3</ele>
        <time>2014-05-01T06:42:08Z</time>
      </trkpt>
      <trkpt lat="45.61233" lon="4.57467">
        <ele>674.9</ele>
        <time>2014-05-01T06:42:13Z</time>
      </trkpt>
      <trkpt lat="45.61212" lon="4.57492">
        <ele>668.8</ele>
        <time>2014-05-01T06:42:18Z</time>
      </trkpt>
      <trkpt lat="45.61185" lon="4.57505">
        <ele>664.9</ele>
        <time>2014-05-01T06:42:23Z</time>
      </trkpt>
      <trkpt lat="45.6116" lon="4.57527">
        <ele>661.1</ele>
        <time>2014-05-01T06:42:28Z</time>
      </trkpt>
      <trkpt lat="45.61138" lon="4.57542">
        <ele>662.5</ele>
        <time>2014-05-01T06:42:33Z</time>
      </trkpt>
      <trkpt lat="45.6112" lon="4.57552">
        <ele>662.2</ele>
        <time>2014-05-01T06:42:38Z</time>
      </trkpt>
      <trkpt lat="45.61107" lon="4.57558">
        <ele>662.7</ele>
        <time>2014-05-01T06:42:43Z</time>
      </trkpt>
      <trkpt lat="45.61098" lon="4.57563">
        <ele>663.9</ele>
        <time>2014-05-01T06:42:48Z</time>
      </trkpt>
      <trkpt lat="45.61092" lon="4.5757">
        <ele>664</ele>
        <time>2014-05-01T06:42:53Z</time>
      </trkpt>
      <trkpt lat="45.61083" lon="4.57575">
        <ele>665.1</ele>
        <time>2014-05-01T06:42:58Z</time>
      </trkpt>
      <trkpt lat="45.61077" lon="4.57582">
        <ele>665.7</ele>
        <time>2014-05-01T06:43:03Z</time>
      </trkpt>
      <trkpt lat="45.61068" lon="4.57588">
        <ele>666.9</ele>
        <time>2014-05-01T06:43:08Z</time>
      </trkpt>
      <trkpt lat="45.6106" lon="4.57595">
        <ele>668.1</ele>
        <time>2014-05-01T06:43:13Z</time>
      </trkpt>
      <trkpt lat="45.61055" lon="4.57602">
        <ele>669.1</ele>
        <time>2014-05-01T06:43:18Z</time>
      </trkpt>
      <trkpt lat="45.61048" lon="4.57605">
        <ele>670.8</ele>
        <time>2014-05-01T06:43:23Z</time>
      </trkpt>
      <trkpt lat="45.61042" lon="4.57607">
        <ele>672.7</ele>
        <time>2014-05-01T06:43:28Z</time>
      </trkpt>
      <trkpt lat="45.61035" lon="4.57608">
        <ele>674.1</ele>
        <time>2014-05-01T06:43:33Z</time>
      </trkpt>
      <trkpt lat="45.6103" lon="4.57612">
        <ele>674.5</ele>
        <time>2014-05-01T06:43:38Z</time>
      </trkpt>
      <trkpt lat="45.61023" lon="4.57615">
        <ele>676.3</ele>
        <time>2014-05-01T06:43:43Z</time>
      </trkpt>
      <trkpt lat="45.61018" lon="4.57617">
        <ele>677.1</ele>
        <time>2014-05-01T06:43:48Z</time>
      </trkpt>
      <trkpt lat="45.6101" lon="4.57618">
        <ele>678.7</ele>
        <time>2014-05-01T06:43:53Z</time>
      </trkpt>
      <trkpt lat="45.61005" lon="4.57622">
        <ele>680.5</ele>
        <time>2014-05-01T06:43:58Z</time>
      </trkpt>
      <trkpt lat="45.61" lon="4.57623">
        <ele>682</ele>
        <time>2014-05-01T06:44:03Z</time>
      </trkpt>
      <trkpt lat="45.60993" lon="4.57625">
        <ele>683</ele>
        <time>2014-05-01T06:44:08Z</time>
      </trkpt>
      <trkpt lat="45.60988" lon="4.57627">
        <ele>684.3</ele>
        <time>2014-05-01T06:44:13Z</time>
      </trkpt>
      <trkpt lat="45.60982" lon="4.57625">
        <ele>685.5</ele>
        <time>2014-05-01T06:44:18Z</time>
      </trkpt>
      <trkpt lat="45.60978" lon="4.57623">
        <ele>686.1</ele>
        <time>2014-05-01T06:44:23Z</time>
      </trkpt>
      <trkpt lat="45.60972" lon="4.57622">
        <ele>687.6</ele>
        <time>2014-05-01T06:44:28Z</time>
      </trkpt>
      <trkpt lat="45.60965" lon="4.57622">
        <ele>688.8</ele>
        <time>2014-05-01T06:44:33Z</time>
      </trkpt>
      <trkpt lat="45.60958" lon="4.57622">
        <ele>690.3</ele>
        <time>2014-05-01T06:44:38Z</time>
      </trkpt>
      <trkpt lat="45.60952" lon="4.5762">
        <ele>691.8</ele>
        <time>2014-05-01T06:44:43Z</time>
      </trkpt>
      <trkpt lat="45.60947" lon="4.57617">
        <ele>692.4</ele>
        <time>2014-05-01T06:44:48Z</time>
      </trkpt>
      <trkpt lat="45.60938" lon="4.57618">
        <ele>694.1</ele>
        <time>2014-05-01T06:44:53Z</time>
      </trkpt>
      <trkpt lat="45.60932" lon="4.57613">
        <ele>694.1</ele>
        <time>2014-05-01T06:44:58Z</time>
      </trkpt>
      <trkpt lat="45.60925" lon="4.57615">
        <ele>696.5</ele>
        <time>2014-05-01T06:45:03Z</time>
      </trkpt>
      <trkpt lat="45.60918" lon="4.57613">
        <ele>697.8</ele>
        <time>2014-05-01T06:45:08Z</time>
      </trkpt>
      <trkpt lat="45.60913" lon="4.57617">
        <ele>699.3</ele>
        <time>2014-05-01T06:45:13Z</time>
      </trkpt>
      <trkpt lat="45.60907" lon="4.57615">
        <ele>700.2</ele>
        <time>2014-05-01T06:45:18Z</time>
      </trkpt>
      <trkpt lat="45.60898" lon="4.57615">
        <ele>700.4</ele>
        <time>2014-05-01T06:45:23Z</time>
      </trkpt>
      <trkpt lat="45.60892" lon="4.57615">
        <ele>702</ele>
        <time>2014-05-01T06:45:28Z</time>
      </trkpt>
      <trkpt lat="45.60887" lon="4.57613">
        <ele>703.9</ele>
        <time>2014-05-01T06:45:33Z</time>
      </trkpt>
      <trkpt lat="45.60878" lon="4.57613">
        <ele>704.9</ele>
        <time>2014-05-01T06:45:38Z</time>
      </trkpt>
      <trkpt lat="45.60872" lon="4.57612">
        <ele>705</ele>
        <time>2014-05-01T06:45:43Z</time>
      </trkpt>
      <trkpt lat="45.60863" lon="4.57612">
        <ele>705.9</ele>
        <time>2014-05-01T06:45:48Z</time>
      </trkpt>
      <trkpt lat="45.60857" lon="4.57612">
        <ele>707</ele>
        <time>2014-05-01T06:45:53Z</time>
      </trkpt>
      <trkpt lat="45.6085" lon="4.57612">
        <ele>707.5</ele>
        <time>2014-05-01T06:45:58Z</time>
      </trkpt>
      <trkpt lat="45.60843" lon="4.57617">
        <ele>708.6</ele>
        <time>2014-05-01T06:46:03Z</time>
      </trkpt>
      <trkpt lat="45.60835" lon="4.57618">
        <ele>710.2</ele>
        <time>2014-05-01T06:46:08Z</time>
      </trkpt>
      <trkpt lat="45.6083" lon="4.57622">
        <ele>711.5</ele>
        <time>2014-05-01T06:46:13Z</time>
      </trkpt>
      <trkpt lat="45.60823" lon="4.57623">
        <ele>712.1</ele>
        <time>2014-05-01T06:46:18Z</time>
      </trkpt>
      <trkpt lat="45.60818" lon="4.57625">
        <ele>713.7</ele>
        <time>2014-05-01T06:46:23Z</time>
      </trkpt>
      <trkpt lat="45.60812" lon="4.57628">
        <ele>715</ele>
        <time>2014-05-01T06:46:28Z</time>
      </trkpt>
      <trkpt lat="45.60805" lon="4.5763">
        <ele>716.3</ele>
        <time>2014-05-01T06:46:33Z</time>
      </trkpt>
      <trkpt lat="45.60798" lon="4.57632">
        <ele>717.3</ele>
        <time>2014-05-01T06:46:38Z</time>
      </trkpt>
      <trkpt lat="45.60792" lon="4.57637">
        <ele>718.8</ele>
        <time>2014-05-01T06:46:43Z</time>
      </trkpt>
      <trkpt lat="45.60785" lon="4.5764">
        <ele>720</ele>
        <time>2014-05-01T06:46:48Z</time>
      </trkpt>
      <trkpt lat="45.6078" lon="4.57645">
        <ele>721.2</ele>
        <time>2014-05-01T06:46:53Z</time>
      </trkpt>
      <trkpt lat="45.60775" lon="4.57653">
        <ele>722</ele>
        <time>2014-05-01T06:46:58Z</time>
      </trkpt>
      <trkpt lat="45.60772" lon="4.57662">
        <ele>724.3</ele>
        <time>2014-05-01T06:47:03Z</time>
      </trkpt>
      <trkpt lat="45.60768" lon="4.57668">
        <ele>723.8</ele>
        <time>2014-05-01T06:47:08Z</time>
      </trkpt>
      <trkpt lat="45.60763" lon="4.57675">
        <ele>726.7</ele>
        <time>2014-05-01T06:47:13Z</time>
      </trkpt>
      <trkpt lat="45.6076" lon="4.57682">
        <ele>726.4</ele>
        <time>2014-05-01T06:47:18Z</time>
      </trkpt>
      <trkpt lat="45.60755" lon="4.5769">
        <ele>728.8</ele>
        <time>2014-05-01T06:47:23Z</time>
      </trkpt>
      <trkpt lat="45.6075" lon="4.57698">
        <ele>729.8</ele>
        <time>2014-05-01T06:47:28Z</time>
      </trkpt>
      <trkpt lat="45.60745" lon="4.57707">
        <ele>730.3</ele>
        <time>2014-05-01T06:47:33Z</time>
      </trkpt>
      <trkpt lat="45.60742" lon="4.57715">
        <ele>731.1</ele>
        <time>2014-05-01T06:47:38Z</time>
      </trkpt>
      <trkpt lat="45.60738" lon="4.57725">
        <ele>733</ele>
        <time>2014-05-01T06:47:43Z</time>
      </trkpt>
      <trkpt lat="45.60735" lon="4.57733">
        <ele>733.6</ele>
        <time>2014-05-01T06:47:48Z</time>
      </trkpt>
      <trkpt lat="45.60732" lon="4.57743">
        <ele>734</ele>
        <time>2014-05-01T06:47:53Z</time>
      </trkpt>
      <trkpt lat="45.60727" lon="4.57755">
        <ele>735.6</ele>
        <time>2014-05-01T06:47:58Z</time>
      </trkpt>
      <trkpt lat="45.60722" lon="4.57765">
        <ele>735.9</ele>
        <time>2014-05-01T06:48:03Z</time>
      </trkpt>
      <trkpt lat="45.60718" lon="4.57775">
        <ele>737.5</ele>
        <time>2014-05-01T06:48:08Z</time>
      </trkpt>
      <trkpt lat="45.60715" lon="4.57788">
        <ele>738.9</ele>
        <time>2014-05-01T06:48:13Z</time>
      </trkpt>
      <trkpt lat="45.60712" lon="4.57797">
        <ele>738.5</ele>
        <time>2014-05-01T06:48:18Z</time>
      </trkpt>
      <trkpt lat="45.60705" lon="4.57797">
        <ele>739.3</ele>
        <time>2014-05-01T06:48:23Z</time>
      </trkpt>
      <trkpt lat="45.60698" lon="4.57788">
        <ele>738.6</ele>
        <time>2014-05-01T06:48:28Z</time>
      </trkpt>
      <trkpt lat="45.6069" lon="4.5778">
        <ele>738.6</ele>
        <time>2014-05-01T06:48:33Z</time>
      </trkpt>
      <trkpt lat="45.60682" lon="4.57772">
        <ele>738.8</ele>
        <time>2014-05-01T06:48:38Z</time>
      </trkpt>
      <trkpt lat="45.60675" lon="4.57762">
        <ele>739.5</ele>
        <time>2014-05-01T06:48:43Z</time>
      </trkpt>
      <trkpt lat="45.60663" lon="4.5775">
        <ele>738.6</ele>
        <time>2014-05-01T06:48:48Z</time>
      </trkpt>
      <trkpt lat="45.60652" lon="4.57735">
        <ele>738.2</ele>
        <time>2014-05-01T06:48:53Z</time>
      </trkpt>
      <trkpt lat="45.60637" lon="4.57715">
        <ele>737.8</ele>
        <time>2014-05-01T06:48:58Z</time>
      </trkpt>
      <trkpt lat="45.60627" lon="4.57682">
        <ele>735.4</ele>
        <time>2014-05-01T06:49:03Z</time>
      </trkpt>
      <trkpt lat="45.60615" lon="4.57645">
        <ele>734.5</ele>
        <time>2014-05-01T06:49:08Z</time>
      </trkpt>
      <trkpt lat="45.60602" lon="4.57613">
        <ele>731.2</ele>
        <time>2014-05-01T06:49:13Z</time>
      </trkpt>
      <trkpt lat="45.60595" lon="4.5759">
        <ele>732.9</ele>
        <time>2014-05-01T06:49:18Z</time>
      </trkpt>
      <trkpt lat="45.60587" lon="4.57572">
        <ele>734.5</ele>
        <time>2014-05-01T06:49:23Z</time>
      </trkpt>
      <trkpt lat="45.60577" lon="4.57552">
        <ele>733.7</ele>
        <time>2014-05-01T06:49:28Z</time>
      </trkpt>
      <trkpt lat="45.60565" lon="4.57523">
        <ele>733</ele>
        <time>2014-05-01T06:49:33Z</time>
      </trkpt>
      <trkpt lat="45.60555" lon="4.57467">
        <ele>729.1</ele>
        <time>2014-05-01T06:49:38Z</time>
      </trkpt>
      <trkpt lat="45.6055" lon="4.57405">
        <ele>724.6</ele>
        <time>2014-05-01T06:49:43Z</time>
      </trkpt>
      <trkpt lat="45.60547" lon="4.57352">
        <ele>724</ele>
        <time>2014-05-01T06:49:48Z</time>
      </trkpt>
      <trkpt lat="45.60548" lon="4.57305">
        <ele>726.5</ele>
        <time>2014-05-01T06:49:53Z</time>
      </trkpt>
      <trkpt lat="45.6055" lon="4.5727">
        <ele>723</ele>
        <time>2014-05-01T06:49:58Z</time>
      </trkpt>
      <trkpt lat="45.60553" lon="4.57237">
        <ele>726.8</ele>
        <time>2014-05-01T06:50:03Z</time>
      </trkpt>
      <trkpt lat="45.60562" lon="4.57203">
        <ele>725.8</ele>
        <time>2014-05-01T06:50:08Z</time>
      </trkpt>
      <trkpt lat="45.60567" lon="4.57168">
        <ele>724.7</ele>
        <time>2014-05-01T06:50:13Z</time>
      </trkpt>
      <trkpt lat="45.60572" lon="4.57133">
        <ele>722.9</ele>
        <time>2014-05-01T06:50:18Z</time>
      </trkpt>
      <trkpt lat="45.60572" lon="4.5709">
        <ele>719.1</ele>
        <time>2014-05-01T06:50:23Z</time>
      </trkpt>
      <trkpt lat="45.60563" lon="4.57042">
        <ele>720.2</ele>
        <time>2014-05-01T06:50:28Z</time>
      </trkpt>
      <trkpt lat="45.60545" lon="4.56998">
        <ele>717.1</ele>
        <time>2014-05-01T06:50:33Z</time>
      </trkpt>
      <trkpt lat="45.60518" lon="4.56968">
        <ele>717</ele>
        <time>2014-05-01T06:50:38Z</time>
      </trkpt>
      <trkpt lat="45.6049" lon="4.56948">
        <ele>711.8</ele>
        <time>2014-05-01T06:50:43Z</time>
      </trkpt>
      <trkpt lat="45.60455" lon="4.5693">
        <ele>713.3</ele>
        <time>2014-05-01T06:50:48Z</time>
      </trkpt>
      <trkpt lat="45.60413" lon="4.56943">
        <ele>707.9</ele>
        <time>2014-05-01T06:50:53Z</time>
      </trkpt>
      <trkpt lat="45.60377" lon="4.56985">
        <ele>704.6</ele>
        <time>2014-05-01T06:50:58Z</time>
      </trkpt>
      <trkpt lat="45.6035" lon="4.5701">
        <ele>698.3</ele>
        <time>2014-05-01T06:51:03Z</time>
      </trkpt>
      <trkpt lat="45.60352" lon="4.56985">
        <ele>695</ele>
        <time>2014-05-01T06:51:08Z</time>
      </trkpt>
      <trkpt lat="45.6034" lon="4.56993">
        <ele>692.3</ele>
        <time>2014-05-01T06:51:13Z</time>
      </trkpt>
      <trkpt lat="45.60317" lon="4.57023">
        <ele>689</ele>
        <time>2014-05-01T06:51:18Z</time>
      </trkpt>
      <trkpt lat="45.60302" lon="4.57073">
        <ele>687.2</ele>
        <time>2014-05-01T06:51:23Z</time>
      </trkpt>
      <trkpt lat="45.60277" lon="4.57113">
        <ele>683.1</ele>
        <time>2014-05-01T06:51:28Z</time>
      </trkpt>
      <trkpt lat="45.60255" lon="4.57143">
        <ele>687</ele>
        <time>2014-05-01T06:51:33Z</time>
      </trkpt>
      <trkpt lat="45.60237" lon="4.57178">
        <ele>688.5</ele>
        <time>2014-05-01T06:51:38Z</time>
      </trkpt>
      <trkpt lat="45.60225" lon="4.57207">
        <ele>687.3</ele>
        <time>2014-05-01T06:51:43Z</time>
      </trkpt>
      <trkpt lat="45.60212" lon="4.57242">
        <ele>688.3</ele>
        <time>2014-05-01T06:51:48Z</time>
      </trkpt>
      <trkpt lat="45.60205" lon="4.57272">
        <ele>686.7</ele>
        <time>2014-05-01T06:51:53Z</time>
      </trkpt>
      <trkpt lat="45.60203" lon="4.57308">
        <ele>685.4</ele>
        <time>2014-05-01T06:51:58Z</time>
      </trkpt>
      <trkpt lat="45.602" lon="4.5735">
        <ele>684.8</ele>
        <time>2014-05-01T06:52:03Z</time>
      </trkpt>
      <trkpt lat="45.60198" lon="4.57393">
        <ele>680.9</ele>
        <time>2014-05-01T06:52:08Z</time>
      </trkpt>
      <trkpt lat="45.602" lon="4.57435">
        <ele>680.2</ele>
        <time>2014-05-01T06:52:13Z</time>
      </trkpt>
      <trkpt lat="45.60205" lon="4.5748">
        <ele>682.8</ele>
        <time>2014-05-01T06:52:18Z</time>
      </trkpt>
      <trkpt lat="45.60217" lon="4.57522">
        <ele>680.8</ele>
        <time>2014-05-01T06:52:23Z</time>
      </trkpt>
      <trkpt lat="45.60228" lon="4.5756">
        <ele>678.2</ele>
        <time>2014-05-01T06:52:28Z</time>
      </trkpt>
      <trkpt lat="45.60238" lon="4.57592">
        <ele>678.3</ele>
        <time>2014-05-01T06:52:33Z</time>
      </trkpt>
      <trkpt lat="45.60245" lon="4.57623">
        <ele>677.4</ele>
        <time>2014-05-01T06:52:38Z</time>
      </trkpt>
      <trkpt lat="45.6024" lon="4.57632">
        <ele>673.9</ele>
        <time>2014-05-01T06:52:43Z</time>
      </trkpt>
      <trkpt lat="45.60218" lon="4.57613">
        <ele>672.7</ele>
        <time>2014-05-01T06:52:48Z</time>
      </trkpt>
      <trkpt lat="45.6019" lon="4.57583">
        <ele>666.6</ele>
        <time>2014-05-01T06:52:53Z</time>
      </trkpt>
      <trkpt lat="45.60162" lon="4.57538">
        <ele>670.6</ele>
        <time>2014-05-01T06:52:58Z</time>
      </trkpt>
      <trkpt lat="45.60137" lon="4.57487">
        <ele>663.3</ele>
        <time>2014-05-01T06:53:03Z</time>
      </trkpt>
      <trkpt lat="45.60118" lon="4.57432">
        <ele>661.3</ele>
        <time>2014-05-01T06:53:08Z</time>
      </trkpt>
      <trkpt lat="45.601" lon="4.57382">
        <ele>654.4</ele>
        <time>2014-05-01T06:53:13Z</time>
      </trkpt>
      <trkpt lat="45.60078" lon="4.5733">
        <ele>647.8</ele>
        <time>2014-05-01T06:53:18Z</time>
      </trkpt>
      <trkpt lat="45.60062" lon="4.57272">
        <ele>638.4</ele>
        <time>2014-05-01T06:53:23Z</time>
      </trkpt>
      <trkpt lat="45.6005" lon="4.5721">
        <ele>636.7</ele>
        <time>2014-05-01T06:53:28Z</time>
      </trkpt>
      <trkpt lat="45.6003" lon="4.57157">
        <ele>633.2</ele>
        <time>2014-05-01T06:53:33Z</time>
      </trkpt>
      <trkpt lat="45.60008" lon="4.57108">
        <ele>627.3</ele>
        <time>2014-05-01T06:53:38Z</time>
      </trkpt>
      <trkpt lat="45.59988" lon="4.57062">
        <ele>622.6</ele>
        <time>2014-05-01T06:53:43Z</time>
      </trkpt>
      <trkpt lat="45.59963" lon="4.5705">
        <ele>617.6</ele>
        <time>2014-05-01T06:53:48Z</time>
      </trkpt>
      <trkpt lat="45.59952" lon="4.57028">
        <ele>617.9</ele>
        <time>2014-05-01T06:53:53Z</time>
      </trkpt>
      <trkpt lat="45.5995" lon="4.56997">
        <ele>617</ele>
        <time>2014-05-01T06:53:58Z</time>
      </trkpt>
      <trkpt lat="45.59945" lon="4.56967">
        <ele>615.6</ele>
        <time>2014-05-01T06:54:03Z</time>
      </trkpt>
      <trkpt lat="45.5994" lon="4.56937">
        <ele>613.6</ele>
        <time>2014-05-01T06:54:08Z</time>
      </trkpt>
      <trkpt lat="45.5994" lon="4.56885">
        <ele>612</ele>
        <time>2014-05-01T06:54:13Z</time>
      </trkpt>
      <trkpt lat="45.59933" lon="4.56823">
        <ele>605.9</ele>
        <time>2014-05-01T06:54:18Z</time>
      </trkpt>
      <trkpt lat="45.59917" lon="4.56763">
        <ele>603.6</ele>
        <time>2014-05-01T06:54:23Z</time>
      </trkpt>
      <trkpt lat="45.5989" lon="4.56713">
        <ele>599.1</ele>
        <time>2014-05-01T06:54:28Z</time>
      </trkpt>
      <trkpt lat="45.59878" lon="4.56668">
        <ele>599.8</ele>
        <time>2014-05-01T06:54:33Z</time>
      </trkpt>
      <trkpt lat="45.5988" lon="4.5664">
        <ele>599.7</ele>
        <time>2014-05-01T06:54:38Z</time>
      </trkpt>
      <trkpt lat="45.59882" lon="4.56627">
        <ele>601.3</ele>
        <time>2014-05-01T06:54:43Z</time>
      </trkpt>
      <trkpt lat="45.59882" lon="4.56613">
        <ele>603.2</ele>
        <time>2014-05-01T06:54:48Z</time>
      </trkpt>
      <trkpt lat="45.59882" lon="4.566">
        <ele>604.4</ele>
        <time>2014-05-01T06:54:53Z</time>
      </trkpt>
      <trkpt lat="45.5988" lon="4.56587">
        <ele>605.6</ele>
        <time>2014-05-01T06:54:58Z</time>
      </trkpt>
      <trkpt lat="45.5988" lon="4.56573">
        <ele>607.2</ele>
        <time>2014-05-01T06:55:03Z</time>
      </trkpt>
      <trkpt lat="45.5988" lon="4.56562">
        <ele>607.5</ele>
        <time>2014-05-01T06:55:08Z</time>
      </trkpt>
      <trkpt lat="45.59878" lon="4.5655">
        <ele>609.8</ele>
        <time>2014-05-01T06:55:13Z</time>
      </trkpt>
      <trkpt lat="45.59877" lon="4.56535">
        <ele>610.9</ele>
        <time>2014-05-01T06:55:18Z</time>
      </trkpt>
      <trkpt lat="45.59877" lon="4.56522">
        <ele>613</ele>
        <time>2014-05-01T06:55:23Z</time>
      </trkpt>
      <trkpt lat="45.59875" lon="4.56513">
        <ele>613</ele>
        <time>2014-05-01T06:55:28Z</time>
      </trkpt>
      <trkpt lat="45.59877" lon="4.56505">
        <ele>614.3</ele>
        <time>2014-05-01T06:55:33Z</time>
      </trkpt>
      <trkpt lat="45.59877" lon="4.56507">
        <ele>614.3</ele>
        <time>2014-05-01T06:55:38Z</time>
      </trkpt>
      <trkpt lat="45.59877" lon="4.56502">
        <ele>614.6</ele>
        <time>2014-05-01T06:56:33Z</time>
      </trkpt>
      <trkpt lat="45.59877" lon="4.56492">
        <ele>615.5</ele>
        <time>2014-05-01T06:56:38Z</time>
      </trkpt>
      <trkpt lat="45.59875" lon="4.56482">
        <ele>616</ele>
        <time>2014-05-01T06:56:43Z</time>
      </trkpt>
      <trkpt lat="45.59875" lon="4.5647">
        <ele>617.2</ele>
        <time>2014-05-01T06:56:48Z</time>
      </trkpt>
      <trkpt lat="45.59875" lon="4.5646">
        <ele>618.6</ele>
        <time>2014-05-01T06:56:53Z</time>
      </trkpt>
      <trkpt lat="45.59873" lon="4.56447">
        <ele>619.6</ele>
        <time>2014-05-01T06:56:58Z</time>
      </trkpt>
      <trkpt lat="45.59873" lon="4.56435">
        <ele>620.8</ele>
        <time>2014-05-01T06:57:03Z</time>
      </trkpt>
      <trkpt lat="45.59873" lon="4.56423">
        <ele>622.5</ele>
        <time>2014-05-01T06:57:08Z</time>
      </trkpt>
      <trkpt lat="45.59873" lon="4.56412">
        <ele>622.1</ele>
        <time>2014-05-01T06:57:13Z</time>
      </trkpt>
      <trkpt lat="45.59873" lon="4.56398">
        <ele>623.4</ele>
        <time>2014-05-01T06:57:18Z</time>
      </trkpt>
      <trkpt lat="45.59875" lon="4.56388">
        <ele>623.8</ele>
        <time>2014-05-01T06:57:23Z</time>
      </trkpt>
      <trkpt lat="45.59875" lon="4.56377">
        <ele>624.9</ele>
        <time>2014-05-01T06:57:28Z</time>
      </trkpt>
      <trkpt lat="45.59875" lon="4.56365">
        <ele>626.6</ele>
        <time>2014-05-01T06:57:33Z</time>
      </trkpt>
      <trkpt lat="45.59875" lon="4.56353">
        <ele>627</ele>
        <time>2014-05-01T06:57:38Z</time>
      </trkpt>
      <trkpt lat="45.59875" lon="4.56343">
        <ele>629.1</ele>
        <time>2014-05-01T06:57:43Z</time>
      </trkpt>
      <trkpt lat="45.59873" lon="4.56332">
        <ele>629.8</ele>
        <time>2014-05-01T06:57:48Z</time>
      </trkpt>
      <trkpt lat="45.59872" lon="4.5632">
        <ele>631.5</ele>
        <time>2014-05-01T06:57:53Z</time>
      </trkpt>
      <trkpt lat="45.5987" lon="4.56307">
        <ele>631.5</ele>
        <time>2014-05-01T06:57:58Z</time>
      </trkpt>
      <trkpt lat="45.59867" lon="4.56297">
        <ele>633.1</ele>
        <time>2014-05-01T06:58:03Z</time>
      </trkpt>
      <trkpt lat="45.59863" lon="4.56285">
        <ele>634.8</ele>
        <time>2014-05-01T06:58:08Z</time>
      </trkpt>
      <trkpt lat="45.59858" lon="4.56275">
        <ele>635.3</ele>
        <time>2014-05-01T06:58:13Z</time>
      </trkpt>
      <trkpt lat="45.59855" lon="4.56263">
        <ele>636</ele>
        <time>2014-05-01T06:58:18Z</time>
      </trkpt>
      <trkpt lat="45.5985" lon="4.56253">
        <ele>636.8</ele>
        <time>2014-05-01T06:58:23Z</time>
      </trkpt>
      <trkpt lat="45.59847" lon="4.56242">
        <ele>637.8</ele>
        <time>2014-05-01T06:58:28Z</time>
      </trkpt>
      <trkpt lat="45.59842" lon="4.56228">
        <ele>638.4</ele>
        <time>2014-05-01T06:58:33Z</time>
      </trkpt>
      <trkpt lat="45.59837" lon="4.56213">
        <ele>639.9</ele>
        <time>2014-05-01T06:58:38Z</time>
      </trkpt>
      <trkpt lat="45.59828" lon="4.562">
        <ele>639.3</ele>
        <time>2014-05-01T06:58:43Z</time>
      </trkpt>
      <trkpt lat="45.5982" lon="4.5618">
        <ele>638.9</ele>
        <time>2014-05-01T06:58:48Z</time>
      </trkpt>
      <trkpt lat="45.5981" lon="4.56162">
        <ele>637.9</ele>
        <time>2014-05-01T06:58:53Z</time>
      </trkpt>
      <trkpt lat="45.59797" lon="4.56138">
        <ele>638.5</ele>
        <time>2014-05-01T06:58:58Z</time>
      </trkpt>
      <trkpt lat="45.5978" lon="4.56108">
        <ele>637</ele>
        <time>2014-05-01T06:59:03Z</time>
      </trkpt>
      <trkpt lat="45.59762" lon="4.56087">
        <ele>635.3</ele>
        <time>2014-05-01T06:59:08Z</time>
      </trkpt>
      <trkpt lat="45.59748" lon="4.56067">
        <ele>634.8</ele>
        <time>2014-05-01T06:59:13Z</time>
      </trkpt>
      <trkpt lat="45.59733" lon="4.5606">
        <ele>635.8</ele>
        <time>2014-05-01T06:59:18Z</time>
      </trkpt>
      <trkpt lat="45.59722" lon="4.56055">
        <ele>636.8</ele>
        <time>2014-05-01T06:59:23Z</time>
      </trkpt>
      <trkpt lat="45.59713" lon="4.56048">
        <ele>638.4</ele>
        <time>2014-05-01T06:59:28Z</time>
      </trkpt>
      <trkpt lat="45.59705" lon="4.56045">
        <ele>639.2</ele>
        <time>2014-05-01T06:59:33Z</time>
      </trkpt>
      <trkpt lat="45.59698" lon="4.5604">
        <ele>641.5</ele>
        <time>2014-05-01T06:59:38Z</time>
      </trkpt>
      <trkpt lat="45.5969" lon="4.56033">
        <ele>641.5</ele>
        <time>2014-05-01T06:59:43Z</time>
      </trkpt>
      <trkpt lat="45.59683" lon="4.56027">
        <ele>643</ele>
        <time>2014-05-01T06:59:48Z</time>
      </trkpt>
      <trkpt lat="45.59677" lon="4.5602">
        <ele>645</ele>
        <time>2014-05-01T06:59:53Z</time>
      </trkpt>
      <trkpt lat="45.5967" lon="4.56013">
        <ele>646.5</ele>
        <time>2014-05-01T06:59:58Z</time>
      </trkpt>
      <trkpt lat="45.59665" lon="4.56005">
        <ele>648.3</ele>
        <time>2014-05-01T07:00:03Z</time>
      </trkpt>
      <trkpt lat="45.5966" lon="4.55997">
        <ele>648.5</ele>
        <time>2014-05-01T07:00:08Z</time>
      </trkpt>
      <trkpt lat="45.59655" lon="4.55987">
        <ele>649.5</ele>
        <time>2014-05-01T07:00:13Z</time>
      </trkpt>
      <trkpt lat="45.5965" lon="4.55977">
        <ele>651</ele>
        <time>2014-05-01T07:00:18Z</time>
      </trkpt>
      <trkpt lat="45.59647" lon="4.55963">
        <ele>651.8</ele>
        <time>2014-05-01T07:00:23Z</time>
      </trkpt>
      <trkpt lat="45.59642" lon="4.55952">
        <ele>652.4</ele>
        <time>2014-05-01T07:00:28Z</time>
      </trkpt>
      <trkpt lat="45.59637" lon="4.5594">
        <ele>654.9</ele>
        <time>2014-05-01T07:00:33Z</time>
      </trkpt>
      <trkpt lat="45.59632" lon="4.55927">
        <ele>654.7</ele>
        <time>2014-05-01T07:00:38Z</time>
      </trkpt>
      <trkpt lat="45.59627" lon="4.55917">
        <ele>655.6</ele>
        <time>2014-05-01T07:00:43Z</time>
      </trkpt>
      <trkpt lat="45.59625" lon="4.55905">
        <ele>656</ele>
        <time>2014-05-01T07:00:48Z</time>
      </trkpt>
      <trkpt lat="45.59622" lon="4.55895">
        <ele>658.4</ele>
        <time>2014-05-01T07:00:53Z</time>
      </trkpt>
      <trkpt lat="45.59618" lon="4.55885">
        <ele>660.1</ele>
        <time>2014-05-01T07:00:58Z</time>
      </trkpt>
      <trkpt lat="45.59618" lon="4.55875">
        <ele>660.8</ele>
        <time>2014-05-01T07:01:03Z</time>
      </trkpt>
      <trkpt lat="45.59617" lon="4.55863">
        <ele>661.7</ele>
        <time>2014-05-01T07:01:08Z</time>
      </trkpt>
      <trkpt lat="45.59615" lon="4.55855">
        <ele>662.3</ele>
        <time>2014-05-01T07:01:13Z</time>
      </trkpt>
      <trkpt lat="45.59613" lon="4.55848">
        <ele>663.4</ele>
        <time>2014-05-01T07:01:18Z</time>
      </trkpt>
      <trkpt lat="45.59613" lon="4.55838">
        <ele>665.3</ele>
        <time>2014-05-01T07:01:23Z</time>
      </trkpt>
      <trkpt lat="45.5961" lon="4.5583">
        <ele>666.3</ele>
        <time>2014-05-01T07:01:28Z</time>
      </trkpt>
      <trkpt lat="45.59607" lon="4.55822">
        <ele>668.4</ele>
        <time>2014-05-01T07:01:33Z</time>
      </trkpt>
      <trkpt lat="45.59603" lon="4.55815">
        <ele>669.8</ele>
        <time>2014-05-01T07:01:38Z</time>
      </trkpt>
      <trkpt lat="45.59598" lon="4.55808">
        <ele>671.1</ele>
        <time>2014-05-01T07:01:43Z</time>
      </trkpt>
      <trkpt lat="45.59593" lon="4.55802">
        <ele>671.9</ele>
        <time>2014-05-01T07:01:48Z</time>
      </trkpt>
      <trkpt lat="45.59588" lon="4.55793">
        <ele>673.3</ele>
        <time>2014-05-01T07:01:53Z</time>
      </trkpt>
      <trkpt lat="45.59585" lon="4.55785">
        <ele>674.4</ele>
        <time>2014-05-01T07:01:58Z</time>
      </trkpt>
      <trkpt lat="45.59583" lon="4.55777">
        <ele>675.9</ele>
        <time>2014-05-01T07:02:03Z</time>
      </trkpt>
      <trkpt lat="45.5958" lon="4.55768">
        <ele>676.8</ele>
        <time>2014-05-01T07:02:08Z</time>
      </trkpt>
      <trkpt lat="45.59575" lon="4.55762">
        <ele>677.6</ele>
        <time>2014-05-01T07:02:13Z</time>
      </trkpt>
      <trkpt lat="45.59573" lon="4.55753">
        <ele>679.1</ele>
        <time>2014-05-01T07:02:18Z</time>
      </trkpt>
      <trkpt lat="45.5957" lon="4.55745">
        <ele>680.3</ele>
        <time>2014-05-01T07:02:23Z</time>
      </trkpt>
      <trkpt lat="45.59567" lon="4.55738">
        <ele>681.1</ele>
        <time>2014-05-01T07:02:28Z</time>
      </trkpt>
      <trkpt lat="45.59563" lon="4.5573">
        <ele>682.1</ele>
        <time>2014-05-01T07:02:33Z</time>
      </trkpt>
      <trkpt lat="45.59562" lon="4.55722">
        <ele>683.3</ele>
        <time>2014-05-01T07:02:38Z</time>
      </trkpt>
      <trkpt lat="45.59558" lon="4.55713">
        <ele>684.4</ele>
        <time>2014-05-01T07:02:43Z</time>
      </trkpt>
      <trkpt lat="45.59557" lon="4.55707">
        <ele>685.9</ele>
        <time>2014-05-01T07:02:48Z</time>
      </trkpt>
      <trkpt lat="45.59553" lon="4.55697">
        <ele>686.8</ele>
        <time>2014-05-01T07:02:53Z</time>
      </trkpt>
      <trkpt lat="45.5955" lon="4.55688">
        <ele>687.2</ele>
        <time>2014-05-01T07:02:58Z</time>
      </trkpt>
      <trkpt lat="45.59548" lon="4.55678">
        <ele>688.4</ele>
        <time>2014-05-01T07:03:03Z</time>
      </trkpt>
      <trkpt lat="45.59545" lon="4.55668">
        <ele>689.7</ele>
        <time>2014-05-01T07:03:08Z</time>
      </trkpt>
      <trkpt lat="45.59542" lon="4.5566">
        <ele>691.5</ele>
        <time>2014-05-01T07:03:13Z</time>
      </trkpt>
      <trkpt lat="45.5954" lon="4.55652">
        <ele>692</ele>
        <time>2014-05-01T07:03:18Z</time>
      </trkpt>
      <trkpt lat="45.59538" lon="4.55647">
        <ele>694</ele>
        <time>2014-05-01T07:03:23Z</time>
      </trkpt>
      <trkpt lat="45.59537" lon="4.55638">
        <ele>694.7</ele>
        <time>2014-05-01T07:03:28Z</time>
      </trkpt>
      <trkpt lat="45.59535" lon="4.55632">
        <ele>695.6</ele>
        <time>2014-05-01T07:03:33Z</time>
      </trkpt>
      <trkpt lat="45.59535" lon="4.5562">
        <ele>696.4</ele>
        <time>2014-05-01T07:03:38Z</time>
      </trkpt>
      <trkpt lat="45.59537" lon="4.55608">
        <ele>696.8</ele>
        <time>2014-05-01T07:03:43Z</time>
      </trkpt>
      <trkpt lat="45.59535" lon="4.55598">
        <ele>697.4</ele>
        <time>2014-05-01T07:03:48Z</time>
      </trkpt>
      <trkpt lat="45.59535" lon="4.55587">
        <ele>697.8</ele>
        <time>2014-05-01T07:03:53Z</time>
      </trkpt>
      <trkpt lat="45.59535" lon="4.55575">
        <ele>698.1</ele>
        <time>2014-05-01T07:03:58Z</time>
      </trkpt>
      <trkpt lat="45.59535" lon="4.55565">
        <ele>699.1</ele>
        <time>2014-05-01T07:04:03Z</time>
      </trkpt>
      <trkpt lat="45.59535" lon="4.55555">
        <ele>699.6</ele>
        <time>2014-05-01T07:04:08Z</time>
      </trkpt>
      <trkpt lat="45.59533" lon="4.55543">
        <ele>701</ele>
        <time>2014-05-01T07:04:13Z</time>
      </trkpt>
      <trkpt lat="45.59533" lon="4.55533">
        <ele>702</ele>
        <time>2014-05-01T07:04:18Z</time>
      </trkpt>
      <trkpt lat="45.59532" lon="4.55525">
        <ele>703</ele>
        <time>2014-05-01T07:04:23Z</time>
      </trkpt>
      <trkpt lat="45.59532" lon="4.55515">
        <ele>704.2</ele>
        <time>2014-05-01T07:04:28Z</time>
      </trkpt>
      <trkpt lat="45.59528" lon="4.55505">
        <ele>705</ele>
        <time>2014-05-01T07:04:33Z</time>
      </trkpt>
      <trkpt lat="45.59525" lon="4.55497">
        <ele>705.9</ele>
        <time>2014-05-01T07:04:38Z</time>
      </trkpt>
      <trkpt lat="45.59522" lon="4.55488">
        <ele>707.1</ele>
        <time>2014-05-01T07:04:43Z</time>
      </trkpt>
      <trkpt lat="45.59517" lon="4.55482">
        <ele>708.5</ele>
        <time>2014-05-01T07:04:48Z</time>
      </trkpt>
      <trkpt lat="45.59512" lon="4.55475">
        <ele>709.6</ele>
        <time>2014-05-01T07:04:53Z</time>
      </trkpt>
      <trkpt lat="45.59505" lon="4.55468">
        <ele>710.2</ele>
        <time>2014-05-01T07:04:58Z</time>
      </trkpt>
      <trkpt lat="45.59502" lon="4.55458">
        <ele>711.2</ele>
        <time>2014-05-01T07:05:03Z</time>
      </trkpt>
      <trkpt lat="45.59498" lon="4.55443">
        <ele>711.8</ele>
        <time>2014-05-01T07:05:08Z</time>
      </trkpt>
      <trkpt lat="45.59495" lon="4.5543">
        <ele>711.3</ele>
        <time>2014-05-01T07:05:13Z</time>
      </trkpt>
      <trkpt lat="45.59492" lon="4.55417">
        <ele>711.8</ele>
        <time>2014-05-01T07:05:18Z</time>
      </trkpt>
      <trkpt lat="45.59488" lon="4.55403">
        <ele>712.5</ele>
        <time>2014-05-01T07:05:23Z</time>
      </trkpt>
      <trkpt lat="45.59483" lon="4.55387">
        <ele>712.1</ele>
        <time>2014-05-01T07:05:28Z</time>
      </trkpt>
      <trkpt lat="45.5948" lon="4.55373">
        <ele>713</ele>
        <time>2014-05-01T07:05:33Z</time>
      </trkpt>
      <trkpt lat="45.59477" lon="4.5536">
        <ele>713.9</ele>
        <time>2014-05-01T07:05:38Z</time>
      </trkpt>
      <trkpt lat="45.59473" lon="4.55347">
        <ele>713.6</ele>
        <time>2014-05-01T07:05:43Z</time>
      </trkpt>
      <trkpt lat="45.59472" lon="4.55333">
        <ele>714.5</ele>
        <time>2014-05-01T07:05:48Z</time>
      </trkpt>
      <trkpt lat="45.5947" lon="4.55318">
        <ele>715.5</ele>
        <time>2014-05-01T07:05:53Z</time>
      </trkpt>
      <trkpt lat="45.59468" lon="4.553">
        <ele>716.3</ele>
        <time>2014-05-01T07:05:58Z</time>
      </trkpt>
      <trkpt lat="45.59467" lon="4.55285">
        <ele>717.1</ele>
        <time>2014-05-01T07:06:03Z</time>
      </trkpt>
      <trkpt lat="45.59463" lon="4.55268">
        <ele>717.4</ele>
        <time>2014-05-01T07:06:08Z</time>
      </trkpt>
      <trkpt lat="45.59462" lon="4.55253">
        <ele>718.2</ele>
        <time>2014-05-01T07:06:13Z</time>
      </trkpt>
      <trkpt lat="45.59462" lon="4.55235">
        <ele>718.8</ele>
        <time>2014-05-01T07:06:18Z</time>
      </trkpt>
      <trkpt lat="45.59462" lon="4.55218">
        <ele>720</ele>
        <time>2014-05-01T07:06:23Z</time>
      </trkpt>
      <trkpt lat="45.59462" lon="4.55202">
        <ele>719.7</ele>
        <time>2014-05-01T07:06:28Z</time>
      </trkpt>
      <trkpt lat="45.5946" lon="4.55187">
        <ele>722.5</ele>
        <time>2014-05-01T07:06:33Z</time>
      </trkpt>
      <trkpt lat="45.59458" lon="4.55172">
        <ele>721.8</ele>
        <time>2014-05-01T07:06:38Z</time>
      </trkpt>
      <trkpt lat="45.59455" lon="4.5516">
        <ele>723.6</ele>
        <time>2014-05-01T07:06:43Z</time>
      </trkpt>
      <trkpt lat="45.59452" lon="4.55147">
        <ele>724.6</ele>
        <time>2014-05-01T07:06:48Z</time>
      </trkpt>
      <trkpt lat="45.59448" lon="4.55135">
        <ele>726.2</ele>
        <time>2014-05-01T07:06:53Z</time>
      </trkpt>
      <trkpt lat="45.59447" lon="4.55122">
        <ele>726.8</ele>
        <time>2014-05-01T07:06:58Z</time>
      </trkpt>
      <trkpt lat="45.59443" lon="4.55108">
        <ele>727.4</ele>
        <time>2014-05-01T07:07:03Z</time>
      </trkpt>
      <trkpt lat="45.59442" lon="4.55095">
        <ele>727.4</ele>
        <time>2014-05-01T07:07:08Z</time>
      </trkpt>
      <trkpt lat="45.59442" lon="4.5508">
        <ele>729.2</ele>
        <time>2014-05-01T07:07:13Z</time>
      </trkpt>
      <trkpt lat="45.5944" lon="4.55065">
        <ele>729.9</ele>
        <time>2014-05-01T07:07:18Z</time>
      </trkpt>
      <trkpt lat="45.5944" lon="4.55052">
        <ele>729.9</ele>
        <time>2014-05-01T07:07:23Z</time>
      </trkpt>
      <trkpt lat="45.59437" lon="4.55037">
        <ele>730.7</ele>
        <time>2014-05-01T07:07:28Z</time>
      </trkpt>
      <trkpt lat="45.59433" lon="4.55022">
        <ele>730.6</ele>
        <time>2014-05-01T07:07:33Z</time>
      </trkpt>
      <trkpt lat="45.59428" lon="4.5501">
        <ele>731.1</ele>
        <time>2014-05-01T07:07:38Z</time>
      </trkpt>
      <trkpt lat="45.59422" lon="4.54997">
        <ele>731.8</ele>
        <time>2014-05-01T07:07:43Z</time>
      </trkpt>
      <trkpt lat="45.59417" lon="4.54985">
        <ele>733.2</ele>
        <time>2014-05-01T07:07:48Z</time>
      </trkpt>
      <trkpt lat="45.5941" lon="4.54973">
        <ele>733.8</ele>
        <time>2014-05-01T07:07:53Z</time>
      </trkpt>
      <trkpt lat="45.59403" lon="4.5496">
        <ele>734.5</ele>
        <time>2014-05-01T07:07:58Z</time>
      </trkpt>
      <trkpt lat="45.59398" lon="4.5495">
        <ele>735.9</ele>
        <time>2014-05-01T07:08:03Z</time>
      </trkpt>
      <trkpt lat="45.59392" lon="4.54938">
        <ele>736.4</ele>
        <time>2014-05-01T07:08:08Z</time>
      </trkpt>
      <trkpt lat="45.59385" lon="4.54928">
        <ele>737.4</ele>
        <time>2014-05-01T07:08:13Z</time>
      </trkpt>
      <trkpt lat="45.59377" lon="4.54917">
        <ele>737.5</ele>
        <time>2014-05-01T07:08:18Z</time>
      </trkpt>
      <trkpt lat="45.5937" lon="4.54905">
        <ele>737.6</ele>
        <time>2014-05-01T07:08:23Z</time>
      </trkpt>
      <trkpt lat="45.5936" lon="4.54892">
        <ele>738.8</ele>
        <time>2014-05-01T07:08:28Z</time>
      </trkpt>
      <trkpt lat="45.5935" lon="4.54878">
        <ele>737.4</ele>
        <time>2014-05-01T07:08:33Z</time>
      </trkpt>
      <trkpt lat="45.59338" lon="4.54863">
        <ele>736.4</ele>
        <time>2014-05-01T07:08:38Z</time>
      </trkpt>
      <trkpt lat="45.59328" lon="4.54848">
        <ele>737.1</ele>
        <time>2014-05-01T07:08:43Z</time>
      </trkpt>
      <trkpt lat="45.59317" lon="4.54835">
        <ele>736.1</ele>
        <time>2014-05-01T07:08:48Z</time>
      </trkpt>
      <trkpt lat="45.593" lon="4.54815">
        <ele>737</ele>
        <time>2014-05-01T07:08:53Z</time>
      </trkpt>
      <trkpt lat="45.59282" lon="4.54793">
        <ele>734.7</ele>
        <time>2014-05-01T07:08:58Z</time>
      </trkpt>
      <trkpt lat="45.59262" lon="4.5478">
        <ele>735.4</ele>
        <time>2014-05-01T07:09:03Z</time>
      </trkpt>
      <trkpt lat="45.5924" lon="4.54767">
        <ele>736.1</ele>
        <time>2014-05-01T07:09:08Z</time>
      </trkpt>
      <trkpt lat="45.59213" lon="4.54763">
        <ele>734.3</ele>
        <time>2014-05-01T07:09:13Z</time>
      </trkpt>
      <trkpt lat="45.59185" lon="4.54765">
        <ele>731</ele>
        <time>2014-05-01T07:09:18Z</time>
      </trkpt>
      <trkpt lat="45.59157" lon="4.54762">
        <ele>729.3</ele>
        <time>2014-05-01T07:09:23Z</time>
      </trkpt>
      <trkpt lat="45.59135" lon="4.5475">
        <ele>730.7</ele>
        <time>2014-05-01T07:09:28Z</time>
      </trkpt>
      <trkpt lat="45.59118" lon="4.54733">
        <ele>730.7</ele>
        <time>2014-05-01T07:09:33Z</time>
      </trkpt>
      <trkpt lat="45.59102" lon="4.54717">
        <ele>731.3</ele>
        <time>2014-05-01T07:09:38Z</time>
      </trkpt>
      <trkpt lat="45.59085" lon="4.54698">
        <ele>732.8</ele>
        <time>2014-05-01T07:09:43Z</time>
      </trkpt>
      <trkpt lat="45.59068" lon="4.54677">
        <ele>733</ele>
        <time>2014-05-01T07:09:48Z</time>
      </trkpt>
      <trkpt lat="45.59053" lon="4.54658">
        <ele>731.5</ele>
        <time>2014-05-01T07:09:53Z</time>
      </trkpt>
      <trkpt lat="45.59043" lon="4.54635">
        <ele>732.9</ele>
        <time>2014-05-01T07:09:58Z</time>
      </trkpt>
      <trkpt lat="45.59038" lon="4.54608">
        <ele>732.3</ele>
        <time>2014-05-01T07:10:03Z</time>
      </trkpt>
      <trkpt lat="45.59033" lon="4.5458">
        <ele>734.4</ele>
        <time>2014-05-01T07:10:08Z</time>
      </trkpt>
      <trkpt lat="45.59025" lon="4.54558">
        <ele>734.4</ele>
        <time>2014-05-01T07:10:13Z</time>
      </trkpt>
      <trkpt lat="45.59015" lon="4.54543">
        <ele>734.9</ele>
        <time>2014-05-01T07:10:18Z</time>
      </trkpt>
      <trkpt lat="45.59005" lon="4.54528">
        <ele>737.1</ele>
        <time>2014-05-01T07:10:23Z</time>
      </trkpt>
      <trkpt lat="45.58997" lon="4.54515">
        <ele>736</ele>
        <time>2014-05-01T07:10:28Z</time>
      </trkpt>
      <trkpt lat="45.58987" lon="4.54503">
        <ele>739.6</ele>
        <time>2014-05-01T07:10:33Z</time>
      </trkpt>
      <trkpt lat="45.58977" lon="4.54492">
        <ele>739.3</ele>
        <time>2014-05-01T07:10:38Z</time>
      </trkpt>
      <trkpt lat="45.58968" lon="4.54477">
        <ele>740.2</ele>
        <time>2014-05-01T07:10:43Z</time>
      </trkpt>
      <trkpt lat="45.58962" lon="4.54453">
        <ele>741.5</ele>
        <time>2014-05-01T07:10:48Z</time>
      </trkpt>
      <trkpt lat="45.58953" lon="4.54428">
        <ele>741.5</ele>
        <time>2014-05-01T07:10:53Z</time>
      </trkpt>
      <trkpt lat="45.58945" lon="4.54403">
        <ele>743.8</ele>
        <time>2014-05-01T07:10:58Z</time>
      </trkpt>
      <trkpt lat="45.5894" lon="4.54375">
        <ele>741.8</ele>
        <time>2014-05-01T07:11:03Z</time>
      </trkpt>
      <trkpt lat="45.58938" lon="4.54338">
        <ele>740.7</ele>
        <time>2014-05-01T07:11:08Z</time>
      </trkpt>
      <trkpt lat="45.58937" lon="4.54302">
        <ele>740.2</ele>
        <time>2014-05-01T07:11:13Z</time>
      </trkpt>
      <trkpt lat="45.58925" lon="4.54265">
        <ele>739.8</ele>
        <time>2014-05-01T07:11:18Z</time>
      </trkpt>
      <trkpt lat="45.58915" lon="4.54228">
        <ele>739.3</ele>
        <time>2014-05-01T07:11:23Z</time>
      </trkpt>
      <trkpt lat="45.58903" lon="4.54195">
        <ele>740.1</ele>
        <time>2014-05-01T07:11:28Z</time>
      </trkpt>
      <trkpt lat="45.58897" lon="4.54163">
        <ele>739.8</ele>
        <time>2014-05-01T07:11:33Z</time>
      </trkpt>
      <trkpt lat="45.58892" lon="4.54135">
        <ele>740.1</ele>
        <time>2014-05-01T07:11:38Z</time>
      </trkpt>
      <trkpt lat="45.58883" lon="4.54107">
        <ele>738</ele>
        <time>2014-05-01T07:11:43Z</time>
      </trkpt>
      <trkpt lat="45.58875" lon="4.54075">
        <ele>740</ele>
        <time>2014-05-01T07:11:48Z</time>
      </trkpt>
      <trkpt lat="45.5887" lon="4.54048">
        <ele>737.4</ele>
        <time>2014-05-01T07:11:53Z</time>
      </trkpt>
      <trkpt lat="45.58863" lon="4.54018">
        <ele>739.4</ele>
        <time>2014-05-01T07:11:58Z</time>
      </trkpt>
      <trkpt lat="45.58853" lon="4.53988">
        <ele>740.2</ele>
        <time>2014-05-01T07:12:03Z</time>
      </trkpt>
      <trkpt lat="45.58847" lon="4.53958">
        <ele>738.2</ele>
        <time>2014-05-01T07:12:08Z</time>
      </trkpt>
      <trkpt lat="45.58832" lon="4.53927">
        <ele>739</ele>
        <time>2014-05-01T07:12:13Z</time>
      </trkpt>
      <trkpt lat="45.58813" lon="4.53902">
        <ele>736.2</ele>
        <time>2014-05-01T07:12:18Z</time>
      </trkpt>
      <trkpt lat="45.58793" lon="4.53887">
        <ele>739.8</ele>
        <time>2014-05-01T07:12:23Z</time>
      </trkpt>
      <trkpt lat="45.5877" lon="4.5387">
        <ele>736.6</ele>
        <time>2014-05-01T07:12:28Z</time>
      </trkpt>
      <trkpt lat="45.58748" lon="4.53852">
        <ele>737.7</ele>
        <time>2014-05-01T07:12:33Z</time>
      </trkpt>
      <trkpt lat="45.5873" lon="4.5383">
        <ele>735.3</ele>
        <time>2014-05-01T07:12:38Z</time>
      </trkpt>
      <trkpt lat="45.58712" lon="4.53807">
        <ele>733.7</ele>
        <time>2014-05-01T07:12:43Z</time>
      </trkpt>
      <trkpt lat="45.58695" lon="4.53782">
        <ele>733.9</ele>
        <time>2014-05-01T07:12:48Z</time>
      </trkpt>
      <trkpt lat="45.58687" lon="4.53772">
        <ele>734.7</ele>
        <time>2014-05-01T07:12:53Z</time>
      </trkpt>
      <trkpt lat="45.5868" lon="4.5378">
        <ele>736.1</ele>
        <time>2014-05-01T07:12:58Z</time>
      </trkpt>
      <trkpt lat="45.58675" lon="4.53788">
        <ele>738.3</ele>
        <time>2014-05-01T07:13:03Z</time>
      </trkpt>
      <trkpt lat="45.5867" lon="4.53797">
        <ele>739.3</ele>
        <time>2014-05-01T07:13:08Z</time>
      </trkpt>
      <trkpt lat="45.58663" lon="4.53803">
        <ele>741.2</ele>
        <time>2014-05-01T07:13:13Z</time>
      </trkpt>
      <trkpt lat="45.58657" lon="4.5381">
        <ele>740.7</ele>
        <time>2014-05-01T07:13:18Z</time>
      </trkpt>
      <trkpt lat="45.5865" lon="4.53817">
        <ele>743</ele>
        <time>2014-05-01T07:13:23Z</time>
      </trkpt>
      <trkpt lat="45.58643" lon="4.5382">
        <ele>744.8</ele>
        <time>2014-05-01T07:13:28Z</time>
      </trkpt>
      <trkpt lat="45.58635" lon="4.53825">
        <ele>744.7</ele>
        <time>2014-05-01T07:13:33Z</time>
      </trkpt>
      <trkpt lat="45.58628" lon="4.53828">
        <ele>745.9</ele>
        <time>2014-05-01T07:13:38Z</time>
      </trkpt>
      <trkpt lat="45.58623" lon="4.53833">
        <ele>747.3</ele>
        <time>2014-05-01T07:13:43Z</time>
      </trkpt>
      <trkpt lat="45.58617" lon="4.53838">
        <ele>748.2</ele>
        <time>2014-05-01T07:13:48Z</time>
      </trkpt>
      <trkpt lat="45.5861" lon="4.53842">
        <ele>750.5</ele>
        <time>2014-05-01T07:13:53Z</time>
      </trkpt>
      <trkpt lat="45.58603" lon="4.53847">
        <ele>751.8</ele>
        <time>2014-05-01T07:13:58Z</time>
      </trkpt>
      <trkpt lat="45.58595" lon="4.53853">
        <ele>753</ele>
        <time>2014-05-01T07:14:03Z</time>
      </trkpt>
      <trkpt lat="45.5859" lon="4.5386">
        <ele>754.2</ele>
        <time>2014-05-01T07:14:08Z</time>
      </trkpt>
      <trkpt lat="45.58583" lon="4.53865">
        <ele>755.2</ele>
        <time>2014-05-01T07:14:13Z</time>
      </trkpt>
      <trkpt lat="45.58577" lon="4.53867">
        <ele>756.7</ele>
        <time>2014-05-01T07:14:18Z</time>
      </trkpt>
      <trkpt lat="45.5857" lon="4.53872">
        <ele>758.3</ele>
        <time>2014-05-01T07:14:23Z</time>
      </trkpt>
      <trkpt lat="45.58563" lon="4.53877">
        <ele>759.5</ele>
        <time>2014-05-01T07:14:28Z</time>
      </trkpt>
      <trkpt lat="45.58558" lon="4.53882">
        <ele>761.8</ele>
        <time>2014-05-01T07:14:33Z</time>
      </trkpt>
      <trkpt lat="45.58552" lon="4.53887">
        <ele>762.9</ele>
        <time>2014-05-01T07:14:38Z</time>
      </trkpt>
      <trkpt lat="45.58545" lon="4.53892">
        <ele>764.3</ele>
        <time>2014-05-01T07:14:43Z</time>
      </trkpt>
      <trkpt lat="45.58538" lon="4.53895">
        <ele>766.2</ele>
        <time>2014-05-01T07:14:48Z</time>
      </trkpt>
      <trkpt lat="45.58532" lon="4.539">
        <ele>767.7</ele>
        <time>2014-05-01T07:14:53Z</time>
      </trkpt>
      <trkpt lat="45.58525" lon="4.53903">
        <ele>768.7</ele>
        <time>2014-05-01T07:14:58Z</time>
      </trkpt>
      <trkpt lat="45.58518" lon="4.53908">
        <ele>769.9</ele>
        <time>2014-05-01T07:15:03Z</time>
      </trkpt>
      <trkpt lat="45.5851" lon="4.53913">
        <ele>770.3</ele>
        <time>2014-05-01T07:15:08Z</time>
      </trkpt>
      <trkpt lat="45.58505" lon="4.53918">
        <ele>771</ele>
        <time>2014-05-01T07:15:13Z</time>
      </trkpt>
      <trkpt lat="45.58498" lon="4.53923">
        <ele>772.1</ele>
        <time>2014-05-01T07:15:18Z</time>
      </trkpt>
      <trkpt lat="45.5849" lon="4.53928">
        <ele>773.3</ele>
        <time>2014-05-01T07:15:23Z</time>
      </trkpt>
      <trkpt lat="45.58485" lon="4.53933">
        <ele>773.9</ele>
        <time>2014-05-01T07:15:28Z</time>
      </trkpt>
      <trkpt lat="45.58478" lon="4.53938">
        <ele>775.1</ele>
        <time>2014-05-01T07:15:33Z</time>
      </trkpt>
      <trkpt lat="45.58472" lon="4.53945">
        <ele>776</ele>
        <time>2014-05-01T07:15:38Z</time>
      </trkpt>
      <trkpt lat="45.58465" lon="4.5395">
        <ele>776.9</ele>
        <time>2014-05-01T07:15:43Z</time>
      </trkpt>
      <trkpt lat="45.58458" lon="4.53957">
        <ele>778.1</ele>
        <time>2014-05-01T07:15:48Z</time>
      </trkpt>
      <trkpt lat="45.5845" lon="4.53962">
        <ele>778.7</ele>
        <time>2014-05-01T07:15:53Z</time>
      </trkpt>
      <trkpt lat="45.58443" lon="4.53968">
        <ele>780.6</ele>
        <time>2014-05-01T07:15:58Z</time>
      </trkpt>
      <trkpt lat="45.58437" lon="4.53972">
        <ele>782.1</ele>
        <time>2014-05-01T07:16:03Z</time>
      </trkpt>
      <trkpt lat="45.5843" lon="4.53978">
        <ele>781.9</ele>
        <time>2014-05-01T07:16:08Z</time>
      </trkpt>
      <trkpt lat="45.58423" lon="4.5398">
        <ele>784.4</ele>
        <time>2014-05-01T07:16:13Z</time>
      </trkpt>
      <trkpt lat="45.58413" lon="4.53977">
        <ele>784.4</ele>
        <time>2014-05-01T07:16:18Z</time>
      </trkpt>
      <trkpt lat="45.58403" lon="4.53965">
        <ele>784.2</ele>
        <time>2014-05-01T07:16:23Z</time>
      </trkpt>
      <trkpt lat="45.58393" lon="4.53958">
        <ele>784.5</ele>
        <time>2014-05-01T07:16:28Z</time>
      </trkpt>
      <trkpt lat="45.58377" lon="4.53948">
        <ele>785.4</ele>
        <time>2014-05-01T07:16:33Z</time>
      </trkpt>
      <trkpt lat="45.58367" lon="4.53947">
        <ele>783.2</ele>
        <time>2014-05-01T07:16:38Z</time>
      </trkpt>
      <trkpt lat="45.5836" lon="4.53943">
        <ele>783.1</ele>
        <time>2014-05-01T07:16:43Z</time>
      </trkpt>
      <trkpt lat="45.5836" lon="4.53942">
        <ele>782.2</ele>
        <time>2014-05-01T07:16:48Z</time>
      </trkpt>
      <trkpt lat="45.58355" lon="4.53942">
        <ele>783.2</ele>
        <time>2014-05-01T07:24:28Z</time>
      </trkpt>
      <trkpt lat="45.5834" lon="4.53952">
        <ele>782.7</ele>
        <time>2014-05-01T07:24:33Z</time>
      </trkpt>
      <trkpt lat="45.58318" lon="4.53962">
        <ele>781.8</ele>
        <time>2014-05-01T07:24:38Z</time>
      </trkpt>
      <trkpt lat="45.58285" lon="4.5397">
        <ele>773.1</ele>
        <time>2014-05-01T07:24:43Z</time>
      </trkpt>
      <trkpt lat="45.58245" lon="4.5399">
        <ele>775.7</ele>
        <time>2014-05-01T07:24:48Z</time>
      </trkpt>
      <trkpt lat="45.58213" lon="4.54037">
        <ele>765</ele>
        <time>2014-05-01T07:24:53Z</time>
      </trkpt>
      <trkpt lat="45.58172" lon="4.54077">
        <ele>769.6</ele>
        <time>2014-05-01T07:24:58Z</time>
      </trkpt>
      <trkpt lat="45.58132" lon="4.54108">
        <ele>761.3</ele>
        <time>2014-05-01T07:25:03Z</time>
      </trkpt>
      <trkpt lat="45.58097" lon="4.54148">
        <ele>760.3</ele>
        <time>2014-05-01T07:25:08Z</time>
      </trkpt>
      <trkpt lat="45.58068" lon="4.54197">
        <ele>756.4</ele>
        <time>2014-05-01T07:25:13Z</time>
      </trkpt>
      <trkpt lat="45.58033" lon="4.54238">
        <ele>753.3</ele>
        <time>2014-05-01T07:25:18Z</time>
      </trkpt>
      <trkpt lat="45.57997" lon="4.54275">
        <ele>755.5</ele>
        <time>2014-05-01T07:25:23Z</time>
      </trkpt>
      <trkpt lat="45.57967" lon="4.54317">
        <ele>749.1</ele>
        <time>2014-05-01T07:25:28Z</time>
      </trkpt>
      <trkpt lat="45.57965" lon="4.54368">
        <ele>750</ele>
        <time>2014-05-01T07:25:33Z</time>
      </trkpt>
      <trkpt lat="45.57963" lon="4.5441">
        <ele>747.3</ele>
        <time>2014-05-01T07:25:38Z</time>
      </trkpt>
      <trkpt lat="45.57962" lon="4.54443">
        <ele>744.7</ele>
        <time>2014-05-01T07:25:43Z</time>
      </trkpt>
      <trkpt lat="45.5796" lon="4.5447">
        <ele>747.4</ele>
        <time>2014-05-01T07:25:48Z</time>
      </trkpt>
      <trkpt lat="45.57957" lon="4.54505">
        <ele>746.8</ele>
        <time>2014-05-01T07:25:53Z</time>
      </trkpt>
      <trkpt lat="45.57952" lon="4.54543">
        <ele>747.6</ele>
        <time>2014-05-01T07:25:58Z</time>
      </trkpt>
      <trkpt lat="45.57952" lon="4.54587">
        <ele>744.8</ele>
        <time>2014-05-01T07:26:03Z</time>
      </trkpt>
      <trkpt lat="45.57955" lon="4.54635">
        <ele>742.3</ele>
        <time>2014-05-01T07:26:08Z</time>
      </trkpt>
      <trkpt lat="45.57953" lon="4.54688">
        <ele>744.9</ele>
        <time>2014-05-01T07:26:13Z</time>
      </trkpt>
      <trkpt lat="45.57943" lon="4.5474">
        <ele>743.9</ele>
        <time>2014-05-01T07:26:18Z</time>
      </trkpt>
      <trkpt lat="45.57927" lon="4.54788">
        <ele>741.1</ele>
        <time>2014-05-01T07:26:23Z</time>
      </trkpt>
      <trkpt lat="45.57907" lon="4.54827">
        <ele>742.7</ele>
        <time>2014-05-01T07:26:28Z</time>
      </trkpt>
      <trkpt lat="45.57897" lon="4.54843">
        <ele>745.1</ele>
        <time>2014-05-01T07:26:33Z</time>
      </trkpt>
      <trkpt lat="45.57898" lon="4.54843">
        <ele>743.4</ele>
        <time>2014-05-01T07:26:38Z</time>
      </trkpt>
      <trkpt lat="45.57898" lon="4.54843">
        <ele>743.9</ele>
        <time>2014-05-01T07:26:43Z</time>
      </trkpt>
      <trkpt lat="45.57895" lon="4.54835">
        <ele>744.1</ele>
        <time>2014-05-01T07:26:48Z</time>
      </trkpt>
      <trkpt lat="45.57895" lon="4.54822">
        <ele>745.8</ele>
        <time>2014-05-01T07:26:53Z</time>
      </trkpt>
      <trkpt lat="45.57895" lon="4.54805">
        <ele>745.9</ele>
        <time>2014-05-01T07:26:58Z</time>
      </trkpt>
      <trkpt lat="45.57895" lon="4.54782">
        <ele>745.2</ele>
        <time>2014-05-01T07:27:03Z</time>
      </trkpt>
      <trkpt lat="45.57895" lon="4.5476">
        <ele>748.5</ele>
        <time>2014-05-01T07:27:08Z</time>
      </trkpt>
      <trkpt lat="45.57895" lon="4.5474">
        <ele>748.4</ele>
        <time>2014-05-01T07:27:13Z</time>
      </trkpt>
      <trkpt lat="45.57895" lon="4.54717">
        <ele>747.3</ele>
        <time>2014-05-01T07:27:18Z</time>
      </trkpt>
      <trkpt lat="45.57897" lon="4.54698">
        <ele>750.2</ele>
        <time>2014-05-01T07:27:23Z</time>
      </trkpt>
      <trkpt lat="45.57897" lon="4.54682">
        <ele>749.5</ele>
        <time>2014-05-01T07:27:28Z</time>
      </trkpt>
      <trkpt lat="45.57897" lon="4.54658">
        <ele>750.7</ele>
        <time>2014-05-01T07:27:33Z</time>
      </trkpt>
      <trkpt lat="45.579" lon="4.54635">
        <ele>750.8</ele>
        <time>2014-05-01T07:27:38Z</time>
      </trkpt>
      <trkpt lat="45.57903" lon="4.5461">
        <ele>752.8</ele>
        <time>2014-05-01T07:27:43Z</time>
      </trkpt>
      <trkpt lat="45.57905" lon="4.54587">
        <ele>751.3</ele>
        <time>2014-05-01T07:27:48Z</time>
      </trkpt>
      <trkpt lat="45.57902" lon="4.54565">
        <ele>752.5</ele>
        <time>2014-05-01T07:27:53Z</time>
      </trkpt>
      <trkpt lat="45.57897" lon="4.54547">
        <ele>752.3</ele>
        <time>2014-05-01T07:27:58Z</time>
      </trkpt>
      <trkpt lat="45.57895" lon="4.54528">
        <ele>755.2</ele>
        <time>2014-05-01T07:28:03Z</time>
      </trkpt>
      <trkpt lat="45.57888" lon="4.54508">
        <ele>755.6</ele>
        <time>2014-05-01T07:28:08Z</time>
      </trkpt>
      <trkpt lat="45.57885" lon="4.5449">
        <ele>755.2</ele>
        <time>2014-05-01T07:28:13Z</time>
      </trkpt>
      <trkpt lat="45.57878" lon="4.54477">
        <ele>757</ele>
        <time>2014-05-01T07:28:18Z</time>
      </trkpt>
      <trkpt lat="45.5787" lon="4.54465">
        <ele>758.5</ele>
        <time>2014-05-01T07:28:23Z</time>
      </trkpt>
      <trkpt lat="45.57862" lon="4.5445">
        <ele>759.2</ele>
        <time>2014-05-01T07:28:28Z</time>
      </trkpt>
      <trkpt lat="45.57853" lon="4.54437">
        <ele>761.1</ele>
        <time>2014-05-01T07:28:33Z</time>
      </trkpt>
      <trkpt lat="45.57847" lon="4.5442">
        <ele>760.6</ele>
        <time>2014-05-01T07:28:38Z</time>
      </trkpt>
      <trkpt lat="45.57837" lon="4.54403">
        <ele>761.3</ele>
        <time>2014-05-01T07:28:43Z</time>
      </trkpt>
      <trkpt lat="45.57827" lon="4.54388">
        <ele>763.4</ele>
        <time>2014-05-01T07:28:48Z</time>
      </trkpt>
      <trkpt lat="45.57817" lon="4.54377">
        <ele>763.5</ele>
        <time>2014-05-01T07:28:53Z</time>
      </trkpt>
      <trkpt lat="45.57807" lon="4.54367">
        <ele>763.9</ele>
        <time>2014-05-01T07:28:58Z</time>
      </trkpt>
      <trkpt lat="45.57797" lon="4.54358">
        <ele>764.5</ele>
        <time>2014-05-01T07:29:03Z</time>
      </trkpt>
      <trkpt lat="45.57785" lon="4.54348">
        <ele>764.3</ele>
        <time>2014-05-01T07:29:08Z</time>
      </trkpt>
      <trkpt lat="45.57775" lon="4.54335">
        <ele>766.2</ele>
        <time>2014-05-01T07:29:13Z</time>
      </trkpt>
      <trkpt lat="45.57763" lon="4.54325">
        <ele>766.9</ele>
        <time>2014-05-01T07:29:18Z</time>
      </trkpt>
      <trkpt lat="45.57752" lon="4.5431">
        <ele>768</ele>
        <time>2014-05-01T07:29:23Z</time>
      </trkpt>
      <trkpt lat="45.57738" lon="4.54297">
        <ele>767</ele>
        <time>2014-05-01T07:29:28Z</time>
      </trkpt>
      <trkpt lat="45.57727" lon="4.54283">
        <ele>767</ele>
        <time>2014-05-01T07:29:33Z</time>
      </trkpt>
      <trkpt lat="45.57715" lon="4.54272">
        <ele>770</ele>
        <time>2014-05-01T07:29:38Z</time>
      </trkpt>
      <trkpt lat="45.57702" lon="4.54258">
        <ele>768</ele>
        <time>2014-05-01T07:29:43Z</time>
      </trkpt>
      <trkpt lat="45.5769" lon="4.54247">
        <ele>767.4</ele>
        <time>2014-05-01T07:29:48Z</time>
      </trkpt>
      <trkpt lat="45.57678" lon="4.54233">
        <ele>770.1</ele>
        <time>2014-05-01T07:29:53Z</time>
      </trkpt>
      <trkpt lat="45.57665" lon="4.54223">
        <ele>771.2</ele>
        <time>2014-05-01T07:29:58Z</time>
      </trkpt>
      <trkpt lat="45.57652" lon="4.54212">
        <ele>770.8</ele>
        <time>2014-05-01T07:30:03Z</time>
      </trkpt>
      <trkpt lat="45.5764" lon="4.542">
        <ele>772</ele>
        <time>2014-05-01T07:30:08Z</time>
      </trkpt>
      <trkpt lat="45.57628" lon="4.54188">
        <ele>772.2</ele>
        <time>2014-05-01T07:30:13Z</time>
      </trkpt>
      <trkpt lat="45.57617" lon="4.54173">
        <ele>772.6</ele>
        <time>2014-05-01T07:30:18Z</time>
      </trkpt>
      <trkpt lat="45.57605" lon="4.54157">
        <ele>772.5</ele>
        <time>2014-05-01T07:30:23Z</time>
      </trkpt>
      <trkpt lat="45.57595" lon="4.5413">
        <ele>773.1</ele>
        <time>2014-05-01T07:30:28Z</time>
      </trkpt>
      <trkpt lat="45.57585" lon="4.54105">
        <ele>772.9</ele>
        <time>2014-05-01T07:30:33Z</time>
      </trkpt>
      <trkpt lat="45.5758" lon="4.54077">
        <ele>770.2</ele>
        <time>2014-05-01T07:30:38Z</time>
      </trkpt>
      <trkpt lat="45.57575" lon="4.5405">
        <ele>771.7</ele>
        <time>2014-05-01T07:30:43Z</time>
      </trkpt>
      <trkpt lat="45.57568" lon="4.54027">
        <ele>772.4</ele>
        <time>2014-05-01T07:30:48Z</time>
      </trkpt>
      <trkpt lat="45.57562" lon="4.54003">
        <ele>772.4</ele>
        <time>2014-05-01T07:30:53Z</time>
      </trkpt>
      <trkpt lat="45.57553" lon="4.53978">
        <ele>771.4</ele>
        <time>2014-05-01T07:30:58Z</time>
      </trkpt>
      <trkpt lat="45.57545" lon="4.53958">
        <ele>773.4</ele>
        <time>2014-05-01T07:31:03Z</time>
      </trkpt>
      <trkpt lat="45.57538" lon="4.53938">
        <ele>771.6</ele>
        <time>2014-05-01T07:31:08Z</time>
      </trkpt>
      <trkpt lat="45.57528" lon="4.5392">
        <ele>775.2</ele>
        <time>2014-05-01T07:31:13Z</time>
      </trkpt>
      <trkpt lat="45.57518" lon="4.539">
        <ele>775.3</ele>
        <time>2014-05-01T07:31:18Z</time>
      </trkpt>
      <trkpt lat="45.5751" lon="4.53883">
        <ele>776.2</ele>
        <time>2014-05-01T07:31:23Z</time>
      </trkpt>
      <trkpt lat="45.57498" lon="4.53865">
        <ele>777.7</ele>
        <time>2014-05-01T07:31:28Z</time>
      </trkpt>
      <trkpt lat="45.57488" lon="4.53848">
        <ele>777.6</ele>
        <time>2014-05-01T07:31:33Z</time>
      </trkpt>
      <trkpt lat="45.57478" lon="4.5383">
        <ele>777.5</ele>
        <time>2014-05-01T07:31:38Z</time>
      </trkpt>
      <trkpt lat="45.5747" lon="4.53813">
        <ele>777.7</ele>
        <time>2014-05-01T07:31:43Z</time>
      </trkpt>
      <trkpt lat="45.5746" lon="4.53795">
        <ele>779.7</ele>
        <time>2014-05-01T07:31:48Z</time>
      </trkpt>
      <trkpt lat="45.5745" lon="4.5378">
        <ele>779.9</ele>
        <time>2014-05-01T07:31:53Z</time>
      </trkpt>
      <trkpt lat="45.57438" lon="4.53767">
        <ele>781.3</ele>
        <time>2014-05-01T07:31:58Z</time>
      </trkpt>
      <trkpt lat="45.57428" lon="4.5375">
        <ele>781.3</ele>
        <time>2014-05-01T07:32:03Z</time>
      </trkpt>
      <trkpt lat="45.57417" lon="4.53735">
        <ele>782.7</ele>
        <time>2014-05-01T07:32:08Z</time>
      </trkpt>
      <trkpt lat="45.57405" lon="4.5372">
        <ele>785.2</ele>
        <time>2014-05-01T07:32:13Z</time>
      </trkpt>
      <trkpt lat="45.57392" lon="4.53705">
        <ele>783.1</ele>
        <time>2014-05-01T07:32:18Z</time>
      </trkpt>
      <trkpt lat="45.57378" lon="4.53688">
        <ele>784.6</ele>
        <time>2014-05-01T07:32:23Z</time>
      </trkpt>
      <trkpt lat="45.57368" lon="4.5367">
        <ele>785.4</ele>
        <time>2014-05-01T07:32:28Z</time>
      </trkpt>
      <trkpt lat="45.57358" lon="4.53648">
        <ele>786.6</ele>
        <time>2014-05-01T07:32:33Z</time>
      </trkpt>
      <trkpt lat="45.5735" lon="4.53628">
        <ele>784.9</ele>
        <time>2014-05-01T07:32:38Z</time>
      </trkpt>
      <trkpt lat="45.57342" lon="4.5361">
        <ele>785.9</ele>
        <time>2014-05-01T07:32:43Z</time>
      </trkpt>
      <trkpt lat="45.57333" lon="4.53592">
        <ele>785.4</ele>
        <time>2014-05-01T07:32:48Z</time>
      </trkpt>
      <trkpt lat="45.57325" lon="4.53595">
        <ele>786.5</ele>
        <time>2014-05-01T07:32:53Z</time>
      </trkpt>
      <trkpt lat="45.57323" lon="4.53617">
        <ele>787.7</ele>
        <time>2014-05-01T07:32:58Z</time>
      </trkpt>
      <trkpt lat="45.57317" lon="4.53638">
        <ele>787.7</ele>
        <time>2014-05-01T07:33:03Z</time>
      </trkpt>
      <trkpt lat="45.57308" lon="4.53658">
        <ele>786.3</ele>
        <time>2014-05-01T07:33:08Z</time>
      </trkpt>
      <trkpt lat="45.57297" lon="4.5368">
        <ele>788.4</ele>
        <time>2014-05-01T07:33:13Z</time>
      </trkpt>
      <trkpt lat="45.57285" lon="4.53703">
        <ele>786.2</ele>
        <time>2014-05-01T07:33:18Z</time>
      </trkpt>
      <trkpt lat="45.57275" lon="4.5373">
        <ele>782.9</ele>
        <time>2014-05-01T07:33:23Z</time>
      </trkpt>
      <trkpt lat="45.5727" lon="4.53772">
        <ele>779.2</ele>
        <time>2014-05-01T07:33:28Z</time>
      </trkpt>
      <trkpt lat="45.57272" lon="4.53812">
        <ele>780.5</ele>
        <time>2014-05-01T07:33:33Z</time>
      </trkpt>
      <trkpt lat="45.57268" lon="4.53857">
        <ele>778.1</ele>
        <time>2014-05-01T07:33:38Z</time>
      </trkpt>
      <trkpt lat="45.57257" lon="4.53882">
        <ele>772.5</ele>
        <time>2014-05-01T07:33:43Z</time>
      </trkpt>
      <trkpt lat="45.57235" lon="4.539">
        <ele>770.5</ele>
        <time>2014-05-01T07:33:48Z</time>
      </trkpt>
      <trkpt lat="45.5722" lon="4.53927">
        <ele>757.8</ele>
        <time>2014-05-01T07:33:53Z</time>
      </trkpt>
      <trkpt lat="45.572" lon="4.53962">
        <ele>755.8</ele>
        <time>2014-05-01T07:33:58Z</time>
      </trkpt>
      <trkpt lat="45.57182" lon="4.54015">
        <ele>753.2</ele>
        <time>2014-05-01T07:34:03Z</time>
      </trkpt>
      <trkpt lat="45.57165" lon="4.54078">
        <ele>750.2</ele>
        <time>2014-05-01T07:34:08Z</time>
      </trkpt>
      <trkpt lat="45.57145" lon="4.54142">
        <ele>738.9</ele>
        <time>2014-05-01T07:34:13Z</time>
      </trkpt>
      <trkpt lat="45.57132" lon="4.54188">
        <ele>731.3</ele>
        <time>2014-05-01T07:34:18Z</time>
      </trkpt>
      <trkpt lat="45.57122" lon="4.54245">
        <ele>732.6</ele>
        <time>2014-05-01T07:34:23Z</time>
      </trkpt>
      <trkpt lat="45.57108" lon="4.54295">
        <ele>724.7</ele>
        <time>2014-05-01T07:34:28Z</time>
      </trkpt>
      <trkpt lat="45.57108" lon="4.54328">
        <ele>723.7</ele>
        <time>2014-05-01T07:34:33Z</time>
      </trkpt>
      <trkpt lat="45.57103" lon="4.5436">
        <ele>719.4</ele>
        <time>2014-05-01T07:34:38Z</time>
      </trkpt>
      <trkpt lat="45.57098" lon="4.54393">
        <ele>714.3</ele>
        <time>2014-05-01T07:34:43Z</time>
      </trkpt>
      <trkpt lat="45.57085" lon="4.54443">
        <ele>706</ele>
        <time>2014-05-01T07:34:48Z</time>
      </trkpt>
      <trkpt lat="45.57083" lon="4.545">
        <ele>702.5</ele>
        <time>2014-05-01T07:34:53Z</time>
      </trkpt>
      <trkpt lat="45.57073" lon="4.5455">
        <ele>699.3</ele>
        <time>2014-05-01T07:34:58Z</time>
      </trkpt>
      <trkpt lat="45.5707" lon="4.54582">
        <ele>690.7</ele>
        <time>2014-05-01T07:35:03Z</time>
      </trkpt>
      <trkpt lat="45.57075" lon="4.54593">
        <ele>693.4</ele>
        <time>2014-05-01T07:35:08Z</time>
      </trkpt>
      <trkpt lat="45.57087" lon="4.54588">
        <ele>694.5</ele>
        <time>2014-05-01T07:35:13Z</time>
      </trkpt>
      <trkpt lat="45.57098" lon="4.54578">
        <ele>697.6</ele>
        <time>2014-05-01T07:35:18Z</time>
      </trkpt>
      <trkpt lat="45.57115" lon="4.54562">
        <ele>695.9</ele>
        <time>2014-05-01T07:35:23Z</time>
      </trkpt>
      <trkpt lat="45.57142" lon="4.5455">
        <ele>693.9</ele>
        <time>2014-05-01T07:35:28Z</time>
      </trkpt>
      <trkpt lat="45.57167" lon="4.54543">
        <ele>693.9</ele>
        <time>2014-05-01T07:35:33Z</time>
      </trkpt>
      <trkpt lat="45.57192" lon="4.54553">
        <ele>693.7</ele>
        <time>2014-05-01T07:35:38Z</time>
      </trkpt>
      <trkpt lat="45.57215" lon="4.5457">
        <ele>697.5</ele>
        <time>2014-05-01T07:35:43Z</time>
      </trkpt>
      <trkpt lat="45.57243" lon="4.5458">
        <ele>694.6</ele>
        <time>2014-05-01T07:35:48Z</time>
      </trkpt>
      <trkpt lat="45.57262" lon="4.54597">
        <ele>697.1</ele>
        <time>2014-05-01T07:35:53Z</time>
      </trkpt>
      <trkpt lat="45.5727" lon="4.54613">
        <ele>696.9</ele>
        <time>2014-05-01T07:35:58Z</time>
      </trkpt>
      <trkpt lat="45.57283" lon="4.54628">
        <ele>695.7</ele>
        <time>2014-05-01T07:36:03Z</time>
      </trkpt>
      <trkpt lat="45.57293" lon="4.54642">
        <ele>698.7</ele>
        <time>2014-05-01T07:36:08Z</time>
      </trkpt>
      <trkpt lat="45.57305" lon="4.54655">
        <ele>699.5</ele>
        <time>2014-05-01T07:36:13Z</time>
      </trkpt>
      <trkpt lat="45.57313" lon="4.54662">
        <ele>701</ele>
        <time>2014-05-01T07:36:18Z</time>
      </trkpt>
      <trkpt lat="45.5732" lon="4.54668">
        <ele>703</ele>
        <time>2014-05-01T07:36:23Z</time>
      </trkpt>
      <trkpt lat="45.57327" lon="4.54672">
        <ele>703.3</ele>
        <time>2014-05-01T07:36:28Z</time>
      </trkpt>
      <trkpt lat="45.57332" lon="4.54677">
        <ele>703.4</ele>
        <time>2014-05-01T07:36:33Z</time>
      </trkpt>
      <trkpt lat="45.57342" lon="4.5468">
        <ele>705.5</ele>
        <time>2014-05-01T07:36:38Z</time>
      </trkpt>
      <trkpt lat="45.57348" lon="4.54683">
        <ele>706.2</ele>
        <time>2014-05-01T07:36:43Z</time>
      </trkpt>
      <trkpt lat="45.57358" lon="4.54683">
        <ele>707.8</ele>
        <time>2014-05-01T07:36:48Z</time>
      </trkpt>
      <trkpt lat="45.5737" lon="4.54687">
        <ele>708.4</ele>
        <time>2014-05-01T07:36:53Z</time>
      </trkpt>
      <trkpt lat="45.57375" lon="4.54688">
        <ele>709.1</ele>
        <time>2014-05-01T07:36:58Z</time>
      </trkpt>
      <trkpt lat="45.57385" lon="4.54693">
        <ele>709.4</ele>
        <time>2014-05-01T07:37:03Z</time>
      </trkpt>
      <trkpt lat="45.57395" lon="4.547">
        <ele>711</ele>
        <time>2014-05-01T07:37:08Z</time>
      </trkpt>
      <trkpt lat="45.57403" lon="4.54712">
        <ele>710.4</ele>
        <time>2014-05-01T07:37:13Z</time>
      </trkpt>
      <trkpt lat="45.57413" lon="4.54723">
        <ele>710.1</ele>
        <time>2014-05-01T07:37:18Z</time>
      </trkpt>
      <trkpt lat="45.57423" lon="4.54737">
        <ele>707.9</ele>
        <time>2014-05-01T07:37:23Z</time>
      </trkpt>
      <trkpt lat="45.57435" lon="4.54752">
        <ele>710.2</ele>
        <time>2014-05-01T07:37:28Z</time>
      </trkpt>
      <trkpt lat="45.57447" lon="4.54765">
        <ele>711</ele>
        <time>2014-05-01T07:37:33Z</time>
      </trkpt>
      <trkpt lat="45.5746" lon="4.54778">
        <ele>710.1</ele>
        <time>2014-05-01T07:37:38Z</time>
      </trkpt>
      <trkpt lat="45.5747" lon="4.54792">
        <ele>712.9</ele>
        <time>2014-05-01T07:37:43Z</time>
      </trkpt>
      <trkpt lat="45.57483" lon="4.54805">
        <ele>713</ele>
        <time>2014-05-01T07:37:48Z</time>
      </trkpt>
      <trkpt lat="45.57495" lon="4.54818">
        <ele>714</ele>
        <time>2014-05-01T07:37:53Z</time>
      </trkpt>
      <trkpt lat="45.57503" lon="4.5483">
        <ele>714.3</ele>
        <time>2014-05-01T07:37:58Z</time>
      </trkpt>
      <trkpt lat="45.57512" lon="4.54838">
        <ele>713.9</ele>
        <time>2014-05-01T07:38:03Z</time>
      </trkpt>
      <trkpt lat="45.57518" lon="4.5485">
        <ele>714.3</ele>
        <time>2014-05-01T07:38:08Z</time>
      </trkpt>
      <trkpt lat="45.57525" lon="4.54858">
        <ele>716.2</ele>
        <time>2014-05-01T07:38:13Z</time>
      </trkpt>
      <trkpt lat="45.57532" lon="4.54865">
        <ele>719</ele>
        <time>2014-05-01T07:38:18Z</time>
      </trkpt>
      <trkpt lat="45.57542" lon="4.54875">
        <ele>720.3</ele>
        <time>2014-05-01T07:38:23Z</time>
      </trkpt>
      <trkpt lat="45.57548" lon="4.54882">
        <ele>722</ele>
        <time>2014-05-01T07:38:28Z</time>
      </trkpt>
      <trkpt lat="45.57555" lon="4.54888">
        <ele>723.2</ele>
        <time>2014-05-01T07:38:33Z</time>
      </trkpt>
      <trkpt lat="45.57563" lon="4.54897">
        <ele>724.2</ele>
        <time>2014-05-01T07:38:38Z</time>
      </trkpt>
      <trkpt lat="45.57572" lon="4.54905">
        <ele>724.9</ele>
        <time>2014-05-01T07:38:43Z</time>
      </trkpt>
      <trkpt lat="45.57582" lon="4.54912">
        <ele>726.4</ele>
        <time>2014-05-01T07:38:48Z</time>
      </trkpt>
      <trkpt lat="45.57592" lon="4.54918">
        <ele>727.6</ele>
        <time>2014-05-01T07:38:53Z</time>
      </trkpt>
      <trkpt lat="45.57607" lon="4.54925">
        <ele>727.2</ele>
        <time>2014-05-01T07:38:58Z</time>
      </trkpt>
      <trkpt lat="45.57618" lon="4.54933">
        <ele>728.3</ele>
        <time>2014-05-01T07:39:03Z</time>
      </trkpt>
      <trkpt lat="45.57633" lon="4.54945">
        <ele>728.1</ele>
        <time>2014-05-01T07:39:08Z</time>
      </trkpt>
      <trkpt lat="45.57648" lon="4.5496">
        <ele>728.7</ele>
        <time>2014-05-01T07:39:13Z</time>
      </trkpt>
      <trkpt lat="45.57662" lon="4.54977">
        <ele>729.1</ele>
        <time>2014-05-01T07:39:18Z</time>
      </trkpt>
      <trkpt lat="45.57672" lon="4.54995">
        <ele>728.9</ele>
        <time>2014-05-01T07:39:23Z</time>
      </trkpt>
      <trkpt lat="45.57682" lon="4.55012">
        <ele>729.8</ele>
        <time>2014-05-01T07:39:28Z</time>
      </trkpt>
      <trkpt lat="45.5769" lon="4.5503">
        <ele>729.8</ele>
        <time>2014-05-01T07:39:33Z</time>
      </trkpt>
      <trkpt lat="45.57702" lon="4.55048">
        <ele>731.3</ele>
        <time>2014-05-01T07:39:38Z</time>
      </trkpt>
      <trkpt lat="45.57713" lon="4.55065">
        <ele>732</ele>
        <time>2014-05-01T07:39:43Z</time>
      </trkpt>
      <trkpt lat="45.57723" lon="4.55082">
        <ele>732.9</ele>
        <time>2014-05-01T07:39:48Z</time>
      </trkpt>
      <trkpt lat="45.57735" lon="4.551">
        <ele>731.5</ele>
        <time>2014-05-01T07:39:53Z</time>
      </trkpt>
      <trkpt lat="45.57745" lon="4.55117">
        <ele>733.9</ele>
        <time>2014-05-01T07:39:58Z</time>
      </trkpt>
      <trkpt lat="45.57758" lon="4.5513">
        <ele>735.3</ele>
        <time>2014-05-01T07:40:03Z</time>
      </trkpt>
      <trkpt lat="45.57773" lon="4.55138">
        <ele>737.1</ele>
        <time>2014-05-01T07:40:08Z</time>
      </trkpt>
      <trkpt lat="45.5779" lon="4.55138">
        <ele>737.1</ele>
        <time>2014-05-01T07:40:13Z</time>
      </trkpt>
      <trkpt lat="45.57807" lon="4.55138">
        <ele>736.4</ele>
        <time>2014-05-01T07:40:18Z</time>
      </trkpt>
      <trkpt lat="45.57825" lon="4.55137">
        <ele>737.2</ele>
        <time>2014-05-01T07:40:23Z</time>
      </trkpt>
      <trkpt lat="45.57847" lon="4.55135">
        <ele>737.1</ele>
        <time>2014-05-01T07:40:28Z</time>
      </trkpt>
      <trkpt lat="45.57853" lon="4.55148">
        <ele>732.8</ele>
        <time>2014-05-01T07:40:33Z</time>
      </trkpt>
      <trkpt lat="45.57853" lon="4.55173">
        <ele>731.7</ele>
        <time>2014-05-01T07:40:38Z</time>
      </trkpt>
      <trkpt lat="45.57852" lon="4.55202">
        <ele>734.5</ele>
        <time>2014-05-01T07:40:43Z</time>
      </trkpt>
      <trkpt lat="45.5785" lon="4.55227">
        <ele>734</ele>
        <time>2014-05-01T07:40:48Z</time>
      </trkpt>
      <trkpt lat="45.57847" lon="4.5525">
        <ele>736.5</ele>
        <time>2014-05-01T07:40:53Z</time>
      </trkpt>
      <trkpt lat="45.57837" lon="4.55268">
        <ele>733.6</ele>
        <time>2014-05-01T07:40:58Z</time>
      </trkpt>
      <trkpt lat="45.57828" lon="4.55287">
        <ele>734.6</ele>
        <time>2014-05-01T07:41:03Z</time>
      </trkpt>
      <trkpt lat="45.57822" lon="4.55313">
        <ele>734.9</ele>
        <time>2014-05-01T07:41:08Z</time>
      </trkpt>
      <trkpt lat="45.57822" lon="4.55368">
        <ele>725.4</ele>
        <time>2014-05-01T07:41:13Z</time>
      </trkpt>
      <trkpt lat="45.57823" lon="4.5543">
        <ele>724</ele>
        <time>2014-05-01T07:41:18Z</time>
      </trkpt>
      <trkpt lat="45.5782" lon="4.55497">
        <ele>714.6</ele>
        <time>2014-05-01T07:41:23Z</time>
      </trkpt>
      <trkpt lat="45.5783" lon="4.55562">
        <ele>703.9</ele>
        <time>2014-05-01T07:41:28Z</time>
      </trkpt>
      <trkpt lat="45.57842" lon="4.55622">
        <ele>700</ele>
        <time>2014-05-01T07:41:33Z</time>
      </trkpt>
      <trkpt lat="45.57845" lon="4.55692">
        <ele>699.2</ele>
        <time>2014-05-01T07:41:38Z</time>
      </trkpt>
      <trkpt lat="45.57847" lon="4.55765">
        <ele>694.1</ele>
        <time>2014-05-01T07:41:43Z</time>
      </trkpt>
      <trkpt lat="45.57842" lon="4.55835">
        <ele>688</ele>
        <time>2014-05-01T07:41:48Z</time>
      </trkpt>
      <trkpt lat="45.57832" lon="4.5592">
        <ele>683.7</ele>
        <time>2014-05-01T07:41:53Z</time>
      </trkpt>
      <trkpt lat="45.57822" lon="4.56">
        <ele>676.2</ele>
        <time>2014-05-01T07:41:58Z</time>
      </trkpt>
      <trkpt lat="45.57818" lon="4.56075">
        <ele>670.5</ele>
        <time>2014-05-01T07:42:03Z</time>
      </trkpt>
      <trkpt lat="45.57828" lon="4.56123">
        <ele>671.8</ele>
        <time>2014-05-01T07:42:08Z</time>
      </trkpt>
      <trkpt lat="45.57833" lon="4.56158">
        <ele>668.1</ele>
        <time>2014-05-01T07:42:13Z</time>
      </trkpt>
      <trkpt lat="45.57837" lon="4.56195">
        <ele>668.7</ele>
        <time>2014-05-01T07:42:18Z</time>
      </trkpt>
      <trkpt lat="45.57842" lon="4.56233">
        <ele>671.4</ele>
        <time>2014-05-01T07:42:23Z</time>
      </trkpt>
      <trkpt lat="45.57843" lon="4.56275">
        <ele>667.7</ele>
        <time>2014-05-01T07:42:28Z</time>
      </trkpt>
      <trkpt lat="45.5784" lon="4.56327">
        <ele>667.2</ele>
        <time>2014-05-01T07:42:33Z</time>
      </trkpt>
      <trkpt lat="45.57833" lon="4.56368">
        <ele>663.5</ele>
        <time>2014-05-01T07:42:38Z</time>
      </trkpt>
      <trkpt lat="45.57828" lon="4.56407">
        <ele>665.8</ele>
        <time>2014-05-01T07:42:43Z</time>
      </trkpt>
      <trkpt lat="45.57838" lon="4.56447">
        <ele>662.8</ele>
        <time>2014-05-01T07:42:48Z</time>
      </trkpt>
      <trkpt lat="45.57848" lon="4.56487">
        <ele>662.7</ele>
        <time>2014-05-01T07:42:53Z</time>
      </trkpt>
      <trkpt lat="45.57862" lon="4.5652">
        <ele>662.5</ele>
        <time>2014-05-01T07:42:58Z</time>
      </trkpt>
      <trkpt lat="45.57872" lon="4.56553">
        <ele>662.4</ele>
        <time>2014-05-01T07:43:03Z</time>
      </trkpt>
      <trkpt lat="45.57885" lon="4.56578">
        <ele>664.5</ele>
        <time>2014-05-01T07:43:08Z</time>
      </trkpt>
      <trkpt lat="45.57902" lon="4.56595">
        <ele>663.5</ele>
        <time>2014-05-01T07:43:13Z</time>
      </trkpt>
      <trkpt lat="45.57918" lon="4.56622">
        <ele>665</ele>
        <time>2014-05-01T07:43:18Z</time>
      </trkpt>
      <trkpt lat="45.57952" lon="4.56658">
        <ele>657.6</ele>
        <time>2014-05-01T07:43:23Z</time>
      </trkpt>
      <trkpt lat="45.5797" lon="4.5668">
        <ele>651.4</ele>
        <time>2014-05-01T07:43:28Z</time>
      </trkpt>
      <trkpt lat="45.57968" lon="4.56687">
        <ele>648.7</ele>
        <time>2014-05-01T07:43:33Z</time>
      </trkpt>
      <trkpt lat="45.57983" lon="4.56702">
        <ele>646.7</ele>
        <time>2014-05-01T07:43:38Z</time>
      </trkpt>
      <trkpt lat="45.58005" lon="4.56725">
        <ele>635.7</ele>
        <time>2014-05-01T07:43:43Z</time>
      </trkpt>
      <trkpt lat="45.58027" lon="4.56745">
        <ele>634.7</ele>
        <time>2014-05-01T07:43:48Z</time>
      </trkpt>
      <trkpt lat="45.58048" lon="4.56763">
        <ele>629.7</ele>
        <time>2014-05-01T07:43:53Z</time>
      </trkpt>
      <trkpt lat="45.58075" lon="4.5678">
        <ele>635.2</ele>
        <time>2014-05-01T07:43:58Z</time>
      </trkpt>
      <trkpt lat="45.58102" lon="4.56808">
        <ele>631.6</ele>
        <time>2014-05-01T07:44:03Z</time>
      </trkpt>
      <trkpt lat="45.58128" lon="4.56835">
        <ele>627.2</ele>
        <time>2014-05-01T07:44:08Z</time>
      </trkpt>
      <trkpt lat="45.58147" lon="4.56868">
        <ele>627.2</ele>
        <time>2014-05-01T07:44:13Z</time>
      </trkpt>
      <trkpt lat="45.5816" lon="4.56898">
        <ele>628.3</ele>
        <time>2014-05-01T07:44:18Z</time>
      </trkpt>
      <trkpt lat="45.58173" lon="4.56922">
        <ele>628.8</ele>
        <time>2014-05-01T07:44:23Z</time>
      </trkpt>
      <trkpt lat="45.58185" lon="4.56935">
        <ele>630.8</ele>
        <time>2014-05-01T07:44:28Z</time>
      </trkpt>
      <trkpt lat="45.58193" lon="4.56945">
        <ele>632.3</ele>
        <time>2014-05-01T07:44:33Z</time>
      </trkpt>
      <trkpt lat="45.58202" lon="4.56955">
        <ele>633.8</ele>
        <time>2014-05-01T07:44:38Z</time>
      </trkpt>
      <trkpt lat="45.58207" lon="4.56967">
        <ele>635.3</ele>
        <time>2014-05-01T07:44:43Z</time>
      </trkpt>
      <trkpt lat="45.58213" lon="4.56977">
        <ele>637.1</ele>
        <time>2014-05-01T07:44:48Z</time>
      </trkpt>
      <trkpt lat="45.58222" lon="4.56992">
        <ele>638.7</ele>
        <time>2014-05-01T07:44:53Z</time>
      </trkpt>
      <trkpt lat="45.58235" lon="4.5701">
        <ele>638.9</ele>
        <time>2014-05-01T07:44:58Z</time>
      </trkpt>
      <trkpt lat="45.58252" lon="4.57037">
        <ele>636.1</ele>
        <time>2014-05-01T07:45:03Z</time>
      </trkpt>
      <trkpt lat="45.58277" lon="4.57075">
        <ele>635.5</ele>
        <time>2014-05-01T07:45:08Z</time>
      </trkpt>
      <trkpt lat="45.58308" lon="4.57105">
        <ele>630.8</ele>
        <time>2014-05-01T07:45:13Z</time>
      </trkpt>
      <trkpt lat="45.58337" lon="4.57153">
        <ele>623.4</ele>
        <time>2014-05-01T07:45:18Z</time>
      </trkpt>
      <trkpt lat="45.58355" lon="4.57195">
        <ele>616.7</ele>
        <time>2014-05-01T07:45:23Z</time>
      </trkpt>
      <trkpt lat="45.58365" lon="4.57235">
        <ele>622.9</ele>
        <time>2014-05-01T07:45:28Z</time>
      </trkpt>
      <trkpt lat="45.58372" lon="4.57265">
        <ele>607</ele>
        <time>2014-05-01T07:45:33Z</time>
      </trkpt>
      <trkpt lat="45.5838" lon="4.57288">
        <ele>610.1</ele>
        <time>2014-05-01T07:45:38Z</time>
      </trkpt>
      <trkpt lat="45.58385" lon="4.57312">
        <ele>606.1</ele>
        <time>2014-05-01T07:45:43Z</time>
      </trkpt>
      <trkpt lat="45.58392" lon="4.5733">
        <ele>602.9</ele>
        <time>2014-05-01T07:45:48Z</time>
      </trkpt>
      <trkpt lat="45.58403" lon="4.57352">
        <ele>600.4</ele>
        <time>2014-05-01T07:45:53Z</time>
      </trkpt>
      <trkpt lat="45.58413" lon="4.57375">
        <ele>598.3</ele>
        <time>2014-05-01T07:45:58Z</time>
      </trkpt>
      <trkpt lat="45.58413" lon="4.57407">
        <ele>594.3</ele>
        <time>2014-05-01T07:46:03Z</time>
      </trkpt>
      <trkpt lat="45.5841" lon="4.57447">
        <ele>596.1</ele>
        <time>2014-05-01T07:46:08Z</time>
      </trkpt>
      <trkpt lat="45.58392" lon="4.57483">
        <ele>587.8</ele>
        <time>2014-05-01T07:46:13Z</time>
      </trkpt>
      <trkpt lat="45.58373" lon="4.57513">
        <ele>592.8</ele>
        <time>2014-05-01T07:46:18Z</time>
      </trkpt>
      <trkpt lat="45.58357" lon="4.57542">
        <ele>595.4</ele>
        <time>2014-05-01T07:46:23Z</time>
      </trkpt>
      <trkpt lat="45.58342" lon="4.57573">
        <ele>591.5</ele>
        <time>2014-05-01T07:46:28Z</time>
      </trkpt>
      <trkpt lat="45.58327" lon="4.57608">
        <ele>588.8</ele>
        <time>2014-05-01T07:46:33Z</time>
      </trkpt>
      <trkpt lat="45.5831" lon="4.57643">
        <ele>591.1</ele>
        <time>2014-05-01T07:46:38Z</time>
      </trkpt>
      <trkpt lat="45.58298" lon="4.5767">
        <ele>593.1</ele>
        <time>2014-05-01T07:46:43Z</time>
      </trkpt>
      <trkpt lat="45.58288" lon="4.57698">
        <ele>591.7</ele>
        <time>2014-05-01T07:46:48Z</time>
      </trkpt>
      <trkpt lat="45.58282" lon="4.5772">
        <ele>591.2</ele>
        <time>2014-05-01T07:46:53Z</time>
      </trkpt>
      <trkpt lat="45.5828" lon="4.57735">
        <ele>590</ele>
        <time>2014-05-01T07:46:58Z</time>
      </trkpt>
      <trkpt lat="45.5828" lon="4.57748">
        <ele>589.9</ele>
        <time>2014-05-01T07:47:03Z</time>
      </trkpt>
      <trkpt lat="45.58283" lon="4.57757">
        <ele>590</ele>
        <time>2014-05-01T07:47:08Z</time>
      </trkpt>
      <trkpt lat="45.58287" lon="4.57765">
        <ele>591</ele>
        <time>2014-05-01T07:47:13Z</time>
      </trkpt>
      <trkpt lat="45.5829" lon="4.57773">
        <ele>591.2</ele>
        <time>2014-05-01T07:47:18Z</time>
      </trkpt>
      <trkpt lat="45.58292" lon="4.57782">
        <ele>592.6</ele>
        <time>2014-05-01T07:47:23Z</time>
      </trkpt>
      <trkpt lat="45.58295" lon="4.5779">
        <ele>593</ele>
        <time>2014-05-01T07:47:28Z</time>
      </trkpt>
      <trkpt lat="45.58298" lon="4.57798">
        <ele>593.2</ele>
        <time>2014-05-01T07:47:33Z</time>
      </trkpt>
      <trkpt lat="45.58302" lon="4.57808">
        <ele>595</ele>
        <time>2014-05-01T07:47:38Z</time>
      </trkpt>
      <trkpt lat="45.58303" lon="4.5782">
        <ele>595.5</ele>
        <time>2014-05-01T07:47:43Z</time>
      </trkpt>
      <trkpt lat="45.58307" lon="4.5783">
        <ele>596.5</ele>
        <time>2014-05-01T07:47:48Z</time>
      </trkpt>
      <trkpt lat="45.58308" lon="4.57843">
        <ele>596.4</ele>
        <time>2014-05-01T07:47:53Z</time>
      </trkpt>
      <trkpt lat="45.58312" lon="4.57857">
        <ele>598.6</ele>
        <time>2014-05-01T07:47:58Z</time>
      </trkpt>
      <trkpt lat="45.58313" lon="4.57872">
        <ele>598.6</ele>
        <time>2014-05-01T07:48:03Z</time>
      </trkpt>
      <trkpt lat="45.58315" lon="4.57885">
        <ele>599.8</ele>
        <time>2014-05-01T07:48:08Z</time>
      </trkpt>
      <trkpt lat="45.58318" lon="4.57895">
        <ele>600.4</ele>
        <time>2014-05-01T07:48:13Z</time>
      </trkpt>
      <trkpt lat="45.58322" lon="4.57907">
        <ele>601.7</ele>
        <time>2014-05-01T07:48:18Z</time>
      </trkpt>
      <trkpt lat="45.58325" lon="4.57917">
        <ele>604.1</ele>
        <time>2014-05-01T07:48:23Z</time>
      </trkpt>
      <trkpt lat="45.58328" lon="4.57927">
        <ele>604.8</ele>
        <time>2014-05-01T07:48:28Z</time>
      </trkpt>
      <trkpt lat="45.58332" lon="4.57938">
        <ele>605.4</ele>
        <time>2014-05-01T07:48:33Z</time>
      </trkpt>
      <trkpt lat="45.58333" lon="4.5795">
        <ele>606.4</ele>
        <time>2014-05-01T07:48:38Z</time>
      </trkpt>
      <trkpt lat="45.58337" lon="4.5796">
        <ele>607.5</ele>
        <time>2014-05-01T07:48:43Z</time>
      </trkpt>
      <trkpt lat="45.5834" lon="4.5797">
        <ele>608.9</ele>
        <time>2014-05-01T07:48:48Z</time>
      </trkpt>
      <trkpt lat="45.58345" lon="4.57977">
        <ele>610</ele>
        <time>2014-05-01T07:48:53Z</time>
      </trkpt>
      <trkpt lat="45.58352" lon="4.57978">
        <ele>611.4</ele>
        <time>2014-05-01T07:48:58Z</time>
      </trkpt>
      <trkpt lat="45.5836" lon="4.5798">
        <ele>613.1</ele>
        <time>2014-05-01T07:49:03Z</time>
      </trkpt>
      <trkpt lat="45.58365" lon="4.5798">
        <ele>614.6</ele>
        <time>2014-05-01T07:49:08Z</time>
      </trkpt>
      <trkpt lat="45.58372" lon="4.5798">
        <ele>614.6</ele>
        <time>2014-05-01T07:49:13Z</time>
      </trkpt>
      <trkpt lat="45.5838" lon="4.57978">
        <ele>616.3</ele>
        <time>2014-05-01T07:49:18Z</time>
      </trkpt>
      <trkpt lat="45.58387" lon="4.57975">
        <ele>617.4</ele>
        <time>2014-05-01T07:49:23Z</time>
      </trkpt>
      <trkpt lat="45.58392" lon="4.57973">
        <ele>617.7</ele>
        <time>2014-05-01T07:49:28Z</time>
      </trkpt>
      <trkpt lat="45.584" lon="4.57968">
        <ele>618.9</ele>
        <time>2014-05-01T07:49:33Z</time>
      </trkpt>
      <trkpt lat="45.58408" lon="4.57965">
        <ele>620.5</ele>
        <time>2014-05-01T07:49:38Z</time>
      </trkpt>
      <trkpt lat="45.58417" lon="4.57963">
        <ele>621.2</ele>
        <time>2014-05-01T07:49:43Z</time>
      </trkpt>
      <trkpt lat="45.58423" lon="4.57963">
        <ele>622.6</ele>
        <time>2014-05-01T07:49:48Z</time>
      </trkpt>
      <trkpt lat="45.5843" lon="4.57963">
        <ele>623</ele>
        <time>2014-05-01T07:49:53Z</time>
      </trkpt>
      <trkpt lat="45.58437" lon="4.57967">
        <ele>624.7</ele>
        <time>2014-05-01T07:49:58Z</time>
      </trkpt>
      <trkpt lat="45.58447" lon="4.57967">
        <ele>625.2</ele>
        <time>2014-05-01T07:50:03Z</time>
      </trkpt>
      <trkpt lat="45.58458" lon="4.5797">
        <ele>626.3</ele>
        <time>2014-05-01T07:50:08Z</time>
      </trkpt>
      <trkpt lat="45.5847" lon="4.57972">
        <ele>626.7</ele>
        <time>2014-05-01T07:50:13Z</time>
      </trkpt>
      <trkpt lat="45.58482" lon="4.57975">
        <ele>627.8</ele>
        <time>2014-05-01T07:50:18Z</time>
      </trkpt>
      <trkpt lat="45.58492" lon="4.57985">
        <ele>627.7</ele>
        <time>2014-05-01T07:50:23Z</time>
      </trkpt>
      <trkpt lat="45.58502" lon="4.57995">
        <ele>627.9</ele>
        <time>2014-05-01T07:50:28Z</time>
      </trkpt>
      <trkpt lat="45.58515" lon="4.58005">
        <ele>628.3</ele>
        <time>2014-05-01T07:50:33Z</time>
      </trkpt>
      <trkpt lat="45.58527" lon="4.58013">
        <ele>628.7</ele>
        <time>2014-05-01T07:50:38Z</time>
      </trkpt>
      <trkpt lat="45.58533" lon="4.58023">
        <ele>628.8</ele>
        <time>2014-05-01T07:50:43Z</time>
      </trkpt>
      <trkpt lat="45.58543" lon="4.58027">
        <ele>629.8</ele>
        <time>2014-05-01T07:50:48Z</time>
      </trkpt>
      <trkpt lat="45.58552" lon="4.58028">
        <ele>630.1</ele>
        <time>2014-05-01T07:50:53Z</time>
      </trkpt>
      <trkpt lat="45.58562" lon="4.5803">
        <ele>632.3</ele>
        <time>2014-05-01T07:50:58Z</time>
      </trkpt>
      <trkpt lat="45.58572" lon="4.58033">
        <ele>632.5</ele>
        <time>2014-05-01T07:51:03Z</time>
      </trkpt>
      <trkpt lat="45.58578" lon="4.58037">
        <ele>634.9</ele>
        <time>2014-05-01T07:51:08Z</time>
      </trkpt>
      <trkpt lat="45.58588" lon="4.58038">
        <ele>636.3</ele>
        <time>2014-05-01T07:51:13Z</time>
      </trkpt>
      <trkpt lat="45.58597" lon="4.5804">
        <ele>638</ele>
        <time>2014-05-01T07:51:18Z</time>
      </trkpt>
      <trkpt lat="45.58605" lon="4.58038">
        <ele>639.5</ele>
        <time>2014-05-01T07:51:23Z</time>
      </trkpt>
      <trkpt lat="45.58615" lon="4.58037">
        <ele>640.5</ele>
        <time>2014-05-01T07:51:28Z</time>
      </trkpt>
      <trkpt lat="45.58623" lon="4.5803">
        <ele>641.2</ele>
        <time>2014-05-01T07:51:33Z</time>
      </trkpt>
      <trkpt lat="45.58632" lon="4.58022">
        <ele>644.1</ele>
        <time>2014-05-01T07:51:38Z</time>
      </trkpt>
      <trkpt lat="45.58637" lon="4.58012">
        <ele>643</ele>
        <time>2014-05-01T07:51:43Z</time>
      </trkpt>
      <trkpt lat="45.5864" lon="4.58">
        <ele>645.5</ele>
        <time>2014-05-01T07:51:48Z</time>
      </trkpt>
      <trkpt lat="45.58643" lon="4.5799">
        <ele>646.4</ele>
        <time>2014-05-01T07:51:53Z</time>
      </trkpt>
      <trkpt lat="45.58647" lon="4.57977">
        <ele>647.2</ele>
        <time>2014-05-01T07:51:58Z</time>
      </trkpt>
      <trkpt lat="45.58648" lon="4.57967">
        <ele>647.8</ele>
        <time>2014-05-01T07:52:03Z</time>
      </trkpt>
      <trkpt lat="45.58652" lon="4.57957">
        <ele>649.9</ele>
        <time>2014-05-01T07:52:08Z</time>
      </trkpt>
      <trkpt lat="45.58655" lon="4.57947">
        <ele>650.9</ele>
        <time>2014-05-01T07:52:13Z</time>
      </trkpt>
      <trkpt lat="45.58658" lon="4.57937">
        <ele>652.8</ele>
        <time>2014-05-01T07:52:18Z</time>
      </trkpt>
      <trkpt lat="45.58662" lon="4.57925">
        <ele>653.1</ele>
        <time>2014-05-01T07:52:23Z</time>
      </trkpt>
      <trkpt lat="45.58665" lon="4.57915">
        <ele>652.8</ele>
        <time>2014-05-01T07:52:28Z</time>
      </trkpt>
      <trkpt lat="45.58668" lon="4.57905">
        <ele>655</ele>
        <time>2014-05-01T07:52:33Z</time>
      </trkpt>
      <trkpt lat="45.58673" lon="4.57895">
        <ele>656.4</ele>
        <time>2014-05-01T07:52:38Z</time>
      </trkpt>
      <trkpt lat="45.58677" lon="4.57887">
        <ele>656.7</ele>
        <time>2014-05-01T07:52:43Z</time>
      </trkpt>
      <trkpt lat="45.58683" lon="4.57875">
        <ele>657.8</ele>
        <time>2014-05-01T07:52:48Z</time>
      </trkpt>
      <trkpt lat="45.5869" lon="4.57867">
        <ele>659.7</ele>
        <time>2014-05-01T07:52:53Z</time>
      </trkpt>
      <trkpt lat="45.58698" lon="4.57863">
        <ele>660.3</ele>
        <time>2014-05-01T07:52:58Z</time>
      </trkpt>
      <trkpt lat="45.58707" lon="4.5786">
        <ele>660.3</ele>
        <time>2014-05-01T07:53:03Z</time>
      </trkpt>
      <trkpt lat="45.58715" lon="4.57858">
        <ele>662.1</ele>
        <time>2014-05-01T07:53:08Z</time>
      </trkpt>
      <trkpt lat="45.58723" lon="4.5786">
        <ele>663.3</ele>
        <time>2014-05-01T07:53:13Z</time>
      </trkpt>
      <trkpt lat="45.5873" lon="4.57858">
        <ele>663.6</ele>
        <time>2014-05-01T07:53:18Z</time>
      </trkpt>
      <trkpt lat="45.58738" lon="4.57857">
        <ele>665.6</ele>
        <time>2014-05-01T07:53:23Z</time>
      </trkpt>
      <trkpt lat="45.58748" lon="4.57852">
        <ele>666.2</ele>
        <time>2014-05-01T07:53:28Z</time>
      </trkpt>
      <trkpt lat="45.58755" lon="4.57847">
        <ele>667.2</ele>
        <time>2014-05-01T07:53:33Z</time>
      </trkpt>
      <trkpt lat="45.58763" lon="4.5784">
        <ele>668.3</ele>
        <time>2014-05-01T07:53:38Z</time>
      </trkpt>
      <trkpt lat="45.58772" lon="4.57835">
        <ele>668.4</ele>
        <time>2014-05-01T07:53:43Z</time>
      </trkpt>
      <trkpt lat="45.5878" lon="4.57828">
        <ele>670.7</ele>
        <time>2014-05-01T07:53:48Z</time>
      </trkpt>
      <trkpt lat="45.58788" lon="4.57822">
        <ele>671.5</ele>
        <time>2014-05-01T07:53:53Z</time>
      </trkpt>
      <trkpt lat="45.58795" lon="4.57817">
        <ele>672.3</ele>
        <time>2014-05-01T07:53:58Z</time>
      </trkpt>
      <trkpt lat="45.58803" lon="4.57805">
        <ele>672.7</ele>
        <time>2014-05-01T07:54:03Z</time>
      </trkpt>
      <trkpt lat="45.58808" lon="4.57797">
        <ele>673.4</ele>
        <time>2014-05-01T07:54:08Z</time>
      </trkpt>
      <trkpt lat="45.58812" lon="4.57783">
        <ele>674.8</ele>
        <time>2014-05-01T07:54:13Z</time>
      </trkpt>
      <trkpt lat="45.58815" lon="4.57772">
        <ele>675.3</ele>
        <time>2014-05-01T07:54:18Z</time>
      </trkpt>
      <trkpt lat="45.58817" lon="4.5776">
        <ele>676.7</ele>
        <time>2014-05-01T07:54:23Z</time>
      </trkpt>
      <trkpt lat="45.5882" lon="4.57747">
        <ele>678.7</ele>
        <time>2014-05-01T07:54:28Z</time>
      </trkpt>
      <trkpt lat="45.58823" lon="4.57732">
        <ele>679</ele>
        <time>2014-05-01T07:54:33Z</time>
      </trkpt>
      <trkpt lat="45.58828" lon="4.57707">
        <ele>678.8</ele>
        <time>2014-05-01T07:54:38Z</time>
      </trkpt>
      <trkpt lat="45.58832" lon="4.57668">
        <ele>677.2</ele>
        <time>2014-05-01T07:54:43Z</time>
      </trkpt>
      <trkpt lat="45.58837" lon="4.5763">
        <ele>675</ele>
        <time>2014-05-01T07:54:48Z</time>
      </trkpt>
      <trkpt lat="45.58845" lon="4.57605">
        <ele>675.1</ele>
        <time>2014-05-01T07:54:53Z</time>
      </trkpt>
      <trkpt lat="45.58857" lon="4.57592">
        <ele>677.4</ele>
        <time>2014-05-01T07:54:58Z</time>
      </trkpt>
      <trkpt lat="45.58875" lon="4.5759">
        <ele>676.4</ele>
        <time>2014-05-01T07:55:03Z</time>
      </trkpt>
      <trkpt lat="45.5889" lon="4.57592">
        <ele>678.9</ele>
        <time>2014-05-01T07:55:08Z</time>
      </trkpt>
      <trkpt lat="45.58903" lon="4.57593">
        <ele>681.2</ele>
        <time>2014-05-01T07:55:13Z</time>
      </trkpt>
      <trkpt lat="45.58918" lon="4.57595">
        <ele>679.8</ele>
        <time>2014-05-01T07:55:18Z</time>
      </trkpt>
      <trkpt lat="45.58932" lon="4.57592">
        <ele>679.9</ele>
        <time>2014-05-01T07:55:23Z</time>
      </trkpt>
      <trkpt lat="45.58947" lon="4.57585">
        <ele>681</ele>
        <time>2014-05-01T07:55:28Z</time>
      </trkpt>
      <trkpt lat="45.58962" lon="4.5758">
        <ele>682.8</ele>
        <time>2014-05-01T07:55:33Z</time>
      </trkpt>
      <trkpt lat="45.58978" lon="4.57573">
        <ele>682</ele>
        <time>2014-05-01T07:55:38Z</time>
      </trkpt>
      <trkpt lat="45.58997" lon="4.57575">
        <ele>681.1</ele>
        <time>2014-05-01T07:55:43Z</time>
      </trkpt>
      <trkpt lat="45.59012" lon="4.57575">
        <ele>681.6</ele>
        <time>2014-05-01T07:55:48Z</time>
      </trkpt>
      <trkpt lat="45.59025" lon="4.5757">
        <ele>682.8</ele>
        <time>2014-05-01T07:55:53Z</time>
      </trkpt>
      <trkpt lat="45.59033" lon="4.57563">
        <ele>683.6</ele>
        <time>2014-05-01T07:55:58Z</time>
      </trkpt>
      <trkpt lat="45.59042" lon="4.57558">
        <ele>686.5</ele>
        <time>2014-05-01T07:56:03Z</time>
      </trkpt>
      <trkpt lat="45.5905" lon="4.57552">
        <ele>687.3</ele>
        <time>2014-05-01T07:56:08Z</time>
      </trkpt>
      <trkpt lat="45.59058" lon="4.57542">
        <ele>688.1</ele>
        <time>2014-05-01T07:56:13Z</time>
      </trkpt>
      <trkpt lat="45.5907" lon="4.57533">
        <ele>689.4</ele>
        <time>2014-05-01T07:56:18Z</time>
      </trkpt>
      <trkpt lat="45.59083" lon="4.57525">
        <ele>690.3</ele>
        <time>2014-05-01T07:56:23Z</time>
      </trkpt>
      <trkpt lat="45.59098" lon="4.57515">
        <ele>691</ele>
        <time>2014-05-01T07:56:28Z</time>
      </trkpt>
      <trkpt lat="45.59112" lon="4.57502">
        <ele>690.2</ele>
        <time>2014-05-01T07:56:33Z</time>
      </trkpt>
      <trkpt lat="45.59127" lon="4.57483">
        <ele>688.2</ele>
        <time>2014-05-01T07:56:38Z</time>
      </trkpt>
      <trkpt lat="45.59132" lon="4.57462">
        <ele>690.7</ele>
        <time>2014-05-01T07:56:43Z</time>
      </trkpt>
      <trkpt lat="45.5914" lon="4.57432">
        <ele>689.7</ele>
        <time>2014-05-01T07:56:48Z</time>
      </trkpt>
      <trkpt lat="45.59153" lon="4.5739">
        <ele>688.3</ele>
        <time>2014-05-01T07:56:53Z</time>
      </trkpt>
      <trkpt lat="45.59167" lon="4.57335">
        <ele>683.3</ele>
        <time>2014-05-01T07:56:58Z</time>
      </trkpt>
      <trkpt lat="45.59177" lon="4.57272">
        <ele>680.6</ele>
        <time>2014-05-01T07:57:03Z</time>
      </trkpt>
      <trkpt lat="45.59182" lon="4.57217">
        <ele>675.8</ele>
        <time>2014-05-01T07:57:08Z</time>
      </trkpt>
      <trkpt lat="45.59207" lon="4.57197">
        <ele>674.1</ele>
        <time>2014-05-01T07:57:13Z</time>
      </trkpt>
      <trkpt lat="45.59247" lon="4.57177">
        <ele>671.8</ele>
        <time>2014-05-01T07:57:18Z</time>
      </trkpt>
      <trkpt lat="45.59287" lon="4.57162">
        <ele>663.2</ele>
        <time>2014-05-01T07:57:23Z</time>
      </trkpt>
      <trkpt lat="45.59307" lon="4.57133">
        <ele>658.6</ele>
        <time>2014-05-01T07:57:28Z</time>
      </trkpt>
      <trkpt lat="45.5932" lon="4.57095">
        <ele>656.7</ele>
        <time>2014-05-01T07:57:33Z</time>
      </trkpt>
      <trkpt lat="45.5934" lon="4.57047">
        <ele>657.2</ele>
        <time>2014-05-01T07:57:38Z</time>
      </trkpt>
      <trkpt lat="45.5936" lon="4.57007">
        <ele>648.3</ele>
        <time>2014-05-01T07:57:43Z</time>
      </trkpt>
      <trkpt lat="45.5938" lon="4.57027">
        <ele>646.1</ele>
        <time>2014-05-01T07:57:48Z</time>
      </trkpt>
      <trkpt lat="45.59408" lon="4.57057">
        <ele>640.3</ele>
        <time>2014-05-01T07:57:53Z</time>
      </trkpt>
      <trkpt lat="45.59418" lon="4.57112">
        <ele>637.2</ele>
        <time>2014-05-01T07:57:58Z</time>
      </trkpt>
      <trkpt lat="45.59452" lon="4.57107">
        <ele>629.2</ele>
        <time>2014-05-01T07:58:03Z</time>
      </trkpt>
      <trkpt lat="45.59487" lon="4.57083">
        <ele>627.1</ele>
        <time>2014-05-01T07:58:08Z</time>
      </trkpt>
      <trkpt lat="45.59528" lon="4.57095">
        <ele>625.2</ele>
        <time>2014-05-01T07:58:13Z</time>
      </trkpt>
      <trkpt lat="45.59577" lon="4.57103">
        <ele>621.9</ele>
        <time>2014-05-01T07:58:18Z</time>
      </trkpt>
      <trkpt lat="45.59623" lon="4.57105">
        <ele>618.3</ele>
        <time>2014-05-01T07:58:23Z</time>
      </trkpt>
      <trkpt lat="45.59667" lon="4.57102">
        <ele>614.7</ele>
        <time>2014-05-01T07:58:28Z</time>
      </trkpt>
      <trkpt lat="45.59705" lon="4.57105">
        <ele>613.4</ele>
        <time>2014-05-01T07:58:33Z</time>
      </trkpt>
      <trkpt lat="45.59742" lon="4.57112">
        <ele>611.8</ele>
        <time>2014-05-01T07:58:38Z</time>
      </trkpt>
      <trkpt lat="45.59775" lon="4.57117">
        <ele>611.9</ele>
        <time>2014-05-01T07:58:43Z</time>
      </trkpt>
      <trkpt lat="45.59795" lon="4.57118">
        <ele>610.2</ele>
        <time>2014-05-01T07:58:48Z</time>
      </trkpt>
      <trkpt lat="45.59807" lon="4.5711">
        <ele>610.5</ele>
        <time>2014-05-01T07:58:53Z</time>
      </trkpt>
      <trkpt lat="45.59823" lon="4.57097">
        <ele>610.2</ele>
        <time>2014-05-01T07:58:58Z</time>
      </trkpt>
      <trkpt lat="45.59842" lon="4.57087">
        <ele>611.9</ele>
        <time>2014-05-01T07:59:03Z</time>
      </trkpt>
      <trkpt lat="45.59863" lon="4.5708">
        <ele>611.9</ele>
        <time>2014-05-01T07:59:08Z</time>
      </trkpt>
      <trkpt lat="45.59883" lon="4.57082">
        <ele>612.7</ele>
        <time>2014-05-01T07:59:13Z</time>
      </trkpt>
      <trkpt lat="45.5991" lon="4.57093">
        <ele>611.6</ele>
        <time>2014-05-01T07:59:18Z</time>
      </trkpt>
      <trkpt lat="45.59938" lon="4.57112">
        <ele>609.5</ele>
        <time>2014-05-01T07:59:23Z</time>
      </trkpt>
      <trkpt lat="45.59955" lon="4.57157">
        <ele>608</ele>
        <time>2014-05-01T07:59:28Z</time>
      </trkpt>
      <trkpt lat="45.59967" lon="4.57198">
        <ele>606.4</ele>
        <time>2014-05-01T07:59:33Z</time>
      </trkpt>
      <trkpt lat="45.59975" lon="4.57238">
        <ele>607.5</ele>
        <time>2014-05-01T07:59:38Z</time>
      </trkpt>
      <trkpt lat="45.59975" lon="4.57285">
        <ele>604.6</ele>
        <time>2014-05-01T07:59:43Z</time>
      </trkpt>
      <trkpt lat="45.5998" lon="4.57328">
        <ele>604.2</ele>
        <time>2014-05-01T07:59:48Z</time>
      </trkpt>
      <trkpt lat="45.59992" lon="4.5736">
        <ele>605.4</ele>
        <time>2014-05-01T07:59:53Z</time>
      </trkpt>
      <trkpt lat="45.6" lon="4.57393">
        <ele>605.9</ele>
        <time>2014-05-01T07:59:58Z</time>
      </trkpt>
      <trkpt lat="45.60003" lon="4.5743">
        <ele>607</ele>
        <time>2014-05-01T08:00:03Z</time>
      </trkpt>
      <trkpt lat="45.60007" lon="4.5747">
        <ele>603.7</ele>
        <time>2014-05-01T08:00:08Z</time>
      </trkpt>
      <trkpt lat="45.60013" lon="4.5751">
        <ele>603.9</ele>
        <time>2014-05-01T08:00:13Z</time>
      </trkpt>
      <trkpt lat="45.60022" lon="4.57543">
        <ele>603</ele>
        <time>2014-05-01T08:00:18Z</time>
      </trkpt>
      <trkpt lat="45.60037" lon="4.5758">
        <ele>603.7</ele>
        <time>2014-05-01T08:00:23Z</time>
      </trkpt>
      <trkpt lat="45.60048" lon="4.57622">
        <ele>600.7</ele>
        <time>2014-05-01T08:00:28Z</time>
      </trkpt>
      <trkpt lat="45.6007" lon="4.57662">
        <ele>599</ele>
        <time>2014-05-01T08:00:33Z</time>
      </trkpt>
      <trkpt lat="45.60092" lon="4.57695">
        <ele>600.5</ele>
        <time>2014-05-01T08:00:38Z</time>
      </trkpt>
      <trkpt lat="45.60103" lon="4.57737">
        <ele>598.3</ele>
        <time>2014-05-01T08:00:43Z</time>
      </trkpt>
      <trkpt lat="45.60105" lon="4.5778">
        <ele>599.2</ele>
        <time>2014-05-01T08:00:48Z</time>
      </trkpt>
      <trkpt lat="45.60093" lon="4.5781">
        <ele>598.2</ele>
        <time>2014-05-01T08:00:53Z</time>
      </trkpt>
      <trkpt lat="45.6008" lon="4.57828">
        <ele>599.3</ele>
        <time>2014-05-01T08:00:58Z</time>
      </trkpt>
      <trkpt lat="45.60072" lon="4.57842">
        <ele>601.2</ele>
        <time>2014-05-01T08:01:03Z</time>
      </trkpt>
      <trkpt lat="45.60065" lon="4.57855">
        <ele>602.7</ele>
        <time>2014-05-01T08:01:08Z</time>
      </trkpt>
      <trkpt lat="45.60063" lon="4.57867">
        <ele>604.1</ele>
        <time>2014-05-01T08:01:13Z</time>
      </trkpt>
      <trkpt lat="45.60063" lon="4.5788">
        <ele>606.7</ele>
        <time>2014-05-01T08:01:18Z</time>
      </trkpt>
      <trkpt lat="45.60063" lon="4.57893">
        <ele>606.7</ele>
        <time>2014-05-01T08:01:23Z</time>
      </trkpt>
      <trkpt lat="45.60063" lon="4.57907">
        <ele>608.9</ele>
        <time>2014-05-01T08:01:28Z</time>
      </trkpt>
      <trkpt lat="45.60067" lon="4.57922">
        <ele>609.4</ele>
        <time>2014-05-01T08:01:33Z</time>
      </trkpt>
      <trkpt lat="45.60068" lon="4.57933">
        <ele>609.8</ele>
        <time>2014-05-01T08:01:38Z</time>
      </trkpt>
      <trkpt lat="45.6007" lon="4.57947">
        <ele>611.3</ele>
        <time>2014-05-01T08:01:43Z</time>
      </trkpt>
      <trkpt lat="45.60075" lon="4.57958">
        <ele>613.6</ele>
        <time>2014-05-01T08:01:48Z</time>
      </trkpt>
      <trkpt lat="45.60077" lon="4.57973">
        <ele>615.1</ele>
        <time>2014-05-01T08:01:53Z</time>
      </trkpt>
      <trkpt lat="45.6008" lon="4.57992">
        <ele>615.4</ele>
        <time>2014-05-01T08:01:58Z</time>
      </trkpt>
      <trkpt lat="45.60082" lon="4.58013">
        <ele>615.6</ele>
        <time>2014-05-01T08:02:03Z</time>
      </trkpt>
      <trkpt lat="45.60085" lon="4.58035">
        <ele>616.3</ele>
        <time>2014-05-01T08:02:08Z</time>
      </trkpt>
      <trkpt lat="45.60087" lon="4.58055">
        <ele>616.4</ele>
        <time>2014-05-01T08:02:13Z</time>
      </trkpt>
      <trkpt lat="45.6009" lon="4.58075">
        <ele>616.2</ele>
        <time>2014-05-01T08:02:18Z</time>
      </trkpt>
      <trkpt lat="45.60092" lon="4.58092">
        <ele>617</ele>
        <time>2014-05-01T08:02:23Z</time>
      </trkpt>
      <trkpt lat="45.60093" lon="4.58107">
        <ele>619.9</ele>
        <time>2014-05-01T08:02:28Z</time>
      </trkpt>
      <trkpt lat="45.60092" lon="4.5812">
        <ele>621.2</ele>
        <time>2014-05-01T08:02:33Z</time>
      </trkpt>
      <trkpt lat="45.60092" lon="4.58135">
        <ele>622.4</ele>
        <time>2014-05-01T08:02:38Z</time>
      </trkpt>
      <trkpt lat="45.60093" lon="4.58148">
        <ele>623.5</ele>
        <time>2014-05-01T08:02:43Z</time>
      </trkpt>
      <trkpt lat="45.60095" lon="4.58162">
        <ele>624.4</ele>
        <time>2014-05-01T08:02:48Z</time>
      </trkpt>
      <trkpt lat="45.60097" lon="4.58177">
        <ele>624.3</ele>
        <time>2014-05-01T08:02:53Z</time>
      </trkpt>
      <trkpt lat="45.60098" lon="4.58192">
        <ele>625.2</ele>
        <time>2014-05-01T08:02:58Z</time>
      </trkpt>
      <trkpt lat="45.601" lon="4.58207">
        <ele>625.7</ele>
        <time>2014-05-01T08:03:03Z</time>
      </trkpt>
      <trkpt lat="45.60103" lon="4.5822">
        <ele>627.9</ele>
        <time>2014-05-01T08:03:08Z</time>
      </trkpt>
      <trkpt lat="45.60107" lon="4.58235">
        <ele>628.7</ele>
        <time>2014-05-01T08:03:13Z</time>
      </trkpt>
      <trkpt lat="45.6011" lon="4.58248">
        <ele>629.9</ele>
        <time>2014-05-01T08:03:18Z</time>
      </trkpt>
      <trkpt lat="45.60113" lon="4.58263">
        <ele>631.1</ele>
        <time>2014-05-01T08:03:23Z</time>
      </trkpt>
      <trkpt lat="45.60115" lon="4.58277">
        <ele>631.2</ele>
        <time>2014-05-01T08:03:28Z</time>
      </trkpt>
      <trkpt lat="45.60117" lon="4.58292">
        <ele>632.3</ele>
        <time>2014-05-01T08:03:33Z</time>
      </trkpt>
      <trkpt lat="45.60118" lon="4.58305">
        <ele>633.2</ele>
        <time>2014-05-01T08:03:38Z</time>
      </trkpt>
      <trkpt lat="45.60123" lon="4.58302">
        <ele>633.5</ele>
        <time>2014-05-01T08:03:43Z</time>
      </trkpt>
      <trkpt lat="45.60123" lon="4.5829">
        <ele>634.9</ele>
        <time>2014-05-01T08:03:48Z</time>
      </trkpt>
      <trkpt lat="45.60125" lon="4.58278">
        <ele>635.8</ele>
        <time>2014-05-01T08:03:53Z</time>
      </trkpt>
      <trkpt lat="45.60127" lon="4.58267">
        <ele>637.1</ele>
        <time>2014-05-01T08:03:58Z</time>
      </trkpt>
      <trkpt lat="45.60128" lon="4.58255">
        <ele>636.5</ele>
        <time>2014-05-01T08:04:03Z</time>
      </trkpt>
      <trkpt lat="45.60132" lon="4.58247">
        <ele>638.5</ele>
        <time>2014-05-01T08:04:08Z</time>
      </trkpt>
      <trkpt lat="45.60132" lon="4.58237">
        <ele>641.1</ele>
        <time>2014-05-01T08:04:13Z</time>
      </trkpt>
      <trkpt lat="45.60135" lon="4.58225">
        <ele>641.8</ele>
        <time>2014-05-01T08:04:18Z</time>
      </trkpt>
      <trkpt lat="45.60137" lon="4.58213">
        <ele>642.3</ele>
        <time>2014-05-01T08:04:23Z</time>
      </trkpt>
      <trkpt lat="45.60138" lon="4.58202">
        <ele>642.4</ele>
        <time>2014-05-01T08:04:28Z</time>
      </trkpt>
      <trkpt lat="45.6014" lon="4.58188">
        <ele>643.4</ele>
        <time>2014-05-01T08:04:33Z</time>
      </trkpt>
      <trkpt lat="45.60142" lon="4.58178">
        <ele>645.6</ele>
        <time>2014-05-01T08:04:38Z</time>
      </trkpt>
      <trkpt lat="45.60145" lon="4.5817">
        <ele>646.7</ele>
        <time>2014-05-01T08:04:43Z</time>
      </trkpt>
      <trkpt lat="45.60145" lon="4.58157">
        <ele>648.3</ele>
        <time>2014-05-01T08:04:48Z</time>
      </trkpt>
      <trkpt lat="45.60147" lon="4.58145">
        <ele>648.6</ele>
        <time>2014-05-01T08:04:53Z</time>
      </trkpt>
      <trkpt lat="45.60148" lon="4.58133">
        <ele>649</ele>
        <time>2014-05-01T08:04:58Z</time>
      </trkpt>
      <trkpt lat="45.6015" lon="4.58123">
        <ele>650.4</ele>
        <time>2014-05-01T08:05:03Z</time>
      </trkpt>
      <trkpt lat="45.60152" lon="4.5811">
        <ele>651.6</ele>
        <time>2014-05-01T08:05:08Z</time>
      </trkpt>
      <trkpt lat="45.60153" lon="4.58095">
        <ele>651.1</ele>
        <time>2014-05-01T08:05:13Z</time>
      </trkpt>
      <trkpt lat="45.60155" lon="4.58082">
        <ele>653</ele>
        <time>2014-05-01T08:05:18Z</time>
      </trkpt>
      <trkpt lat="45.60157" lon="4.58068">
        <ele>652.3</ele>
        <time>2014-05-01T08:05:23Z</time>
      </trkpt>
      <trkpt lat="45.60157" lon="4.58058">
        <ele>654.2</ele>
        <time>2014-05-01T08:05:28Z</time>
      </trkpt>
      <trkpt lat="45.6016" lon="4.58048">
        <ele>655.2</ele>
        <time>2014-05-01T08:05:33Z</time>
      </trkpt>
      <trkpt lat="45.60162" lon="4.5804">
        <ele>656.8</ele>
        <time>2014-05-01T08:05:38Z</time>
      </trkpt>
      <trkpt lat="45.60163" lon="4.58032">
        <ele>658.4</ele>
        <time>2014-05-01T08:05:43Z</time>
      </trkpt>
      <trkpt lat="45.60167" lon="4.58022">
        <ele>659</ele>
        <time>2014-05-01T08:05:48Z</time>
      </trkpt>
      <trkpt lat="45.60168" lon="4.58013">
        <ele>660.2</ele>
        <time>2014-05-01T08:05:53Z</time>
      </trkpt>
      <trkpt lat="45.60172" lon="4.58005">
        <ele>661.7</ele>
        <time>2014-05-01T08:05:58Z</time>
      </trkpt>
      <trkpt lat="45.60178" lon="4.57995">
        <ele>663</ele>
        <time>2014-05-01T08:06:03Z</time>
      </trkpt>
      <trkpt lat="45.60188" lon="4.57992">
        <ele>664.9</ele>
        <time>2014-05-01T08:06:08Z</time>
      </trkpt>
      <trkpt lat="45.60198" lon="4.5799">
        <ele>665</ele>
        <time>2014-05-01T08:06:13Z</time>
      </trkpt>
      <trkpt lat="45.60208" lon="4.5798">
        <ele>665</ele>
        <time>2014-05-01T08:06:18Z</time>
      </trkpt>
      <trkpt lat="45.60217" lon="4.57967">
        <ele>664.5</ele>
        <time>2014-05-01T08:06:23Z</time>
      </trkpt>
      <trkpt lat="45.60225" lon="4.57952">
        <ele>665.4</ele>
        <time>2014-05-01T08:06:28Z</time>
      </trkpt>
      <trkpt lat="45.60232" lon="4.57935">
        <ele>664.5</ele>
        <time>2014-05-01T08:06:33Z</time>
      </trkpt>
      <trkpt lat="45.60235" lon="4.57918">
        <ele>665.2</ele>
        <time>2014-05-01T08:06:38Z</time>
      </trkpt>
      <trkpt lat="45.60238" lon="4.57898">
        <ele>667.9</ele>
        <time>2014-05-01T08:06:43Z</time>
      </trkpt>
      <trkpt lat="45.6024" lon="4.57882">
        <ele>666.7</ele>
        <time>2014-05-01T08:06:48Z</time>
      </trkpt>
      <trkpt lat="45.60242" lon="4.57867">
        <ele>668.6</ele>
        <time>2014-05-01T08:06:53Z</time>
      </trkpt>
      <trkpt lat="45.60245" lon="4.5785">
        <ele>668.9</ele>
        <time>2014-05-01T08:06:58Z</time>
      </trkpt>
      <trkpt lat="45.60245" lon="4.57837">
        <ele>670</ele>
        <time>2014-05-01T08:07:03Z</time>
      </trkpt>
      <trkpt lat="45.60245" lon="4.57822">
        <ele>669.5</ele>
        <time>2014-05-01T08:07:08Z</time>
      </trkpt>
      <trkpt lat="45.60242" lon="4.57807">
        <ele>672.4</ele>
        <time>2014-05-01T08:07:13Z</time>
      </trkpt>
      <trkpt lat="45.60242" lon="4.57793">
        <ele>672.6</ele>
        <time>2014-05-01T08:07:18Z</time>
      </trkpt>
      <trkpt lat="45.60245" lon="4.57788">
        <ele>673</ele>
        <time>2014-05-01T08:07:23Z</time>
      </trkpt>
      <trkpt lat="45.6025" lon="4.57805">
        <ele>673.9</ele>
        <time>2014-05-01T08:07:28Z</time>
      </trkpt>
      <trkpt lat="45.60258" lon="4.5782">
        <ele>673.4</ele>
        <time>2014-05-01T08:07:33Z</time>
      </trkpt>
      <trkpt lat="45.60267" lon="4.57843">
        <ele>672.3</ele>
        <time>2014-05-01T08:07:38Z</time>
      </trkpt>
      <trkpt lat="45.60275" lon="4.57868">
        <ele>674.2</ele>
        <time>2014-05-01T08:07:43Z</time>
      </trkpt>
      <trkpt lat="45.60285" lon="4.57892">
        <ele>673.8</ele>
        <time>2014-05-01T08:07:48Z</time>
      </trkpt>
      <trkpt lat="45.60293" lon="4.57913">
        <ele>673.8</ele>
        <time>2014-05-01T08:07:53Z</time>
      </trkpt>
      <trkpt lat="45.60302" lon="4.57935">
        <ele>676.6</ele>
        <time>2014-05-01T08:07:58Z</time>
      </trkpt>
      <trkpt lat="45.60308" lon="4.57955">
        <ele>676.9</ele>
        <time>2014-05-01T08:08:03Z</time>
      </trkpt>
      <trkpt lat="45.60313" lon="4.57977">
        <ele>675.9</ele>
        <time>2014-05-01T08:08:08Z</time>
      </trkpt>
      <trkpt lat="45.60317" lon="4.58">
        <ele>676.3</ele>
        <time>2014-05-01T08:08:13Z</time>
      </trkpt>
      <trkpt lat="45.60322" lon="4.58023">
        <ele>679.6</ele>
        <time>2014-05-01T08:08:18Z</time>
      </trkpt>
      <trkpt lat="45.60328" lon="4.58045">
        <ele>678.8</ele>
        <time>2014-05-01T08:08:23Z</time>
      </trkpt>
      <trkpt lat="45.60335" lon="4.58067">
        <ele>682</ele>
        <time>2014-05-01T08:08:28Z</time>
      </trkpt>
      <trkpt lat="45.60343" lon="4.5809">
        <ele>681.1</ele>
        <time>2014-05-01T08:08:33Z</time>
      </trkpt>
      <trkpt lat="45.60353" lon="4.58112">
        <ele>683.4</ele>
        <time>2014-05-01T08:08:38Z</time>
      </trkpt>
      <trkpt lat="45.6036" lon="4.58133">
        <ele>683.8</ele>
        <time>2014-05-01T08:08:43Z</time>
      </trkpt>
      <trkpt lat="45.60363" lon="4.58155">
        <ele>684.1</ele>
        <time>2014-05-01T08:08:48Z</time>
      </trkpt>
      <trkpt lat="45.60368" lon="4.5818">
        <ele>683.3</ele>
        <time>2014-05-01T08:08:53Z</time>
      </trkpt>
      <trkpt lat="45.60377" lon="4.5821">
        <ele>684.4</ele>
        <time>2014-05-01T08:08:58Z</time>
      </trkpt>
      <trkpt lat="45.60385" lon="4.58247">
        <ele>683.7</ele>
        <time>2014-05-01T08:09:03Z</time>
      </trkpt>
      <trkpt lat="45.60392" lon="4.58278">
        <ele>681.7</ele>
        <time>2014-05-01T08:09:08Z</time>
      </trkpt>
      <trkpt lat="45.60405" lon="4.58308">
        <ele>681.6</ele>
        <time>2014-05-01T08:09:13Z</time>
      </trkpt>
      <trkpt lat="45.60418" lon="4.58333">
        <ele>683.9</ele>
        <time>2014-05-01T08:09:18Z</time>
      </trkpt>
      <trkpt lat="45.60423" lon="4.5836">
        <ele>684</ele>
        <time>2014-05-01T08:09:23Z</time>
      </trkpt>
      <trkpt lat="45.60433" lon="4.58388">
        <ele>685.5</ele>
        <time>2014-05-01T08:09:28Z</time>
      </trkpt>
      <trkpt lat="45.60447" lon="4.58413">
        <ele>684.8</ele>
        <time>2014-05-01T08:09:33Z</time>
      </trkpt>
      <trkpt lat="45.60458" lon="4.58438">
        <ele>686.4</ele>
        <time>2014-05-01T08:09:38Z</time>
      </trkpt>
      <trkpt lat="45.6047" lon="4.58462">
        <ele>685.8</ele>
        <time>2014-05-01T08:09:43Z</time>
      </trkpt>
      <trkpt lat="45.60478" lon="4.58485">
        <ele>688.2</ele>
        <time>2014-05-01T08:09:48Z</time>
      </trkpt>
      <trkpt lat="45.60483" lon="4.58512">
        <ele>688.9</ele>
        <time>2014-05-01T08:09:53Z</time>
      </trkpt>
      <trkpt lat="45.60492" lon="4.58537">
        <ele>688.9</ele>
        <time>2014-05-01T08:09:58Z</time>
      </trkpt>
      <trkpt lat="45.605" lon="4.58565">
        <ele>689.9</ele>
        <time>2014-05-01T08:10:03Z</time>
      </trkpt>
      <trkpt lat="45.6051" lon="4.58592">
        <ele>689.2</ele>
        <time>2014-05-01T08:10:08Z</time>
      </trkpt>
      <trkpt lat="45.60518" lon="4.58618">
        <ele>690.2</ele>
        <time>2014-05-01T08:10:13Z</time>
      </trkpt>
      <trkpt lat="45.60527" lon="4.58647">
        <ele>691.5</ele>
        <time>2014-05-01T08:10:18Z</time>
      </trkpt>
      <trkpt lat="45.60538" lon="4.5867">
        <ele>692.3</ele>
        <time>2014-05-01T08:10:23Z</time>
      </trkpt>
      <trkpt lat="45.60553" lon="4.58688">
        <ele>692.7</ele>
        <time>2014-05-01T08:10:28Z</time>
      </trkpt>
      <trkpt lat="45.60568" lon="4.58703">
        <ele>695.6</ele>
        <time>2014-05-01T08:10:33Z</time>
      </trkpt>
      <trkpt lat="45.60585" lon="4.58717">
        <ele>694.5</ele>
        <time>2014-05-01T08:10:38Z</time>
      </trkpt>
      <trkpt lat="45.60602" lon="4.58733">
        <ele>695.1</ele>
        <time>2014-05-01T08:10:43Z</time>
      </trkpt>
      <trkpt lat="45.6062" lon="4.5875">
        <ele>696.1</ele>
        <time>2014-05-01T08:10:48Z</time>
      </trkpt>
      <trkpt lat="45.60637" lon="4.58767">
        <ele>696.9</ele>
        <time>2014-05-01T08:10:53Z</time>
      </trkpt>
      <trkpt lat="45.6065" lon="4.58788">
        <ele>697</ele>
        <time>2014-05-01T08:10:58Z</time>
      </trkpt>
      <trkpt lat="45.60665" lon="4.58822">
        <ele>695.7</ele>
        <time>2014-05-01T08:11:03Z</time>
      </trkpt>
      <trkpt lat="45.60683" lon="4.58868">
        <ele>692.1</ele>
        <time>2014-05-01T08:11:08Z</time>
      </trkpt>
      <trkpt lat="45.60712" lon="4.58918">
        <ele>689.5</ele>
        <time>2014-05-01T08:11:13Z</time>
      </trkpt>
      <trkpt lat="45.6075" lon="4.5896">
        <ele>686.8</ele>
        <time>2014-05-01T08:11:18Z</time>
      </trkpt>
      <trkpt lat="45.60795" lon="4.58993">
        <ele>682</ele>
        <time>2014-05-01T08:11:23Z</time>
      </trkpt>
      <trkpt lat="45.60832" lon="4.59007">
        <ele>682</ele>
        <time>2014-05-01T08:11:28Z</time>
      </trkpt>
      <trkpt lat="45.6085" lon="4.5903">
        <ele>683.7</ele>
        <time>2014-05-01T08:11:33Z</time>
      </trkpt>
      <trkpt lat="45.60865" lon="4.59057">
        <ele>686.3</ele>
        <time>2014-05-01T08:11:38Z</time>
      </trkpt>
      <trkpt lat="45.60873" lon="4.59083">
        <ele>688</ele>
        <time>2014-05-01T08:11:43Z</time>
      </trkpt>
      <trkpt lat="45.60883" lon="4.5911">
        <ele>688.6</ele>
        <time>2014-05-01T08:11:48Z</time>
      </trkpt>
      <trkpt lat="45.60892" lon="4.59138">
        <ele>689.9</ele>
        <time>2014-05-01T08:11:53Z</time>
      </trkpt>
      <trkpt lat="45.60898" lon="4.59168">
        <ele>690.1</ele>
        <time>2014-05-01T08:11:58Z</time>
      </trkpt>
      <trkpt lat="45.60897" lon="4.59205">
        <ele>689.7</ele>
        <time>2014-05-01T08:12:03Z</time>
      </trkpt>
      <trkpt lat="45.60893" lon="4.5925">
        <ele>687.9</ele>
        <time>2014-05-01T08:12:08Z</time>
      </trkpt>
      <trkpt lat="45.60888" lon="4.59303">
        <ele>685.6</ele>
        <time>2014-05-01T08:12:13Z</time>
      </trkpt>
      <trkpt lat="45.60885" lon="4.59362">
        <ele>684.4</ele>
        <time>2014-05-01T08:12:18Z</time>
      </trkpt>
      <trkpt lat="45.60875" lon="4.59418">
        <ele>685.3</ele>
        <time>2014-05-01T08:12:23Z</time>
      </trkpt>
      <trkpt lat="45.60872" lon="4.59472">
        <ele>685.3</ele>
        <time>2014-05-01T08:12:28Z</time>
      </trkpt>
      <trkpt lat="45.60875" lon="4.59525">
        <ele>686.1</ele>
        <time>2014-05-01T08:12:33Z</time>
      </trkpt>
      <trkpt lat="45.60892" lon="4.59575">
        <ele>684</ele>
        <time>2014-05-01T08:12:38Z</time>
      </trkpt>
      <trkpt lat="45.60915" lon="4.5961">
        <ele>685.4</ele>
        <time>2014-05-01T08:12:43Z</time>
      </trkpt>
      <trkpt lat="45.60937" lon="4.5964">
        <ele>686</ele>
        <time>2014-05-01T08:12:48Z</time>
      </trkpt>
      <trkpt lat="45.60955" lon="4.59685">
        <ele>682.4</ele>
        <time>2014-05-01T08:12:53Z</time>
      </trkpt>
      <trkpt lat="45.60973" lon="4.59732">
        <ele>681.2</ele>
        <time>2014-05-01T08:12:58Z</time>
      </trkpt>
      <trkpt lat="45.61" lon="4.59778">
        <ele>677.8</ele>
        <time>2014-05-01T08:13:03Z</time>
      </trkpt>
      <trkpt lat="45.6103" lon="4.59808">
        <ele>672.2</ele>
        <time>2014-05-01T08:13:08Z</time>
      </trkpt>
      <trkpt lat="45.6102" lon="4.5986">
        <ele>671</ele>
        <time>2014-05-01T08:13:13Z</time>
      </trkpt>
      <trkpt lat="45.6102" lon="4.59912">
        <ele>670.5</ele>
        <time>2014-05-01T08:13:18Z</time>
      </trkpt>
      <trkpt lat="45.61032" lon="4.5994">
        <ele>672.3</ele>
        <time>2014-05-01T08:13:23Z</time>
      </trkpt>
      <trkpt lat="45.61043" lon="4.5996">
        <ele>674.9</ele>
        <time>2014-05-01T08:13:28Z</time>
      </trkpt>
      <trkpt lat="45.61055" lon="4.59977">
        <ele>677.2</ele>
        <time>2014-05-01T08:13:33Z</time>
      </trkpt>
      <trkpt lat="45.61068" lon="4.59997">
        <ele>676</ele>
        <time>2014-05-01T08:13:38Z</time>
      </trkpt>
      <trkpt lat="45.6109" lon="4.60015">
        <ele>675.2</ele>
        <time>2014-05-01T08:13:43Z</time>
      </trkpt>
      <trkpt lat="45.61113" lon="4.6003">
        <ele>675.9</ele>
        <time>2014-05-01T08:13:48Z</time>
      </trkpt>
      <trkpt lat="45.61143" lon="4.60048">
        <ele>676</ele>
        <time>2014-05-01T08:13:53Z</time>
      </trkpt>
      <trkpt lat="45.61175" lon="4.60077">
        <ele>675.1</ele>
        <time>2014-05-01T08:13:58Z</time>
      </trkpt>
      <trkpt lat="45.6118" lon="4.60132">
        <ele>670.3</ele>
        <time>2014-05-01T08:14:03Z</time>
      </trkpt>
      <trkpt lat="45.61188" lon="4.60193">
        <ele>664</ele>
        <time>2014-05-01T08:14:08Z</time>
      </trkpt>
      <trkpt lat="45.61207" lon="4.60255">
        <ele>659.5</ele>
        <time>2014-05-01T08:14:13Z</time>
      </trkpt>
      <trkpt lat="45.61227" lon="4.60292">
        <ele>655.1</ele>
        <time>2014-05-01T08:14:18Z</time>
      </trkpt>
      <trkpt lat="45.6124" lon="4.60318">
        <ele>655.6</ele>
        <time>2014-05-01T08:14:23Z</time>
      </trkpt>
      <trkpt lat="45.61262" lon="4.60348">
        <ele>655.7</ele>
        <time>2014-05-01T08:14:28Z</time>
      </trkpt>
      <trkpt lat="45.61283" lon="4.60373">
        <ele>656.7</ele>
        <time>2014-05-01T08:14:33Z</time>
      </trkpt>
      <trkpt lat="45.61295" lon="4.60402">
        <ele>656.7</ele>
        <time>2014-05-01T08:14:38Z</time>
      </trkpt>
      <trkpt lat="45.61298" lon="4.6043">
        <ele>657.6</ele>
        <time>2014-05-01T08:14:43Z</time>
      </trkpt>
      <trkpt lat="45.613" lon="4.60465">
        <ele>656.6</ele>
        <time>2014-05-01T08:14:48Z</time>
      </trkpt>
      <trkpt lat="45.61305" lon="4.605">
        <ele>657.5</ele>
        <time>2014-05-01T08:14:53Z</time>
      </trkpt>
      <trkpt lat="45.6131" lon="4.60522">
        <ele>657.7</ele>
        <time>2014-05-01T08:14:58Z</time>
      </trkpt>
      <trkpt lat="45.61322" lon="4.60537">
        <ele>662</ele>
        <time>2014-05-01T08:15:03Z</time>
      </trkpt>
      <trkpt lat="45.61343" lon="4.60562">
        <ele>661</ele>
        <time>2014-05-01T08:15:08Z</time>
      </trkpt>
      <trkpt lat="45.61372" lon="4.60575">
        <ele>658.4</ele>
        <time>2014-05-01T08:15:13Z</time>
      </trkpt>
      <trkpt lat="45.61393" lon="4.60577">
        <ele>659.9</ele>
        <time>2014-05-01T08:15:18Z</time>
      </trkpt>
      <trkpt lat="45.61408" lon="4.6058">
        <ele>663.4</ele>
        <time>2014-05-01T08:15:23Z</time>
      </trkpt>
      <trkpt lat="45.61427" lon="4.60583">
        <ele>660.1</ele>
        <time>2014-05-01T08:15:28Z</time>
      </trkpt>
      <trkpt lat="45.61448" lon="4.60582">
        <ele>661.4</ele>
        <time>2014-05-01T08:15:33Z</time>
      </trkpt>
      <trkpt lat="45.61467" lon="4.60568">
        <ele>660.1</ele>
        <time>2014-05-01T08:15:38Z</time>
      </trkpt>
      <trkpt lat="45.61483" lon="4.60582">
        <ele>658.6</ele>
        <time>2014-05-01T08:15:43Z</time>
      </trkpt>
      <trkpt lat="45.61495" lon="4.60593">
        <ele>661.4</ele>
        <time>2014-05-01T08:15:48Z</time>
      </trkpt>
      <trkpt lat="45.61512" lon="4.60605">
        <ele>660.7</ele>
        <time>2014-05-01T08:15:53Z</time>
      </trkpt>
      <trkpt lat="45.61533" lon="4.60618">
        <ele>659</ele>
        <time>2014-05-01T08:15:58Z</time>
      </trkpt>
      <trkpt lat="45.61567" lon="4.60643">
        <ele>655.6</ele>
        <time>2014-05-01T08:16:03Z</time>
      </trkpt>
      <trkpt lat="45.61595" lon="4.6067">
        <ele>656.6</ele>
        <time>2014-05-01T08:16:08Z</time>
      </trkpt>
      <trkpt lat="45.61622" lon="4.60703">
        <ele>653.8</ele>
        <time>2014-05-01T08:16:13Z</time>
      </trkpt>
      <trkpt lat="45.61642" lon="4.60738">
        <ele>651.1</ele>
        <time>2014-05-01T08:16:18Z</time>
      </trkpt>
      <trkpt lat="45.6164" lon="4.60773">
        <ele>641.7</ele>
        <time>2014-05-01T08:16:23Z</time>
      </trkpt>
      <trkpt lat="45.61633" lon="4.60807">
        <ele>636.8</ele>
        <time>2014-05-01T08:16:28Z</time>
      </trkpt>
      <trkpt lat="45.61627" lon="4.60853">
        <ele>629.1</ele>
        <time>2014-05-01T08:16:33Z</time>
      </trkpt>
      <trkpt lat="45.61613" lon="4.60915">
        <ele>622.7</ele>
        <time>2014-05-01T08:16:38Z</time>
      </trkpt>
      <trkpt lat="45.61592" lon="4.60982">
        <ele>619.4</ele>
        <time>2014-05-01T08:16:43Z</time>
      </trkpt>
      <trkpt lat="45.61558" lon="4.61048">
        <ele>616.6</ele>
        <time>2014-05-01T08:16:48Z</time>
      </trkpt>
      <trkpt lat="45.61542" lon="4.61097">
        <ele>613.6</ele>
        <time>2014-05-01T08:16:53Z</time>
      </trkpt>
      <trkpt lat="45.61538" lon="4.61153">
        <ele>613.6</ele>
        <time>2014-05-01T08:16:58Z</time>
      </trkpt>
      <trkpt lat="45.61533" lon="4.61212">
        <ele>601.3</ele>
        <time>2014-05-01T08:17:03Z</time>
      </trkpt>
      <trkpt lat="45.61525" lon="4.61278">
        <ele>594.2</ele>
        <time>2014-05-01T08:17:08Z</time>
      </trkpt>
      <trkpt lat="45.61523" lon="4.61327">
        <ele>580.9</ele>
        <time>2014-05-01T08:17:13Z</time>
      </trkpt>
      <trkpt lat="45.61513" lon="4.61348">
        <ele>579.3</ele>
        <time>2014-05-01T08:17:18Z</time>
      </trkpt>
      <trkpt lat="45.61507" lon="4.61377">
        <ele>567</ele>
        <time>2014-05-01T08:17:23Z</time>
      </trkpt>
      <trkpt lat="45.61498" lon="4.61402">
        <ele>563.3</ele>
        <time>2014-05-01T08:17:28Z</time>
      </trkpt>
      <trkpt lat="45.61493" lon="4.61418">
        <ele>564.7</ele>
        <time>2014-05-01T08:17:33Z</time>
      </trkpt>
      <trkpt lat="45.615" lon="4.61423">
        <ele>566.2</ele>
        <time>2014-05-01T08:17:38Z</time>
      </trkpt>
      <trkpt lat="45.6151" lon="4.61417">
        <ele>567.3</ele>
        <time>2014-05-01T08:17:43Z</time>
      </trkpt>
      <trkpt lat="45.6152" lon="4.61405">
        <ele>567.2</ele>
        <time>2014-05-01T08:17:48Z</time>
      </trkpt>
      <trkpt lat="45.61525" lon="4.61388">
        <ele>570</ele>
        <time>2014-05-01T08:17:53Z</time>
      </trkpt>
      <trkpt lat="45.61533" lon="4.6137">
        <ele>570.6</ele>
        <time>2014-05-01T08:17:58Z</time>
      </trkpt>
      <trkpt lat="45.6154" lon="4.61357">
        <ele>570.6</ele>
        <time>2014-05-01T08:18:03Z</time>
      </trkpt>
      <trkpt lat="45.61547" lon="4.61342">
        <ele>572.6</ele>
        <time>2014-05-01T08:18:08Z</time>
      </trkpt>
      <trkpt lat="45.61552" lon="4.61328">
        <ele>574.4</ele>
        <time>2014-05-01T08:18:13Z</time>
      </trkpt>
      <trkpt lat="45.61557" lon="4.61313">
        <ele>575.3</ele>
        <time>2014-05-01T08:18:18Z</time>
      </trkpt>
      <trkpt lat="45.61563" lon="4.61298">
        <ele>574.9</ele>
        <time>2014-05-01T08:18:23Z</time>
      </trkpt>
      <trkpt lat="45.6157" lon="4.6128">
        <ele>575.9</ele>
        <time>2014-05-01T08:18:28Z</time>
      </trkpt>
      <trkpt lat="45.61575" lon="4.61267">
        <ele>576.9</ele>
        <time>2014-05-01T08:18:33Z</time>
      </trkpt>
      <trkpt lat="45.61578" lon="4.61252">
        <ele>578.3</ele>
        <time>2014-05-01T08:18:38Z</time>
      </trkpt>
      <trkpt lat="45.61585" lon="4.61232">
        <ele>579.3</ele>
        <time>2014-05-01T08:18:43Z</time>
      </trkpt>
      <trkpt lat="45.61592" lon="4.61212">
        <ele>579.8</ele>
        <time>2014-05-01T08:18:48Z</time>
      </trkpt>
      <trkpt lat="45.616" lon="4.61195">
        <ele>579.9</ele>
        <time>2014-05-01T08:18:53Z</time>
      </trkpt>
      <trkpt lat="45.61607" lon="4.61177">
        <ele>580.3</ele>
        <time>2014-05-01T08:18:58Z</time>
      </trkpt>
      <trkpt lat="45.61613" lon="4.61158">
        <ele>581.5</ele>
        <time>2014-05-01T08:19:03Z</time>
      </trkpt>
      <trkpt lat="45.61617" lon="4.6114">
        <ele>581.7</ele>
        <time>2014-05-01T08:19:08Z</time>
      </trkpt>
      <trkpt lat="45.6162" lon="4.61123">
        <ele>582.2</ele>
        <time>2014-05-01T08:19:13Z</time>
      </trkpt>
      <trkpt lat="45.61628" lon="4.61107">
        <ele>582.2</ele>
        <time>2014-05-01T08:19:18Z</time>
      </trkpt>
      <trkpt lat="45.61635" lon="4.61092">
        <ele>581.8</ele>
        <time>2014-05-01T08:19:23Z</time>
      </trkpt>
      <trkpt lat="45.6164" lon="4.61078">
        <ele>584</ele>
        <time>2014-05-01T08:19:28Z</time>
      </trkpt>
      <trkpt lat="45.61647" lon="4.6107">
        <ele>585.8</ele>
        <time>2014-05-01T08:19:33Z</time>
      </trkpt>
      <trkpt lat="45.6165" lon="4.6106">
        <ele>586.1</ele>
        <time>2014-05-01T08:19:38Z</time>
      </trkpt>
      <trkpt lat="45.61655" lon="4.61048">
        <ele>588</ele>
        <time>2014-05-01T08:19:43Z</time>
      </trkpt>
      <trkpt lat="45.61662" lon="4.6104">
        <ele>588.8</ele>
        <time>2014-05-01T08:19:48Z</time>
      </trkpt>
      <trkpt lat="45.61673" lon="4.61028">
        <ele>589</ele>
        <time>2014-05-01T08:19:53Z</time>
      </trkpt>
      <trkpt lat="45.61678" lon="4.61018">
        <ele>590</ele>
        <time>2014-05-01T08:19:58Z</time>
      </trkpt>
      <trkpt lat="45.61688" lon="4.61013">
        <ele>590.7</ele>
        <time>2014-05-01T08:20:03Z</time>
      </trkpt>
      <trkpt lat="45.61697" lon="4.61003">
        <ele>592.2</ele>
        <time>2014-05-01T08:20:08Z</time>
      </trkpt>
      <trkpt lat="45.61703" lon="4.60993">
        <ele>593</ele>
        <time>2014-05-01T08:20:13Z</time>
      </trkpt>
      <trkpt lat="45.61708" lon="4.6099">
        <ele>594.1</ele>
        <time>2014-05-01T08:20:18Z</time>
      </trkpt>
      <trkpt lat="45.61715" lon="4.60985">
        <ele>594.1</ele>
        <time>2014-05-01T08:20:23Z</time>
      </trkpt>
      <trkpt lat="45.61722" lon="4.60972">
        <ele>594.4</ele>
        <time>2014-05-01T08:20:28Z</time>
      </trkpt>
      <trkpt lat="45.6173" lon="4.60965">
        <ele>594</ele>
        <time>2014-05-01T08:20:33Z</time>
      </trkpt>
      <trkpt lat="45.61742" lon="4.60963">
        <ele>596.3</ele>
        <time>2014-05-01T08:20:38Z</time>
      </trkpt>
      <trkpt lat="45.61755" lon="4.60962">
        <ele>598.1</ele>
        <time>2014-05-01T08:20:43Z</time>
      </trkpt>
      <trkpt lat="45.61768" lon="4.60962">
        <ele>599.6</ele>
        <time>2014-05-01T08:20:48Z</time>
      </trkpt>
      <trkpt lat="45.61785" lon="4.60962">
        <ele>598.7</ele>
        <time>2014-05-01T08:20:53Z</time>
      </trkpt>
      <trkpt lat="45.618" lon="4.6096">
        <ele>599.4</ele>
        <time>2014-05-01T08:20:58Z</time>
      </trkpt>
      <trkpt lat="45.61815" lon="4.6096">
        <ele>599.8</ele>
        <time>2014-05-01T08:21:03Z</time>
      </trkpt>
      <trkpt lat="45.61835" lon="4.60958">
        <ele>598.5</ele>
        <time>2014-05-01T08:21:08Z</time>
      </trkpt>
      <trkpt lat="45.61857" lon="4.60953">
        <ele>596.3</ele>
        <time>2014-05-01T08:21:13Z</time>
      </trkpt>
      <trkpt lat="45.6187" lon="4.60945">
        <ele>597.3</ele>
        <time>2014-05-01T08:21:18Z</time>
      </trkpt>
      <trkpt lat="45.61885" lon="4.60938">
        <ele>600.2</ele>
        <time>2014-05-01T08:21:23Z</time>
      </trkpt>
      <trkpt lat="45.61892" lon="4.6093">
        <ele>601.2</ele>
        <time>2014-05-01T08:21:28Z</time>
      </trkpt>
      <trkpt lat="45.61897" lon="4.60925">
        <ele>601.8</ele>
        <time>2014-05-01T08:21:33Z</time>
      </trkpt>
      <trkpt lat="45.61908" lon="4.60923">
        <ele>603.9</ele>
        <time>2014-05-01T08:21:38Z</time>
      </trkpt>
      <trkpt lat="45.61915" lon="4.60923">
        <ele>606.1</ele>
        <time>2014-05-01T08:21:43Z</time>
      </trkpt>
      <trkpt lat="45.61925" lon="4.6092">
        <ele>606.6</ele>
        <time>2014-05-01T08:21:48Z</time>
      </trkpt>
      <trkpt lat="45.61938" lon="4.60915">
        <ele>605.8</ele>
        <time>2014-05-01T08:21:53Z</time>
      </trkpt>
      <trkpt lat="45.61948" lon="4.6091">
        <ele>609.3</ele>
        <time>2014-05-01T08:21:58Z</time>
      </trkpt>
      <trkpt lat="45.61962" lon="4.609">
        <ele>609.3</ele>
        <time>2014-05-01T08:22:03Z</time>
      </trkpt>
      <trkpt lat="45.61972" lon="4.60895">
        <ele>611.2</ele>
        <time>2014-05-01T08:22:08Z</time>
      </trkpt>
      <trkpt lat="45.6198" lon="4.60888">
        <ele>611.9</ele>
        <time>2014-05-01T08:22:13Z</time>
      </trkpt>
      <trkpt lat="45.61992" lon="4.60885">
        <ele>612.7</ele>
        <time>2014-05-01T08:22:18Z</time>
      </trkpt>
      <trkpt lat="45.62005" lon="4.60885">
        <ele>611.4</ele>
        <time>2014-05-01T08:22:23Z</time>
      </trkpt>
      <trkpt lat="45.62015" lon="4.60885">
        <ele>613.8</ele>
        <time>2014-05-01T08:22:28Z</time>
      </trkpt>
      <trkpt lat="45.6202" lon="4.60892">
        <ele>614.1</ele>
        <time>2014-05-01T08:22:38Z</time>
      </trkpt>
      <trkpt lat="45.62028" lon="4.60905">
        <ele>614.8</ele>
        <time>2014-05-01T08:22:43Z</time>
      </trkpt>
      <trkpt lat="45.62023" lon="4.60925">
        <ele>610.4</ele>
        <time>2014-05-01T08:22:48Z</time>
      </trkpt>
      <trkpt lat="45.62013" lon="4.6097">
        <ele>609.4</ele>
        <time>2014-05-01T08:22:53Z</time>
      </trkpt>
      <trkpt lat="45.6201" lon="4.61007">
        <ele>604.6</ele>
        <time>2014-05-01T08:22:58Z</time>
      </trkpt>
      <trkpt lat="45.62008" lon="4.61032">
        <ele>604.5</ele>
        <time>2014-05-01T08:23:03Z</time>
      </trkpt>
      <trkpt lat="45.62003" lon="4.61067">
        <ele>597.7</ele>
        <time>2014-05-01T08:23:08Z</time>
      </trkpt>
      <trkpt lat="45.61995" lon="4.61103">
        <ele>598.2</ele>
        <time>2014-05-01T08:23:13Z</time>
      </trkpt>
      <trkpt lat="45.61998" lon="4.61145">
        <ele>593.9</ele>
        <time>2014-05-01T08:23:18Z</time>
      </trkpt>
      <trkpt lat="45.62003" lon="4.6117">
        <ele>589.7</ele>
        <time>2014-05-01T08:23:23Z</time>
      </trkpt>
      <trkpt lat="45.62012" lon="4.61193">
        <ele>585.8</ele>
        <time>2014-05-01T08:23:28Z</time>
      </trkpt>
      <trkpt lat="45.62023" lon="4.61212">
        <ele>584.4</ele>
        <time>2014-05-01T08:23:33Z</time>
      </trkpt>
      <trkpt lat="45.62047" lon="4.61233">
        <ele>577.7</ele>
        <time>2014-05-01T08:23:38Z</time>
      </trkpt>
      <trkpt lat="45.62075" lon="4.61262">
        <ele>575.7</ele>
        <time>2014-05-01T08:23:43Z</time>
      </trkpt>
      <trkpt lat="45.62105" lon="4.61297">
        <ele>570</ele>
        <time>2014-05-01T08:23:48Z</time>
      </trkpt>
      <trkpt lat="45.62135" lon="4.61332">
        <ele>569.6</ele>
        <time>2014-05-01T08:23:53Z</time>
      </trkpt>
      <trkpt lat="45.62168" lon="4.61358">
        <ele>566.6</ele>
        <time>2014-05-01T08:23:58Z</time>
      </trkpt>
      <trkpt lat="45.62205" lon="4.61397">
        <ele>561.7</ele>
        <time>2014-05-01T08:24:03Z</time>
      </trkpt>
      <trkpt lat="45.62253" lon="4.61432">
        <ele>556.2</ele>
        <time>2014-05-01T08:24:08Z</time>
      </trkpt>
      <trkpt lat="45.6228" lon="4.61468">
        <ele>551.5</ele>
        <time>2014-05-01T08:24:13Z</time>
      </trkpt>
      <trkpt lat="45.62297" lon="4.61495">
        <ele>550.5</ele>
        <time>2014-05-01T08:24:18Z</time>
      </trkpt>
      <trkpt lat="45.62317" lon="4.61537">
        <ele>545.9</ele>
        <time>2014-05-01T08:24:23Z</time>
      </trkpt>
      <trkpt lat="45.62345" lon="4.61575">
        <ele>542.9</ele>
        <time>2014-05-01T08:24:28Z</time>
      </trkpt>
      <trkpt lat="45.62393" lon="4.61593">
        <ele>535.1</ele>
        <time>2014-05-01T08:24:33Z</time>
      </trkpt>
      <trkpt lat="45.6244" lon="4.61588">
        <ele>535.7</ele>
        <time>2014-05-01T08:24:38Z</time>
      </trkpt>
      <trkpt lat="45.62457" lon="4.6158">
        <ele>531.2</ele>
        <time>2014-05-01T08:24:43Z</time>
      </trkpt>
      <trkpt lat="45.6244" lon="4.61612">
        <ele>524.2</ele>
        <time>2014-05-01T08:24:48Z</time>
      </trkpt>
      <trkpt lat="45.62438" lon="4.61658">
        <ele>520.2</ele>
        <time>2014-05-01T08:24:53Z</time>
      </trkpt>
      <trkpt lat="45.62418" lon="4.61688">
        <ele>514.3</ele>
        <time>2014-05-01T08:24:58Z</time>
      </trkpt>
      <trkpt lat="45.62383" lon="4.61717">
        <ele>507.4</ele>
        <time>2014-05-01T08:25:03Z</time>
      </trkpt>
      <trkpt lat="45.62353" lon="4.6171">
        <ele>500.3</ele>
        <time>2014-05-01T08:25:08Z</time>
      </trkpt>
      <trkpt lat="45.62322" lon="4.61728">
        <ele>504.6</ele>
        <time>2014-05-01T08:25:13Z</time>
      </trkpt>
      <trkpt lat="45.62302" lon="4.6174">
        <ele>505.9</ele>
        <time>2014-05-01T08:25:18Z</time>
      </trkpt>
      <trkpt lat="45.62283" lon="4.61747">
        <ele>504.9</ele>
        <time>2014-05-01T08:25:23Z</time>
      </trkpt>
      <trkpt lat="45.62265" lon="4.61763">
        <ele>505.8</ele>
        <time>2014-05-01T08:25:28Z</time>
      </trkpt>
      <trkpt lat="45.6226" lon="4.61812">
        <ele>500.5</ele>
        <time>2014-05-01T08:25:33Z</time>
      </trkpt>
      <trkpt lat="45.6226" lon="4.61828">
        <ele>496.6</ele>
        <time>2014-05-01T08:25:38Z</time>
      </trkpt>
      <trkpt lat="45.62262" lon="4.61835">
        <ele>495.6</ele>
        <time>2014-05-01T08:25:43Z</time>
      </trkpt>
      <trkpt lat="45.62262" lon="4.61835">
        <ele>493.9</ele>
        <time>2014-05-01T08:25:48Z</time>
      </trkpt>
      <trkpt lat="45.62263" lon="4.6184">
        <ele>493.9</ele>
        <time>2014-05-01T08:25:53Z</time>
      </trkpt>
      <trkpt lat="45.62263" lon="4.61842">
        <ele>493.4</ele>
        <time>2014-05-01T08:25:58Z</time>
      </trkpt>
      <trkpt lat="45.62265" lon="4.61837">
        <ele>494.4</ele>
        <time>2014-05-01T08:26:03Z</time>
      </trkpt>
      <trkpt lat="45.62265" lon="4.61837">
        <ele>494.3</ele>
        <time>2014-05-01T08:26:18Z</time>
      </trkpt>
      <trkpt lat="45.62265" lon="4.61837">
        <ele>494</ele>
        <time>2014-05-01T08:26:23Z</time>
      </trkpt>
      <trkpt lat="45.62267" lon="4.61837">
        <ele>493.8</ele>
        <time>2014-05-01T08:28:43Z</time>
      </trkpt>
      <trkpt lat="45.62267" lon="4.61837">
        <ele>493.9</ele>
        <time>2014-05-01T08:28:48Z</time>
      </trkpt>
      <trkpt lat="45.62268" lon="4.61837">
        <ele>494</ele>
        <time>2014-05-01T08:30:43Z</time>
      </trkpt>
      <trkpt lat="45.62268" lon="4.61837">
        <ele>494.1</ele>
        <time>2014-05-01T08:30:48Z</time>
      </trkpt>
      <trkpt lat="45.62268" lon="4.6184">
        <ele>494.4</ele>
        <time>2014-05-01T08:34:43Z</time>
      </trkpt>
      <trkpt lat="45.62268" lon="4.6184">
        <ele>494.1</ele>
        <time>2014-05-01T08:34:48Z</time>
      </trkpt>
      <trkpt lat="45.62267" lon="4.6184">
        <ele>493.7</ele>
        <time>2014-05-01T08:35:03Z</time>
      </trkpt>
      <trkpt lat="45.62267" lon="4.61842">
        <ele>493.9</ele>
        <time>2014-05-01T08:35:08Z</time>
      </trkpt>
      <trkpt lat="45.62265" lon="4.61853">
        <ele>493.6</ele>
        <time>2014-05-01T08:35:13Z</time>
      </trkpt>
      <trkpt lat="45.62252" lon="4.61865">
        <ele>491.1</ele>
        <time>2014-05-01T08:35:18Z</time>
      </trkpt>
      <trkpt lat="45.62233" lon="4.61862">
        <ele>492.3</ele>
        <time>2014-05-01T08:35:23Z</time>
      </trkpt>
      <trkpt lat="45.62225" lon="4.61893">
        <ele>489.2</ele>
        <time>2014-05-01T08:35:28Z</time>
      </trkpt>
      <trkpt lat="45.62232" lon="4.61943">
        <ele>483.7</ele>
        <time>2014-05-01T08:35:33Z</time>
      </trkpt>
      <trkpt lat="45.62255" lon="4.61977">
        <ele>477.2</ele>
        <time>2014-05-01T08:35:38Z</time>
      </trkpt>
      <trkpt lat="45.62288" lon="4.62">
        <ele>471.1</ele>
        <time>2014-05-01T08:35:43Z</time>
      </trkpt>
      <trkpt lat="45.6231" lon="4.62033">
        <ele>474.1</ele>
        <time>2014-05-01T08:35:48Z</time>
      </trkpt>
      <trkpt lat="45.62333" lon="4.62032">
        <ele>460.7</ele>
        <time>2014-05-01T08:35:53Z</time>
      </trkpt>
      <trkpt lat="45.62355" lon="4.62022">
        <ele>454.5</ele>
        <time>2014-05-01T08:35:58Z</time>
      </trkpt>
      <trkpt lat="45.62373" lon="4.6205">
        <ele>452.3</ele>
        <time>2014-05-01T08:36:03Z</time>
      </trkpt>
      <trkpt lat="45.62413" lon="4.6206">
        <ele>444.5</ele>
        <time>2014-05-01T08:36:08Z</time>
      </trkpt>
      <trkpt lat="45.62437" lon="4.62098">
        <ele>441.6</ele>
        <time>2014-05-01T08:36:13Z</time>
      </trkpt>
      <trkpt lat="45.62455" lon="4.6215">
        <ele>437.1</ele>
        <time>2014-05-01T08:36:18Z</time>
      </trkpt>
      <trkpt lat="45.62477" lon="4.62197">
        <ele>436.1</ele>
        <time>2014-05-01T08:36:23Z</time>
      </trkpt>
      <trkpt lat="45.62503" lon="4.62237">
        <ele>436</ele>
        <time>2014-05-01T08:36:28Z</time>
      </trkpt>
      <trkpt lat="45.6252" lon="4.62292">
        <ele>433.1</ele>
        <time>2014-05-01T08:36:33Z</time>
      </trkpt>
      <trkpt lat="45.62505" lon="4.62348">
        <ele>427.6</ele>
        <time>2014-05-01T08:36:38Z</time>
      </trkpt>
      <trkpt lat="45.62493" lon="4.62393">
        <ele>421.2</ele>
        <time>2014-05-01T08:36:43Z</time>
      </trkpt>
      <trkpt lat="45.62485" lon="4.62428">
        <ele>415.1</ele>
        <time>2014-05-01T08:36:48Z</time>
      </trkpt>
      <trkpt lat="45.62482" lon="4.62473">
        <ele>406.7</ele>
        <time>2014-05-01T08:36:53Z</time>
      </trkpt>
      <trkpt lat="45.62468" lon="4.6252">
        <ele>402.5</ele>
        <time>2014-05-01T08:36:58Z</time>
      </trkpt>
      <trkpt lat="45.62448" lon="4.62548">
        <ele>400.9</ele>
        <time>2014-05-01T08:37:03Z</time>
      </trkpt>
      <trkpt lat="45.62448" lon="4.62555">
        <ele>402</ele>
        <time>2014-05-01T08:37:08Z</time>
      </trkpt>
      <trkpt lat="45.6245" lon="4.62558">
        <ele>402.6</ele>
        <time>2014-05-01T08:37:13Z</time>
      </trkpt>
      <trkpt lat="45.62452" lon="4.62562">
        <ele>403.6</ele>
        <time>2014-05-01T08:37:18Z</time>
      </trkpt>
      <trkpt lat="45.62452" lon="4.6257">
        <ele>402.4</ele>
        <time>2014-05-01T08:37:23Z</time>
      </trkpt>
      <trkpt lat="45.62455" lon="4.62575">
        <ele>405.5</ele>
        <time>2014-05-01T08:37:28Z</time>
      </trkpt>
      <trkpt lat="45.62458" lon="4.62583">
        <ele>406.7</ele>
        <time>2014-05-01T08:37:33Z</time>
      </trkpt>
      <trkpt lat="45.62458" lon="4.62588">
        <ele>406.6</ele>
        <time>2014-05-01T08:37:38Z</time>
      </trkpt>
      <trkpt lat="45.6246" lon="4.62595">
        <ele>408</ele>
        <time>2014-05-01T08:37:43Z</time>
      </trkpt>
      <trkpt lat="45.6246" lon="4.6261">
        <ele>409.1</ele>
        <time>2014-05-01T08:37:48Z</time>
      </trkpt>
      <trkpt lat="45.6246" lon="4.62625">
        <ele>409</ele>
        <time>2014-05-01T08:37:53Z</time>
      </trkpt>
      <trkpt lat="45.6246" lon="4.62635">
        <ele>409.5</ele>
        <time>2014-05-01T08:37:58Z</time>
      </trkpt>
      <trkpt lat="45.6246" lon="4.62637">
        <ele>410.2</ele>
        <time>2014-05-01T08:38:03Z</time>
      </trkpt>
      <trkpt lat="45.62457" lon="4.62647">
        <ele>411.7</ele>
        <time>2014-05-01T08:38:08Z</time>
      </trkpt>
      <trkpt lat="45.62457" lon="4.62658">
        <ele>413.3</ele>
        <time>2014-05-01T08:38:13Z</time>
      </trkpt>
      <trkpt lat="45.62457" lon="4.62673">
        <ele>414.1</ele>
        <time>2014-05-01T08:38:18Z</time>
      </trkpt>
      <trkpt lat="45.6246" lon="4.62692">
        <ele>415.2</ele>
        <time>2014-05-01T08:38:23Z</time>
      </trkpt>
      <trkpt lat="45.6246" lon="4.627">
        <ele>415.2</ele>
        <time>2014-05-01T08:38:28Z</time>
      </trkpt>
      <trkpt lat="45.62458" lon="4.62707">
        <ele>416.2</ele>
        <time>2014-05-01T08:38:33Z</time>
      </trkpt>
      <trkpt lat="45.62455" lon="4.62718">
        <ele>416.7</ele>
        <time>2014-05-01T08:38:38Z</time>
      </trkpt>
      <trkpt lat="45.62452" lon="4.62727">
        <ele>418.7</ele>
        <time>2014-05-01T08:38:43Z</time>
      </trkpt>
      <trkpt lat="45.62447" lon="4.62733">
        <ele>418.7</ele>
        <time>2014-05-01T08:38:48Z</time>
      </trkpt>
      <trkpt lat="45.62445" lon="4.6274">
        <ele>419.5</ele>
        <time>2014-05-01T08:38:53Z</time>
      </trkpt>
      <trkpt lat="45.62443" lon="4.62745">
        <ele>421.3</ele>
        <time>2014-05-01T08:38:58Z</time>
      </trkpt>
      <trkpt lat="45.6244" lon="4.62753">
        <ele>421.1</ele>
        <time>2014-05-01T08:39:03Z</time>
      </trkpt>
      <trkpt lat="45.62437" lon="4.62762">
        <ele>423.5</ele>
        <time>2014-05-01T08:39:08Z</time>
      </trkpt>
      <trkpt lat="45.62432" lon="4.62765">
        <ele>423.4</ele>
        <time>2014-05-01T08:39:13Z</time>
      </trkpt>
      <trkpt lat="45.62418" lon="4.62775">
        <ele>423.5</ele>
        <time>2014-05-01T08:39:18Z</time>
      </trkpt>
      <trkpt lat="45.62407" lon="4.62782">
        <ele>422.8</ele>
        <time>2014-05-01T08:39:23Z</time>
      </trkpt>
      <trkpt lat="45.62395" lon="4.62792">
        <ele>423.8</ele>
        <time>2014-05-01T08:39:28Z</time>
      </trkpt>
      <trkpt lat="45.62383" lon="4.62803">
        <ele>425.4</ele>
        <time>2014-05-01T08:39:33Z</time>
      </trkpt>
      <trkpt lat="45.62373" lon="4.6282">
        <ele>425.9</ele>
        <time>2014-05-01T08:39:38Z</time>
      </trkpt>
      <trkpt lat="45.6237" lon="4.62835">
        <ele>426.7</ele>
        <time>2014-05-01T08:39:43Z</time>
      </trkpt>
      <trkpt lat="45.62375" lon="4.62845">
        <ele>428.2</ele>
        <time>2014-05-01T08:39:48Z</time>
      </trkpt>
      <trkpt lat="45.62378" lon="4.62857">
        <ele>429</ele>
        <time>2014-05-01T08:39:53Z</time>
      </trkpt>
      <trkpt lat="45.62382" lon="4.62868">
        <ele>430.1</ele>
        <time>2014-05-01T08:39:58Z</time>
      </trkpt>
      <trkpt lat="45.62385" lon="4.62875">
        <ele>432.5</ele>
        <time>2014-05-01T08:40:03Z</time>
      </trkpt>
      <trkpt lat="45.6239" lon="4.62883">
        <ele>433.1</ele>
        <time>2014-05-01T08:40:08Z</time>
      </trkpt>
      <trkpt lat="45.62392" lon="4.62893">
        <ele>434.3</ele>
        <time>2014-05-01T08:40:13Z</time>
      </trkpt>
      <trkpt lat="45.62395" lon="4.62903">
        <ele>435.5</ele>
        <time>2014-05-01T08:40:18Z</time>
      </trkpt>
      <trkpt lat="45.62398" lon="4.62912">
        <ele>436</ele>
        <time>2014-05-01T08:40:23Z</time>
      </trkpt>
      <trkpt lat="45.62402" lon="4.6292">
        <ele>437.7</ele>
        <time>2014-05-01T08:40:28Z</time>
      </trkpt>
      <trkpt lat="45.62403" lon="4.6293">
        <ele>438.6</ele>
        <time>2014-05-01T08:40:33Z</time>
      </trkpt>
      <trkpt lat="45.62407" lon="4.62942">
        <ele>439.5</ele>
        <time>2014-05-01T08:40:38Z</time>
      </trkpt>
      <trkpt lat="45.6241" lon="4.62955">
        <ele>441.2</ele>
        <time>2014-05-01T08:40:43Z</time>
      </trkpt>
      <trkpt lat="45.62412" lon="4.62967">
        <ele>442.4</ele>
        <time>2014-05-01T08:40:48Z</time>
      </trkpt>
      <trkpt lat="45.62413" lon="4.62978">
        <ele>442.8</ele>
        <time>2014-05-01T08:40:53Z</time>
      </trkpt>
      <trkpt lat="45.62413" lon="4.6299">
        <ele>444.9</ele>
        <time>2014-05-01T08:40:58Z</time>
      </trkpt>
      <trkpt lat="45.62417" lon="4.63002">
        <ele>446</ele>
        <time>2014-05-01T08:41:03Z</time>
      </trkpt>
      <trkpt lat="45.62417" lon="4.63013">
        <ele>446.1</ele>
        <time>2014-05-01T08:41:08Z</time>
      </trkpt>
      <trkpt lat="45.62415" lon="4.63028">
        <ele>446.6</ele>
        <time>2014-05-01T08:41:13Z</time>
      </trkpt>
      <trkpt lat="45.62408" lon="4.63048">
        <ele>447.8</ele>
        <time>2014-05-01T08:41:18Z</time>
      </trkpt>
      <trkpt lat="45.62398" lon="4.6307">
        <ele>447.5</ele>
        <time>2014-05-01T08:41:23Z</time>
      </trkpt>
      <trkpt lat="45.62388" lon="4.63102">
        <ele>446</ele>
        <time>2014-05-01T08:41:28Z</time>
      </trkpt>
      <trkpt lat="45.62368" lon="4.6313">
        <ele>446</ele>
        <time>2014-05-01T08:41:33Z</time>
      </trkpt>
      <trkpt lat="45.62342" lon="4.63138">
        <ele>441.4</ele>
        <time>2014-05-01T08:41:38Z</time>
      </trkpt>
      <trkpt lat="45.62323" lon="4.63158">
        <ele>442.1</ele>
        <time>2014-05-01T08:41:43Z</time>
      </trkpt>
      <trkpt lat="45.62325" lon="4.63183">
        <ele>443.1</ele>
        <time>2014-05-01T08:41:48Z</time>
      </trkpt>
      <trkpt lat="45.62335" lon="4.63212">
        <ele>441.1</ele>
        <time>2014-05-01T08:41:53Z</time>
      </trkpt>
      <trkpt lat="45.62353" lon="4.63243">
        <ele>441.7</ele>
        <time>2014-05-01T08:41:58Z</time>
      </trkpt>
      <trkpt lat="45.6237" lon="4.63275">
        <ele>443.1</ele>
        <time>2014-05-01T08:42:03Z</time>
      </trkpt>
      <trkpt lat="45.62388" lon="4.63303">
        <ele>441.1</ele>
        <time>2014-05-01T08:42:08Z</time>
      </trkpt>
      <trkpt lat="45.62408" lon="4.63328">
        <ele>441.7</ele>
        <time>2014-05-01T08:42:13Z</time>
      </trkpt>
      <trkpt lat="45.62423" lon="4.63352">
        <ele>442.8</ele>
        <time>2014-05-01T08:42:18Z</time>
      </trkpt>
      <trkpt lat="45.62437" lon="4.6338">
        <ele>442</ele>
        <time>2014-05-01T08:42:23Z</time>
      </trkpt>
      <trkpt lat="45.62448" lon="4.63408">
        <ele>443.3</ele>
        <time>2014-05-01T08:42:28Z</time>
      </trkpt>
      <trkpt lat="45.62452" lon="4.63445">
        <ele>441.8</ele>
        <time>2014-05-01T08:42:33Z</time>
      </trkpt>
      <trkpt lat="45.62452" lon="4.63485">
        <ele>438.7</ele>
        <time>2014-05-01T08:42:38Z</time>
      </trkpt>
      <trkpt lat="45.6246" lon="4.63478">
        <ele>437.4</ele>
        <time>2014-05-01T08:42:43Z</time>
      </trkpt>
      <trkpt lat="45.62472" lon="4.63462">
        <ele>438.3</ele>
        <time>2014-05-01T08:42:48Z</time>
      </trkpt>
      <trkpt lat="45.62488" lon="4.63448">
        <ele>438.7</ele>
        <time>2014-05-01T08:42:53Z</time>
      </trkpt>
      <trkpt lat="45.62508" lon="4.63448">
        <ele>438</ele>
        <time>2014-05-01T08:42:58Z</time>
      </trkpt>
      <trkpt lat="45.62532" lon="4.63465">
        <ele>437.4</ele>
        <time>2014-05-01T08:43:03Z</time>
      </trkpt>
      <trkpt lat="45.62562" lon="4.63487">
        <ele>437.2</ele>
        <time>2014-05-01T08:43:08Z</time>
      </trkpt>
      <trkpt lat="45.62593" lon="4.63538">
        <ele>426.6</ele>
        <time>2014-05-01T08:43:13Z</time>
      </trkpt>
      <trkpt lat="45.6262" lon="4.63605">
        <ele>419.1</ele>
        <time>2014-05-01T08:43:18Z</time>
      </trkpt>
      <trkpt lat="45.62643" lon="4.6368">
        <ele>414.6</ele>
        <time>2014-05-01T08:43:23Z</time>
      </trkpt>
      <trkpt lat="45.62665" lon="4.63742">
        <ele>400.9</ele>
        <time>2014-05-01T08:43:28Z</time>
      </trkpt>
      <trkpt lat="45.62685" lon="4.6378">
        <ele>395.8</ele>
        <time>2014-05-01T08:43:33Z</time>
      </trkpt>
      <trkpt lat="45.62712" lon="4.63818">
        <ele>393.2</ele>
        <time>2014-05-01T08:43:38Z</time>
      </trkpt>
      <trkpt lat="45.62735" lon="4.63838">
        <ele>382.8</ele>
        <time>2014-05-01T08:43:43Z</time>
      </trkpt>
      <trkpt lat="45.62763" lon="4.63855">
        <ele>374.3</ele>
        <time>2014-05-01T08:43:48Z</time>
      </trkpt>
      <trkpt lat="45.62792" lon="4.63875">
        <ele>369.1</ele>
        <time>2014-05-01T08:43:53Z</time>
      </trkpt>
      <trkpt lat="45.62822" lon="4.639">
        <ele>359.1</ele>
        <time>2014-05-01T08:43:58Z</time>
      </trkpt>
      <trkpt lat="45.62843" lon="4.6392">
        <ele>355</ele>
        <time>2014-05-01T08:44:03Z</time>
      </trkpt>
      <trkpt lat="45.62862" lon="4.63933">
        <ele>350.8</ele>
        <time>2014-05-01T08:44:08Z</time>
      </trkpt>
      <trkpt lat="45.6288" lon="4.63963">
        <ele>339.8</ele>
        <time>2014-05-01T08:44:13Z</time>
      </trkpt>
      <trkpt lat="45.62893" lon="4.63988">
        <ele>336.1</ele>
        <time>2014-05-01T08:44:18Z</time>
      </trkpt>
      <trkpt lat="45.62908" lon="4.64005">
        <ele>335.5</ele>
        <time>2014-05-01T08:44:23Z</time>
      </trkpt>
      <trkpt lat="45.62923" lon="4.6402">
        <ele>337.4</ele>
        <time>2014-05-01T08:44:28Z</time>
      </trkpt>
      <trkpt lat="45.6294" lon="4.64023">
        <ele>338.1</ele>
        <time>2014-05-01T08:44:33Z</time>
      </trkpt>
      <trkpt lat="45.62952" lon="4.64017">
        <ele>338.7</ele>
        <time>2014-05-01T08:44:38Z</time>
      </trkpt>
      <trkpt lat="45.6296" lon="4.64008">
        <ele>339.6</ele>
        <time>2014-05-01T08:44:43Z</time>
      </trkpt>
      <trkpt lat="45.6297" lon="4.64">
        <ele>340.5</ele>
        <time>2014-05-01T08:44:48Z</time>
      </trkpt>
      <trkpt lat="45.62978" lon="4.63995">
        <ele>341.3</ele>
        <time>2014-05-01T08:44:53Z</time>
      </trkpt>
      <trkpt lat="45.6299" lon="4.63993">
        <ele>342.9</ele>
        <time>2014-05-01T08:44:58Z</time>
      </trkpt>
      <trkpt lat="45.62998" lon="4.63992">
        <ele>343.8</ele>
        <time>2014-05-01T08:45:03Z</time>
      </trkpt>
      <trkpt lat="45.63007" lon="4.63993">
        <ele>344.6</ele>
        <time>2014-05-01T08:45:08Z</time>
      </trkpt>
      <trkpt lat="45.63017" lon="4.63997">
        <ele>345.1</ele>
        <time>2014-05-01T08:45:13Z</time>
      </trkpt>
      <trkpt lat="45.63027" lon="4.64">
        <ele>346.8</ele>
        <time>2014-05-01T08:45:18Z</time>
      </trkpt>
      <trkpt lat="45.63037" lon="4.64003">
        <ele>348.1</ele>
        <time>2014-05-01T08:45:23Z</time>
      </trkpt>
      <trkpt lat="45.63045" lon="4.64008">
        <ele>349.5</ele>
        <time>2014-05-01T08:45:28Z</time>
      </trkpt>
      <trkpt lat="45.63053" lon="4.6401">
        <ele>350.7</ele>
        <time>2014-05-01T08:45:33Z</time>
      </trkpt>
      <trkpt lat="45.63063" lon="4.64012">
        <ele>352.3</ele>
        <time>2014-05-01T08:45:38Z</time>
      </trkpt>
      <trkpt lat="45.63072" lon="4.64012">
        <ele>353.5</ele>
        <time>2014-05-01T08:45:43Z</time>
      </trkpt>
      <trkpt lat="45.63077" lon="4.64005">
        <ele>354.4</ele>
        <time>2014-05-01T08:45:48Z</time>
      </trkpt>
      <trkpt lat="45.63082" lon="4.63992">
        <ele>355.4</ele>
        <time>2014-05-01T08:45:53Z</time>
      </trkpt>
      <trkpt lat="45.63085" lon="4.63977">
        <ele>354.9</ele>
        <time>2014-05-01T08:45:58Z</time>
      </trkpt>
      <trkpt lat="45.63088" lon="4.6396">
        <ele>354.6</ele>
        <time>2014-05-01T08:46:03Z</time>
      </trkpt>
      <trkpt lat="45.63093" lon="4.63928">
        <ele>354.3</ele>
        <time>2014-05-01T08:46:08Z</time>
      </trkpt>
      <trkpt lat="45.63088" lon="4.63905">
        <ele>354.5</ele>
        <time>2014-05-01T08:46:13Z</time>
      </trkpt>
      <trkpt lat="45.63087" lon="4.6389">
        <ele>356.1</ele>
        <time>2014-05-01T08:46:18Z</time>
      </trkpt>
      <trkpt lat="45.63085" lon="4.63878">
        <ele>358</ele>
        <time>2014-05-01T08:46:23Z</time>
      </trkpt>
      <trkpt lat="45.63087" lon="4.63867">
        <ele>359.7</ele>
        <time>2014-05-01T08:46:28Z</time>
      </trkpt>
      <trkpt lat="45.63092" lon="4.63857">
        <ele>361.3</ele>
        <time>2014-05-01T08:46:33Z</time>
      </trkpt>
      <trkpt lat="45.63097" lon="4.63848">
        <ele>362.1</ele>
        <time>2014-05-01T08:46:38Z</time>
      </trkpt>
      <trkpt lat="45.63102" lon="4.63842">
        <ele>363.1</ele>
        <time>2014-05-01T08:46:43Z</time>
      </trkpt>
      <trkpt lat="45.63108" lon="4.63837">
        <ele>364.4</ele>
        <time>2014-05-01T08:46:48Z</time>
      </trkpt>
      <trkpt lat="45.63113" lon="4.63828">
        <ele>366</ele>
        <time>2014-05-01T08:46:53Z</time>
      </trkpt>
      <trkpt lat="45.6312" lon="4.63822">
        <ele>366.6</ele>
        <time>2014-05-01T08:46:58Z</time>
      </trkpt>
      <trkpt lat="45.63125" lon="4.63813">
        <ele>367.8</ele>
        <time>2014-05-01T08:47:03Z</time>
      </trkpt>
      <trkpt lat="45.63132" lon="4.63807">
        <ele>369.2</ele>
        <time>2014-05-01T08:47:08Z</time>
      </trkpt>
      <trkpt lat="45.63137" lon="4.638">
        <ele>370.5</ele>
        <time>2014-05-01T08:47:13Z</time>
      </trkpt>
      <trkpt lat="45.63143" lon="4.63793">
        <ele>371.8</ele>
        <time>2014-05-01T08:47:18Z</time>
      </trkpt>
      <trkpt lat="45.63148" lon="4.63785">
        <ele>373.4</ele>
        <time>2014-05-01T08:47:23Z</time>
      </trkpt>
      <trkpt lat="45.63153" lon="4.63775">
        <ele>374.2</ele>
        <time>2014-05-01T08:47:28Z</time>
      </trkpt>
      <trkpt lat="45.63157" lon="4.63765">
        <ele>375.4</ele>
        <time>2014-05-01T08:47:33Z</time>
      </trkpt>
      <trkpt lat="45.63162" lon="4.63753">
        <ele>376.5</ele>
        <time>2014-05-01T08:47:38Z</time>
      </trkpt>
      <trkpt lat="45.6317" lon="4.63747">
        <ele>376.8</ele>
        <time>2014-05-01T08:47:43Z</time>
      </trkpt>
      <trkpt lat="45.63177" lon="4.63742">
        <ele>377.6</ele>
        <time>2014-05-01T08:47:48Z</time>
      </trkpt>
      <trkpt lat="45.63187" lon="4.63735">
        <ele>378.4</ele>
        <time>2014-05-01T08:47:53Z</time>
      </trkpt>
      <trkpt lat="45.63193" lon="4.63728">
        <ele>378.2</ele>
        <time>2014-05-01T08:47:58Z</time>
      </trkpt>
      <trkpt lat="45.632" lon="4.63718">
        <ele>379.1</ele>
        <time>2014-05-01T08:48:03Z</time>
      </trkpt>
      <trkpt lat="45.63202" lon="4.63708">
        <ele>379.4</ele>
        <time>2014-05-01T08:48:08Z</time>
      </trkpt>
      <trkpt lat="45.63198" lon="4.63697">
        <ele>380.2</ele>
        <time>2014-05-01T08:48:13Z</time>
      </trkpt>
      <trkpt lat="45.63193" lon="4.63685">
        <ele>380.9</ele>
        <time>2014-05-01T08:48:18Z</time>
      </trkpt>
      <trkpt lat="45.6319" lon="4.63672">
        <ele>381.5</ele>
        <time>2014-05-01T08:48:23Z</time>
      </trkpt>
      <trkpt lat="45.63187" lon="4.63658">
        <ele>382.3</ele>
        <time>2014-05-01T08:48:28Z</time>
      </trkpt>
      <trkpt lat="45.63182" lon="4.63642">
        <ele>383.6</ele>
        <time>2014-05-01T08:48:33Z</time>
      </trkpt>
      <trkpt lat="45.63178" lon="4.63627">
        <ele>383</ele>
        <time>2014-05-01T08:48:38Z</time>
      </trkpt>
      <trkpt lat="45.63173" lon="4.63612">
        <ele>383.9</ele>
        <time>2014-05-01T08:48:43Z</time>
      </trkpt>
      <trkpt lat="45.6317" lon="4.63598">
        <ele>385</ele>
        <time>2014-05-01T08:48:48Z</time>
      </trkpt>
      <trkpt lat="45.63168" lon="4.63583">
        <ele>385.4</ele>
        <time>2014-05-01T08:48:53Z</time>
      </trkpt>
      <trkpt lat="45.63163" lon="4.63568">
        <ele>385.9</ele>
        <time>2014-05-01T08:48:58Z</time>
      </trkpt>
      <trkpt lat="45.6316" lon="4.63553">
        <ele>387.6</ele>
        <time>2014-05-01T08:49:03Z</time>
      </trkpt>
      <trkpt lat="45.63157" lon="4.63538">
        <ele>387.5</ele>
        <time>2014-05-01T08:49:08Z</time>
      </trkpt>
      <trkpt lat="45.63155" lon="4.63525">
        <ele>385.7</ele>
        <time>2014-05-01T08:49:13Z</time>
      </trkpt>
      <trkpt lat="45.63153" lon="4.6351">
        <ele>389.7</ele>
        <time>2014-05-01T08:49:18Z</time>
      </trkpt>
      <trkpt lat="45.63152" lon="4.63495">
        <ele>390.3</ele>
        <time>2014-05-01T08:49:23Z</time>
      </trkpt>
      <trkpt lat="45.6315" lon="4.6348">
        <ele>390.8</ele>
        <time>2014-05-01T08:49:28Z</time>
      </trkpt>
      <trkpt lat="45.6315" lon="4.63465">
        <ele>389.6</ele>
        <time>2014-05-01T08:49:33Z</time>
      </trkpt>
      <trkpt lat="45.63148" lon="4.6345">
        <ele>390.6</ele>
        <time>2014-05-01T08:49:38Z</time>
      </trkpt>
      <trkpt lat="45.63147" lon="4.63432">
        <ele>391.4</ele>
        <time>2014-05-01T08:49:43Z</time>
      </trkpt>
      <trkpt lat="45.63143" lon="4.63415">
        <ele>391.8</ele>
        <time>2014-05-01T08:49:48Z</time>
      </trkpt>
      <trkpt lat="45.6314" lon="4.634">
        <ele>393.2</ele>
        <time>2014-05-01T08:49:53Z</time>
      </trkpt>
      <trkpt lat="45.63133" lon="4.63383">
        <ele>393.5</ele>
        <time>2014-05-01T08:49:58Z</time>
      </trkpt>
      <trkpt lat="45.63128" lon="4.63367">
        <ele>394.6</ele>
        <time>2014-05-01T08:50:03Z</time>
      </trkpt>
      <trkpt lat="45.63127" lon="4.63352">
        <ele>393.8</ele>
        <time>2014-05-01T08:50:08Z</time>
      </trkpt>
      <trkpt lat="45.63123" lon="4.63337">
        <ele>395.7</ele>
        <time>2014-05-01T08:50:13Z</time>
      </trkpt>
      <trkpt lat="45.6312" lon="4.63322">
        <ele>397</ele>
        <time>2014-05-01T08:50:18Z</time>
      </trkpt>
      <trkpt lat="45.63115" lon="4.63308">
        <ele>397.2</ele>
        <time>2014-05-01T08:50:23Z</time>
      </trkpt>
      <trkpt lat="45.6311" lon="4.63297">
        <ele>399.4</ele>
        <time>2014-05-01T08:50:28Z</time>
      </trkpt>
      <trkpt lat="45.63103" lon="4.63285">
        <ele>399.7</ele>
        <time>2014-05-01T08:50:33Z</time>
      </trkpt>
      <trkpt lat="45.63098" lon="4.63273">
        <ele>401</ele>
        <time>2014-05-01T08:50:38Z</time>
      </trkpt>
      <trkpt lat="45.6309" lon="4.63262">
        <ele>402.7</ele>
        <time>2014-05-01T08:50:43Z</time>
      </trkpt>
      <trkpt lat="45.63083" lon="4.6325">
        <ele>402.8</ele>
        <time>2014-05-01T08:50:48Z</time>
      </trkpt>
      <trkpt lat="45.63077" lon="4.63237">
        <ele>403.5</ele>
        <time>2014-05-01T08:50:53Z</time>
      </trkpt>
      <trkpt lat="45.6307" lon="4.63225">
        <ele>403.8</ele>
        <time>2014-05-01T08:50:58Z</time>
      </trkpt>
      <trkpt lat="45.63063" lon="4.63208">
        <ele>405.4</ele>
        <time>2014-05-01T08:51:03Z</time>
      </trkpt>
      <trkpt lat="45.63058" lon="4.63185">
        <ele>401.8</ele>
        <time>2014-05-01T08:51:08Z</time>
      </trkpt>
      <trkpt lat="45.6306" lon="4.63148">
        <ele>400.8</ele>
        <time>2014-05-01T08:51:13Z</time>
      </trkpt>
      <trkpt lat="45.63072" lon="4.63103">
        <ele>401</ele>
        <time>2014-05-01T08:51:18Z</time>
      </trkpt>
      <trkpt lat="45.63092" lon="4.63053">
        <ele>397</ele>
        <time>2014-05-01T08:51:23Z</time>
      </trkpt>
      <trkpt lat="45.63103" lon="4.62992">
        <ele>394.6</ele>
        <time>2014-05-01T08:51:28Z</time>
      </trkpt>
      <trkpt lat="45.63097" lon="4.62933">
        <ele>390.8</ele>
        <time>2014-05-01T08:51:33Z</time>
      </trkpt>
      <trkpt lat="45.63085" lon="4.62885">
        <ele>388.9</ele>
        <time>2014-05-01T08:51:38Z</time>
      </trkpt>
      <trkpt lat="45.63085" lon="4.62862">
        <ele>389.9</ele>
        <time>2014-05-01T08:51:43Z</time>
      </trkpt>
      <trkpt lat="45.63085" lon="4.62838">
        <ele>390.6</ele>
        <time>2014-05-01T08:51:48Z</time>
      </trkpt>
      <trkpt lat="45.63088" lon="4.62815">
        <ele>390.6</ele>
        <time>2014-05-01T08:51:53Z</time>
      </trkpt>
      <trkpt lat="45.6309" lon="4.62798">
        <ele>391.9</ele>
        <time>2014-05-01T08:51:58Z</time>
      </trkpt>
      <trkpt lat="45.63092" lon="4.62785">
        <ele>391.3</ele>
        <time>2014-05-01T08:52:03Z</time>
      </trkpt>
      <trkpt lat="45.63092" lon="4.62775">
        <ele>392.6</ele>
        <time>2014-05-01T08:52:08Z</time>
      </trkpt>
      <trkpt lat="45.63092" lon="4.62767">
        <ele>394</ele>
        <time>2014-05-01T08:52:13Z</time>
      </trkpt>
      <trkpt lat="45.63092" lon="4.6276">
        <ele>395.1</ele>
        <time>2014-05-01T08:52:18Z</time>
      </trkpt>
      <trkpt lat="45.6309" lon="4.62748">
        <ele>396.5</ele>
        <time>2014-05-01T08:52:23Z</time>
      </trkpt>
      <trkpt lat="45.63087" lon="4.6274">
        <ele>397</ele>
        <time>2014-05-01T08:52:28Z</time>
      </trkpt>
      <trkpt lat="45.63083" lon="4.6273">
        <ele>399.5</ele>
        <time>2014-05-01T08:52:33Z</time>
      </trkpt>
      <trkpt lat="45.63082" lon="4.62723">
        <ele>400.9</ele>
        <time>2014-05-01T08:52:38Z</time>
      </trkpt>
      <trkpt lat="45.6308" lon="4.62712">
        <ele>403.4</ele>
        <time>2014-05-01T08:52:43Z</time>
      </trkpt>
      <trkpt lat="45.6308" lon="4.62702">
        <ele>404.7</ele>
        <time>2014-05-01T08:52:48Z</time>
      </trkpt>
      <trkpt lat="45.6308" lon="4.6269">
        <ele>405.3</ele>
        <time>2014-05-01T08:52:53Z</time>
      </trkpt>
      <trkpt lat="45.6308" lon="4.62677">
        <ele>408.2</ele>
        <time>2014-05-01T08:52:58Z</time>
      </trkpt>
      <trkpt lat="45.63078" lon="4.62665">
        <ele>407.9</ele>
        <time>2014-05-01T08:53:03Z</time>
      </trkpt>
      <trkpt lat="45.63077" lon="4.62655">
        <ele>409.1</ele>
        <time>2014-05-01T08:53:08Z</time>
      </trkpt>
      <trkpt lat="45.63078" lon="4.62643">
        <ele>410.4</ele>
        <time>2014-05-01T08:53:13Z</time>
      </trkpt>
      <trkpt lat="45.6308" lon="4.62632">
        <ele>410.4</ele>
        <time>2014-05-01T08:53:18Z</time>
      </trkpt>
      <trkpt lat="45.63082" lon="4.6262">
        <ele>411.5</ele>
        <time>2014-05-01T08:53:23Z</time>
      </trkpt>
      <trkpt lat="45.63082" lon="4.62607">
        <ele>411.3</ele>
        <time>2014-05-01T08:53:28Z</time>
      </trkpt>
      <trkpt lat="45.63085" lon="4.62593">
        <ele>412.4</ele>
        <time>2014-05-01T08:53:33Z</time>
      </trkpt>
      <trkpt lat="45.63087" lon="4.62583">
        <ele>413.3</ele>
        <time>2014-05-01T08:53:38Z</time>
      </trkpt>
      <trkpt lat="45.63092" lon="4.6257">
        <ele>414</ele>
        <time>2014-05-01T08:53:43Z</time>
      </trkpt>
      <trkpt lat="45.63095" lon="4.62558">
        <ele>414.5</ele>
        <time>2014-05-01T08:53:48Z</time>
      </trkpt>
      <trkpt lat="45.63098" lon="4.62545">
        <ele>415.4</ele>
        <time>2014-05-01T08:53:53Z</time>
      </trkpt>
      <trkpt lat="45.63102" lon="4.62533">
        <ele>415.8</ele>
        <time>2014-05-01T08:53:58Z</time>
      </trkpt>
      <trkpt lat="45.63103" lon="4.62518">
        <ele>415.9</ele>
        <time>2014-05-01T08:54:03Z</time>
      </trkpt>
      <trkpt lat="45.63103" lon="4.62503">
        <ele>417.2</ele>
        <time>2014-05-01T08:54:08Z</time>
      </trkpt>
      <trkpt lat="45.63103" lon="4.6249">
        <ele>417.6</ele>
        <time>2014-05-01T08:54:13Z</time>
      </trkpt>
      <trkpt lat="45.63102" lon="4.62477">
        <ele>418.6</ele>
        <time>2014-05-01T08:54:18Z</time>
      </trkpt>
      <trkpt lat="45.63102" lon="4.62465">
        <ele>420.3</ele>
        <time>2014-05-01T08:54:23Z</time>
      </trkpt>
      <trkpt lat="45.631" lon="4.62452">
        <ele>421.5</ele>
        <time>2014-05-01T08:54:28Z</time>
      </trkpt>
      <trkpt lat="45.63097" lon="4.6244">
        <ele>422.2</ele>
        <time>2014-05-01T08:54:33Z</time>
      </trkpt>
      <trkpt lat="45.63095" lon="4.62427">
        <ele>422.9</ele>
        <time>2014-05-01T08:54:38Z</time>
      </trkpt>
      <trkpt lat="45.63092" lon="4.62412">
        <ele>425</ele>
        <time>2014-05-01T08:54:43Z</time>
      </trkpt>
      <trkpt lat="45.6309" lon="4.62402">
        <ele>427.3</ele>
        <time>2014-05-01T08:54:48Z</time>
      </trkpt>
      <trkpt lat="45.6309" lon="4.62393">
        <ele>429.5</ele>
        <time>2014-05-01T08:54:53Z</time>
      </trkpt>
      <trkpt lat="45.631" lon="4.62388">
        <ele>429.2</ele>
        <time>2014-05-01T08:54:58Z</time>
      </trkpt>
      <trkpt lat="45.63113" lon="4.62368">
        <ele>427.8</ele>
        <time>2014-05-01T08:55:03Z</time>
      </trkpt>
      <trkpt lat="45.63128" lon="4.62335">
        <ele>426.3</ele>
        <time>2014-05-01T08:55:08Z</time>
      </trkpt>
      <trkpt lat="45.6315" lon="4.62312">
        <ele>426.1</ele>
        <time>2014-05-01T08:55:13Z</time>
      </trkpt>
      <trkpt lat="45.63168" lon="4.62327">
        <ele>424.9</ele>
        <time>2014-05-01T08:55:18Z</time>
      </trkpt>
      <trkpt lat="45.63175" lon="4.6234">
        <ele>426.4</ele>
        <time>2014-05-01T08:55:23Z</time>
      </trkpt>
      <trkpt lat="45.6318" lon="4.62355">
        <ele>427.7</ele>
        <time>2014-05-01T08:55:28Z</time>
      </trkpt>
      <trkpt lat="45.63185" lon="4.62372">
        <ele>429</ele>
        <time>2014-05-01T08:55:33Z</time>
      </trkpt>
      <trkpt lat="45.63188" lon="4.62387">
        <ele>430.1</ele>
        <time>2014-05-01T08:55:38Z</time>
      </trkpt>
      <trkpt lat="45.63193" lon="4.624">
        <ele>431.9</ele>
        <time>2014-05-01T08:55:43Z</time>
      </trkpt>
      <trkpt lat="45.63198" lon="4.62415">
        <ele>432.6</ele>
        <time>2014-05-01T08:55:48Z</time>
      </trkpt>
      <trkpt lat="45.63202" lon="4.6243">
        <ele>432.9</ele>
        <time>2014-05-01T08:55:53Z</time>
      </trkpt>
      <trkpt lat="45.63205" lon="4.62443">
        <ele>435</ele>
        <time>2014-05-01T08:55:58Z</time>
      </trkpt>
      <trkpt lat="45.6321" lon="4.62457">
        <ele>435.5</ele>
        <time>2014-05-01T08:56:03Z</time>
      </trkpt>
      <trkpt lat="45.63215" lon="4.62468">
        <ele>437</ele>
        <time>2014-05-01T08:56:08Z</time>
      </trkpt>
      <trkpt lat="45.6322" lon="4.62482">
        <ele>438.6</ele>
        <time>2014-05-01T08:56:13Z</time>
      </trkpt>
      <trkpt lat="45.63225" lon="4.62495">
        <ele>439.5</ele>
        <time>2014-05-01T08:56:18Z</time>
      </trkpt>
      <trkpt lat="45.6323" lon="4.62508">
        <ele>441.1</ele>
        <time>2014-05-01T08:56:23Z</time>
      </trkpt>
      <trkpt lat="45.63235" lon="4.62523">
        <ele>442.5</ele>
        <time>2014-05-01T08:56:28Z</time>
      </trkpt>
      <trkpt lat="45.6324" lon="4.62537">
        <ele>443.4</ele>
        <time>2014-05-01T08:56:33Z</time>
      </trkpt>
      <trkpt lat="45.63247" lon="4.62548">
        <ele>444.6</ele>
        <time>2014-05-01T08:56:38Z</time>
      </trkpt>
      <trkpt lat="45.63253" lon="4.6256">
        <ele>445.4</ele>
        <time>2014-05-01T08:56:43Z</time>
      </trkpt>
      <trkpt lat="45.63262" lon="4.6257">
        <ele>446.1</ele>
        <time>2014-05-01T08:56:48Z</time>
      </trkpt>
      <trkpt lat="45.63272" lon="4.62577">
        <ele>446.7</ele>
        <time>2014-05-01T08:56:53Z</time>
      </trkpt>
      <trkpt lat="45.63282" lon="4.6258">
        <ele>448.2</ele>
        <time>2014-05-01T08:56:58Z</time>
      </trkpt>
      <trkpt lat="45.63292" lon="4.6258">
        <ele>448.9</ele>
        <time>2014-05-01T08:57:03Z</time>
      </trkpt>
      <trkpt lat="45.63303" lon="4.6258">
        <ele>450.3</ele>
        <time>2014-05-01T08:57:08Z</time>
      </trkpt>
      <trkpt lat="45.63313" lon="4.6258">
        <ele>450</ele>
        <time>2014-05-01T08:57:13Z</time>
      </trkpt>
      <trkpt lat="45.63325" lon="4.62582">
        <ele>450.4</ele>
        <time>2014-05-01T08:57:18Z</time>
      </trkpt>
      <trkpt lat="45.63337" lon="4.62583">
        <ele>451.7</ele>
        <time>2014-05-01T08:57:23Z</time>
      </trkpt>
      <trkpt lat="45.6335" lon="4.62588">
        <ele>452.4</ele>
        <time>2014-05-01T08:57:28Z</time>
      </trkpt>
      <trkpt lat="45.63358" lon="4.62597">
        <ele>453.2</ele>
        <time>2014-05-01T08:57:33Z</time>
      </trkpt>
      <trkpt lat="45.63367" lon="4.6261">
        <ele>453.7</ele>
        <time>2014-05-01T08:57:38Z</time>
      </trkpt>
      <trkpt lat="45.63368" lon="4.62625">
        <ele>455.6</ele>
        <time>2014-05-01T08:57:43Z</time>
      </trkpt>
      <trkpt lat="45.63368" lon="4.62642">
        <ele>456.7</ele>
        <time>2014-05-01T08:57:48Z</time>
      </trkpt>
      <trkpt lat="45.63365" lon="4.62657">
        <ele>457.9</ele>
        <time>2014-05-01T08:57:53Z</time>
      </trkpt>
      <trkpt lat="45.6336" lon="4.62672">
        <ele>458.7</ele>
        <time>2014-05-01T08:57:58Z</time>
      </trkpt>
      <trkpt lat="45.63355" lon="4.62687">
        <ele>459.6</ele>
        <time>2014-05-01T08:58:03Z</time>
      </trkpt>
      <trkpt lat="45.6336" lon="4.62697">
        <ele>459.9</ele>
        <time>2014-05-01T08:58:08Z</time>
      </trkpt>
      <trkpt lat="45.63368" lon="4.62688">
        <ele>460.6</ele>
        <time>2014-05-01T08:58:13Z</time>
      </trkpt>
      <trkpt lat="45.63375" lon="4.62687">
        <ele>462.2</ele>
        <time>2014-05-01T08:58:18Z</time>
      </trkpt>
      <trkpt lat="45.63377" lon="4.62697">
        <ele>462.8</ele>
        <time>2014-05-01T08:58:23Z</time>
      </trkpt>
      <trkpt lat="45.63378" lon="4.6271">
        <ele>464.2</ele>
        <time>2014-05-01T08:58:28Z</time>
      </trkpt>
      <trkpt lat="45.63378" lon="4.62725">
        <ele>465.9</ele>
        <time>2014-05-01T08:58:33Z</time>
      </trkpt>
      <trkpt lat="45.6338" lon="4.62738">
        <ele>465.9</ele>
        <time>2014-05-01T08:58:38Z</time>
      </trkpt>
      <trkpt lat="45.63385" lon="4.62752">
        <ele>466.8</ele>
        <time>2014-05-01T08:58:43Z</time>
      </trkpt>
      <trkpt lat="45.63392" lon="4.62765">
        <ele>467.9</ele>
        <time>2014-05-01T08:58:48Z</time>
      </trkpt>
      <trkpt lat="45.63397" lon="4.62777">
        <ele>468.4</ele>
        <time>2014-05-01T08:58:53Z</time>
      </trkpt>
      <trkpt lat="45.63405" lon="4.62788">
        <ele>469.7</ele>
        <time>2014-05-01T08:58:58Z</time>
      </trkpt>
      <trkpt lat="45.63412" lon="4.628">
        <ele>470.8</ele>
        <time>2014-05-01T08:59:03Z</time>
      </trkpt>
      <trkpt lat="45.63418" lon="4.6281">
        <ele>472.4</ele>
        <time>2014-05-01T08:59:08Z</time>
      </trkpt>
      <trkpt lat="45.63427" lon="4.62822">
        <ele>473.1</ele>
        <time>2014-05-01T08:59:13Z</time>
      </trkpt>
      <trkpt lat="45.63433" lon="4.6283">
        <ele>474</ele>
        <time>2014-05-01T08:59:18Z</time>
      </trkpt>
      <trkpt lat="45.63442" lon="4.62838">
        <ele>474.8</ele>
        <time>2014-05-01T08:59:23Z</time>
      </trkpt>
      <trkpt lat="45.63448" lon="4.62845">
        <ele>476.5</ele>
        <time>2014-05-01T08:59:28Z</time>
      </trkpt>
      <trkpt lat="45.63455" lon="4.62853">
        <ele>476.9</ele>
        <time>2014-05-01T08:59:33Z</time>
      </trkpt>
      <trkpt lat="45.63462" lon="4.62862">
        <ele>479</ele>
        <time>2014-05-01T08:59:38Z</time>
      </trkpt>
      <trkpt lat="45.63468" lon="4.6287">
        <ele>480</ele>
        <time>2014-05-01T08:59:43Z</time>
      </trkpt>
      <trkpt lat="45.63477" lon="4.62877">
        <ele>481.4</ele>
        <time>2014-05-01T08:59:48Z</time>
      </trkpt>
      <trkpt lat="45.63483" lon="4.62885">
        <ele>482.5</ele>
        <time>2014-05-01T08:59:53Z</time>
      </trkpt>
      <trkpt lat="45.6349" lon="4.62895">
        <ele>483.5</ele>
        <time>2014-05-01T08:59:58Z</time>
      </trkpt>
      <trkpt lat="45.63498" lon="4.62903">
        <ele>484.6</ele>
        <time>2014-05-01T09:00:03Z</time>
      </trkpt>
      <trkpt lat="45.63505" lon="4.62912">
        <ele>485.4</ele>
        <time>2014-05-01T09:00:08Z</time>
      </trkpt>
      <trkpt lat="45.63512" lon="4.6292">
        <ele>486</ele>
        <time>2014-05-01T09:00:13Z</time>
      </trkpt>
      <trkpt lat="45.6352" lon="4.62927">
        <ele>487.6</ele>
        <time>2014-05-01T09:00:18Z</time>
      </trkpt>
      <trkpt lat="45.63528" lon="4.62933">
        <ele>487.1</ele>
        <time>2014-05-01T09:00:23Z</time>
      </trkpt>
      <trkpt lat="45.63537" lon="4.62938">
        <ele>488.6</ele>
        <time>2014-05-01T09:00:28Z</time>
      </trkpt>
      <trkpt lat="45.63543" lon="4.62935">
        <ele>489</ele>
        <time>2014-05-01T09:00:33Z</time>
      </trkpt>
      <trkpt lat="45.63548" lon="4.62927">
        <ele>490.1</ele>
        <time>2014-05-01T09:00:38Z</time>
      </trkpt>
      <trkpt lat="45.63553" lon="4.62918">
        <ele>491.8</ele>
        <time>2014-05-01T09:00:43Z</time>
      </trkpt>
      <trkpt lat="45.63557" lon="4.62912">
        <ele>493.1</ele>
        <time>2014-05-01T09:00:48Z</time>
      </trkpt>
      <trkpt lat="45.6356" lon="4.62902">
        <ele>494.9</ele>
        <time>2014-05-01T09:00:53Z</time>
      </trkpt>
      <trkpt lat="45.63563" lon="4.62893">
        <ele>496.1</ele>
        <time>2014-05-01T09:00:58Z</time>
      </trkpt>
      <trkpt lat="45.63567" lon="4.62883">
        <ele>498.4</ele>
        <time>2014-05-01T09:01:03Z</time>
      </trkpt>
      <trkpt lat="45.6357" lon="4.62873">
        <ele>499.2</ele>
        <time>2014-05-01T09:01:08Z</time>
      </trkpt>
      <trkpt lat="45.63573" lon="4.62865">
        <ele>500</ele>
        <time>2014-05-01T09:01:13Z</time>
      </trkpt>
      <trkpt lat="45.63575" lon="4.62855">
        <ele>501.4</ele>
        <time>2014-05-01T09:01:18Z</time>
      </trkpt>
      <trkpt lat="45.63575" lon="4.62847">
        <ele>501.2</ele>
        <time>2014-05-01T09:01:23Z</time>
      </trkpt>
      <trkpt lat="45.63573" lon="4.62837">
        <ele>502.1</ele>
        <time>2014-05-01T09:01:28Z</time>
      </trkpt>
      <trkpt lat="45.63575" lon="4.62825">
        <ele>502.5</ele>
        <time>2014-05-01T09:01:33Z</time>
      </trkpt>
      <trkpt lat="45.63575" lon="4.62815">
        <ele>504.3</ele>
        <time>2014-05-01T09:01:38Z</time>
      </trkpt>
      <trkpt lat="45.63577" lon="4.62803">
        <ele>504.5</ele>
        <time>2014-05-01T09:01:43Z</time>
      </trkpt>
      <trkpt lat="45.63578" lon="4.62793">
        <ele>506.1</ele>
        <time>2014-05-01T09:01:48Z</time>
      </trkpt>
      <trkpt lat="45.6358" lon="4.62785">
        <ele>507.8</ele>
        <time>2014-05-01T09:01:53Z</time>
      </trkpt>
      <trkpt lat="45.63583" lon="4.62773">
        <ele>508.1</ele>
        <time>2014-05-01T09:01:58Z</time>
      </trkpt>
      <trkpt lat="45.63588" lon="4.62763">
        <ele>509.6</ele>
        <time>2014-05-01T09:02:03Z</time>
      </trkpt>
      <trkpt lat="45.63592" lon="4.62755">
        <ele>510.2</ele>
        <time>2014-05-01T09:02:08Z</time>
      </trkpt>
      <trkpt lat="45.63597" lon="4.62747">
        <ele>511.7</ele>
        <time>2014-05-01T09:02:13Z</time>
      </trkpt>
      <trkpt lat="45.63602" lon="4.62738">
        <ele>512.7</ele>
        <time>2014-05-01T09:02:18Z</time>
      </trkpt>
      <trkpt lat="45.63607" lon="4.62732">
        <ele>514</ele>
        <time>2014-05-01T09:02:23Z</time>
      </trkpt>
      <trkpt lat="45.63612" lon="4.62723">
        <ele>514.9</ele>
        <time>2014-05-01T09:02:28Z</time>
      </trkpt>
      <trkpt lat="45.63615" lon="4.62718">
        <ele>515.9</ele>
        <time>2014-05-01T09:02:33Z</time>
      </trkpt>
      <trkpt lat="45.63622" lon="4.62712">
        <ele>516.4</ele>
        <time>2014-05-01T09:02:38Z</time>
      </trkpt>
      <trkpt lat="45.63625" lon="4.62703">
        <ele>517.7</ele>
        <time>2014-05-01T09:02:43Z</time>
      </trkpt>
      <trkpt lat="45.63628" lon="4.62697">
        <ele>518</ele>
        <time>2014-05-01T09:02:48Z</time>
      </trkpt>
      <trkpt lat="45.6363" lon="4.62687">
        <ele>518.6</ele>
        <time>2014-05-01T09:02:53Z</time>
      </trkpt>
      <trkpt lat="45.63633" lon="4.62677">
        <ele>520</ele>
        <time>2014-05-01T09:02:58Z</time>
      </trkpt>
      <trkpt lat="45.63637" lon="4.62668">
        <ele>521.4</ele>
        <time>2014-05-01T09:03:03Z</time>
      </trkpt>
      <trkpt lat="45.63638" lon="4.62658">
        <ele>521.6</ele>
        <time>2014-05-01T09:03:08Z</time>
      </trkpt>
      <trkpt lat="45.63643" lon="4.62647">
        <ele>523.3</ele>
        <time>2014-05-01T09:03:13Z</time>
      </trkpt>
      <trkpt lat="45.63647" lon="4.62635">
        <ele>524.8</ele>
        <time>2014-05-01T09:03:18Z</time>
      </trkpt>
      <trkpt lat="45.63652" lon="4.62623">
        <ele>526.6</ele>
        <time>2014-05-01T09:03:23Z</time>
      </trkpt>
      <trkpt lat="45.63657" lon="4.62613">
        <ele>526.5</ele>
        <time>2014-05-01T09:03:28Z</time>
      </trkpt>
      <trkpt lat="45.6366" lon="4.62602">
        <ele>526.7</ele>
        <time>2014-05-01T09:03:33Z</time>
      </trkpt>
      <trkpt lat="45.63663" lon="4.6259">
        <ele>527.6</ele>
        <time>2014-05-01T09:03:38Z</time>
      </trkpt>
      <trkpt lat="45.63668" lon="4.62578">
        <ele>529.1</ele>
        <time>2014-05-01T09:03:43Z</time>
      </trkpt>
      <trkpt lat="45.63673" lon="4.62567">
        <ele>528.7</ele>
        <time>2014-05-01T09:03:48Z</time>
      </trkpt>
      <trkpt lat="45.6368" lon="4.62553">
        <ele>530.1</ele>
        <time>2014-05-01T09:03:53Z</time>
      </trkpt>
      <trkpt lat="45.63685" lon="4.62532">
        <ele>530.9</ele>
        <time>2014-05-01T09:03:58Z</time>
      </trkpt>
      <trkpt lat="45.637" lon="4.62505">
        <ele>526.5</ele>
        <time>2014-05-01T09:04:03Z</time>
      </trkpt>
      <trkpt lat="45.63715" lon="4.62497">
        <ele>530.1</ele>
        <time>2014-05-01T09:04:08Z</time>
      </trkpt>
      <trkpt lat="45.63725" lon="4.62482">
        <ele>531.9</ele>
        <time>2014-05-01T09:04:13Z</time>
      </trkpt>
      <trkpt lat="45.63732" lon="4.62465">
        <ele>532.5</ele>
        <time>2014-05-01T09:04:18Z</time>
      </trkpt>
      <trkpt lat="45.63737" lon="4.62437">
        <ele>529.8</ele>
        <time>2014-05-01T09:04:23Z</time>
      </trkpt>
      <trkpt lat="45.63737" lon="4.62413">
        <ele>532.2</ele>
        <time>2014-05-01T09:04:28Z</time>
      </trkpt>
      <trkpt lat="45.6373" lon="4.62393">
        <ele>532.4</ele>
        <time>2014-05-01T09:04:33Z</time>
      </trkpt>
      <trkpt lat="45.63723" lon="4.62378">
        <ele>534.2</ele>
        <time>2014-05-01T09:04:38Z</time>
      </trkpt>
      <trkpt lat="45.63717" lon="4.62367">
        <ele>534.4</ele>
        <time>2014-05-01T09:04:43Z</time>
      </trkpt>
      <trkpt lat="45.63717" lon="4.62352">
        <ele>536.3</ele>
        <time>2014-05-01T09:04:48Z</time>
      </trkpt>
      <trkpt lat="45.63718" lon="4.62338">
        <ele>536.9</ele>
        <time>2014-05-01T09:04:53Z</time>
      </trkpt>
      <trkpt lat="45.63723" lon="4.62325">
        <ele>537.9</ele>
        <time>2014-05-01T09:04:58Z</time>
      </trkpt>
      <trkpt lat="45.63727" lon="4.62312">
        <ele>538.7</ele>
        <time>2014-05-01T09:05:03Z</time>
      </trkpt>
      <trkpt lat="45.6373" lon="4.623">
        <ele>539.7</ele>
        <time>2014-05-01T09:05:08Z</time>
      </trkpt>
      <trkpt lat="45.63737" lon="4.62288">
        <ele>540.3</ele>
        <time>2014-05-01T09:05:13Z</time>
      </trkpt>
      <trkpt lat="45.63743" lon="4.62277">
        <ele>540.5</ele>
        <time>2014-05-01T09:05:18Z</time>
      </trkpt>
      <trkpt lat="45.6375" lon="4.62267">
        <ele>541.9</ele>
        <time>2014-05-01T09:05:23Z</time>
      </trkpt>
      <trkpt lat="45.63755" lon="4.62257">
        <ele>541.5</ele>
        <time>2014-05-01T09:05:28Z</time>
      </trkpt>
      <trkpt lat="45.63762" lon="4.62243">
        <ele>541.8</ele>
        <time>2014-05-01T09:05:33Z</time>
      </trkpt>
      <trkpt lat="45.63768" lon="4.62228">
        <ele>542</ele>
        <time>2014-05-01T09:05:38Z</time>
      </trkpt>
      <trkpt lat="45.63777" lon="4.62213">
        <ele>541.3</ele>
        <time>2014-05-01T09:05:43Z</time>
      </trkpt>
      <trkpt lat="45.63785" lon="4.622">
        <ele>541.6</ele>
        <time>2014-05-01T09:05:48Z</time>
      </trkpt>
      <trkpt lat="45.63792" lon="4.62183">
        <ele>542.5</ele>
        <time>2014-05-01T09:05:53Z</time>
      </trkpt>
      <trkpt lat="45.63798" lon="4.62167">
        <ele>542.1</ele>
        <time>2014-05-01T09:05:58Z</time>
      </trkpt>
      <trkpt lat="45.63807" lon="4.6215">
        <ele>543.3</ele>
        <time>2014-05-01T09:06:03Z</time>
      </trkpt>
      <trkpt lat="45.63815" lon="4.62133">
        <ele>544</ele>
        <time>2014-05-01T09:06:08Z</time>
      </trkpt>
      <trkpt lat="45.63823" lon="4.6212">
        <ele>543.3</ele>
        <time>2014-05-01T09:06:13Z</time>
      </trkpt>
      <trkpt lat="45.63835" lon="4.62105">
        <ele>544.2</ele>
        <time>2014-05-01T09:06:18Z</time>
      </trkpt>
      <trkpt lat="45.63847" lon="4.62088">
        <ele>544.9</ele>
        <time>2014-05-01T09:06:23Z</time>
      </trkpt>
      <trkpt lat="45.63857" lon="4.62075">
        <ele>544.3</ele>
        <time>2014-05-01T09:06:28Z</time>
      </trkpt>
      <trkpt lat="45.63868" lon="4.6206">
        <ele>545</ele>
        <time>2014-05-01T09:06:33Z</time>
      </trkpt>
      <trkpt lat="45.63875" lon="4.62043">
        <ele>545.4</ele>
        <time>2014-05-01T09:06:38Z</time>
      </trkpt>
      <trkpt lat="45.63885" lon="4.62025">
        <ele>546.4</ele>
        <time>2014-05-01T09:06:43Z</time>
      </trkpt>
      <trkpt lat="45.63893" lon="4.62007">
        <ele>547.1</ele>
        <time>2014-05-01T09:06:48Z</time>
      </trkpt>
      <trkpt lat="45.63897" lon="4.61983">
        <ele>544.3</ele>
        <time>2014-05-01T09:06:53Z</time>
      </trkpt>
      <trkpt lat="45.63893" lon="4.61963">
        <ele>545.8</ele>
        <time>2014-05-01T09:06:58Z</time>
      </trkpt>
      <trkpt lat="45.63888" lon="4.61943">
        <ele>547</ele>
        <time>2014-05-01T09:07:03Z</time>
      </trkpt>
      <trkpt lat="45.63882" lon="4.61925">
        <ele>547</ele>
        <time>2014-05-01T09:07:08Z</time>
      </trkpt>
      <trkpt lat="45.63875" lon="4.61913">
        <ele>546.3</ele>
        <time>2014-05-01T09:07:13Z</time>
      </trkpt>
      <trkpt lat="45.63868" lon="4.61902">
        <ele>548.8</ele>
        <time>2014-05-01T09:07:18Z</time>
      </trkpt>
      <trkpt lat="45.63865" lon="4.61888">
        <ele>550.2</ele>
        <time>2014-05-01T09:07:23Z</time>
      </trkpt>
      <trkpt lat="45.63863" lon="4.61875">
        <ele>552</ele>
        <time>2014-05-01T09:07:28Z</time>
      </trkpt>
      <trkpt lat="45.63865" lon="4.61862">
        <ele>552</ele>
        <time>2014-05-01T09:07:33Z</time>
      </trkpt>
      <trkpt lat="45.63868" lon="4.61847">
        <ele>552.8</ele>
        <time>2014-05-01T09:07:38Z</time>
      </trkpt>
      <trkpt lat="45.63872" lon="4.61828">
        <ele>553.6</ele>
        <time>2014-05-01T09:07:43Z</time>
      </trkpt>
      <trkpt lat="45.63877" lon="4.61802">
        <ele>552.9</ele>
        <time>2014-05-01T09:07:48Z</time>
      </trkpt>
      <trkpt lat="45.63883" lon="4.61772">
        <ele>552</ele>
        <time>2014-05-01T09:07:53Z</time>
      </trkpt>
      <trkpt lat="45.6389" lon="4.6174">
        <ele>553.7</ele>
        <time>2014-05-01T09:07:58Z</time>
      </trkpt>
      <trkpt lat="45.63895" lon="4.6171">
        <ele>550.8</ele>
        <time>2014-05-01T09:08:03Z</time>
      </trkpt>
      <trkpt lat="45.63897" lon="4.61678">
        <ele>552.2</ele>
        <time>2014-05-01T09:08:08Z</time>
      </trkpt>
      <trkpt lat="45.63902" lon="4.61652">
        <ele>549.9</ele>
        <time>2014-05-01T09:08:13Z</time>
      </trkpt>
      <trkpt lat="45.63908" lon="4.61632">
        <ele>553.1</ele>
        <time>2014-05-01T09:08:18Z</time>
      </trkpt>
      <trkpt lat="45.63905" lon="4.61598">
        <ele>551.1</ele>
        <time>2014-05-01T09:08:23Z</time>
      </trkpt>
      <trkpt lat="45.63893" lon="4.61558">
        <ele>549.9</ele>
        <time>2014-05-01T09:08:28Z</time>
      </trkpt>
      <trkpt lat="45.63885" lon="4.61517">
        <ele>547</ele>
        <time>2014-05-01T09:08:33Z</time>
      </trkpt>
      <trkpt lat="45.63873" lon="4.61502">
        <ele>546.9</ele>
        <time>2014-05-01T09:08:38Z</time>
      </trkpt>
      <trkpt lat="45.6385" lon="4.61522">
        <ele>544.6</ele>
        <time>2014-05-01T09:08:43Z</time>
      </trkpt>
      <trkpt lat="45.63823" lon="4.61555">
        <ele>542.5</ele>
        <time>2014-05-01T09:08:48Z</time>
      </trkpt>
      <trkpt lat="45.63795" lon="4.61595">
        <ele>538.4</ele>
        <time>2014-05-01T09:08:53Z</time>
      </trkpt>
      <trkpt lat="45.63775" lon="4.61552">
        <ele>528.9</ele>
        <time>2014-05-01T09:08:58Z</time>
      </trkpt>
      <trkpt lat="45.63757" lon="4.61493">
        <ele>519.8</ele>
        <time>2014-05-01T09:09:03Z</time>
      </trkpt>
      <trkpt lat="45.63712" lon="4.61475">
        <ele>514.9</ele>
        <time>2014-05-01T09:09:08Z</time>
      </trkpt>
      <trkpt lat="45.63665" lon="4.61498">
        <ele>512.5</ele>
        <time>2014-05-01T09:09:13Z</time>
      </trkpt>
      <trkpt lat="45.6363" lon="4.61503">
        <ele>508</ele>
        <time>2014-05-01T09:09:18Z</time>
      </trkpt>
      <trkpt lat="45.63618" lon="4.61478">
        <ele>509.1</ele>
        <time>2014-05-01T09:09:23Z</time>
      </trkpt>
      <trkpt lat="45.63592" lon="4.61458">
        <ele>508.7</ele>
        <time>2014-05-01T09:09:28Z</time>
      </trkpt>
      <trkpt lat="45.63553" lon="4.6146">
        <ele>502.1</ele>
        <time>2014-05-01T09:09:33Z</time>
      </trkpt>
      <trkpt lat="45.63528" lon="4.61477">
        <ele>503.5</ele>
        <time>2014-05-01T09:09:38Z</time>
      </trkpt>
      <trkpt lat="45.63518" lon="4.61497">
        <ele>507.4</ele>
        <time>2014-05-01T09:09:43Z</time>
      </trkpt>
      <trkpt lat="45.63512" lon="4.61517">
        <ele>506.2</ele>
        <time>2014-05-01T09:09:48Z</time>
      </trkpt>
      <trkpt lat="45.63503" lon="4.61532">
        <ele>509.1</ele>
        <time>2014-05-01T09:09:53Z</time>
      </trkpt>
      <trkpt lat="45.63498" lon="4.61543">
        <ele>509.4</ele>
        <time>2014-05-01T09:09:58Z</time>
      </trkpt>
      <trkpt lat="45.63493" lon="4.61557">
        <ele>510.4</ele>
        <time>2014-05-01T09:10:03Z</time>
      </trkpt>
      <trkpt lat="45.63485" lon="4.6157">
        <ele>512.5</ele>
        <time>2014-05-01T09:10:08Z</time>
      </trkpt>
      <trkpt lat="45.63477" lon="4.6158">
        <ele>512.3</ele>
        <time>2014-05-01T09:10:13Z</time>
      </trkpt>
      <trkpt lat="45.63467" lon="4.61585">
        <ele>513.6</ele>
        <time>2014-05-01T09:10:18Z</time>
      </trkpt>
      <trkpt lat="45.63455" lon="4.6159">
        <ele>513.6</ele>
        <time>2014-05-01T09:10:23Z</time>
      </trkpt>
      <trkpt lat="45.63443" lon="4.61592">
        <ele>515.3</ele>
        <time>2014-05-01T09:10:28Z</time>
      </trkpt>
      <trkpt lat="45.63433" lon="4.6159">
        <ele>516.4</ele>
        <time>2014-05-01T09:10:33Z</time>
      </trkpt>
      <trkpt lat="45.63423" lon="4.61588">
        <ele>517.6</ele>
        <time>2014-05-01T09:10:38Z</time>
      </trkpt>
      <trkpt lat="45.63413" lon="4.61585">
        <ele>518.7</ele>
        <time>2014-05-01T09:10:43Z</time>
      </trkpt>
      <trkpt lat="45.63405" lon="4.6158">
        <ele>518.9</ele>
        <time>2014-05-01T09:10:48Z</time>
      </trkpt>
      <trkpt lat="45.63397" lon="4.61573">
        <ele>521.2</ele>
        <time>2014-05-01T09:10:53Z</time>
      </trkpt>
      <trkpt lat="45.63388" lon="4.61567">
        <ele>521.6</ele>
        <time>2014-05-01T09:10:58Z</time>
      </trkpt>
      <trkpt lat="45.6338" lon="4.61558">
        <ele>522</ele>
        <time>2014-05-01T09:11:03Z</time>
      </trkpt>
      <trkpt lat="45.6337" lon="4.6155">
        <ele>522.4</ele>
        <time>2014-05-01T09:11:08Z</time>
      </trkpt>
      <trkpt lat="45.63353" lon="4.61538">
        <ele>521.1</ele>
        <time>2014-05-01T09:11:13Z</time>
      </trkpt>
      <trkpt lat="45.63325" lon="4.61512">
        <ele>519.3</ele>
        <time>2014-05-01T09:11:18Z</time>
      </trkpt>
      <trkpt lat="45.63287" lon="4.6151">
        <ele>512.9</ele>
        <time>2014-05-01T09:11:23Z</time>
      </trkpt>
      <trkpt lat="45.63253" lon="4.61553">
        <ele>512.4</ele>
        <time>2014-05-01T09:11:28Z</time>
      </trkpt>
      <trkpt lat="45.63222" lon="4.61607">
        <ele>509.9</ele>
        <time>2014-05-01T09:11:33Z</time>
      </trkpt>
      <trkpt lat="45.63187" lon="4.61657">
        <ele>499.5</ele>
        <time>2014-05-01T09:11:38Z</time>
      </trkpt>
      <trkpt lat="45.63153" lon="4.61672">
        <ele>496.9</ele>
        <time>2014-05-01T09:11:43Z</time>
      </trkpt>
      <trkpt lat="45.6315" lon="4.6173">
        <ele>490.8</ele>
        <time>2014-05-01T09:11:48Z</time>
      </trkpt>
      <trkpt lat="45.63157" lon="4.6178">
        <ele>484.3</ele>
        <time>2014-05-01T09:11:53Z</time>
      </trkpt>
      <trkpt lat="45.63142" lon="4.61777">
        <ele>481.7</ele>
        <time>2014-05-01T09:11:58Z</time>
      </trkpt>
      <trkpt lat="45.63132" lon="4.61752">
        <ele>482.9</ele>
        <time>2014-05-01T09:12:03Z</time>
      </trkpt>
      <trkpt lat="45.6312" lon="4.61727">
        <ele>483.7</ele>
        <time>2014-05-01T09:12:08Z</time>
      </trkpt>
      <trkpt lat="45.63098" lon="4.61695">
        <ele>479.9</ele>
        <time>2014-05-01T09:12:13Z</time>
      </trkpt>
      <trkpt lat="45.63072" lon="4.61665">
        <ele>479.4</ele>
        <time>2014-05-01T09:12:18Z</time>
      </trkpt>
      <trkpt lat="45.63038" lon="4.61658">
        <ele>476.2</ele>
        <time>2014-05-01T09:12:23Z</time>
      </trkpt>
      <trkpt lat="45.63012" lon="4.61673">
        <ele>477.5</ele>
        <time>2014-05-01T09:12:28Z</time>
      </trkpt>
      <trkpt lat="45.62998" lon="4.61695">
        <ele>476.7</ele>
        <time>2014-05-01T09:12:33Z</time>
      </trkpt>
      <trkpt lat="45.62992" lon="4.61715">
        <ele>478.4</ele>
        <time>2014-05-01T09:12:38Z</time>
      </trkpt>
      <trkpt lat="45.62983" lon="4.6174">
        <ele>478.4</ele>
        <time>2014-05-01T09:12:43Z</time>
      </trkpt>
      <trkpt lat="45.62972" lon="4.61763">
        <ele>479</ele>
        <time>2014-05-01T09:12:48Z</time>
      </trkpt>
      <trkpt lat="45.62965" lon="4.61787">
        <ele>478.5</ele>
        <time>2014-05-01T09:12:53Z</time>
      </trkpt>
      <trkpt lat="45.62958" lon="4.6181">
        <ele>479.4</ele>
        <time>2014-05-01T09:12:58Z</time>
      </trkpt>
      <trkpt lat="45.62948" lon="4.61828">
        <ele>481</ele>
        <time>2014-05-01T09:13:03Z</time>
      </trkpt>
      <trkpt lat="45.6294" lon="4.61847">
        <ele>481.7</ele>
        <time>2014-05-01T09:13:08Z</time>
      </trkpt>
      <trkpt lat="45.6293" lon="4.61863">
        <ele>482.9</ele>
        <time>2014-05-01T09:13:13Z</time>
      </trkpt>
      <trkpt lat="45.6292" lon="4.61877">
        <ele>483.4</ele>
        <time>2014-05-01T09:13:18Z</time>
      </trkpt>
      <trkpt lat="45.6291" lon="4.61897">
        <ele>484.5</ele>
        <time>2014-05-01T09:13:23Z</time>
      </trkpt>
      <trkpt lat="45.62898" lon="4.61917">
        <ele>485.5</ele>
        <time>2014-05-01T09:13:28Z</time>
      </trkpt>
      <trkpt lat="45.62892" lon="4.61932">
        <ele>485.9</ele>
        <time>2014-05-01T09:13:33Z</time>
      </trkpt>
      <trkpt lat="45.62885" lon="4.61945">
        <ele>486.7</ele>
        <time>2014-05-01T09:13:38Z</time>
      </trkpt>
      <trkpt lat="45.62877" lon="4.61955">
        <ele>487.7</ele>
        <time>2014-05-01T09:13:43Z</time>
      </trkpt>
      <trkpt lat="45.62868" lon="4.6196">
        <ele>489</ele>
        <time>2014-05-01T09:13:48Z</time>
      </trkpt>
      <trkpt lat="45.62862" lon="4.61965">
        <ele>490.2</ele>
        <time>2014-05-01T09:13:53Z</time>
      </trkpt>
      <trkpt lat="45.62855" lon="4.6197">
        <ele>491.9</ele>
        <time>2014-05-01T09:13:58Z</time>
      </trkpt>
      <trkpt lat="45.62848" lon="4.61972">
        <ele>493.1</ele>
        <time>2014-05-01T09:14:03Z</time>
      </trkpt>
      <trkpt lat="45.62842" lon="4.61975">
        <ele>494.6</ele>
        <time>2014-05-01T09:14:08Z</time>
      </trkpt>
      <trkpt lat="45.62835" lon="4.61978">
        <ele>495.9</ele>
        <time>2014-05-01T09:14:13Z</time>
      </trkpt>
      <trkpt lat="45.62828" lon="4.61978">
        <ele>496.3</ele>
        <time>2014-05-01T09:14:18Z</time>
      </trkpt>
      <trkpt lat="45.6282" lon="4.61975">
        <ele>499</ele>
        <time>2014-05-01T09:14:23Z</time>
      </trkpt>
      <trkpt lat="45.62815" lon="4.61972">
        <ele>499.7</ele>
        <time>2014-05-01T09:14:28Z</time>
      </trkpt>
      <trkpt lat="45.62808" lon="4.61967">
        <ele>502.9</ele>
        <time>2014-05-01T09:14:33Z</time>
      </trkpt>
      <trkpt lat="45.62802" lon="4.61963">
        <ele>503.8</ele>
        <time>2014-05-01T09:14:38Z</time>
      </trkpt>
      <trkpt lat="45.62795" lon="4.61958">
        <ele>504</ele>
        <time>2014-05-01T09:14:43Z</time>
      </trkpt>
      <trkpt lat="45.6279" lon="4.61955">
        <ele>506.9</ele>
        <time>2014-05-01T09:14:48Z</time>
      </trkpt>
      <trkpt lat="45.62783" lon="4.61952">
        <ele>508</ele>
        <time>2014-05-01T09:14:53Z</time>
      </trkpt>
      <trkpt lat="45.62778" lon="4.61947">
        <ele>509.8</ele>
        <time>2014-05-01T09:14:58Z</time>
      </trkpt>
      <trkpt lat="45.62772" lon="4.61943">
        <ele>510.2</ele>
        <time>2014-05-01T09:15:03Z</time>
      </trkpt>
      <trkpt lat="45.62765" lon="4.61938">
        <ele>511.9</ele>
        <time>2014-05-01T09:15:08Z</time>
      </trkpt>
      <trkpt lat="45.6276" lon="4.61932">
        <ele>513</ele>
        <time>2014-05-01T09:15:13Z</time>
      </trkpt>
      <trkpt lat="45.62753" lon="4.61925">
        <ele>513.8</ele>
        <time>2014-05-01T09:15:18Z</time>
      </trkpt>
      <trkpt lat="45.62748" lon="4.61918">
        <ele>514.4</ele>
        <time>2014-05-01T09:15:23Z</time>
      </trkpt>
      <trkpt lat="45.62742" lon="4.61913">
        <ele>515.6</ele>
        <time>2014-05-01T09:15:28Z</time>
      </trkpt>
      <trkpt lat="45.62735" lon="4.61905">
        <ele>517</ele>
        <time>2014-05-01T09:15:33Z</time>
      </trkpt>
      <trkpt lat="45.62728" lon="4.61898">
        <ele>517.7</ele>
        <time>2014-05-01T09:15:38Z</time>
      </trkpt>
      <trkpt lat="45.62722" lon="4.61892">
        <ele>518.1</ele>
        <time>2014-05-01T09:15:43Z</time>
      </trkpt>
      <trkpt lat="45.62718" lon="4.61882">
        <ele>519</ele>
        <time>2014-05-01T09:15:48Z</time>
      </trkpt>
      <trkpt lat="45.62715" lon="4.6187">
        <ele>520</ele>
        <time>2014-05-01T09:15:53Z</time>
      </trkpt>
      <trkpt lat="45.6271" lon="4.61862">
        <ele>521.2</ele>
        <time>2014-05-01T09:15:58Z</time>
      </trkpt>
      <trkpt lat="45.62708" lon="4.6185">
        <ele>522.1</ele>
        <time>2014-05-01T09:16:03Z</time>
      </trkpt>
      <trkpt lat="45.62703" lon="4.6184">
        <ele>522.9</ele>
        <time>2014-05-01T09:16:08Z</time>
      </trkpt>
      <trkpt lat="45.627" lon="4.61832">
        <ele>523.8</ele>
        <time>2014-05-01T09:16:13Z</time>
      </trkpt>
      <trkpt lat="45.62697" lon="4.6182">
        <ele>524.2</ele>
        <time>2014-05-01T09:16:18Z</time>
      </trkpt>
      <trkpt lat="45.62692" lon="4.61808">
        <ele>524.9</ele>
        <time>2014-05-01T09:16:23Z</time>
      </trkpt>
      <trkpt lat="45.62688" lon="4.61797">
        <ele>525</ele>
        <time>2014-05-01T09:16:28Z</time>
      </trkpt>
      <trkpt lat="45.62687" lon="4.61785">
        <ele>526.1</ele>
        <time>2014-05-01T09:16:33Z</time>
      </trkpt>
      <trkpt lat="45.62683" lon="4.61773">
        <ele>527</ele>
        <time>2014-05-01T09:16:38Z</time>
      </trkpt>
      <trkpt lat="45.6268" lon="4.61758">
        <ele>527.4</ele>
        <time>2014-05-01T09:16:43Z</time>
      </trkpt>
      <trkpt lat="45.62673" lon="4.61742">
        <ele>527.6</ele>
        <time>2014-05-01T09:16:48Z</time>
      </trkpt>
      <trkpt lat="45.62667" lon="4.61723">
        <ele>527.4</ele>
        <time>2014-05-01T09:16:53Z</time>
      </trkpt>
      <trkpt lat="45.62658" lon="4.61707">
        <ele>527.1</ele>
        <time>2014-05-01T09:16:58Z</time>
      </trkpt>
      <trkpt lat="45.6265" lon="4.6169">
        <ele>526.1</ele>
        <time>2014-05-01T09:17:03Z</time>
      </trkpt>
      <trkpt lat="45.62638" lon="4.61668">
        <ele>527.3</ele>
        <time>2014-05-01T09:17:08Z</time>
      </trkpt>
      <trkpt lat="45.62637" lon="4.61638">
        <ele>525.3</ele>
        <time>2014-05-01T09:17:13Z</time>
      </trkpt>
      <trkpt lat="45.62637" lon="4.61623">
        <ele>527.4</ele>
        <time>2014-05-01T09:17:18Z</time>
      </trkpt>
      <trkpt lat="45.62637" lon="4.61608">
        <ele>528.2</ele>
        <time>2014-05-01T09:17:23Z</time>
      </trkpt>
      <trkpt lat="45.62633" lon="4.61597">
        <ele>530.3</ele>
        <time>2014-05-01T09:17:28Z</time>
      </trkpt>
      <trkpt lat="45.62627" lon="4.61587">
        <ele>530.1</ele>
        <time>2014-05-01T09:17:33Z</time>
      </trkpt>
      <trkpt lat="45.62625" lon="4.61578">
        <ele>531.5</ele>
        <time>2014-05-01T09:17:38Z</time>
      </trkpt>
      <trkpt lat="45.62627" lon="4.6157">
        <ele>532.9</ele>
        <time>2014-05-01T09:17:43Z</time>
      </trkpt>
      <trkpt lat="45.62632" lon="4.61562">
        <ele>534.6</ele>
        <time>2014-05-01T09:17:48Z</time>
      </trkpt>
      <trkpt lat="45.6264" lon="4.61565">
        <ele>534.6</ele>
        <time>2014-05-01T09:17:53Z</time>
      </trkpt>
      <trkpt lat="45.62648" lon="4.61567">
        <ele>537.4</ele>
        <time>2014-05-01T09:17:58Z</time>
      </trkpt>
      <trkpt lat="45.62655" lon="4.61572">
        <ele>538.8</ele>
        <time>2014-05-01T09:18:03Z</time>
      </trkpt>
      <trkpt lat="45.62663" lon="4.61575">
        <ele>540.2</ele>
        <time>2014-05-01T09:18:08Z</time>
      </trkpt>
      <trkpt lat="45.6267" lon="4.6158">
        <ele>541.2</ele>
        <time>2014-05-01T09:18:13Z</time>
      </trkpt>
      <trkpt lat="45.62677" lon="4.61583">
        <ele>541.5</ele>
        <time>2014-05-01T09:18:18Z</time>
      </trkpt>
      <trkpt lat="45.62685" lon="4.61587">
        <ele>543</ele>
        <time>2014-05-01T09:18:23Z</time>
      </trkpt>
      <trkpt lat="45.62692" lon="4.61592">
        <ele>543.5</ele>
        <time>2014-05-01T09:18:28Z</time>
      </trkpt>
      <trkpt lat="45.62698" lon="4.61595">
        <ele>544.8</ele>
        <time>2014-05-01T09:18:33Z</time>
      </trkpt>
      <trkpt lat="45.62707" lon="4.61598">
        <ele>545.2</ele>
        <time>2014-05-01T09:18:38Z</time>
      </trkpt>
      <trkpt lat="45.62715" lon="4.616">
        <ele>547</ele>
        <time>2014-05-01T09:18:43Z</time>
      </trkpt>
      <trkpt lat="45.62723" lon="4.61603">
        <ele>547.8</ele>
        <time>2014-05-01T09:18:48Z</time>
      </trkpt>
      <trkpt lat="45.62733" lon="4.61603">
        <ele>548.3</ele>
        <time>2014-05-01T09:18:53Z</time>
      </trkpt>
      <trkpt lat="45.62742" lon="4.61602">
        <ele>549.3</ele>
        <time>2014-05-01T09:18:58Z</time>
      </trkpt>
      <trkpt lat="45.6275" lon="4.61598">
        <ele>550.8</ele>
        <time>2014-05-01T09:19:03Z</time>
      </trkpt>
      <trkpt lat="45.62758" lon="4.61593">
        <ele>551.6</ele>
        <time>2014-05-01T09:19:08Z</time>
      </trkpt>
      <trkpt lat="45.62765" lon="4.61587">
        <ele>551.9</ele>
        <time>2014-05-01T09:19:13Z</time>
      </trkpt>
      <trkpt lat="45.62773" lon="4.6158">
        <ele>552.8</ele>
        <time>2014-05-01T09:19:18Z</time>
      </trkpt>
      <trkpt lat="45.62782" lon="4.61572">
        <ele>553</ele>
        <time>2014-05-01T09:19:23Z</time>
      </trkpt>
      <trkpt lat="45.62787" lon="4.61558">
        <ele>554</ele>
        <time>2014-05-01T09:19:28Z</time>
      </trkpt>
      <trkpt lat="45.6279" lon="4.61547">
        <ele>554.6</ele>
        <time>2014-05-01T09:19:33Z</time>
      </trkpt>
      <trkpt lat="45.62792" lon="4.61535">
        <ele>555.3</ele>
        <time>2014-05-01T09:19:38Z</time>
      </trkpt>
      <trkpt lat="45.62795" lon="4.61522">
        <ele>556.3</ele>
        <time>2014-05-01T09:19:43Z</time>
      </trkpt>
      <trkpt lat="45.62798" lon="4.61512">
        <ele>557.2</ele>
        <time>2014-05-01T09:19:48Z</time>
      </trkpt>
      <trkpt lat="45.628" lon="4.615">
        <ele>558.1</ele>
        <time>2014-05-01T09:19:53Z</time>
      </trkpt>
      <trkpt lat="45.62802" lon="4.61492">
        <ele>559.6</ele>
        <time>2014-05-01T09:19:58Z</time>
      </trkpt>
      <trkpt lat="45.62803" lon="4.6148">
        <ele>560.2</ele>
        <time>2014-05-01T09:20:03Z</time>
      </trkpt>
      <trkpt lat="45.62808" lon="4.61468">
        <ele>561.6</ele>
        <time>2014-05-01T09:20:08Z</time>
      </trkpt>
      <trkpt lat="45.62812" lon="4.61458">
        <ele>563.9</ele>
        <time>2014-05-01T09:20:13Z</time>
      </trkpt>
      <trkpt lat="45.62813" lon="4.61448">
        <ele>564.9</ele>
        <time>2014-05-01T09:20:18Z</time>
      </trkpt>
      <trkpt lat="45.62817" lon="4.6144">
        <ele>565.8</ele>
        <time>2014-05-01T09:20:23Z</time>
      </trkpt>
      <trkpt lat="45.6282" lon="4.6143">
        <ele>566.8</ele>
        <time>2014-05-01T09:20:28Z</time>
      </trkpt>
      <trkpt lat="45.62823" lon="4.61422">
        <ele>567.4</ele>
        <time>2014-05-01T09:20:33Z</time>
      </trkpt>
      <trkpt lat="45.62827" lon="4.61413">
        <ele>568.5</ele>
        <time>2014-05-01T09:20:38Z</time>
      </trkpt>
      <trkpt lat="45.62828" lon="4.61403">
        <ele>569.4</ele>
        <time>2014-05-01T09:20:43Z</time>
      </trkpt>
      <trkpt lat="45.62833" lon="4.61395">
        <ele>569.8</ele>
        <time>2014-05-01T09:20:48Z</time>
      </trkpt>
      <trkpt lat="45.62837" lon="4.61387">
        <ele>571</ele>
        <time>2014-05-01T09:20:53Z</time>
      </trkpt>
      <trkpt lat="45.6284" lon="4.61378">
        <ele>571.5</ele>
        <time>2014-05-01T09:20:58Z</time>
      </trkpt>
      <trkpt lat="45.62843" lon="4.61368">
        <ele>573.3</ele>
        <time>2014-05-01T09:21:03Z</time>
      </trkpt>
      <trkpt lat="45.62848" lon="4.61357">
        <ele>573.7</ele>
        <time>2014-05-01T09:21:08Z</time>
      </trkpt>
      <trkpt lat="45.62853" lon="4.61347">
        <ele>574.1</ele>
        <time>2014-05-01T09:21:13Z</time>
      </trkpt>
      <trkpt lat="45.62855" lon="4.61337">
        <ele>574.8</ele>
        <time>2014-05-01T09:21:18Z</time>
      </trkpt>
      <trkpt lat="45.62855" lon="4.61328">
        <ele>576.3</ele>
        <time>2014-05-01T09:21:23Z</time>
      </trkpt>
      <trkpt lat="45.62855" lon="4.61317">
        <ele>577.6</ele>
        <time>2014-05-01T09:21:28Z</time>
      </trkpt>
      <trkpt lat="45.62855" lon="4.61307">
        <ele>578.4</ele>
        <time>2014-05-01T09:21:33Z</time>
      </trkpt>
      <trkpt lat="45.62855" lon="4.61298">
        <ele>580.1</ele>
        <time>2014-05-01T09:21:38Z</time>
      </trkpt>
      <trkpt lat="45.62855" lon="4.61287">
        <ele>580.1</ele>
        <time>2014-05-01T09:21:43Z</time>
      </trkpt>
      <trkpt lat="45.62855" lon="4.61277">
        <ele>581.1</ele>
        <time>2014-05-01T09:21:48Z</time>
      </trkpt>
      <trkpt lat="45.6286" lon="4.61267">
        <ele>581.7</ele>
        <time>2014-05-01T09:21:53Z</time>
      </trkpt>
      <trkpt lat="45.62865" lon="4.6126">
        <ele>582.5</ele>
        <time>2014-05-01T09:21:58Z</time>
      </trkpt>
      <trkpt lat="45.6287" lon="4.61248">
        <ele>582.9</ele>
        <time>2014-05-01T09:22:03Z</time>
      </trkpt>
      <trkpt lat="45.62873" lon="4.61237">
        <ele>583.7</ele>
        <time>2014-05-01T09:22:08Z</time>
      </trkpt>
      <trkpt lat="45.62878" lon="4.61225">
        <ele>584.8</ele>
        <time>2014-05-01T09:22:13Z</time>
      </trkpt>
      <trkpt lat="45.62883" lon="4.61212">
        <ele>584.4</ele>
        <time>2014-05-01T09:22:18Z</time>
      </trkpt>
      <trkpt lat="45.62887" lon="4.61197">
        <ele>585.6</ele>
        <time>2014-05-01T09:22:23Z</time>
      </trkpt>
      <trkpt lat="45.62888" lon="4.61183">
        <ele>586.8</ele>
        <time>2014-05-01T09:22:28Z</time>
      </trkpt>
      <trkpt lat="45.62893" lon="4.6117">
        <ele>587.7</ele>
        <time>2014-05-01T09:22:33Z</time>
      </trkpt>
      <trkpt lat="45.62898" lon="4.61155">
        <ele>587.7</ele>
        <time>2014-05-01T09:22:38Z</time>
      </trkpt>
      <trkpt lat="45.62905" lon="4.6114">
        <ele>588.6</ele>
        <time>2014-05-01T09:22:43Z</time>
      </trkpt>
      <trkpt lat="45.6291" lon="4.61123">
        <ele>588.6</ele>
        <time>2014-05-01T09:22:48Z</time>
      </trkpt>
      <trkpt lat="45.6292" lon="4.61108">
        <ele>590.5</ele>
        <time>2014-05-01T09:22:53Z</time>
      </trkpt>
      <trkpt lat="45.62928" lon="4.61088">
        <ele>590.5</ele>
        <time>2014-05-01T09:22:58Z</time>
      </trkpt>
      <trkpt lat="45.62932" lon="4.61067">
        <ele>590.1</ele>
        <time>2014-05-01T09:23:03Z</time>
      </trkpt>
      <trkpt lat="45.62935" lon="4.61043">
        <ele>591</ele>
        <time>2014-05-01T09:23:08Z</time>
      </trkpt>
      <trkpt lat="45.6294" lon="4.61022">
        <ele>590.9</ele>
        <time>2014-05-01T09:23:13Z</time>
      </trkpt>
      <trkpt lat="45.62948" lon="4.61">
        <ele>590.6</ele>
        <time>2014-05-01T09:23:18Z</time>
      </trkpt>
      <trkpt lat="45.62952" lon="4.6098">
        <ele>592.4</ele>
        <time>2014-05-01T09:23:23Z</time>
      </trkpt>
      <trkpt lat="45.62955" lon="4.60958">
        <ele>593.3</ele>
        <time>2014-05-01T09:23:28Z</time>
      </trkpt>
      <trkpt lat="45.62958" lon="4.60942">
        <ele>593.7</ele>
        <time>2014-05-01T09:23:33Z</time>
      </trkpt>
      <trkpt lat="45.62962" lon="4.60925">
        <ele>594.6</ele>
        <time>2014-05-01T09:23:38Z</time>
      </trkpt>
      <trkpt lat="45.62962" lon="4.60907">
        <ele>593.6</ele>
        <time>2014-05-01T09:23:43Z</time>
      </trkpt>
      <trkpt lat="45.62962" lon="4.6089">
        <ele>596.4</ele>
        <time>2014-05-01T09:23:48Z</time>
      </trkpt>
      <trkpt lat="45.62965" lon="4.60872">
        <ele>595.9</ele>
        <time>2014-05-01T09:23:53Z</time>
      </trkpt>
      <trkpt lat="45.6297" lon="4.60853">
        <ele>597.1</ele>
        <time>2014-05-01T09:23:58Z</time>
      </trkpt>
      <trkpt lat="45.62975" lon="4.6083">
        <ele>594.6</ele>
        <time>2014-05-01T09:24:03Z</time>
      </trkpt>
      <trkpt lat="45.62988" lon="4.60805">
        <ele>597.2</ele>
        <time>2014-05-01T09:24:08Z</time>
      </trkpt>
      <trkpt lat="45.63007" lon="4.60782">
        <ele>594.6</ele>
        <time>2014-05-01T09:24:13Z</time>
      </trkpt>
      <trkpt lat="45.63025" lon="4.60773">
        <ele>593.4</ele>
        <time>2014-05-01T09:24:18Z</time>
      </trkpt>
      <trkpt lat="45.63043" lon="4.60772">
        <ele>594.4</ele>
        <time>2014-05-01T09:24:23Z</time>
      </trkpt>
      <trkpt lat="45.63062" lon="4.60768">
        <ele>594.1</ele>
        <time>2014-05-01T09:24:28Z</time>
      </trkpt>
      <trkpt lat="45.6308" lon="4.60777">
        <ele>595.9</ele>
        <time>2014-05-01T09:24:33Z</time>
      </trkpt>
      <trkpt lat="45.63093" lon="4.60792">
        <ele>596.7</ele>
        <time>2014-05-01T09:24:38Z</time>
      </trkpt>
      <trkpt lat="45.63107" lon="4.60807">
        <ele>597.1</ele>
        <time>2014-05-01T09:24:43Z</time>
      </trkpt>
      <trkpt lat="45.63118" lon="4.60815">
        <ele>599</ele>
        <time>2014-05-01T09:24:48Z</time>
      </trkpt>
      <trkpt lat="45.63128" lon="4.60823">
        <ele>600.5</ele>
        <time>2014-05-01T09:24:53Z</time>
      </trkpt>
      <trkpt lat="45.63138" lon="4.60833">
        <ele>600.5</ele>
        <time>2014-05-01T09:24:58Z</time>
      </trkpt>
      <trkpt lat="45.63147" lon="4.60842">
        <ele>601.6</ele>
        <time>2014-05-01T09:25:03Z</time>
      </trkpt>
      <trkpt lat="45.63153" lon="4.60848">
        <ele>602.4</ele>
        <time>2014-05-01T09:25:08Z</time>
      </trkpt>
      <trkpt lat="45.6316" lon="4.60853">
        <ele>604</ele>
        <time>2014-05-01T09:25:13Z</time>
      </trkpt>
      <trkpt lat="45.63167" lon="4.60858">
        <ele>604.6</ele>
        <time>2014-05-01T09:25:18Z</time>
      </trkpt>
      <trkpt lat="45.63173" lon="4.60867">
        <ele>606.4</ele>
        <time>2014-05-01T09:25:23Z</time>
      </trkpt>
      <trkpt lat="45.63178" lon="4.60877">
        <ele>607.5</ele>
        <time>2014-05-01T09:25:28Z</time>
      </trkpt>
      <trkpt lat="45.63185" lon="4.60887">
        <ele>608.5</ele>
        <time>2014-05-01T09:25:33Z</time>
      </trkpt>
      <trkpt lat="45.63192" lon="4.60897">
        <ele>607.9</ele>
        <time>2014-05-01T09:25:38Z</time>
      </trkpt>
      <trkpt lat="45.63198" lon="4.60905">
        <ele>610.5</ele>
        <time>2014-05-01T09:25:43Z</time>
      </trkpt>
      <trkpt lat="45.63205" lon="4.60915">
        <ele>611</ele>
        <time>2014-05-01T09:25:48Z</time>
      </trkpt>
      <trkpt lat="45.63213" lon="4.60923">
        <ele>612</ele>
        <time>2014-05-01T09:25:53Z</time>
      </trkpt>
      <trkpt lat="45.6322" lon="4.60933">
        <ele>613.6</ele>
        <time>2014-05-01T09:25:58Z</time>
      </trkpt>
      <trkpt lat="45.63227" lon="4.60942">
        <ele>614.6</ele>
        <time>2014-05-01T09:26:03Z</time>
      </trkpt>
      <trkpt lat="45.63235" lon="4.60952">
        <ele>615</ele>
        <time>2014-05-01T09:26:08Z</time>
      </trkpt>
      <trkpt lat="45.63242" lon="4.60962">
        <ele>615.4</ele>
        <time>2014-05-01T09:26:13Z</time>
      </trkpt>
      <trkpt lat="45.6325" lon="4.60972">
        <ele>617</ele>
        <time>2014-05-01T09:26:18Z</time>
      </trkpt>
      <trkpt lat="45.63257" lon="4.6098">
        <ele>616.8</ele>
        <time>2014-05-01T09:26:23Z</time>
      </trkpt>
      <trkpt lat="45.63265" lon="4.6099">
        <ele>617.7</ele>
        <time>2014-05-01T09:26:28Z</time>
      </trkpt>
      <trkpt lat="45.63273" lon="4.60998">
        <ele>618</ele>
        <time>2014-05-01T09:26:33Z</time>
      </trkpt>
      <trkpt lat="45.6328" lon="4.61008">
        <ele>619.6</ele>
        <time>2014-05-01T09:26:38Z</time>
      </trkpt>
      <trkpt lat="45.63285" lon="4.6102">
        <ele>621.6</ele>
        <time>2014-05-01T09:26:43Z</time>
      </trkpt>
      <trkpt lat="45.63292" lon="4.61032">
        <ele>622</ele>
        <time>2014-05-01T09:26:48Z</time>
      </trkpt>
      <trkpt lat="45.633" lon="4.61042">
        <ele>622.7</ele>
        <time>2014-05-01T09:26:53Z</time>
      </trkpt>
      <trkpt lat="45.63307" lon="4.61052">
        <ele>622.3</ele>
        <time>2014-05-01T09:26:58Z</time>
      </trkpt>
      <trkpt lat="45.63315" lon="4.6106">
        <ele>623.5</ele>
        <time>2014-05-01T09:27:03Z</time>
      </trkpt>
      <trkpt lat="45.63318" lon="4.61053">
        <ele>624</ele>
        <time>2014-05-01T09:27:08Z</time>
      </trkpt>
      <trkpt lat="45.63312" lon="4.61047">
        <ele>624.8</ele>
        <time>2014-05-01T09:27:13Z</time>
      </trkpt>
      <trkpt lat="45.63307" lon="4.61037">
        <ele>625.4</ele>
        <time>2014-05-01T09:27:18Z</time>
      </trkpt>
      <trkpt lat="45.63305" lon="4.61025">
        <ele>627.3</ele>
        <time>2014-05-01T09:27:23Z</time>
      </trkpt>
      <trkpt lat="45.63303" lon="4.61012">
        <ele>628.1</ele>
        <time>2014-05-01T09:27:28Z</time>
      </trkpt>
      <trkpt lat="45.63298" lon="4.61">
        <ele>629</ele>
        <time>2014-05-01T09:27:33Z</time>
      </trkpt>
      <trkpt lat="45.63293" lon="4.60987">
        <ele>630.2</ele>
        <time>2014-05-01T09:27:38Z</time>
      </trkpt>
      <trkpt lat="45.63288" lon="4.60977">
        <ele>631</ele>
        <time>2014-05-01T09:27:43Z</time>
      </trkpt>
      <trkpt lat="45.63285" lon="4.60963">
        <ele>631.4</ele>
        <time>2014-05-01T09:27:48Z</time>
      </trkpt>
      <trkpt lat="45.6328" lon="4.60952">
        <ele>632.5</ele>
        <time>2014-05-01T09:27:53Z</time>
      </trkpt>
      <trkpt lat="45.63275" lon="4.60938">
        <ele>634</ele>
        <time>2014-05-01T09:27:58Z</time>
      </trkpt>
      <trkpt lat="45.6327" lon="4.60927">
        <ele>634.9</ele>
        <time>2014-05-01T09:28:03Z</time>
      </trkpt>
      <trkpt lat="45.63265" lon="4.60913">
        <ele>635.7</ele>
        <time>2014-05-01T09:28:08Z</time>
      </trkpt>
      <trkpt lat="45.6326" lon="4.60902">
        <ele>636.8</ele>
        <time>2014-05-01T09:28:13Z</time>
      </trkpt>
      <trkpt lat="45.63255" lon="4.60892">
        <ele>638</ele>
        <time>2014-05-01T09:28:18Z</time>
      </trkpt>
      <trkpt lat="45.63252" lon="4.6088">
        <ele>639</ele>
        <time>2014-05-01T09:28:23Z</time>
      </trkpt>
      <trkpt lat="45.63248" lon="4.60868">
        <ele>640.1</ele>
        <time>2014-05-01T09:28:28Z</time>
      </trkpt>
      <trkpt lat="45.63245" lon="4.60857">
        <ele>641.2</ele>
        <time>2014-05-01T09:28:33Z</time>
      </trkpt>
      <trkpt lat="45.63243" lon="4.60843">
        <ele>641.9</ele>
        <time>2014-05-01T09:28:38Z</time>
      </trkpt>
      <trkpt lat="45.63238" lon="4.6083">
        <ele>642.5</ele>
        <time>2014-05-01T09:28:43Z</time>
      </trkpt>
      <trkpt lat="45.63233" lon="4.60818">
        <ele>643.8</ele>
        <time>2014-05-01T09:28:48Z</time>
      </trkpt>
      <trkpt lat="45.63228" lon="4.60805">
        <ele>644.3</ele>
        <time>2014-05-01T09:28:53Z</time>
      </trkpt>
      <trkpt lat="45.63222" lon="4.60793">
        <ele>645.6</ele>
        <time>2014-05-01T09:28:58Z</time>
      </trkpt>
      <trkpt lat="45.63217" lon="4.6078">
        <ele>646.3</ele>
        <time>2014-05-01T09:29:03Z</time>
      </trkpt>
      <trkpt lat="45.6321" lon="4.60768">
        <ele>646.9</ele>
        <time>2014-05-01T09:29:08Z</time>
      </trkpt>
      <trkpt lat="45.63205" lon="4.60757">
        <ele>648</ele>
        <time>2014-05-01T09:29:13Z</time>
      </trkpt>
      <trkpt lat="45.63202" lon="4.60743">
        <ele>648.9</ele>
        <time>2014-05-01T09:29:18Z</time>
      </trkpt>
      <trkpt lat="45.63198" lon="4.6073">
        <ele>649.5</ele>
        <time>2014-05-01T09:29:23Z</time>
      </trkpt>
      <trkpt lat="45.63195" lon="4.60718">
        <ele>650.6</ele>
        <time>2014-05-01T09:29:28Z</time>
      </trkpt>
      <trkpt lat="45.63192" lon="4.60707">
        <ele>651.2</ele>
        <time>2014-05-01T09:29:33Z</time>
      </trkpt>
      <trkpt lat="45.6319" lon="4.60697">
        <ele>652</ele>
        <time>2014-05-01T09:29:38Z</time>
      </trkpt>
      <trkpt lat="45.63187" lon="4.60687">
        <ele>652.6</ele>
        <time>2014-05-01T09:29:43Z</time>
      </trkpt>
      <trkpt lat="45.63182" lon="4.60675">
        <ele>653.3</ele>
        <time>2014-05-01T09:29:48Z</time>
      </trkpt>
      <trkpt lat="45.6318" lon="4.60663">
        <ele>654</ele>
        <time>2014-05-01T09:29:53Z</time>
      </trkpt>
      <trkpt lat="45.63178" lon="4.60653">
        <ele>653.6</ele>
        <time>2014-05-01T09:29:58Z</time>
      </trkpt>
      <trkpt lat="45.63177" lon="4.60643">
        <ele>656.7</ele>
        <time>2014-05-01T09:30:03Z</time>
      </trkpt>
      <trkpt lat="45.63175" lon="4.60637">
        <ele>658.5</ele>
        <time>2014-05-01T09:30:08Z</time>
      </trkpt>
      <trkpt lat="45.63173" lon="4.60627">
        <ele>660.4</ele>
        <time>2014-05-01T09:30:13Z</time>
      </trkpt>
      <trkpt lat="45.6317" lon="4.60617">
        <ele>661.2</ele>
        <time>2014-05-01T09:30:18Z</time>
      </trkpt>
      <trkpt lat="45.63167" lon="4.60608">
        <ele>662.4</ele>
        <time>2014-05-01T09:30:23Z</time>
      </trkpt>
      <trkpt lat="45.63163" lon="4.60603">
        <ele>663.2</ele>
        <time>2014-05-01T09:30:28Z</time>
      </trkpt>
      <trkpt lat="45.63158" lon="4.60598">
        <ele>664</ele>
        <time>2014-05-01T09:30:33Z</time>
      </trkpt>
      <trkpt lat="45.63153" lon="4.60593">
        <ele>665.1</ele>
        <time>2014-05-01T09:30:38Z</time>
      </trkpt>
      <trkpt lat="45.63147" lon="4.6059">
        <ele>665.4</ele>
        <time>2014-05-01T09:30:43Z</time>
      </trkpt>
      <trkpt lat="45.63142" lon="4.60582">
        <ele>667.2</ele>
        <time>2014-05-01T09:30:48Z</time>
      </trkpt>
      <trkpt lat="45.63137" lon="4.60577">
        <ele>668.1</ele>
        <time>2014-05-01T09:30:53Z</time>
      </trkpt>
      <trkpt lat="45.63133" lon="4.6057">
        <ele>669.3</ele>
        <time>2014-05-01T09:30:58Z</time>
      </trkpt>
      <trkpt lat="45.6313" lon="4.60563">
        <ele>669.7</ele>
        <time>2014-05-01T09:31:03Z</time>
      </trkpt>
      <trkpt lat="45.63127" lon="4.60557">
        <ele>671.9</ele>
        <time>2014-05-01T09:31:08Z</time>
      </trkpt>
      <trkpt lat="45.63125" lon="4.60548">
        <ele>672.8</ele>
        <time>2014-05-01T09:31:13Z</time>
      </trkpt>
      <trkpt lat="45.6312" lon="4.6054">
        <ele>673.3</ele>
        <time>2014-05-01T09:31:18Z</time>
      </trkpt>
      <trkpt lat="45.63117" lon="4.60533">
        <ele>675.3</ele>
        <time>2014-05-01T09:31:23Z</time>
      </trkpt>
      <trkpt lat="45.63113" lon="4.60523">
        <ele>676.3</ele>
        <time>2014-05-01T09:31:28Z</time>
      </trkpt>
      <trkpt lat="45.6311" lon="4.60515">
        <ele>677.6</ele>
        <time>2014-05-01T09:31:33Z</time>
      </trkpt>
      <trkpt lat="45.63105" lon="4.60508">
        <ele>678.6</ele>
        <time>2014-05-01T09:31:38Z</time>
      </trkpt>
      <trkpt lat="45.63098" lon="4.605">
        <ele>679.1</ele>
        <time>2014-05-01T09:31:43Z</time>
      </trkpt>
      <trkpt lat="45.6309" lon="4.60485">
        <ele>677.7</ele>
        <time>2014-05-01T09:31:48Z</time>
      </trkpt>
      <trkpt lat="45.6308" lon="4.60472">
        <ele>679.1</ele>
        <time>2014-05-01T09:31:53Z</time>
      </trkpt>
      <trkpt lat="45.63073" lon="4.6046">
        <ele>678.5</ele>
        <time>2014-05-01T09:31:58Z</time>
      </trkpt>
      <trkpt lat="45.63063" lon="4.60448">
        <ele>677.4</ele>
        <time>2014-05-01T09:32:03Z</time>
      </trkpt>
      <trkpt lat="45.63052" lon="4.60442">
        <ele>678.3</ele>
        <time>2014-05-01T09:32:08Z</time>
      </trkpt>
      <trkpt lat="45.6303" lon="4.60437">
        <ele>676.7</ele>
        <time>2014-05-01T09:32:13Z</time>
      </trkpt>
      <trkpt lat="45.63013" lon="4.6044">
        <ele>676.7</ele>
        <time>2014-05-01T09:32:18Z</time>
      </trkpt>
      <trkpt lat="45.63003" lon="4.60443">
        <ele>676.1</ele>
        <time>2014-05-01T09:32:23Z</time>
      </trkpt>
      <trkpt lat="45.62997" lon="4.60447">
        <ele>678.2</ele>
        <time>2014-05-01T09:32:28Z</time>
      </trkpt>
      <trkpt lat="45.6299" lon="4.60452">
        <ele>679</ele>
        <time>2014-05-01T09:32:33Z</time>
      </trkpt>
      <trkpt lat="45.62983" lon="4.60455">
        <ele>680.5</ele>
        <time>2014-05-01T09:32:38Z</time>
      </trkpt>
      <trkpt lat="45.62978" lon="4.6046">
        <ele>681.1</ele>
        <time>2014-05-01T09:32:43Z</time>
      </trkpt>
      <trkpt lat="45.62973" lon="4.6047">
        <ele>682.9</ele>
        <time>2014-05-01T09:32:48Z</time>
      </trkpt>
      <trkpt lat="45.62968" lon="4.60478">
        <ele>683.9</ele>
        <time>2014-05-01T09:32:53Z</time>
      </trkpt>
      <trkpt lat="45.62963" lon="4.60487">
        <ele>685.4</ele>
        <time>2014-05-01T09:32:58Z</time>
      </trkpt>
      <trkpt lat="45.62958" lon="4.60495">
        <ele>686</ele>
        <time>2014-05-01T09:33:03Z</time>
      </trkpt>
      <trkpt lat="45.62953" lon="4.60502">
        <ele>688</ele>
        <time>2014-05-01T09:33:08Z</time>
      </trkpt>
      <trkpt lat="45.62948" lon="4.60507">
        <ele>689.1</ele>
        <time>2014-05-01T09:33:13Z</time>
      </trkpt>
      <trkpt lat="45.62943" lon="4.60513">
        <ele>689.6</ele>
        <time>2014-05-01T09:33:18Z</time>
      </trkpt>
      <trkpt lat="45.62937" lon="4.60517">
        <ele>692.3</ele>
        <time>2014-05-01T09:33:23Z</time>
      </trkpt>
      <trkpt lat="45.62933" lon="4.60518">
        <ele>692.9</ele>
        <time>2014-05-01T09:33:28Z</time>
      </trkpt>
      <trkpt lat="45.62927" lon="4.60522">
        <ele>693.5</ele>
        <time>2014-05-01T09:33:33Z</time>
      </trkpt>
      <trkpt lat="45.62922" lon="4.60522">
        <ele>694.4</ele>
        <time>2014-05-01T09:33:38Z</time>
      </trkpt>
      <trkpt lat="45.62915" lon="4.60525">
        <ele>695.7</ele>
        <time>2014-05-01T09:33:43Z</time>
      </trkpt>
      <trkpt lat="45.62908" lon="4.60527">
        <ele>696</ele>
        <time>2014-05-01T09:33:48Z</time>
      </trkpt>
      <trkpt lat="45.62902" lon="4.60528">
        <ele>697.4</ele>
        <time>2014-05-01T09:33:53Z</time>
      </trkpt>
      <trkpt lat="45.62895" lon="4.60532">
        <ele>698.5</ele>
        <time>2014-05-01T09:33:58Z</time>
      </trkpt>
      <trkpt lat="45.6289" lon="4.60533">
        <ele>699.2</ele>
        <time>2014-05-01T09:34:03Z</time>
      </trkpt>
      <trkpt lat="45.62883" lon="4.60538">
        <ele>700</ele>
        <time>2014-05-01T09:34:08Z</time>
      </trkpt>
      <trkpt lat="45.62877" lon="4.60543">
        <ele>701.4</ele>
        <time>2014-05-01T09:34:13Z</time>
      </trkpt>
      <trkpt lat="45.62872" lon="4.60547">
        <ele>702.8</ele>
        <time>2014-05-01T09:34:18Z</time>
      </trkpt>
      <trkpt lat="45.62865" lon="4.60548">
        <ele>703.6</ele>
        <time>2014-05-01T09:34:23Z</time>
      </trkpt>
      <trkpt lat="45.62858" lon="4.60552">
        <ele>704.8</ele>
        <time>2014-05-01T09:34:28Z</time>
      </trkpt>
      <trkpt lat="45.62853" lon="4.60555">
        <ele>706</ele>
        <time>2014-05-01T09:34:33Z</time>
      </trkpt>
      <trkpt lat="45.62847" lon="4.60557">
        <ele>706.7</ele>
        <time>2014-05-01T09:34:38Z</time>
      </trkpt>
      <trkpt lat="45.62842" lon="4.6056">
        <ele>707.8</ele>
        <time>2014-05-01T09:34:43Z</time>
      </trkpt>
      <trkpt lat="45.62835" lon="4.60558">
        <ele>708.3</ele>
        <time>2014-05-01T09:34:48Z</time>
      </trkpt>
      <trkpt lat="45.62828" lon="4.6056">
        <ele>709.6</ele>
        <time>2014-05-01T09:34:53Z</time>
      </trkpt>
      <trkpt lat="45.62822" lon="4.60558">
        <ele>710.9</ele>
        <time>2014-05-01T09:34:58Z</time>
      </trkpt>
      <trkpt lat="45.62818" lon="4.60555">
        <ele>712.7</ele>
        <time>2014-05-01T09:35:03Z</time>
      </trkpt>
      <trkpt lat="45.62813" lon="4.60548">
        <ele>713.8</ele>
        <time>2014-05-01T09:35:08Z</time>
      </trkpt>
      <trkpt lat="45.62807" lon="4.60543">
        <ele>714.8</ele>
        <time>2014-05-01T09:35:13Z</time>
      </trkpt>
      <trkpt lat="45.628" lon="4.60535">
        <ele>716.1</ele>
        <time>2014-05-01T09:35:18Z</time>
      </trkpt>
      <trkpt lat="45.62798" lon="4.6053">
        <ele>717</ele>
        <time>2014-05-01T09:35:23Z</time>
      </trkpt>
      <trkpt lat="45.62798" lon="4.60525">
        <ele>718</ele>
        <time>2014-05-01T09:35:28Z</time>
      </trkpt>
      <trkpt lat="45.628" lon="4.60522">
        <ele>720.1</ele>
        <time>2014-05-01T09:35:33Z</time>
      </trkpt>
      <trkpt lat="45.62808" lon="4.60523">
        <ele>721</ele>
        <time>2014-05-01T09:35:38Z</time>
      </trkpt>
      <trkpt lat="45.62812" lon="4.6052">
        <ele>722.4</ele>
        <time>2014-05-01T09:35:43Z</time>
      </trkpt>
      <trkpt lat="45.62822" lon="4.60518">
        <ele>723</ele>
        <time>2014-05-01T09:35:48Z</time>
      </trkpt>
      <trkpt lat="45.62828" lon="4.60517">
        <ele>723.4</ele>
        <time>2014-05-01T09:35:53Z</time>
      </trkpt>
      <trkpt lat="45.62833" lon="4.60513">
        <ele>724.2</ele>
        <time>2014-05-01T09:35:58Z</time>
      </trkpt>
      <trkpt lat="45.62838" lon="4.60507">
        <ele>724</ele>
        <time>2014-05-01T09:36:03Z</time>
      </trkpt>
      <trkpt lat="45.62845" lon="4.605">
        <ele>725.2</ele>
        <time>2014-05-01T09:36:08Z</time>
      </trkpt>
      <trkpt lat="45.6285" lon="4.60492">
        <ele>725.8</ele>
        <time>2014-05-01T09:36:13Z</time>
      </trkpt>
      <trkpt lat="45.62855" lon="4.60487">
        <ele>727.2</ele>
        <time>2014-05-01T09:36:18Z</time>
      </trkpt>
      <trkpt lat="45.62857" lon="4.60477">
        <ele>727.2</ele>
        <time>2014-05-01T09:36:23Z</time>
      </trkpt>
      <trkpt lat="45.6286" lon="4.60468">
        <ele>729.3</ele>
        <time>2014-05-01T09:36:28Z</time>
      </trkpt>
      <trkpt lat="45.62863" lon="4.6046">
        <ele>730.1</ele>
        <time>2014-05-01T09:36:33Z</time>
      </trkpt>
      <trkpt lat="45.62865" lon="4.6045">
        <ele>730.1</ele>
        <time>2014-05-01T09:36:38Z</time>
      </trkpt>
      <trkpt lat="45.62868" lon="4.60438">
        <ele>731.1</ele>
        <time>2014-05-01T09:36:43Z</time>
      </trkpt>
      <trkpt lat="45.62872" lon="4.6043">
        <ele>732.5</ele>
        <time>2014-05-01T09:36:48Z</time>
      </trkpt>
      <trkpt lat="45.62873" lon="4.6042">
        <ele>732.3</ele>
        <time>2014-05-01T09:36:53Z</time>
      </trkpt>
      <trkpt lat="45.62878" lon="4.6041">
        <ele>733.5</ele>
        <time>2014-05-01T09:36:58Z</time>
      </trkpt>
      <trkpt lat="45.62882" lon="4.604">
        <ele>733.9</ele>
        <time>2014-05-01T09:37:03Z</time>
      </trkpt>
      <trkpt lat="45.62885" lon="4.6039">
        <ele>735.2</ele>
        <time>2014-05-01T09:37:08Z</time>
      </trkpt>
      <trkpt lat="45.62888" lon="4.60382">
        <ele>735.4</ele>
        <time>2014-05-01T09:37:13Z</time>
      </trkpt>
      <trkpt lat="45.6289" lon="4.60372">
        <ele>736.4</ele>
        <time>2014-05-01T09:37:18Z</time>
      </trkpt>
      <trkpt lat="45.62892" lon="4.60362">
        <ele>736.3</ele>
        <time>2014-05-01T09:37:23Z</time>
      </trkpt>
      <trkpt lat="45.62893" lon="4.60353">
        <ele>737.8</ele>
        <time>2014-05-01T09:37:28Z</time>
      </trkpt>
      <trkpt lat="45.62897" lon="4.60345">
        <ele>739.1</ele>
        <time>2014-05-01T09:37:33Z</time>
      </trkpt>
      <trkpt lat="45.629" lon="4.60335">
        <ele>739.6</ele>
        <time>2014-05-01T09:37:38Z</time>
      </trkpt>
      <trkpt lat="45.62903" lon="4.60325">
        <ele>739.3</ele>
        <time>2014-05-01T09:37:43Z</time>
      </trkpt>
      <trkpt lat="45.62908" lon="4.60313">
        <ele>740.1</ele>
        <time>2014-05-01T09:37:48Z</time>
      </trkpt>
      <trkpt lat="45.62913" lon="4.60303">
        <ele>741.1</ele>
        <time>2014-05-01T09:37:53Z</time>
      </trkpt>
      <trkpt lat="45.62918" lon="4.6029">
        <ele>741.8</ele>
        <time>2014-05-01T09:37:58Z</time>
      </trkpt>
      <trkpt lat="45.62923" lon="4.60277">
        <ele>742.2</ele>
        <time>2014-05-01T09:38:03Z</time>
      </trkpt>
      <trkpt lat="45.62928" lon="4.60265">
        <ele>741.7</ele>
        <time>2014-05-01T09:38:08Z</time>
      </trkpt>
      <trkpt lat="45.62935" lon="4.60252">
        <ele>742.5</ele>
        <time>2014-05-01T09:38:13Z</time>
      </trkpt>
      <trkpt lat="45.6294" lon="4.60238">
        <ele>743.4</ele>
        <time>2014-05-01T09:38:18Z</time>
      </trkpt>
      <trkpt lat="45.62947" lon="4.60225">
        <ele>744.1</ele>
        <time>2014-05-01T09:38:23Z</time>
      </trkpt>
      <trkpt lat="45.62957" lon="4.60213">
        <ele>744</ele>
        <time>2014-05-01T09:38:28Z</time>
      </trkpt>
      <trkpt lat="45.62967" lon="4.602">
        <ele>744</ele>
        <time>2014-05-01T09:38:33Z</time>
      </trkpt>
      <trkpt lat="45.62973" lon="4.60188">
        <ele>744.2</ele>
        <time>2014-05-01T09:38:38Z</time>
      </trkpt>
      <trkpt lat="45.62982" lon="4.60177">
        <ele>744.9</ele>
        <time>2014-05-01T09:38:43Z</time>
      </trkpt>
      <trkpt lat="45.6299" lon="4.60167">
        <ele>745.8</ele>
        <time>2014-05-01T09:38:48Z</time>
      </trkpt>
      <trkpt lat="45.62998" lon="4.60158">
        <ele>747.5</ele>
        <time>2014-05-01T09:38:53Z</time>
      </trkpt>
      <trkpt lat="45.6301" lon="4.60155">
        <ele>748.9</ele>
        <time>2014-05-01T09:38:58Z</time>
      </trkpt>
      <trkpt lat="45.63022" lon="4.6015">
        <ele>749.4</ele>
        <time>2014-05-01T09:39:03Z</time>
      </trkpt>
      <trkpt lat="45.63032" lon="4.60145">
        <ele>751</ele>
        <time>2014-05-01T09:39:08Z</time>
      </trkpt>
      <trkpt lat="45.63043" lon="4.60143">
        <ele>751.3</ele>
        <time>2014-05-01T09:39:13Z</time>
      </trkpt>
      <trkpt lat="45.63053" lon="4.60147">
        <ele>751.6</ele>
        <time>2014-05-01T09:39:18Z</time>
      </trkpt>
      <trkpt lat="45.63062" lon="4.60153">
        <ele>752.5</ele>
        <time>2014-05-01T09:39:23Z</time>
      </trkpt>
      <trkpt lat="45.63068" lon="4.60163">
        <ele>752.9</ele>
        <time>2014-05-01T09:39:28Z</time>
      </trkpt>
      <trkpt lat="45.63075" lon="4.60177">
        <ele>753.1</ele>
        <time>2014-05-01T09:39:33Z</time>
      </trkpt>
      <trkpt lat="45.63082" lon="4.60188">
        <ele>753.6</ele>
        <time>2014-05-01T09:39:38Z</time>
      </trkpt>
      <trkpt lat="45.63087" lon="4.602">
        <ele>754.2</ele>
        <time>2014-05-01T09:39:43Z</time>
      </trkpt>
      <trkpt lat="45.63093" lon="4.60213">
        <ele>755.2</ele>
        <time>2014-05-01T09:39:48Z</time>
      </trkpt>
      <trkpt lat="45.631" lon="4.60225">
        <ele>755.8</ele>
        <time>2014-05-01T09:39:53Z</time>
      </trkpt>
      <trkpt lat="45.63107" lon="4.60237">
        <ele>756.7</ele>
        <time>2014-05-01T09:39:58Z</time>
      </trkpt>
      <trkpt lat="45.63113" lon="4.6025">
        <ele>757.8</ele>
        <time>2014-05-01T09:40:03Z</time>
      </trkpt>
      <trkpt lat="45.6312" lon="4.60268">
        <ele>757.2</ele>
        <time>2014-05-01T09:40:08Z</time>
      </trkpt>
      <trkpt lat="45.63133" lon="4.60298">
        <ele>757.9</ele>
        <time>2014-05-01T09:40:13Z</time>
      </trkpt>
      <trkpt lat="45.63152" lon="4.60328">
        <ele>755</ele>
        <time>2014-05-01T09:40:18Z</time>
      </trkpt>
      <trkpt lat="45.63172" lon="4.6035">
        <ele>756.1</ele>
        <time>2014-05-01T09:40:23Z</time>
      </trkpt>
      <trkpt lat="45.63187" lon="4.60372">
        <ele>754.9</ele>
        <time>2014-05-01T09:40:28Z</time>
      </trkpt>
      <trkpt lat="45.632" lon="4.60388">
        <ele>755.3</ele>
        <time>2014-05-01T09:40:33Z</time>
      </trkpt>
      <trkpt lat="45.6321" lon="4.60395">
        <ele>755</ele>
        <time>2014-05-01T09:40:38Z</time>
      </trkpt>
      <trkpt lat="45.63212" lon="4.60395">
        <ele>754.9</ele>
        <time>2014-05-01T09:40:43Z</time>
      </trkpt>
      <trkpt lat="45.63213" lon="4.604">
        <ele>754.8</ele>
        <time>2014-05-01T09:52:03Z</time>
      </trkpt>
      <trkpt lat="45.6322" lon="4.60408">
        <ele>753.7</ele>
        <time>2014-05-01T09:52:08Z</time>
      </trkpt>
      <trkpt lat="45.63232" lon="4.60415">
        <ele>754.2</ele>
        <time>2014-05-01T09:52:13Z</time>
      </trkpt>
      <trkpt lat="45.63255" lon="4.60432">
        <ele>754.2</ele>
        <time>2014-05-01T09:52:18Z</time>
      </trkpt>
      <trkpt lat="45.63287" lon="4.60452">
        <ele>750.5</ele>
        <time>2014-05-01T09:52:23Z</time>
      </trkpt>
      <trkpt lat="45.63303" lon="4.6046">
        <ele>753.7</ele>
        <time>2014-05-01T09:52:28Z</time>
      </trkpt>
      <trkpt lat="45.63313" lon="4.60473">
        <ele>754.7</ele>
        <time>2014-05-01T09:52:33Z</time>
      </trkpt>
      <trkpt lat="45.63328" lon="4.60487">
        <ele>755.4</ele>
        <time>2014-05-01T09:52:38Z</time>
      </trkpt>
      <trkpt lat="45.63342" lon="4.60498">
        <ele>756.2</ele>
        <time>2014-05-01T09:52:43Z</time>
      </trkpt>
      <trkpt lat="45.63357" lon="4.60505">
        <ele>755.2</ele>
        <time>2014-05-01T09:52:48Z</time>
      </trkpt>
      <trkpt lat="45.63375" lon="4.60503">
        <ele>755.2</ele>
        <time>2014-05-01T09:52:53Z</time>
      </trkpt>
      <trkpt lat="45.63395" lon="4.60488">
        <ele>752.1</ele>
        <time>2014-05-01T09:52:58Z</time>
      </trkpt>
      <trkpt lat="45.63413" lon="4.60455">
        <ele>751.3</ele>
        <time>2014-05-01T09:53:03Z</time>
      </trkpt>
      <trkpt lat="45.63445" lon="4.60423">
        <ele>747.6</ele>
        <time>2014-05-01T09:53:08Z</time>
      </trkpt>
      <trkpt lat="45.63482" lon="4.60415">
        <ele>739.3</ele>
        <time>2014-05-01T09:53:13Z</time>
      </trkpt>
      <trkpt lat="45.63517" lon="4.60402">
        <ele>734.3</ele>
        <time>2014-05-01T09:53:18Z</time>
      </trkpt>
      <trkpt lat="45.63543" lon="4.60375">
        <ele>732.9</ele>
        <time>2014-05-01T09:53:23Z</time>
      </trkpt>
      <trkpt lat="45.63563" lon="4.60362">
        <ele>731.2</ele>
        <time>2014-05-01T09:53:28Z</time>
      </trkpt>
      <trkpt lat="45.63583" lon="4.60345">
        <ele>733.2</ele>
        <time>2014-05-01T09:53:33Z</time>
      </trkpt>
      <trkpt lat="45.63602" lon="4.60328">
        <ele>729.6</ele>
        <time>2014-05-01T09:53:38Z</time>
      </trkpt>
      <trkpt lat="45.6362" lon="4.60315">
        <ele>732.5</ele>
        <time>2014-05-01T09:53:43Z</time>
      </trkpt>
      <trkpt lat="45.63637" lon="4.60305">
        <ele>734.5</ele>
        <time>2014-05-01T09:53:48Z</time>
      </trkpt>
      <trkpt lat="45.63652" lon="4.60292">
        <ele>735.8</ele>
        <time>2014-05-01T09:53:53Z</time>
      </trkpt>
      <trkpt lat="45.63665" lon="4.60282">
        <ele>737.6</ele>
        <time>2014-05-01T09:53:58Z</time>
      </trkpt>
      <trkpt lat="45.63683" lon="4.60265">
        <ele>734.5</ele>
        <time>2014-05-01T09:54:03Z</time>
      </trkpt>
      <trkpt lat="45.637" lon="4.60248">
        <ele>736.8</ele>
        <time>2014-05-01T09:54:08Z</time>
      </trkpt>
      <trkpt lat="45.6371" lon="4.60237">
        <ele>736.2</ele>
        <time>2014-05-01T09:54:13Z</time>
      </trkpt>
      <trkpt lat="45.63725" lon="4.60222">
        <ele>736.5</ele>
        <time>2014-05-01T09:54:18Z</time>
      </trkpt>
      <trkpt lat="45.6374" lon="4.60208">
        <ele>737.4</ele>
        <time>2014-05-01T09:54:23Z</time>
      </trkpt>
      <trkpt lat="45.63755" lon="4.60197">
        <ele>738.7</ele>
        <time>2014-05-01T09:54:28Z</time>
      </trkpt>
      <trkpt lat="45.63768" lon="4.60188">
        <ele>740.1</ele>
        <time>2014-05-01T09:54:33Z</time>
      </trkpt>
      <trkpt lat="45.63783" lon="4.60175">
        <ele>737.6</ele>
        <time>2014-05-01T09:54:38Z</time>
      </trkpt>
      <trkpt lat="45.63788" lon="4.6016">
        <ele>736.5</ele>
        <time>2014-05-01T09:54:43Z</time>
      </trkpt>
      <trkpt lat="45.63792" lon="4.60145">
        <ele>736.7</ele>
        <time>2014-05-01T09:54:48Z</time>
      </trkpt>
      <trkpt lat="45.63787" lon="4.60137">
        <ele>737.7</ele>
        <time>2014-05-01T09:54:53Z</time>
      </trkpt>
      <trkpt lat="45.63783" lon="4.60128">
        <ele>739.4</ele>
        <time>2014-05-01T09:54:58Z</time>
      </trkpt>
      <trkpt lat="45.63778" lon="4.6012">
        <ele>740.6</ele>
        <time>2014-05-01T09:55:03Z</time>
      </trkpt>
      <trkpt lat="45.63773" lon="4.6011">
        <ele>742.2</ele>
        <time>2014-05-01T09:55:08Z</time>
      </trkpt>
      <trkpt lat="45.63768" lon="4.60102">
        <ele>744.1</ele>
        <time>2014-05-01T09:55:13Z</time>
      </trkpt>
      <trkpt lat="45.63765" lon="4.60093">
        <ele>744.7</ele>
        <time>2014-05-01T09:55:18Z</time>
      </trkpt>
      <trkpt lat="45.63762" lon="4.60085">
        <ele>745.7</ele>
        <time>2014-05-01T09:55:23Z</time>
      </trkpt>
      <trkpt lat="45.63757" lon="4.60075">
        <ele>747.1</ele>
        <time>2014-05-01T09:55:28Z</time>
      </trkpt>
      <trkpt lat="45.63753" lon="4.60065">
        <ele>746.9</ele>
        <time>2014-05-01T09:55:33Z</time>
      </trkpt>
      <trkpt lat="45.6375" lon="4.60055">
        <ele>748.2</ele>
        <time>2014-05-01T09:55:38Z</time>
      </trkpt>
      <trkpt lat="45.63743" lon="4.60048">
        <ele>749.6</ele>
        <time>2014-05-01T09:55:43Z</time>
      </trkpt>
      <trkpt lat="45.63735" lon="4.60038">
        <ele>749.7</ele>
        <time>2014-05-01T09:55:48Z</time>
      </trkpt>
      <trkpt lat="45.63728" lon="4.6003">
        <ele>751.4</ele>
        <time>2014-05-01T09:55:53Z</time>
      </trkpt>
      <trkpt lat="45.63722" lon="4.60022">
        <ele>753.4</ele>
        <time>2014-05-01T09:55:58Z</time>
      </trkpt>
      <trkpt lat="45.63715" lon="4.60018">
        <ele>753.8</ele>
        <time>2014-05-01T09:56:03Z</time>
      </trkpt>
      <trkpt lat="45.6371" lon="4.60007">
        <ele>755.8</ele>
        <time>2014-05-01T09:56:08Z</time>
      </trkpt>
      <trkpt lat="45.63702" lon="4.59995">
        <ele>756.7</ele>
        <time>2014-05-01T09:56:13Z</time>
      </trkpt>
      <trkpt lat="45.63695" lon="4.59985">
        <ele>756.1</ele>
        <time>2014-05-01T09:56:18Z</time>
      </trkpt>
      <trkpt lat="45.6369" lon="4.59977">
        <ele>757</ele>
        <time>2014-05-01T09:56:23Z</time>
      </trkpt>
      <trkpt lat="45.63685" lon="4.59967">
        <ele>757.1</ele>
        <time>2014-05-01T09:56:28Z</time>
      </trkpt>
      <trkpt lat="45.6368" lon="4.59957">
        <ele>758.4</ele>
        <time>2014-05-01T09:56:33Z</time>
      </trkpt>
      <trkpt lat="45.63673" lon="4.59945">
        <ele>759.7</ele>
        <time>2014-05-01T09:56:38Z</time>
      </trkpt>
      <trkpt lat="45.63665" lon="4.59937">
        <ele>760.8</ele>
        <time>2014-05-01T09:56:43Z</time>
      </trkpt>
      <trkpt lat="45.63657" lon="4.59928">
        <ele>761.6</ele>
        <time>2014-05-01T09:56:48Z</time>
      </trkpt>
      <trkpt lat="45.6365" lon="4.59918">
        <ele>764.9</ele>
        <time>2014-05-01T09:56:53Z</time>
      </trkpt>
      <trkpt lat="45.63645" lon="4.59908">
        <ele>764.1</ele>
        <time>2014-05-01T09:56:58Z</time>
      </trkpt>
      <trkpt lat="45.63638" lon="4.59897">
        <ele>765.9</ele>
        <time>2014-05-01T09:57:03Z</time>
      </trkpt>
      <trkpt lat="45.63633" lon="4.59885">
        <ele>767</ele>
        <time>2014-05-01T09:57:08Z</time>
      </trkpt>
      <trkpt lat="45.63632" lon="4.5987">
        <ele>767.7</ele>
        <time>2014-05-01T09:57:13Z</time>
      </trkpt>
      <trkpt lat="45.63627" lon="4.59855">
        <ele>769</ele>
        <time>2014-05-01T09:57:18Z</time>
      </trkpt>
      <trkpt lat="45.63623" lon="4.59838">
        <ele>769.1</ele>
        <time>2014-05-01T09:57:23Z</time>
      </trkpt>
      <trkpt lat="45.6362" lon="4.59818">
        <ele>770</ele>
        <time>2014-05-01T09:57:28Z</time>
      </trkpt>
      <trkpt lat="45.63617" lon="4.59798">
        <ele>771.1</ele>
        <time>2014-05-01T09:57:33Z</time>
      </trkpt>
      <trkpt lat="45.63613" lon="4.59778">
        <ele>769.7</ele>
        <time>2014-05-01T09:57:38Z</time>
      </trkpt>
      <trkpt lat="45.63612" lon="4.59758">
        <ele>770.7</ele>
        <time>2014-05-01T09:57:43Z</time>
      </trkpt>
      <trkpt lat="45.63608" lon="4.5974">
        <ele>771.8</ele>
        <time>2014-05-01T09:57:48Z</time>
      </trkpt>
      <trkpt lat="45.63607" lon="4.59723">
        <ele>771</ele>
        <time>2014-05-01T09:57:53Z</time>
      </trkpt>
      <trkpt lat="45.63603" lon="4.5971">
        <ele>773.2</ele>
        <time>2014-05-01T09:57:58Z</time>
      </trkpt>
      <trkpt lat="45.63598" lon="4.59697">
        <ele>772.9</ele>
        <time>2014-05-01T09:58:03Z</time>
      </trkpt>
      <trkpt lat="45.6359" lon="4.59687">
        <ele>775.3</ele>
        <time>2014-05-01T09:58:08Z</time>
      </trkpt>
      <trkpt lat="45.6358" lon="4.59678">
        <ele>776.3</ele>
        <time>2014-05-01T09:58:13Z</time>
      </trkpt>
      <trkpt lat="45.63573" lon="4.59665">
        <ele>777.2</ele>
        <time>2014-05-01T09:58:18Z</time>
      </trkpt>
      <trkpt lat="45.63568" lon="4.59647">
        <ele>778</ele>
        <time>2014-05-01T09:58:23Z</time>
      </trkpt>
      <trkpt lat="45.63562" lon="4.59628">
        <ele>778.8</ele>
        <time>2014-05-01T09:58:28Z</time>
      </trkpt>
      <trkpt lat="45.63553" lon="4.5961">
        <ele>778</ele>
        <time>2014-05-01T09:58:33Z</time>
      </trkpt>
      <trkpt lat="45.6354" lon="4.59593">
        <ele>777.3</ele>
        <time>2014-05-01T09:58:38Z</time>
      </trkpt>
      <trkpt lat="45.63527" lon="4.59572">
        <ele>777.2</ele>
        <time>2014-05-01T09:58:43Z</time>
      </trkpt>
      <trkpt lat="45.63522" lon="4.59537">
        <ele>774.6</ele>
        <time>2014-05-01T09:58:48Z</time>
      </trkpt>
      <trkpt lat="45.63517" lon="4.59498">
        <ele>772.7</ele>
        <time>2014-05-01T09:58:53Z</time>
      </trkpt>
      <trkpt lat="45.63508" lon="4.59458">
        <ele>772.2</ele>
        <time>2014-05-01T09:58:58Z</time>
      </trkpt>
      <trkpt lat="45.63508" lon="4.5942">
        <ele>773.1</ele>
        <time>2014-05-01T09:59:03Z</time>
      </trkpt>
      <trkpt lat="45.63515" lon="4.59408">
        <ele>774</ele>
        <time>2014-05-01T09:59:08Z</time>
      </trkpt>
      <trkpt lat="45.63518" lon="4.594">
        <ele>774</ele>
        <time>2014-05-01T09:59:13Z</time>
      </trkpt>
      <trkpt lat="45.63523" lon="4.5939">
        <ele>776.5</ele>
        <time>2014-05-01T09:59:18Z</time>
      </trkpt>
      <trkpt lat="45.63528" lon="4.59382">
        <ele>779.1</ele>
        <time>2014-05-01T09:59:23Z</time>
      </trkpt>
      <trkpt lat="45.63533" lon="4.59373">
        <ele>781.3</ele>
        <time>2014-05-01T09:59:28Z</time>
      </trkpt>
      <trkpt lat="45.63535" lon="4.59365">
        <ele>782.5</ele>
        <time>2014-05-01T09:59:33Z</time>
      </trkpt>
      <trkpt lat="45.6354" lon="4.59355">
        <ele>783.6</ele>
        <time>2014-05-01T09:59:38Z</time>
      </trkpt>
      <trkpt lat="45.63543" lon="4.59347">
        <ele>784.1</ele>
        <time>2014-05-01T09:59:43Z</time>
      </trkpt>
      <trkpt lat="45.63547" lon="4.59337">
        <ele>786.2</ele>
        <time>2014-05-01T09:59:48Z</time>
      </trkpt>
      <trkpt lat="45.63548" lon="4.59327">
        <ele>786.9</ele>
        <time>2014-05-01T09:59:53Z</time>
      </trkpt>
      <trkpt lat="45.63552" lon="4.59318">
        <ele>788.6</ele>
        <time>2014-05-01T09:59:58Z</time>
      </trkpt>
      <trkpt lat="45.63555" lon="4.59308">
        <ele>790.1</ele>
        <time>2014-05-01T10:00:03Z</time>
      </trkpt>
      <trkpt lat="45.63557" lon="4.593">
        <ele>791.5</ele>
        <time>2014-05-01T10:00:08Z</time>
      </trkpt>
      <trkpt lat="45.63558" lon="4.5929">
        <ele>793.3</ele>
        <time>2014-05-01T10:00:13Z</time>
      </trkpt>
      <trkpt lat="45.63562" lon="4.59285">
        <ele>792.4</ele>
        <time>2014-05-01T10:00:18Z</time>
      </trkpt>
      <trkpt lat="45.63565" lon="4.59275">
        <ele>795.3</ele>
        <time>2014-05-01T10:00:23Z</time>
      </trkpt>
      <trkpt lat="45.6357" lon="4.59267">
        <ele>793.9</ele>
        <time>2014-05-01T10:00:28Z</time>
      </trkpt>
      <trkpt lat="45.63577" lon="4.59258">
        <ele>796.7</ele>
        <time>2014-05-01T10:00:33Z</time>
      </trkpt>
      <trkpt lat="45.63583" lon="4.59253">
        <ele>797.4</ele>
        <time>2014-05-01T10:00:38Z</time>
      </trkpt>
      <trkpt lat="45.63588" lon="4.59247">
        <ele>798</ele>
        <time>2014-05-01T10:00:43Z</time>
      </trkpt>
      <trkpt lat="45.63595" lon="4.5924">
        <ele>799.5</ele>
        <time>2014-05-01T10:00:48Z</time>
      </trkpt>
      <trkpt lat="45.636" lon="4.59233">
        <ele>800</ele>
        <time>2014-05-01T10:00:53Z</time>
      </trkpt>
      <trkpt lat="45.63607" lon="4.59227">
        <ele>800</ele>
        <time>2014-05-01T10:00:58Z</time>
      </trkpt>
      <trkpt lat="45.63612" lon="4.5922">
        <ele>800.2</ele>
        <time>2014-05-01T10:01:03Z</time>
      </trkpt>
      <trkpt lat="45.63618" lon="4.59213">
        <ele>800.7</ele>
        <time>2014-05-01T10:01:08Z</time>
      </trkpt>
      <trkpt lat="45.63625" lon="4.59205">
        <ele>801</ele>
        <time>2014-05-01T10:01:13Z</time>
      </trkpt>
      <trkpt lat="45.63632" lon="4.59195">
        <ele>800.5</ele>
        <time>2014-05-01T10:01:18Z</time>
      </trkpt>
      <trkpt lat="45.63637" lon="4.59188">
        <ele>802.5</ele>
        <time>2014-05-01T10:01:23Z</time>
      </trkpt>
      <trkpt lat="45.63645" lon="4.59188">
        <ele>801.9</ele>
        <time>2014-05-01T10:01:28Z</time>
      </trkpt>
      <trkpt lat="45.6365" lon="4.59182">
        <ele>803.4</ele>
        <time>2014-05-01T10:01:33Z</time>
      </trkpt>
      <trkpt lat="45.63655" lon="4.59177">
        <ele>803.8</ele>
        <time>2014-05-01T10:01:38Z</time>
      </trkpt>
      <trkpt lat="45.63662" lon="4.59182">
        <ele>804.7</ele>
        <time>2014-05-01T10:01:43Z</time>
      </trkpt>
      <trkpt lat="45.63667" lon="4.59187">
        <ele>806</ele>
        <time>2014-05-01T10:01:48Z</time>
      </trkpt>
      <trkpt lat="45.63668" lon="4.59195">
        <ele>806</ele>
        <time>2014-05-01T10:01:53Z</time>
      </trkpt>
      <trkpt lat="45.63672" lon="4.59203">
        <ele>809.1</ele>
        <time>2014-05-01T10:01:58Z</time>
      </trkpt>
      <trkpt lat="45.63675" lon="4.5921">
        <ele>810.1</ele>
        <time>2014-05-01T10:02:03Z</time>
      </trkpt>
      <trkpt lat="45.6368" lon="4.59217">
        <ele>811.1</ele>
        <time>2014-05-01T10:02:08Z</time>
      </trkpt>
      <trkpt lat="45.63683" lon="4.59223">
        <ele>812.6</ele>
        <time>2014-05-01T10:02:13Z</time>
      </trkpt>
      <trkpt lat="45.63685" lon="4.59233">
        <ele>814.2</ele>
        <time>2014-05-01T10:02:18Z</time>
      </trkpt>
      <trkpt lat="45.63685" lon="4.59238">
        <ele>815.6</ele>
        <time>2014-05-01T10:02:23Z</time>
      </trkpt>
      <trkpt lat="45.63685" lon="4.5925">
        <ele>817</ele>
        <time>2014-05-01T10:02:28Z</time>
      </trkpt>
      <trkpt lat="45.63687" lon="4.5926">
        <ele>817.9</ele>
        <time>2014-05-01T10:02:33Z</time>
      </trkpt>
      <trkpt lat="45.63688" lon="4.5927">
        <ele>819.7</ele>
        <time>2014-05-01T10:02:38Z</time>
      </trkpt>
      <trkpt lat="45.63692" lon="4.59277">
        <ele>820.3</ele>
        <time>2014-05-01T10:02:43Z</time>
      </trkpt>
      <trkpt lat="45.63695" lon="4.59283">
        <ele>822.4</ele>
        <time>2014-05-01T10:02:48Z</time>
      </trkpt>
      <trkpt lat="45.63698" lon="4.59288">
        <ele>822.7</ele>
        <time>2014-05-01T10:02:53Z</time>
      </trkpt>
      <trkpt lat="45.637" lon="4.59295">
        <ele>825.4</ele>
        <time>2014-05-01T10:02:58Z</time>
      </trkpt>
      <trkpt lat="45.63705" lon="4.59302">
        <ele>825.8</ele>
        <time>2014-05-01T10:03:03Z</time>
      </trkpt>
      <trkpt lat="45.63707" lon="4.59307">
        <ele>826.5</ele>
        <time>2014-05-01T10:03:08Z</time>
      </trkpt>
      <trkpt lat="45.6371" lon="4.59313">
        <ele>829.3</ele>
        <time>2014-05-01T10:03:13Z</time>
      </trkpt>
      <trkpt lat="45.63717" lon="4.5932">
        <ele>830.5</ele>
        <time>2014-05-01T10:03:18Z</time>
      </trkpt>
      <trkpt lat="45.63718" lon="4.59327">
        <ele>832</ele>
        <time>2014-05-01T10:03:23Z</time>
      </trkpt>
      <trkpt lat="45.6372" lon="4.59333">
        <ele>833.7</ele>
        <time>2014-05-01T10:03:28Z</time>
      </trkpt>
      <trkpt lat="45.63723" lon="4.59343">
        <ele>835</ele>
        <time>2014-05-01T10:03:33Z</time>
      </trkpt>
      <trkpt lat="45.63728" lon="4.59352">
        <ele>836.3</ele>
        <time>2014-05-01T10:03:38Z</time>
      </trkpt>
      <trkpt lat="45.63735" lon="4.59358">
        <ele>837.3</ele>
        <time>2014-05-01T10:03:43Z</time>
      </trkpt>
      <trkpt lat="45.6374" lon="4.59363">
        <ele>837.6</ele>
        <time>2014-05-01T10:03:48Z</time>
      </trkpt>
      <trkpt lat="45.63747" lon="4.5937">
        <ele>839.1</ele>
        <time>2014-05-01T10:03:53Z</time>
      </trkpt>
      <trkpt lat="45.6375" lon="4.59377">
        <ele>840.3</ele>
        <time>2014-05-01T10:03:58Z</time>
      </trkpt>
      <trkpt lat="45.63755" lon="4.59383">
        <ele>841.2</ele>
        <time>2014-05-01T10:04:03Z</time>
      </trkpt>
      <trkpt lat="45.63757" lon="4.5939">
        <ele>842.6</ele>
        <time>2014-05-01T10:04:08Z</time>
      </trkpt>
      <trkpt lat="45.63755" lon="4.59397">
        <ele>842.5</ele>
        <time>2014-05-01T10:04:13Z</time>
      </trkpt>
      <trkpt lat="45.63748" lon="4.59398">
        <ele>841.9</ele>
        <time>2014-05-01T10:04:18Z</time>
      </trkpt>
      <trkpt lat="45.63747" lon="4.594">
        <ele>841.9</ele>
        <time>2014-05-01T10:04:23Z</time>
      </trkpt>
      <trkpt lat="45.63743" lon="4.59402">
        <ele>842.4</ele>
        <time>2014-05-01T10:04:28Z</time>
      </trkpt>
      <trkpt lat="45.63742" lon="4.594">
        <ele>841.6</ele>
        <time>2014-05-01T10:04:33Z</time>
      </trkpt>
      <trkpt lat="45.63743" lon="4.594">
        <ele>841.3</ele>
        <time>2014-05-01T10:05:28Z</time>
      </trkpt>
      <trkpt lat="45.63747" lon="4.59398">
        <ele>842.4</ele>
        <time>2014-05-01T10:05:33Z</time>
      </trkpt>
      <trkpt lat="45.63755" lon="4.59402">
        <ele>841.6</ele>
        <time>2014-05-01T10:05:38Z</time>
      </trkpt>
      <trkpt lat="45.63763" lon="4.59403">
        <ele>841.1</ele>
        <time>2014-05-01T10:05:43Z</time>
      </trkpt>
      <trkpt lat="45.63773" lon="4.59413">
        <ele>842.1</ele>
        <time>2014-05-01T10:05:48Z</time>
      </trkpt>
      <trkpt lat="45.6379" lon="4.59432">
        <ele>844.5</ele>
        <time>2014-05-01T10:05:53Z</time>
      </trkpt>
      <trkpt lat="45.63815" lon="4.59457">
        <ele>840.1</ele>
        <time>2014-05-01T10:05:58Z</time>
      </trkpt>
      <trkpt lat="45.63843" lon="4.5946">
        <ele>839.1</ele>
        <time>2014-05-01T10:06:03Z</time>
      </trkpt>
      <trkpt lat="45.63875" lon="4.5946">
        <ele>833.9</ele>
        <time>2014-05-01T10:06:08Z</time>
      </trkpt>
      <trkpt lat="45.63888" lon="4.59458">
        <ele>835.4</ele>
        <time>2014-05-01T10:06:13Z</time>
      </trkpt>
      <trkpt lat="45.63898" lon="4.59443">
        <ele>837</ele>
        <time>2014-05-01T10:06:18Z</time>
      </trkpt>
      <trkpt lat="45.63907" lon="4.59433">
        <ele>838.6</ele>
        <time>2014-05-01T10:06:23Z</time>
      </trkpt>
      <trkpt lat="45.6391" lon="4.5942">
        <ele>837.4</ele>
        <time>2014-05-01T10:06:28Z</time>
      </trkpt>
      <trkpt lat="45.63923" lon="4.5943">
        <ele>840.4</ele>
        <time>2014-05-01T10:06:33Z</time>
      </trkpt>
      <trkpt lat="45.63938" lon="4.59428">
        <ele>837</ele>
        <time>2014-05-01T10:06:38Z</time>
      </trkpt>
      <trkpt lat="45.63943" lon="4.59402">
        <ele>834.1</ele>
        <time>2014-05-01T10:06:43Z</time>
      </trkpt>
      <trkpt lat="45.63955" lon="4.59373">
        <ele>831.2</ele>
        <time>2014-05-01T10:06:48Z</time>
      </trkpt>
      <trkpt lat="45.63963" lon="4.59342">
        <ele>828.4</ele>
        <time>2014-05-01T10:06:53Z</time>
      </trkpt>
      <trkpt lat="45.63962" lon="4.59338">
        <ele>828.9</ele>
        <time>2014-05-01T10:06:58Z</time>
      </trkpt>
      <trkpt lat="45.63967" lon="4.5932">
        <ele>828.9</ele>
        <time>2014-05-01T10:07:03Z</time>
      </trkpt>
      <trkpt lat="45.6396" lon="4.59282">
        <ele>826.8</ele>
        <time>2014-05-01T10:07:08Z</time>
      </trkpt>
      <trkpt lat="45.63947" lon="4.59235">
        <ele>824</ele>
        <time>2014-05-01T10:07:13Z</time>
      </trkpt>
      <trkpt lat="45.63942" lon="4.59195">
        <ele>817.6</ele>
        <time>2014-05-01T10:07:18Z</time>
      </trkpt>
      <trkpt lat="45.63952" lon="4.5917">
        <ele>817.2</ele>
        <time>2014-05-01T10:07:23Z</time>
      </trkpt>
      <trkpt lat="45.63972" lon="4.59138">
        <ele>815.1</ele>
        <time>2014-05-01T10:07:28Z</time>
      </trkpt>
      <trkpt lat="45.63988" lon="4.59092">
        <ele>806.7</ele>
        <time>2014-05-01T10:07:33Z</time>
      </trkpt>
      <trkpt lat="45.64015" lon="4.59048">
        <ele>808.4</ele>
        <time>2014-05-01T10:07:38Z</time>
      </trkpt>
      <trkpt lat="45.64028" lon="4.59">
        <ele>801.3</ele>
        <time>2014-05-01T10:07:43Z</time>
      </trkpt>
      <trkpt lat="45.64033" lon="4.58935">
        <ele>800.3</ele>
        <time>2014-05-01T10:07:48Z</time>
      </trkpt>
      <trkpt lat="45.64042" lon="4.58882">
        <ele>797.9</ele>
        <time>2014-05-01T10:07:53Z</time>
      </trkpt>
      <trkpt lat="45.6406" lon="4.58848">
        <ele>794</ele>
        <time>2014-05-01T10:07:58Z</time>
      </trkpt>
      <trkpt lat="45.64068" lon="4.58828">
        <ele>789.9</ele>
        <time>2014-05-01T10:08:03Z</time>
      </trkpt>
      <trkpt lat="45.64072" lon="4.5881">
        <ele>788.3</ele>
        <time>2014-05-01T10:08:08Z</time>
      </trkpt>
      <trkpt lat="45.64065" lon="4.58803">
        <ele>789</ele>
        <time>2014-05-01T10:08:13Z</time>
      </trkpt>
      <trkpt lat="45.64053" lon="4.58805">
        <ele>790</ele>
        <time>2014-05-01T10:08:18Z</time>
      </trkpt>
      <trkpt lat="45.64043" lon="4.58807">
        <ele>791.3</ele>
        <time>2014-05-01T10:08:23Z</time>
      </trkpt>
      <trkpt lat="45.64037" lon="4.58807">
        <ele>792.8</ele>
        <time>2014-05-01T10:08:28Z</time>
      </trkpt>
      <trkpt lat="45.64027" lon="4.58808">
        <ele>795.1</ele>
        <time>2014-05-01T10:08:33Z</time>
      </trkpt>
      <trkpt lat="45.64017" lon="4.58805">
        <ele>795.1</ele>
        <time>2014-05-01T10:08:38Z</time>
      </trkpt>
      <trkpt lat="45.64008" lon="4.58805">
        <ele>797.5</ele>
        <time>2014-05-01T10:08:43Z</time>
      </trkpt>
      <trkpt lat="45.64" lon="4.58805">
        <ele>797.7</ele>
        <time>2014-05-01T10:08:48Z</time>
      </trkpt>
      <trkpt lat="45.63992" lon="4.58803">
        <ele>798.6</ele>
        <time>2014-05-01T10:08:53Z</time>
      </trkpt>
      <trkpt lat="45.63985" lon="4.58808">
        <ele>801.5</ele>
        <time>2014-05-01T10:08:58Z</time>
      </trkpt>
      <trkpt lat="45.6398" lon="4.58812">
        <ele>801.3</ele>
        <time>2014-05-01T10:09:03Z</time>
      </trkpt>
      <trkpt lat="45.63973" lon="4.58813">
        <ele>802.6</ele>
        <time>2014-05-01T10:09:08Z</time>
      </trkpt>
      <trkpt lat="45.63967" lon="4.58813">
        <ele>804</ele>
        <time>2014-05-01T10:09:13Z</time>
      </trkpt>
      <trkpt lat="45.63962" lon="4.58812">
        <ele>805</ele>
        <time>2014-05-01T10:09:18Z</time>
      </trkpt>
      <trkpt lat="45.63955" lon="4.5881">
        <ele>806.2</ele>
        <time>2014-05-01T10:09:23Z</time>
      </trkpt>
      <trkpt lat="45.63948" lon="4.58808">
        <ele>807.5</ele>
        <time>2014-05-01T10:09:28Z</time>
      </trkpt>
      <trkpt lat="45.6394" lon="4.58803">
        <ele>807.8</ele>
        <time>2014-05-01T10:09:33Z</time>
      </trkpt>
      <trkpt lat="45.63932" lon="4.58798">
        <ele>809.2</ele>
        <time>2014-05-01T10:09:38Z</time>
      </trkpt>
      <trkpt lat="45.63922" lon="4.5879">
        <ele>809.7</ele>
        <time>2014-05-01T10:09:43Z</time>
      </trkpt>
      <trkpt lat="45.63913" lon="4.58782">
        <ele>810.1</ele>
        <time>2014-05-01T10:09:48Z</time>
      </trkpt>
      <trkpt lat="45.63907" lon="4.5877">
        <ele>811.3</ele>
        <time>2014-05-01T10:09:53Z</time>
      </trkpt>
      <trkpt lat="45.63897" lon="4.5876">
        <ele>812.5</ele>
        <time>2014-05-01T10:09:58Z</time>
      </trkpt>
      <trkpt lat="45.63887" lon="4.58748">
        <ele>812.5</ele>
        <time>2014-05-01T10:10:03Z</time>
      </trkpt>
      <trkpt lat="45.63877" lon="4.58742">
        <ele>813.7</ele>
        <time>2014-05-01T10:10:08Z</time>
      </trkpt>
      <trkpt lat="45.63863" lon="4.58738">
        <ele>813.9</ele>
        <time>2014-05-01T10:10:13Z</time>
      </trkpt>
      <trkpt lat="45.63848" lon="4.58728">
        <ele>815.3</ele>
        <time>2014-05-01T10:10:18Z</time>
      </trkpt>
      <trkpt lat="45.63827" lon="4.58713">
        <ele>811</ele>
        <time>2014-05-01T10:10:23Z</time>
      </trkpt>
      <trkpt lat="45.63798" lon="4.58695">
        <ele>809.9</ele>
        <time>2014-05-01T10:10:28Z</time>
      </trkpt>
      <trkpt lat="45.63765" lon="4.58712">
        <ele>808.6</ele>
        <time>2014-05-01T10:10:33Z</time>
      </trkpt>
      <trkpt lat="45.63725" lon="4.58715">
        <ele>807.1</ele>
        <time>2014-05-01T10:10:38Z</time>
      </trkpt>
      <trkpt lat="45.63685" lon="4.58713">
        <ele>806.1</ele>
        <time>2014-05-01T10:10:43Z</time>
      </trkpt>
      <trkpt lat="45.6364" lon="4.58707">
        <ele>798.2</ele>
        <time>2014-05-01T10:10:48Z</time>
      </trkpt>
      <trkpt lat="45.63603" lon="4.58677">
        <ele>804.7</ele>
        <time>2014-05-01T10:10:53Z</time>
      </trkpt>
      <trkpt lat="45.63597" lon="4.58617">
        <ele>798.7</ele>
        <time>2014-05-01T10:10:58Z</time>
      </trkpt>
      <trkpt lat="45.63613" lon="4.58552">
        <ele>788.8</ele>
        <time>2014-05-01T10:11:03Z</time>
      </trkpt>
      <trkpt lat="45.6362" lon="4.5849">
        <ele>778.4</ele>
        <time>2014-05-01T10:11:08Z</time>
      </trkpt>
      <trkpt lat="45.6364" lon="4.58453">
        <ele>779.4</ele>
        <time>2014-05-01T10:11:13Z</time>
      </trkpt>
      <trkpt lat="45.63618" lon="4.58437">
        <ele>778.4</ele>
        <time>2014-05-01T10:11:18Z</time>
      </trkpt>
      <trkpt lat="45.63582" lon="4.58407">
        <ele>776</ele>
        <time>2014-05-01T10:11:23Z</time>
      </trkpt>
      <trkpt lat="45.6355" lon="4.58368">
        <ele>774</ele>
        <time>2014-05-01T10:11:28Z</time>
      </trkpt>
      <trkpt lat="45.63522" lon="4.58327">
        <ele>774.9</ele>
        <time>2014-05-01T10:11:33Z</time>
      </trkpt>
      <trkpt lat="45.63488" lon="4.58288">
        <ele>766.3</ele>
        <time>2014-05-01T10:11:38Z</time>
      </trkpt>
      <trkpt lat="45.63448" lon="4.58252">
        <ele>766.5</ele>
        <time>2014-05-01T10:11:43Z</time>
      </trkpt>
      <trkpt lat="45.6341" lon="4.58228">
        <ele>755.6</ele>
        <time>2014-05-01T10:11:48Z</time>
      </trkpt>
      <trkpt lat="45.63375" lon="4.5821">
        <ele>760.8</ele>
        <time>2014-05-01T10:11:53Z</time>
      </trkpt>
      <trkpt lat="45.63355" lon="4.58167">
        <ele>755.8</ele>
        <time>2014-05-01T10:11:58Z</time>
      </trkpt>
      <trkpt lat="45.63332" lon="4.58145">
        <ele>745.3</ele>
        <time>2014-05-01T10:12:03Z</time>
      </trkpt>
      <trkpt lat="45.63307" lon="4.5811">
        <ele>742.8</ele>
        <time>2014-05-01T10:12:08Z</time>
      </trkpt>
      <trkpt lat="45.63275" lon="4.5806">
        <ele>736.1</ele>
        <time>2014-05-01T10:12:13Z</time>
      </trkpt>
      <trkpt lat="45.63265" lon="4.58038">
        <ele>727.8</ele>
        <time>2014-05-01T10:12:18Z</time>
      </trkpt>
      <trkpt lat="45.63282" lon="4.58028">
        <ele>730.2</ele>
        <time>2014-05-01T10:12:23Z</time>
      </trkpt>
      <trkpt lat="45.633" lon="4.58015">
        <ele>730</ele>
        <time>2014-05-01T10:12:28Z</time>
      </trkpt>
      <trkpt lat="45.63315" lon="4.58007">
        <ele>730.8</ele>
        <time>2014-05-01T10:12:33Z</time>
      </trkpt>
      <trkpt lat="45.6333" lon="4.57995">
        <ele>733</ele>
        <time>2014-05-01T10:12:38Z</time>
      </trkpt>
      <trkpt lat="45.63343" lon="4.57978">
        <ele>731.9</ele>
        <time>2014-05-01T10:12:43Z</time>
      </trkpt>
      <trkpt lat="45.63358" lon="4.5796">
        <ele>731.6</ele>
        <time>2014-05-01T10:12:48Z</time>
      </trkpt>
      <trkpt lat="45.63373" lon="4.57947">
        <ele>730.5</ele>
        <time>2014-05-01T10:12:53Z</time>
      </trkpt>
      <trkpt lat="45.63393" lon="4.57937">
        <ele>731.8</ele>
        <time>2014-05-01T10:12:58Z</time>
      </trkpt>
      <trkpt lat="45.6341" lon="4.5793">
        <ele>733.7</ele>
        <time>2014-05-01T10:13:03Z</time>
      </trkpt>
      <trkpt lat="45.63428" lon="4.57923">
        <ele>732.1</ele>
        <time>2014-05-01T10:13:08Z</time>
      </trkpt>
      <trkpt lat="45.63445" lon="4.57922">
        <ele>734.3</ele>
        <time>2014-05-01T10:13:13Z</time>
      </trkpt>
      <trkpt lat="45.63462" lon="4.57922">
        <ele>734.4</ele>
        <time>2014-05-01T10:13:18Z</time>
      </trkpt>
      <trkpt lat="45.63482" lon="4.57922">
        <ele>732.5</ele>
        <time>2014-05-01T10:13:23Z</time>
      </trkpt>
      <trkpt lat="45.63507" lon="4.57932">
        <ele>730.8</ele>
        <time>2014-05-01T10:13:28Z</time>
      </trkpt>
      <trkpt lat="45.63527" lon="4.57962">
        <ele>731.2</ele>
        <time>2014-05-01T10:13:33Z</time>
      </trkpt>
      <trkpt lat="45.63538" lon="4.57997">
        <ele>731.6</ele>
        <time>2014-05-01T10:13:38Z</time>
      </trkpt>
      <trkpt lat="45.6356" lon="4.57985">
        <ele>729.2</ele>
        <time>2014-05-01T10:13:43Z</time>
      </trkpt>
      <trkpt lat="45.63578" lon="4.57965">
        <ele>728.3</ele>
        <time>2014-05-01T10:13:48Z</time>
      </trkpt>
      <trkpt lat="45.63595" lon="4.57942">
        <ele>730.8</ele>
        <time>2014-05-01T10:13:53Z</time>
      </trkpt>
      <trkpt lat="45.63603" lon="4.57913">
        <ele>731.2</ele>
        <time>2014-05-01T10:13:58Z</time>
      </trkpt>
      <trkpt lat="45.63608" lon="4.57885">
        <ele>728.2</ele>
        <time>2014-05-01T10:14:03Z</time>
      </trkpt>
      <trkpt lat="45.6362" lon="4.57855">
        <ele>729.9</ele>
        <time>2014-05-01T10:14:08Z</time>
      </trkpt>
      <trkpt lat="45.63635" lon="4.57825">
        <ele>729.9</ele>
        <time>2014-05-01T10:14:13Z</time>
      </trkpt>
      <trkpt lat="45.63647" lon="4.57798">
        <ele>731.8</ele>
        <time>2014-05-01T10:14:18Z</time>
      </trkpt>
      <trkpt lat="45.63658" lon="4.5779">
        <ele>732.3</ele>
        <time>2014-05-01T10:14:23Z</time>
      </trkpt>
      <trkpt lat="45.63668" lon="4.57783">
        <ele>733.5</ele>
        <time>2014-05-01T10:14:28Z</time>
      </trkpt>
      <trkpt lat="45.63677" lon="4.57777">
        <ele>734.1</ele>
        <time>2014-05-01T10:14:33Z</time>
      </trkpt>
      <trkpt lat="45.63685" lon="4.57768">
        <ele>736.5</ele>
        <time>2014-05-01T10:14:38Z</time>
      </trkpt>
      <trkpt lat="45.63695" lon="4.57763">
        <ele>738.4</ele>
        <time>2014-05-01T10:14:43Z</time>
      </trkpt>
      <trkpt lat="45.637" lon="4.57752">
        <ele>739.7</ele>
        <time>2014-05-01T10:14:48Z</time>
      </trkpt>
      <trkpt lat="45.63707" lon="4.5774">
        <ele>740</ele>
        <time>2014-05-01T10:14:53Z</time>
      </trkpt>
      <trkpt lat="45.63712" lon="4.5773">
        <ele>741</ele>
        <time>2014-05-01T10:14:58Z</time>
      </trkpt>
      <trkpt lat="45.63717" lon="4.57717">
        <ele>741.8</ele>
        <time>2014-05-01T10:15:03Z</time>
      </trkpt>
      <trkpt lat="45.63722" lon="4.57702">
        <ele>742.1</ele>
        <time>2014-05-01T10:15:08Z</time>
      </trkpt>
      <trkpt lat="45.63723" lon="4.57683">
        <ele>742.4</ele>
        <time>2014-05-01T10:15:13Z</time>
      </trkpt>
      <trkpt lat="45.63725" lon="4.57663">
        <ele>743.2</ele>
        <time>2014-05-01T10:15:18Z</time>
      </trkpt>
      <trkpt lat="45.63723" lon="4.57643">
        <ele>743.3</ele>
        <time>2014-05-01T10:15:23Z</time>
      </trkpt>
      <trkpt lat="45.63723" lon="4.57623">
        <ele>743.7</ele>
        <time>2014-05-01T10:15:28Z</time>
      </trkpt>
      <trkpt lat="45.63725" lon="4.57608">
        <ele>744.4</ele>
        <time>2014-05-01T10:15:33Z</time>
      </trkpt>
      <trkpt lat="45.63728" lon="4.57597">
        <ele>744.2</ele>
        <time>2014-05-01T10:15:38Z</time>
      </trkpt>
      <trkpt lat="45.63725" lon="4.57585">
        <ele>745.2</ele>
        <time>2014-05-01T10:15:43Z</time>
      </trkpt>
      <trkpt lat="45.63713" lon="4.5755">
        <ele>734.1</ele>
        <time>2014-05-01T10:15:48Z</time>
      </trkpt>
      <trkpt lat="45.63712" lon="4.57477">
        <ele>731.4</ele>
        <time>2014-05-01T10:15:53Z</time>
      </trkpt>
      <trkpt lat="45.6371" lon="4.5741">
        <ele>730</ele>
        <time>2014-05-01T10:15:58Z</time>
      </trkpt>
      <trkpt lat="45.63718" lon="4.57377">
        <ele>728.1</ele>
        <time>2014-05-01T10:16:03Z</time>
      </trkpt>
      <trkpt lat="45.63725" lon="4.57347">
        <ele>730.4</ele>
        <time>2014-05-01T10:16:08Z</time>
      </trkpt>
      <trkpt lat="45.63738" lon="4.57317">
        <ele>725.3</ele>
        <time>2014-05-01T10:16:13Z</time>
      </trkpt>
      <trkpt lat="45.63768" lon="4.57302">
        <ele>724.6</ele>
        <time>2014-05-01T10:16:18Z</time>
      </trkpt>
      <trkpt lat="45.6381" lon="4.57325">
        <ele>715.7</ele>
        <time>2014-05-01T10:16:23Z</time>
      </trkpt>
      <trkpt lat="45.63845" lon="4.57328">
        <ele>715.7</ele>
        <time>2014-05-01T10:16:28Z</time>
      </trkpt>
      <trkpt lat="45.63893" lon="4.57315">
        <ele>707.6</ele>
        <time>2014-05-01T10:16:33Z</time>
      </trkpt>
      <trkpt lat="45.63932" lon="4.57282">
        <ele>702.2</ele>
        <time>2014-05-01T10:16:38Z</time>
      </trkpt>
      <trkpt lat="45.63943" lon="4.57235">
        <ele>689.1</ele>
        <time>2014-05-01T10:16:43Z</time>
      </trkpt>
      <trkpt lat="45.63945" lon="4.572">
        <ele>681.4</ele>
        <time>2014-05-01T10:16:48Z</time>
      </trkpt>
      <trkpt lat="45.63983" lon="4.572">
        <ele>675.7</ele>
        <time>2014-05-01T10:16:53Z</time>
      </trkpt>
      <trkpt lat="45.64003" lon="4.57155">
        <ele>671.5</ele>
        <time>2014-05-01T10:16:58Z</time>
      </trkpt>
      <trkpt lat="45.64013" lon="4.57112">
        <ele>673</ele>
        <time>2014-05-01T10:17:03Z</time>
      </trkpt>
      <trkpt lat="45.6402" lon="4.57082">
        <ele>674.8</ele>
        <time>2014-05-01T10:17:08Z</time>
      </trkpt>
      <trkpt lat="45.64035" lon="4.57067">
        <ele>675.5</ele>
        <time>2014-05-01T10:17:13Z</time>
      </trkpt>
      <trkpt lat="45.6405" lon="4.57065">
        <ele>676.4</ele>
        <time>2014-05-01T10:17:18Z</time>
      </trkpt>
      <trkpt lat="45.64058" lon="4.57075">
        <ele>676.4</ele>
        <time>2014-05-01T10:17:23Z</time>
      </trkpt>
      <trkpt lat="45.6407" lon="4.57087">
        <ele>678.8</ele>
        <time>2014-05-01T10:17:28Z</time>
      </trkpt>
      <trkpt lat="45.64082" lon="4.57085">
        <ele>679.6</ele>
        <time>2014-05-01T10:17:33Z</time>
      </trkpt>
      <trkpt lat="45.64095" lon="4.5708">
        <ele>681.7</ele>
        <time>2014-05-01T10:17:38Z</time>
      </trkpt>
      <trkpt lat="45.64102" lon="4.57065">
        <ele>681</ele>
        <time>2014-05-01T10:17:43Z</time>
      </trkpt>
      <trkpt lat="45.64107" lon="4.57043">
        <ele>681.8</ele>
        <time>2014-05-01T10:17:48Z</time>
      </trkpt>
      <trkpt lat="45.64112" lon="4.57022">
        <ele>681.5</ele>
        <time>2014-05-01T10:17:53Z</time>
      </trkpt>
      <trkpt lat="45.64113" lon="4.57">
        <ele>681.7</ele>
        <time>2014-05-01T10:17:58Z</time>
      </trkpt>
      <trkpt lat="45.6411" lon="4.56977">
        <ele>681.5</ele>
        <time>2014-05-01T10:18:03Z</time>
      </trkpt>
      <trkpt lat="45.64103" lon="4.56958">
        <ele>682.2</ele>
        <time>2014-05-01T10:18:08Z</time>
      </trkpt>
      <trkpt lat="45.64093" lon="4.56938">
        <ele>681.9</ele>
        <time>2014-05-01T10:18:13Z</time>
      </trkpt>
      <trkpt lat="45.64087" lon="4.56923">
        <ele>682.1</ele>
        <time>2014-05-01T10:18:18Z</time>
      </trkpt>
      <trkpt lat="45.6408" lon="4.5691">
        <ele>683.6</ele>
        <time>2014-05-01T10:18:23Z</time>
      </trkpt>
      <trkpt lat="45.6407" lon="4.56895">
        <ele>684.6</ele>
        <time>2014-05-01T10:18:28Z</time>
      </trkpt>
      <trkpt lat="45.6406" lon="4.56883">
        <ele>685.5</ele>
        <time>2014-05-01T10:18:33Z</time>
      </trkpt>
      <trkpt lat="45.6405" lon="4.56872">
        <ele>685.7</ele>
        <time>2014-05-01T10:18:38Z</time>
      </trkpt>
      <trkpt lat="45.64038" lon="4.56862">
        <ele>686</ele>
        <time>2014-05-01T10:18:43Z</time>
      </trkpt>
      <trkpt lat="45.64027" lon="4.5685">
        <ele>685.3</ele>
        <time>2014-05-01T10:18:48Z</time>
      </trkpt>
      <trkpt lat="45.6402" lon="4.56835">
        <ele>687</ele>
        <time>2014-05-01T10:18:53Z</time>
      </trkpt>
      <trkpt lat="45.64017" lon="4.5682">
        <ele>687.1</ele>
        <time>2014-05-01T10:18:58Z</time>
      </trkpt>
      <trkpt lat="45.64018" lon="4.56805">
        <ele>688</ele>
        <time>2014-05-01T10:19:03Z</time>
      </trkpt>
      <trkpt lat="45.64022" lon="4.56793">
        <ele>690</ele>
        <time>2014-05-01T10:19:08Z</time>
      </trkpt>
      <trkpt lat="45.6403" lon="4.56792">
        <ele>690.8</ele>
        <time>2014-05-01T10:19:13Z</time>
      </trkpt>
      <trkpt lat="45.64042" lon="4.56797">
        <ele>691.1</ele>
        <time>2014-05-01T10:19:18Z</time>
      </trkpt>
      <trkpt lat="45.64052" lon="4.56807">
        <ele>692.7</ele>
        <time>2014-05-01T10:19:23Z</time>
      </trkpt>
      <trkpt lat="45.6406" lon="4.56812">
        <ele>694.6</ele>
        <time>2014-05-01T10:19:28Z</time>
      </trkpt>
      <trkpt lat="45.64067" lon="4.5682">
        <ele>695</ele>
        <time>2014-05-01T10:19:33Z</time>
      </trkpt>
      <trkpt lat="45.64073" lon="4.56828">
        <ele>697.4</ele>
        <time>2014-05-01T10:19:38Z</time>
      </trkpt>
      <trkpt lat="45.6408" lon="4.56837">
        <ele>697.1</ele>
        <time>2014-05-01T10:19:43Z</time>
      </trkpt>
      <trkpt lat="45.64088" lon="4.56847">
        <ele>699.2</ele>
        <time>2014-05-01T10:19:48Z</time>
      </trkpt>
      <trkpt lat="45.64093" lon="4.56857">
        <ele>699.5</ele>
        <time>2014-05-01T10:19:53Z</time>
      </trkpt>
      <trkpt lat="45.64102" lon="4.56865">
        <ele>700.1</ele>
        <time>2014-05-01T10:19:58Z</time>
      </trkpt>
      <trkpt lat="45.64112" lon="4.56868">
        <ele>701.9</ele>
        <time>2014-05-01T10:20:03Z</time>
      </trkpt>
      <trkpt lat="45.64122" lon="4.56872">
        <ele>703</ele>
        <time>2014-05-01T10:20:08Z</time>
      </trkpt>
      <trkpt lat="45.6413" lon="4.5687">
        <ele>704.1</ele>
        <time>2014-05-01T10:20:13Z</time>
      </trkpt>
      <trkpt lat="45.64138" lon="4.56872">
        <ele>705.6</ele>
        <time>2014-05-01T10:20:18Z</time>
      </trkpt>
      <trkpt lat="45.64148" lon="4.56872">
        <ele>706.1</ele>
        <time>2014-05-01T10:20:23Z</time>
      </trkpt>
      <trkpt lat="45.64157" lon="4.56875">
        <ele>707.5</ele>
        <time>2014-05-01T10:20:28Z</time>
      </trkpt>
      <trkpt lat="45.64165" lon="4.56875">
        <ele>708.4</ele>
        <time>2014-05-01T10:20:33Z</time>
      </trkpt>
      <trkpt lat="45.64177" lon="4.56877">
        <ele>707.8</ele>
        <time>2014-05-01T10:20:38Z</time>
      </trkpt>
      <trkpt lat="45.64185" lon="4.56873">
        <ele>709.5</ele>
        <time>2014-05-01T10:20:43Z</time>
      </trkpt>
      <trkpt lat="45.64197" lon="4.5687">
        <ele>709.3</ele>
        <time>2014-05-01T10:20:48Z</time>
      </trkpt>
      <trkpt lat="45.64207" lon="4.56863">
        <ele>710.4</ele>
        <time>2014-05-01T10:20:53Z</time>
      </trkpt>
      <trkpt lat="45.64213" lon="4.56855">
        <ele>711.6</ele>
        <time>2014-05-01T10:20:58Z</time>
      </trkpt>
      <trkpt lat="45.64223" lon="4.5685">
        <ele>712.7</ele>
        <time>2014-05-01T10:21:03Z</time>
      </trkpt>
      <trkpt lat="45.64233" lon="4.56848">
        <ele>713.7</ele>
        <time>2014-05-01T10:21:08Z</time>
      </trkpt>
      <trkpt lat="45.64248" lon="4.56848">
        <ele>714.2</ele>
        <time>2014-05-01T10:21:13Z</time>
      </trkpt>
      <trkpt lat="45.64263" lon="4.56848">
        <ele>714.2</ele>
        <time>2014-05-01T10:21:18Z</time>
      </trkpt>
      <trkpt lat="45.64278" lon="4.5684">
        <ele>713.4</ele>
        <time>2014-05-01T10:21:23Z</time>
      </trkpt>
      <trkpt lat="45.64292" lon="4.56827">
        <ele>713.2</ele>
        <time>2014-05-01T10:21:28Z</time>
      </trkpt>
      <trkpt lat="45.64312" lon="4.5681">
        <ele>712.6</ele>
        <time>2014-05-01T10:21:33Z</time>
      </trkpt>
      <trkpt lat="45.64335" lon="4.568">
        <ele>710.1</ele>
        <time>2014-05-01T10:21:38Z</time>
      </trkpt>
      <trkpt lat="45.64357" lon="4.5681">
        <ele>711.1</ele>
        <time>2014-05-01T10:21:43Z</time>
      </trkpt>
      <trkpt lat="45.64375" lon="4.56822">
        <ele>711.2</ele>
        <time>2014-05-01T10:21:48Z</time>
      </trkpt>
      <trkpt lat="45.64392" lon="4.56832">
        <ele>711.7</ele>
        <time>2014-05-01T10:21:53Z</time>
      </trkpt>
      <trkpt lat="45.64412" lon="4.56842">
        <ele>712.2</ele>
        <time>2014-05-01T10:21:58Z</time>
      </trkpt>
      <trkpt lat="45.64433" lon="4.5685">
        <ele>711.6</ele>
        <time>2014-05-01T10:22:03Z</time>
      </trkpt>
      <trkpt lat="45.64453" lon="4.56863">
        <ele>711.5</ele>
        <time>2014-05-01T10:22:08Z</time>
      </trkpt>
      <trkpt lat="45.6447" lon="4.5689">
        <ele>710.7</ele>
        <time>2014-05-01T10:22:13Z</time>
      </trkpt>
      <trkpt lat="45.64488" lon="4.56912">
        <ele>710.4</ele>
        <time>2014-05-01T10:22:18Z</time>
      </trkpt>
      <trkpt lat="45.64508" lon="4.56928">
        <ele>712.7</ele>
        <time>2014-05-01T10:22:23Z</time>
      </trkpt>
      <trkpt lat="45.6453" lon="4.56938">
        <ele>713.9</ele>
        <time>2014-05-01T10:22:28Z</time>
      </trkpt>
      <trkpt lat="45.6455" lon="4.56947">
        <ele>714.7</ele>
        <time>2014-05-01T10:22:33Z</time>
      </trkpt>
      <trkpt lat="45.6457" lon="4.56952">
        <ele>716</ele>
        <time>2014-05-01T10:22:38Z</time>
      </trkpt>
      <trkpt lat="45.64585" lon="4.5696">
        <ele>718.5</ele>
        <time>2014-05-01T10:22:43Z</time>
      </trkpt>
      <trkpt lat="45.64593" lon="4.56978">
        <ele>719.4</ele>
        <time>2014-05-01T10:22:48Z</time>
      </trkpt>
      <trkpt lat="45.646" lon="4.56997">
        <ele>717.6</ele>
        <time>2014-05-01T10:22:53Z</time>
      </trkpt>
      <trkpt lat="45.64607" lon="4.57013">
        <ele>721.5</ele>
        <time>2014-05-01T10:22:58Z</time>
      </trkpt>
      <trkpt lat="45.64613" lon="4.57028">
        <ele>722</ele>
        <time>2014-05-01T10:23:03Z</time>
      </trkpt>
      <trkpt lat="45.6462" lon="4.57045">
        <ele>722.7</ele>
        <time>2014-05-01T10:23:08Z</time>
      </trkpt>
      <trkpt lat="45.6463" lon="4.57065">
        <ele>723</ele>
        <time>2014-05-01T10:23:13Z</time>
      </trkpt>
      <trkpt lat="45.64638" lon="4.57085">
        <ele>724.4</ele>
        <time>2014-05-01T10:23:18Z</time>
      </trkpt>
      <trkpt lat="45.64647" lon="4.57103">
        <ele>724.9</ele>
        <time>2014-05-01T10:23:23Z</time>
      </trkpt>
      <trkpt lat="45.64655" lon="4.57123">
        <ele>725.6</ele>
        <time>2014-05-01T10:23:28Z</time>
      </trkpt>
      <trkpt lat="45.64662" lon="4.57143">
        <ele>726</ele>
        <time>2014-05-01T10:23:33Z</time>
      </trkpt>
      <trkpt lat="45.6467" lon="4.57163">
        <ele>725.6</ele>
        <time>2014-05-01T10:23:38Z</time>
      </trkpt>
      <trkpt lat="45.64677" lon="4.57185">
        <ele>723.5</ele>
        <time>2014-05-01T10:23:43Z</time>
      </trkpt>
      <trkpt lat="45.64683" lon="4.57205">
        <ele>726.5</ele>
        <time>2014-05-01T10:23:48Z</time>
      </trkpt>
      <trkpt lat="45.6469" lon="4.57222">
        <ele>727</ele>
        <time>2014-05-01T10:23:53Z</time>
      </trkpt>
      <trkpt lat="45.64695" lon="4.57242">
        <ele>728.2</ele>
        <time>2014-05-01T10:23:58Z</time>
      </trkpt>
      <trkpt lat="45.64702" lon="4.57262">
        <ele>727.5</ele>
        <time>2014-05-01T10:24:03Z</time>
      </trkpt>
      <trkpt lat="45.64712" lon="4.57283">
        <ele>728.5</ele>
        <time>2014-05-01T10:24:08Z</time>
      </trkpt>
      <trkpt lat="45.6472" lon="4.57308">
        <ele>729.4</ele>
        <time>2014-05-01T10:24:13Z</time>
      </trkpt>
      <trkpt lat="45.64725" lon="4.57342">
        <ele>726.8</ele>
        <time>2014-05-01T10:24:18Z</time>
      </trkpt>
      <trkpt lat="45.6473" lon="4.57375">
        <ele>727</ele>
        <time>2014-05-01T10:24:23Z</time>
      </trkpt>
      <trkpt lat="45.64737" lon="4.57407">
        <ele>728.7</ele>
        <time>2014-05-01T10:24:28Z</time>
      </trkpt>
      <trkpt lat="45.64743" lon="4.57437">
        <ele>726.2</ele>
        <time>2014-05-01T10:24:33Z</time>
      </trkpt>
      <trkpt lat="45.64752" lon="4.57468">
        <ele>726.2</ele>
        <time>2014-05-01T10:24:38Z</time>
      </trkpt>
      <trkpt lat="45.64758" lon="4.57498">
        <ele>728.1</ele>
        <time>2014-05-01T10:24:43Z</time>
      </trkpt>
      <trkpt lat="45.64767" lon="4.57528">
        <ele>726.5</ele>
        <time>2014-05-01T10:24:48Z</time>
      </trkpt>
      <trkpt lat="45.64775" lon="4.57555">
        <ele>725.9</ele>
        <time>2014-05-01T10:24:53Z</time>
      </trkpt>
      <trkpt lat="45.64785" lon="4.57582">
        <ele>726.8</ele>
        <time>2014-05-01T10:24:58Z</time>
      </trkpt>
      <trkpt lat="45.64793" lon="4.5761">
        <ele>728.3</ele>
        <time>2014-05-01T10:25:03Z</time>
      </trkpt>
      <trkpt lat="45.64797" lon="4.57638">
        <ele>726.4</ele>
        <time>2014-05-01T10:25:08Z</time>
      </trkpt>
      <trkpt lat="45.648" lon="4.57667">
        <ele>727.6</ele>
        <time>2014-05-01T10:25:13Z</time>
      </trkpt>
      <trkpt lat="45.64803" lon="4.57695">
        <ele>727.6</ele>
        <time>2014-05-01T10:25:18Z</time>
      </trkpt>
      <trkpt lat="45.64807" lon="4.57725">
        <ele>727.7</ele>
        <time>2014-05-01T10:25:23Z</time>
      </trkpt>
      <trkpt lat="45.64808" lon="4.57755">
        <ele>727.7</ele>
        <time>2014-05-01T10:25:28Z</time>
      </trkpt>
      <trkpt lat="45.6481" lon="4.57782">
        <ele>727.8</ele>
        <time>2014-05-01T10:25:33Z</time>
      </trkpt>
      <trkpt lat="45.64815" lon="4.5781">
        <ele>728.6</ele>
        <time>2014-05-01T10:25:38Z</time>
      </trkpt>
      <trkpt lat="45.6482" lon="4.57837">
        <ele>729.6</ele>
        <time>2014-05-01T10:25:43Z</time>
      </trkpt>
      <trkpt lat="45.64828" lon="4.57863">
        <ele>728.6</ele>
        <time>2014-05-01T10:25:48Z</time>
      </trkpt>
      <trkpt lat="45.64833" lon="4.5789">
        <ele>730.9</ele>
        <time>2014-05-01T10:25:53Z</time>
      </trkpt>
      <trkpt lat="45.64832" lon="4.57918">
        <ele>730</ele>
        <time>2014-05-01T10:25:58Z</time>
      </trkpt>
      <trkpt lat="45.6483" lon="4.57948">
        <ele>731</ele>
        <time>2014-05-01T10:26:03Z</time>
      </trkpt>
      <trkpt lat="45.6483" lon="4.57977">
        <ele>730</ele>
        <time>2014-05-01T10:26:08Z</time>
      </trkpt>
      <trkpt lat="45.6483" lon="4.58007">
        <ele>730</ele>
        <time>2014-05-01T10:26:13Z</time>
      </trkpt>
      <trkpt lat="45.64832" lon="4.58033">
        <ele>732</ele>
        <time>2014-05-01T10:26:18Z</time>
      </trkpt>
      <trkpt lat="45.64833" lon="4.58053">
        <ele>731</ele>
        <time>2014-05-01T10:26:23Z</time>
      </trkpt>
      <trkpt lat="45.64843" lon="4.58047">
        <ele>730.3</ele>
        <time>2014-05-01T10:26:28Z</time>
      </trkpt>
      <trkpt lat="45.64858" lon="4.5802">
        <ele>730.1</ele>
        <time>2014-05-01T10:26:33Z</time>
      </trkpt>
      <trkpt lat="45.64877" lon="4.57992">
        <ele>727.8</ele>
        <time>2014-05-01T10:26:38Z</time>
      </trkpt>
      <trkpt lat="45.64895" lon="4.57955">
        <ele>725.7</ele>
        <time>2014-05-01T10:26:43Z</time>
      </trkpt>
      <trkpt lat="45.64905" lon="4.57905">
        <ele>726.4</ele>
        <time>2014-05-01T10:26:48Z</time>
      </trkpt>
      <trkpt lat="45.6491" lon="4.57852">
        <ele>723.4</ele>
        <time>2014-05-01T10:26:53Z</time>
      </trkpt>
      <trkpt lat="45.64913" lon="4.57795">
        <ele>722.6</ele>
        <time>2014-05-01T10:26:58Z</time>
      </trkpt>
      <trkpt lat="45.64927" lon="4.57737">
        <ele>720</ele>
        <time>2014-05-01T10:27:03Z</time>
      </trkpt>
      <trkpt lat="45.64943" lon="4.57693">
        <ele>717.2</ele>
        <time>2014-05-01T10:27:08Z</time>
      </trkpt>
      <trkpt lat="45.64958" lon="4.57705">
        <ele>716</ele>
        <time>2014-05-01T10:27:13Z</time>
      </trkpt>
      <trkpt lat="45.6497" lon="4.5774">
        <ele>716</ele>
        <time>2014-05-01T10:27:18Z</time>
      </trkpt>
      <trkpt lat="45.64978" lon="4.57777">
        <ele>709.6</ele>
        <time>2014-05-01T10:27:23Z</time>
      </trkpt>
      <trkpt lat="45.64988" lon="4.57817">
        <ele>713.9</ele>
        <time>2014-05-01T10:27:28Z</time>
      </trkpt>
      <trkpt lat="45.64998" lon="4.57855">
        <ele>712.1</ele>
        <time>2014-05-01T10:27:33Z</time>
      </trkpt>
      <trkpt lat="45.65003" lon="4.57892">
        <ele>712.4</ele>
        <time>2014-05-01T10:27:38Z</time>
      </trkpt>
      <trkpt lat="45.65018" lon="4.57928">
        <ele>703.3</ele>
        <time>2014-05-01T10:27:43Z</time>
      </trkpt>
      <trkpt lat="45.65028" lon="4.57947">
        <ele>705.1</ele>
        <time>2014-05-01T10:27:48Z</time>
      </trkpt>
      <trkpt lat="45.65047" lon="4.57933">
        <ele>703.7</ele>
        <time>2014-05-01T10:27:53Z</time>
      </trkpt>
      <trkpt lat="45.65073" lon="4.57907">
        <ele>700</ele>
        <time>2014-05-01T10:27:58Z</time>
      </trkpt>
      <trkpt lat="45.6509" lon="4.57873">
        <ele>696.3</ele>
        <time>2014-05-01T10:28:03Z</time>
      </trkpt>
      <trkpt lat="45.65108" lon="4.57832">
        <ele>691.7</ele>
        <time>2014-05-01T10:28:08Z</time>
      </trkpt>
      <trkpt lat="45.6512" lon="4.57792">
        <ele>692.3</ele>
        <time>2014-05-01T10:28:13Z</time>
      </trkpt>
      <trkpt lat="45.65132" lon="4.57757">
        <ele>693.3</ele>
        <time>2014-05-01T10:28:18Z</time>
      </trkpt>
      <trkpt lat="45.6515" lon="4.57718">
        <ele>693.2</ele>
        <time>2014-05-01T10:28:23Z</time>
      </trkpt>
      <trkpt lat="45.65172" lon="4.577">
        <ele>691.5</ele>
        <time>2014-05-01T10:28:28Z</time>
      </trkpt>
      <trkpt lat="45.65188" lon="4.57695">
        <ele>693.5</ele>
        <time>2014-05-01T10:28:33Z</time>
      </trkpt>
      <trkpt lat="45.65205" lon="4.577">
        <ele>691.5</ele>
        <time>2014-05-01T10:28:38Z</time>
      </trkpt>
      <trkpt lat="45.65217" lon="4.5772">
        <ele>689.5</ele>
        <time>2014-05-01T10:28:43Z</time>
      </trkpt>
      <trkpt lat="45.6523" lon="4.57757">
        <ele>681.6</ele>
        <time>2014-05-01T10:28:48Z</time>
      </trkpt>
      <trkpt lat="45.6524" lon="4.57795">
        <ele>676.7</ele>
        <time>2014-05-01T10:28:53Z</time>
      </trkpt>
      <trkpt lat="45.65263" lon="4.57813">
        <ele>674.6</ele>
        <time>2014-05-01T10:28:58Z</time>
      </trkpt>
      <trkpt lat="45.65283" lon="4.57828">
        <ele>670.1</ele>
        <time>2014-05-01T10:29:03Z</time>
      </trkpt>
      <trkpt lat="45.65295" lon="4.57835">
        <ele>668.8</ele>
        <time>2014-05-01T10:29:08Z</time>
      </trkpt>
      <trkpt lat="45.6531" lon="4.57857">
        <ele>666</ele>
        <time>2014-05-01T10:29:13Z</time>
      </trkpt>
      <trkpt lat="45.65322" lon="4.57873">
        <ele>665.1</ele>
        <time>2014-05-01T10:29:18Z</time>
      </trkpt>
      <trkpt lat="45.65328" lon="4.57893">
        <ele>662.2</ele>
        <time>2014-05-01T10:29:23Z</time>
      </trkpt>
      <trkpt lat="45.6534" lon="4.57915">
        <ele>660.7</ele>
        <time>2014-05-01T10:29:28Z</time>
      </trkpt>
      <trkpt lat="45.65352" lon="4.5792">
        <ele>657.5</ele>
        <time>2014-05-01T10:29:33Z</time>
      </trkpt>
      <trkpt lat="45.65372" lon="4.579">
        <ele>654.2</ele>
        <time>2014-05-01T10:29:38Z</time>
      </trkpt>
      <trkpt lat="45.6539" lon="4.5787">
        <ele>653.8</ele>
        <time>2014-05-01T10:29:43Z</time>
      </trkpt>
      <trkpt lat="45.65402" lon="4.57828">
        <ele>648.5</ele>
        <time>2014-05-01T10:29:48Z</time>
      </trkpt>
      <trkpt lat="45.65408" lon="4.57787">
        <ele>648</ele>
        <time>2014-05-01T10:29:53Z</time>
      </trkpt>
      <trkpt lat="45.65417" lon="4.57737">
        <ele>646.9</ele>
        <time>2014-05-01T10:29:58Z</time>
      </trkpt>
      <trkpt lat="45.65418" lon="4.5769">
        <ele>644.9</ele>
        <time>2014-05-01T10:30:03Z</time>
      </trkpt>
      <trkpt lat="45.65415" lon="4.57657">
        <ele>648.3</ele>
        <time>2014-05-01T10:30:08Z</time>
      </trkpt>
      <trkpt lat="45.6544" lon="4.57613">
        <ele>642.5</ele>
        <time>2014-05-01T10:30:13Z</time>
      </trkpt>
      <trkpt lat="45.6546" lon="4.5758">
        <ele>642.3</ele>
        <time>2014-05-01T10:30:18Z</time>
      </trkpt>
      <trkpt lat="45.65473" lon="4.57557">
        <ele>644.5</ele>
        <time>2014-05-01T10:30:23Z</time>
      </trkpt>
      <trkpt lat="45.65485" lon="4.57528">
        <ele>646.2</ele>
        <time>2014-05-01T10:30:28Z</time>
      </trkpt>
      <trkpt lat="45.65493" lon="4.57502">
        <ele>646.9</ele>
        <time>2014-05-01T10:30:33Z</time>
      </trkpt>
      <trkpt lat="45.65497" lon="4.57492">
        <ele>647.3</ele>
        <time>2014-05-01T10:30:38Z</time>
      </trkpt>
      <trkpt lat="45.65507" lon="4.57482">
        <ele>647.5</ele>
        <time>2014-05-01T10:30:43Z</time>
      </trkpt>
      <trkpt lat="45.65525" lon="4.57467">
        <ele>639.8</ele>
        <time>2014-05-01T10:30:48Z</time>
      </trkpt>
      <trkpt lat="45.65542" lon="4.57417">
        <ele>638.6</ele>
        <time>2014-05-01T10:30:53Z</time>
      </trkpt>
      <trkpt lat="45.65542" lon="4.57355">
        <ele>636.5</ele>
        <time>2014-05-01T10:30:58Z</time>
      </trkpt>
      <trkpt lat="45.65567" lon="4.57315">
        <ele>637.1</ele>
        <time>2014-05-01T10:31:03Z</time>
      </trkpt>
      <trkpt lat="45.656" lon="4.57285">
        <ele>633.7</ele>
        <time>2014-05-01T10:31:08Z</time>
      </trkpt>
      <trkpt lat="45.65607" lon="4.57225">
        <ele>629.7</ele>
        <time>2014-05-01T10:31:13Z</time>
      </trkpt>
      <trkpt lat="45.65612" lon="4.5717">
        <ele>624.8</ele>
        <time>2014-05-01T10:31:18Z</time>
      </trkpt>
      <trkpt lat="45.65645" lon="4.57187">
        <ele>622.6</ele>
        <time>2014-05-01T10:31:23Z</time>
      </trkpt>
      <trkpt lat="45.65683" lon="4.57208">
        <ele>620.9</ele>
        <time>2014-05-01T10:31:28Z</time>
      </trkpt>
      <trkpt lat="45.65723" lon="4.57225">
        <ele>621.5</ele>
        <time>2014-05-01T10:31:33Z</time>
      </trkpt>
      <trkpt lat="45.65735" lon="4.57217">
        <ele>624.2</ele>
        <time>2014-05-01T10:31:38Z</time>
      </trkpt>
      <trkpt lat="45.6573" lon="4.57202">
        <ele>625.8</ele>
        <time>2014-05-01T10:31:43Z</time>
      </trkpt>
      <trkpt lat="45.65728" lon="4.57182">
        <ele>627.1</ele>
        <time>2014-05-01T10:31:48Z</time>
      </trkpt>
      <trkpt lat="45.65738" lon="4.57175">
        <ele>631</ele>
        <time>2014-05-01T10:31:53Z</time>
      </trkpt>
      <trkpt lat="45.65753" lon="4.5718">
        <ele>633.8</ele>
        <time>2014-05-01T10:31:58Z</time>
      </trkpt>
      <trkpt lat="45.65763" lon="4.57178">
        <ele>635.9</ele>
        <time>2014-05-01T10:32:03Z</time>
      </trkpt>
      <trkpt lat="45.65768" lon="4.57165">
        <ele>636.9</ele>
        <time>2014-05-01T10:32:08Z</time>
      </trkpt>
      <trkpt lat="45.6577" lon="4.57152">
        <ele>638.1</ele>
        <time>2014-05-01T10:32:13Z</time>
      </trkpt>
      <trkpt lat="45.65772" lon="4.57133">
        <ele>638.5</ele>
        <time>2014-05-01T10:32:18Z</time>
      </trkpt>
      <trkpt lat="45.65768" lon="4.57115">
        <ele>640.8</ele>
        <time>2014-05-01T10:32:23Z</time>
      </trkpt>
      <trkpt lat="45.65765" lon="4.57097">
        <ele>641.1</ele>
        <time>2014-05-01T10:32:28Z</time>
      </trkpt>
      <trkpt lat="45.6576" lon="4.57082">
        <ele>641.7</ele>
        <time>2014-05-01T10:32:33Z</time>
      </trkpt>
      <trkpt lat="45.65755" lon="4.57065">
        <ele>643.2</ele>
        <time>2014-05-01T10:32:38Z</time>
      </trkpt>
      <trkpt lat="45.65752" lon="4.57048">
        <ele>642.7</ele>
        <time>2014-05-01T10:32:43Z</time>
      </trkpt>
      <trkpt lat="45.65745" lon="4.57032">
        <ele>645.3</ele>
        <time>2014-05-01T10:32:48Z</time>
      </trkpt>
      <trkpt lat="45.6574" lon="4.57017">
        <ele>645.9</ele>
        <time>2014-05-01T10:32:53Z</time>
      </trkpt>
      <trkpt lat="45.65732" lon="4.57">
        <ele>646.2</ele>
        <time>2014-05-01T10:32:58Z</time>
      </trkpt>
      <trkpt lat="45.65723" lon="4.56985">
        <ele>647.6</ele>
        <time>2014-05-01T10:33:03Z</time>
      </trkpt>
      <trkpt lat="45.65712" lon="4.56968">
        <ele>647.6</ele>
        <time>2014-05-01T10:33:08Z</time>
      </trkpt>
      <trkpt lat="45.65702" lon="4.56948">
        <ele>650.1</ele>
        <time>2014-05-01T10:33:13Z</time>
      </trkpt>
      <trkpt lat="45.65692" lon="4.56922">
        <ele>649.7</ele>
        <time>2014-05-01T10:33:18Z</time>
      </trkpt>
      <trkpt lat="45.65678" lon="4.56893">
        <ele>646.9</ele>
        <time>2014-05-01T10:33:23Z</time>
      </trkpt>
      <trkpt lat="45.65665" lon="4.56865">
        <ele>649.8</ele>
        <time>2014-05-01T10:33:28Z</time>
      </trkpt>
      <trkpt lat="45.65652" lon="4.56835">
        <ele>647.8</ele>
        <time>2014-05-01T10:33:33Z</time>
      </trkpt>
      <trkpt lat="45.65642" lon="4.56808">
        <ele>649.6</ele>
        <time>2014-05-01T10:33:38Z</time>
      </trkpt>
      <trkpt lat="45.6564" lon="4.56767">
        <ele>647.9</ele>
        <time>2014-05-01T10:33:43Z</time>
      </trkpt>
      <trkpt lat="45.65652" lon="4.56725">
        <ele>647.1</ele>
        <time>2014-05-01T10:33:48Z</time>
      </trkpt>
      <trkpt lat="45.65668" lon="4.56677">
        <ele>647.4</ele>
        <time>2014-05-01T10:33:53Z</time>
      </trkpt>
      <trkpt lat="45.65703" lon="4.56662">
        <ele>643.1</ele>
        <time>2014-05-01T10:33:58Z</time>
      </trkpt>
      <trkpt lat="45.65737" lon="4.56667">
        <ele>644.5</ele>
        <time>2014-05-01T10:34:03Z</time>
      </trkpt>
      <trkpt lat="45.6576" lon="4.56657">
        <ele>643.2</ele>
        <time>2014-05-01T10:34:08Z</time>
      </trkpt>
      <trkpt lat="45.65773" lon="4.56633">
        <ele>646.7</ele>
        <time>2014-05-01T10:34:13Z</time>
      </trkpt>
      <trkpt lat="45.65792" lon="4.56615">
        <ele>646</ele>
        <time>2014-05-01T10:34:18Z</time>
      </trkpt>
      <trkpt lat="45.65812" lon="4.56592">
        <ele>644.6</ele>
        <time>2014-05-01T10:34:23Z</time>
      </trkpt>
      <trkpt lat="45.65827" lon="4.56562">
        <ele>644.7</ele>
        <time>2014-05-01T10:34:28Z</time>
      </trkpt>
      <trkpt lat="45.6584" lon="4.56528">
        <ele>643.2</ele>
        <time>2014-05-01T10:34:33Z</time>
      </trkpt>
      <trkpt lat="45.65855" lon="4.56497">
        <ele>642.8</ele>
        <time>2014-05-01T10:34:38Z</time>
      </trkpt>
      <trkpt lat="45.65868" lon="4.56465">
        <ele>642.9</ele>
        <time>2014-05-01T10:34:43Z</time>
      </trkpt>
      <trkpt lat="45.65878" lon="4.56438">
        <ele>642.2</ele>
        <time>2014-05-01T10:34:48Z</time>
      </trkpt>
      <trkpt lat="45.65885" lon="4.56417">
        <ele>642.6</ele>
        <time>2014-05-01T10:34:53Z</time>
      </trkpt>
      <trkpt lat="45.65892" lon="4.56395">
        <ele>642.7</ele>
        <time>2014-05-01T10:34:58Z</time>
      </trkpt>
      <trkpt lat="45.65872" lon="4.56383">
        <ele>642.2</ele>
        <time>2014-05-01T10:35:03Z</time>
      </trkpt>
      <trkpt lat="45.65853" lon="4.56363">
        <ele>641.4</ele>
        <time>2014-05-01T10:35:08Z</time>
      </trkpt>
      <trkpt lat="45.65838" lon="4.56335">
        <ele>641.7</ele>
        <time>2014-05-01T10:35:13Z</time>
      </trkpt>
      <trkpt lat="45.65827" lon="4.56295">
        <ele>639.5</ele>
        <time>2014-05-01T10:35:18Z</time>
      </trkpt>
      <trkpt lat="45.65817" lon="4.56242">
        <ele>637.6</ele>
        <time>2014-05-01T10:35:23Z</time>
      </trkpt>
      <trkpt lat="45.65805" lon="4.56178">
        <ele>635.5</ele>
        <time>2014-05-01T10:35:28Z</time>
      </trkpt>
      <trkpt lat="45.65795" lon="4.5611">
        <ele>632.6</ele>
        <time>2014-05-01T10:35:33Z</time>
      </trkpt>
      <trkpt lat="45.65788" lon="4.5603">
        <ele>631.8</ele>
        <time>2014-05-01T10:35:38Z</time>
      </trkpt>
      <trkpt lat="45.65787" lon="4.55943">
        <ele>625.7</ele>
        <time>2014-05-01T10:35:43Z</time>
      </trkpt>
      <trkpt lat="45.65783" lon="4.55863">
        <ele>620</ele>
        <time>2014-05-01T10:35:48Z</time>
      </trkpt>
      <trkpt lat="45.65782" lon="4.55785">
        <ele>617.9</ele>
        <time>2014-05-01T10:35:53Z</time>
      </trkpt>
      <trkpt lat="45.65782" lon="4.55712">
        <ele>615.3</ele>
        <time>2014-05-01T10:35:58Z</time>
      </trkpt>
      <trkpt lat="45.65785" lon="4.55645">
        <ele>613.5</ele>
        <time>2014-05-01T10:36:03Z</time>
      </trkpt>
      <trkpt lat="45.65787" lon="4.55582">
        <ele>610.5</ele>
        <time>2014-05-01T10:36:08Z</time>
      </trkpt>
      <trkpt lat="45.65782" lon="4.55545">
        <ele>606.3</ele>
        <time>2014-05-01T10:36:13Z</time>
      </trkpt>
      <trkpt lat="45.65777" lon="4.55555">
        <ele>605.3</ele>
        <time>2014-05-01T10:36:18Z</time>
      </trkpt>
      <trkpt lat="45.65778" lon="4.55568">
        <ele>605.1</ele>
        <time>2014-05-01T10:36:23Z</time>
      </trkpt>
      <trkpt lat="45.6578" lon="4.55585">
        <ele>606.5</ele>
        <time>2014-05-01T10:36:28Z</time>
      </trkpt>
      <trkpt lat="45.65773" lon="4.55597">
        <ele>607.2</ele>
        <time>2014-05-01T10:36:33Z</time>
      </trkpt>
      <trkpt lat="45.65768" lon="4.5561">
        <ele>607.6</ele>
        <time>2014-05-01T10:36:38Z</time>
      </trkpt>
    </trkseg>
  </trk>
  <rte>
      <rtept lat="45.65782" lon="4.55613">
        <ele>690.2</ele>
      </rtept>
      <rtept lat="45.65768" lon="4.5561">
        <ele>689.6</ele>
      </rtept>
    </rte>
</gpx>